<?xml version="1.0" encoding="UTF-8" standalone="no" ?>
<gpx xmlns="http://www.topografix.com/GPX/1/1" xmlns:xsi="http://www.w3.org/2001/XMLSchema-instance" xsi:schemaLocation="http://www.topografix.com/GPX/1/1 http://www.topografix.com/GPX/1/1/gpx.xsd" version="1.1" creator="VisuGPX - https://www.visugpx.com">
  <metadata>
    <name>RS_Canal_Nantes_à_Brest(nettoyé)</name>
  </metadata>
  <trk>
    <name><![CDATA[RS_Canal_Nantes_à_Brest(nettoyé)]]></name>
    <trkseg>
      <trkpt lat="47.55464" lon="-2.48161">
        <ele>24.36494954154</ele>
        <time>2022-08-10T16:32:36.000Z</time>
      </trkpt>
      <trkpt lat="47.55463" lon="-2.48173">
        <ele>24.45946217905</ele>
        <time>2022-08-10T16:32:36.001Z</time>
      </trkpt>
      <trkpt lat="47.55482" lon="-2.48181">
        <ele>24.72398652183</ele>
        <time>2022-08-10T16:32:36.005Z</time>
      </trkpt>
      <trkpt lat="47.55514" lon="-2.482">
        <ele>25.13595196261</ele>
        <time>2022-08-10T16:32:36.015Z</time>
      </trkpt>
      <trkpt lat="47.55515" lon="-2.48201">
        <ele>25.57599900173</ele>
        <time>2022-08-10T16:32:36.025Z</time>
      </trkpt>
      <trkpt lat="47.55515" lon="-2.48201">
        <ele>26.00373962919</ele>
        <time>2022-08-10T16:32:36.035Z</time>
      </trkpt>
      <trkpt lat="47.55502" lon="-2.48193">
        <ele>26.3547474263</ele>
        <time>2022-08-10T16:32:36.047Z</time>
      </trkpt>
      <trkpt lat="47.55502" lon="-2.48194">
        <ele>26.6767041521</ele>
        <time>2022-08-10T16:32:36.059Z</time>
      </trkpt>
      <trkpt lat="47.55515" lon="-2.48201">
        <ele>25.57599900173</ele>
        <time>2022-08-10T16:32:36.074Z</time>
      </trkpt>
      <trkpt lat="47.55544" lon="-2.4821">
        <ele>27.4868246701</ele>
        <time>2022-08-10T16:32:36.093Z</time>
      </trkpt>
      <trkpt lat="47.55549" lon="-2.48211">
        <ele>27.94561742147</ele>
        <time>2022-08-10T16:32:36.113Z</time>
      </trkpt>
      <trkpt lat="47.55562" lon="-2.48209">
        <ele>28.43589483623</ele>
        <time>2022-08-10T16:32:36.135Z</time>
      </trkpt>
      <trkpt lat="47.55584" lon="-2.48199">
        <ele>28.94018322509</ele>
        <time>2022-08-10T16:32:36.161Z</time>
      </trkpt>
      <trkpt lat="47.55601" lon="-2.48186">
        <ele>29.44072258834</ele>
        <time>2022-08-10T16:32:36.190Z</time>
      </trkpt>
      <trkpt lat="47.55619" lon="-2.4817">
        <ele>29.94232549111</ele>
        <time>2022-08-10T16:32:36.222Z</time>
      </trkpt>
      <trkpt lat="47.5565" lon="-2.4822">
        <ele>30.35029530581</ele>
        <time>2022-08-10T16:32:36.262Z</time>
      </trkpt>
      <trkpt lat="47.55667" lon="-2.48249">
        <ele>30.74354338179</ele>
        <time>2022-08-10T16:32:36.306Z</time>
      </trkpt>
      <trkpt lat="47.55679" lon="-2.48269">
        <ele>31.13159871357</ele>
        <time>2022-08-10T16:32:36.353Z</time>
      </trkpt>
      <trkpt lat="47.55692" lon="-2.48284">
        <ele>31.56468301743</ele>
        <time>2022-08-10T16:32:36.402Z</time>
      </trkpt>
      <trkpt lat="47.55705" lon="-2.48296">
        <ele>32.01893796767</ele>
        <time>2022-08-10T16:32:36.454Z</time>
      </trkpt>
      <trkpt lat="47.55719" lon="-2.48302">
        <ele>32.54210193575</ele>
        <time>2022-08-10T16:32:36.508Z</time>
      </trkpt>
      <trkpt lat="47.55726" lon="-2.48303">
        <ele>33.07616474971</ele>
        <time>2022-08-10T16:32:36.563Z</time>
      </trkpt>
      <trkpt lat="47.5573" lon="-2.48318">
        <ele>33.61276488735</ele>
        <time>2022-08-10T16:32:36.620Z</time>
      </trkpt>
      <trkpt lat="47.55736" lon="-2.4834">
        <ele>34.15295030709</ele>
        <time>2022-08-10T16:32:36.680Z</time>
      </trkpt>
      <trkpt lat="47.55741" lon="-2.4835">
        <ele>34.68664921363</ele>
        <time>2022-08-10T16:32:36.741Z</time>
      </trkpt>
      <trkpt lat="47.55745" lon="-2.48352">
        <ele>35.20692587612</ele>
        <time>2022-08-10T16:32:36.803Z</time>
      </trkpt>
      <trkpt lat="47.55757" lon="-2.4835">
        <ele>35.73322537098</ele>
        <time>2022-08-10T16:32:36.867Z</time>
      </trkpt>
      <trkpt lat="47.55778" lon="-2.48343">
        <ele>36.25907304584</ele>
        <time>2022-08-10T16:32:36.934Z</time>
      </trkpt>
      <trkpt lat="47.55783" lon="-2.48342">
        <ele>36.75266412483</ele>
        <time>2022-08-10T16:32:37.002Z</time>
      </trkpt>
      <trkpt lat="47.55789" lon="-2.48346">
        <ele>37.22489250402</ele>
        <time>2022-08-10T16:32:37.071Z</time>
      </trkpt>
      <trkpt lat="47.55793" lon="-2.48352">
        <ele>37.65283300361</ele>
        <time>2022-08-10T16:32:37.141Z</time>
      </trkpt>
      <trkpt lat="47.55797" lon="-2.48367">
        <ele>38.0146161895</ele>
        <time>2022-08-10T16:32:37.213Z</time>
      </trkpt>
      <trkpt lat="47.55806" lon="-2.48407">
        <ele>38.37016286239</ele>
        <time>2022-08-10T16:32:37.289Z</time>
      </trkpt>
      <trkpt lat="47.55809" lon="-2.48411">
        <ele>38.68477330258</ele>
        <time>2022-08-10T16:32:37.366Z</time>
      </trkpt>
      <trkpt lat="47.55813" lon="-2.48413">
        <ele>38.96718947223</ele>
        <time>2022-08-10T16:32:37.444Z</time>
      </trkpt>
      <trkpt lat="47.55828" lon="-2.48411">
        <ele>39.25456304255</ele>
        <time>2022-08-10T16:32:37.524Z</time>
      </trkpt>
      <trkpt lat="47.55835" lon="-2.48412">
        <ele>39.49418511801</ele>
        <time>2022-08-10T16:32:37.605Z</time>
      </trkpt>
      <trkpt lat="47.55847" lon="-2.48419">
        <ele>39.70687658984</ele>
        <time>2022-08-10T16:32:37.688Z</time>
      </trkpt>
      <trkpt lat="47.5587" lon="-2.48435">
        <ele>39.8912016221</ele>
        <time>2022-08-10T16:32:37.775Z</time>
      </trkpt>
      <trkpt lat="47.55882" lon="-2.48448">
        <ele>39.95933849572</ele>
        <time>2022-08-10T16:32:37.865Z</time>
      </trkpt>
      <trkpt lat="47.55892" lon="-2.48474">
        <ele>39.91668229186</ele>
        <time>2022-08-10T16:32:37.958Z</time>
      </trkpt>
      <trkpt lat="47.559" lon="-2.48507">
        <ele>39.81795930056</ele>
        <time>2022-08-10T16:32:38.055Z</time>
      </trkpt>
      <trkpt lat="47.55911" lon="-2.48544">
        <ele>39.63356420598</ele>
        <time>2022-08-10T16:32:38.156Z</time>
      </trkpt>
      <trkpt lat="47.55917" lon="-2.48554">
        <ele>39.41420662554</ele>
        <time>2022-08-10T16:32:38.258Z</time>
      </trkpt>
      <trkpt lat="47.55923" lon="-2.48559">
        <ele>39.16034836013</ele>
        <time>2022-08-10T16:32:38.362Z</time>
      </trkpt>
      <trkpt lat="47.5593" lon="-2.48562">
        <ele>38.87610958329</ele>
        <time>2022-08-10T16:32:38.467Z</time>
      </trkpt>
      <trkpt lat="47.55938" lon="-2.48562">
        <ele>38.56787021958</ele>
        <time>2022-08-10T16:32:38.573Z</time>
      </trkpt>
      <trkpt lat="47.55943" lon="-2.48561">
        <ele>38.23550547542</ele>
        <time>2022-08-10T16:32:38.680Z</time>
      </trkpt>
      <trkpt lat="47.55998" lon="-2.48553">
        <ele>37.79783119473</ele>
        <time>2022-08-10T16:32:38.796Z</time>
      </trkpt>
      <trkpt lat="47.56013" lon="-2.48553">
        <ele>37.33598141092</ele>
        <time>2022-08-10T16:32:38.914Z</time>
      </trkpt>
      <trkpt lat="47.5602" lon="-2.48556">
        <ele>36.85351198469</ele>
        <time>2022-08-10T16:32:39.033Z</time>
      </trkpt>
      <trkpt lat="47.5605" lon="-2.4857">
        <ele>36.35413653099</ele>
        <time>2022-08-10T16:32:39.157Z</time>
      </trkpt>
      <trkpt lat="47.5609" lon="-2.48591">
        <ele>35.8738846496</ele>
        <time>2022-08-10T16:32:39.288Z</time>
      </trkpt>
      <trkpt lat="47.56108" lon="-2.48593">
        <ele>35.36433554537</ele>
        <time>2022-08-10T16:32:39.422Z</time>
      </trkpt>
      <trkpt lat="47.5613" lon="-2.48589">
        <ele>34.81781099232</ele>
        <time>2022-08-10T16:32:39.559Z</time>
      </trkpt>
      <trkpt lat="47.56169" lon="-2.48578">
        <ele>34.2404003901</ele>
        <time>2022-08-10T16:32:39.703Z</time>
      </trkpt>
      <trkpt lat="47.56206" lon="-2.48577">
        <ele>33.50863735499</ele>
        <time>2022-08-10T16:32:39.853Z</time>
      </trkpt>
      <trkpt lat="47.56307" lon="-2.48585">
        <ele>32.46190751451</ele>
        <time>2022-08-10T16:32:40.019Z</time>
      </trkpt>
      <trkpt lat="47.56327" lon="-2.48587">
        <ele>31.5131597465</ele>
        <time>2022-08-10T16:32:40.188Z</time>
      </trkpt>
      <trkpt lat="47.5633" lon="-2.48588">
        <ele>30.53574645366</ele>
        <time>2022-08-10T16:32:40.358Z</time>
      </trkpt>
      <trkpt lat="47.56342" lon="-2.48591">
        <ele>29.50217871619</ele>
        <time>2022-08-10T16:32:40.530Z</time>
      </trkpt>
      <trkpt lat="47.56261" lon="-2.48583">
        <ele>28.69204481244</ele>
        <time>2022-08-10T16:32:40.715Z</time>
      </trkpt>
      <trkpt lat="47.56261" lon="-2.48582">
        <ele>27.67153087846</ele>
        <time>2022-08-10T16:32:40.900Z</time>
      </trkpt>
      <trkpt lat="47.56327" lon="-2.48587">
        <ele>31.5131597465</ele>
        <time>2022-08-10T16:32:41.095Z</time>
      </trkpt>
      <trkpt lat="47.56352" lon="-2.48596">
        <ele>25.18043808907</ele>
        <time>2022-08-10T16:32:41.294Z</time>
      </trkpt>
      <trkpt lat="47.56453" lon="-2.48652">
        <ele>23.68095123656</ele>
        <time>2022-08-10T16:32:41.511Z</time>
      </trkpt>
      <trkpt lat="47.56532" lon="-2.48692">
        <ele>22.42015932866</ele>
        <time>2022-08-10T16:32:41.741Z</time>
      </trkpt>
      <trkpt lat="47.56573" lon="-2.48712">
        <ele>21.1688560377</ele>
        <time>2022-08-10T16:32:41.978Z</time>
      </trkpt>
      <trkpt lat="47.56589" lon="-2.48723">
        <ele>19.95502886207</ele>
        <time>2022-08-10T16:32:42.218Z</time>
      </trkpt>
      <trkpt lat="47.56636" lon="-2.48759">
        <ele>18.78252504062</ele>
        <time>2022-08-10T16:32:42.466Z</time>
      </trkpt>
      <trkpt lat="47.56654" lon="-2.48769">
        <ele>17.61751139646</ele>
        <time>2022-08-10T16:32:42.717Z</time>
      </trkpt>
      <trkpt lat="47.56672" lon="-2.48777">
        <ele>16.54045487246</ele>
        <time>2022-08-10T16:32:42.971Z</time>
      </trkpt>
      <trkpt lat="47.5669" lon="-2.4878">
        <ele>15.56311214439</ele>
        <time>2022-08-10T16:32:43.228Z</time>
      </trkpt>
      <trkpt lat="47.56725" lon="-2.48777">
        <ele>14.66512505845</ele>
        <time>2022-08-10T16:32:43.491Z</time>
      </trkpt>
      <trkpt lat="47.56739" lon="-2.48777">
        <ele>13.84737982437</ele>
        <time>2022-08-10T16:32:43.756Z</time>
      </trkpt>
      <trkpt lat="47.56752" lon="-2.48779">
        <ele>13.13348773854</ele>
        <time>2022-08-10T16:32:44.023Z</time>
      </trkpt>
      <trkpt lat="47.5676" lon="-2.48783">
        <ele>12.53942130005</ele>
        <time>2022-08-10T16:32:44.292Z</time>
      </trkpt>
      <trkpt lat="47.56783" lon="-2.48802">
        <ele>12.04863399727</ele>
        <time>2022-08-10T16:32:44.565Z</time>
      </trkpt>
      <trkpt lat="47.56802" lon="-2.48824">
        <ele>11.69703953794</ele>
        <time>2022-08-10T16:32:44.842Z</time>
      </trkpt>
      <trkpt lat="47.56862" lon="-2.48893">
        <ele>11.34536664583</ele>
        <time>2022-08-10T16:32:45.131Z</time>
      </trkpt>
      <trkpt lat="47.5689" lon="-2.48925">
        <ele>11.14158388413</ele>
        <time>2022-08-10T16:32:45.425Z</time>
      </trkpt>
      <trkpt lat="47.56903" lon="-2.48936">
        <ele>11.22025093639</ele>
        <time>2022-08-10T16:32:45.722Z</time>
      </trkpt>
      <trkpt lat="47.5692" lon="-2.48944">
        <ele>11.51290851191</ele>
        <time>2022-08-10T16:32:46.022Z</time>
      </trkpt>
      <trkpt lat="47.5694" lon="-2.48947">
        <ele>12.04449700637</ele>
        <time>2022-08-10T16:32:46.325Z</time>
      </trkpt>
      <trkpt lat="47.56961" lon="-2.48947">
        <ele>12.83764508064</ele>
        <time>2022-08-10T16:32:46.631Z</time>
      </trkpt>
      <trkpt lat="47.56987" lon="-2.48944">
        <ele>13.90264764341</ele>
        <time>2022-08-10T16:32:46.941Z</time>
      </trkpt>
      <trkpt lat="47.57002" lon="-2.48938">
        <ele>15.07681422113</ele>
        <time>2022-08-10T16:32:47.254Z</time>
      </trkpt>
      <trkpt lat="47.57014" lon="-2.4893">
        <ele>16.29801586039</ele>
        <time>2022-08-10T16:32:47.569Z</time>
      </trkpt>
      <trkpt lat="47.5705" lon="-2.48889">
        <ele>17.54414826298</ele>
        <time>2022-08-10T16:32:47.891Z</time>
      </trkpt>
      <trkpt lat="47.57063" lon="-2.48877">
        <ele>18.88816266516</ele>
        <time>2022-08-10T16:32:48.216Z</time>
      </trkpt>
      <trkpt lat="47.57076" lon="-2.4887">
        <ele>20.26828763166</ele>
        <time>2022-08-10T16:32:48.543Z</time>
      </trkpt>
      <trkpt lat="47.57087" lon="-2.48868">
        <ele>21.65490847851</ele>
        <time>2022-08-10T16:32:48.872Z</time>
      </trkpt>
      <trkpt lat="47.571" lon="-2.4887">
        <ele>22.98330187403</ele>
        <time>2022-08-10T16:32:49.203Z</time>
      </trkpt>
      <trkpt lat="47.5716" lon="-2.48896">
        <ele>24.34483771929</ele>
        <time>2022-08-10T16:32:49.544Z</time>
      </trkpt>
      <trkpt lat="47.57189" lon="-2.48913">
        <ele>25.6140298843</ele>
        <time>2022-08-10T16:32:49.890Z</time>
      </trkpt>
      <trkpt lat="47.57227" lon="-2.4895">
        <ele>26.87087195135</ele>
        <time>2022-08-10T16:32:50.243Z</time>
      </trkpt>
      <trkpt lat="47.57241" lon="-2.48961">
        <ele>27.82186069561</ele>
        <time>2022-08-10T16:32:50.599Z</time>
      </trkpt>
      <trkpt lat="47.57251" lon="-2.48966">
        <ele>28.59004297644</ele>
        <time>2022-08-10T16:32:50.956Z</time>
      </trkpt>
      <trkpt lat="47.57268" lon="-2.4897">
        <ele>29.17411856017</ele>
        <time>2022-08-10T16:32:51.316Z</time>
      </trkpt>
      <trkpt lat="47.57304" lon="-2.48974">
        <ele>29.49582340291</ele>
        <time>2022-08-10T16:32:51.682Z</time>
      </trkpt>
      <trkpt lat="47.57346" lon="-2.48985">
        <ele>29.59771223753</ele>
        <time>2022-08-10T16:32:52.055Z</time>
      </trkpt>
      <trkpt lat="47.57383" lon="-2.48997">
        <ele>29.41503634097</ele>
        <time>2022-08-10T16:32:52.434Z</time>
      </trkpt>
      <trkpt lat="47.57392" lon="-2.49002">
        <ele>29.06222282889</ele>
        <time>2022-08-10T16:32:52.814Z</time>
      </trkpt>
      <trkpt lat="47.57419" lon="-2.49024">
        <ele>28.51375954362</ele>
        <time>2022-08-10T16:32:53.199Z</time>
      </trkpt>
      <trkpt lat="47.57432" lon="-2.49032">
        <ele>27.79943331964</ele>
        <time>2022-08-10T16:32:53.587Z</time>
      </trkpt>
      <trkpt lat="47.57447" lon="-2.49036">
        <ele>26.90519686132</ele>
        <time>2022-08-10T16:32:53.977Z</time>
      </trkpt>
      <trkpt lat="47.57477" lon="-2.49031">
        <ele>25.79471826807</ele>
        <time>2022-08-10T16:32:54.372Z</time>
      </trkpt>
      <trkpt lat="47.57488" lon="-2.49032">
        <ele>24.63715757198</ele>
        <time>2022-08-10T16:32:54.769Z</time>
      </trkpt>
      <trkpt lat="47.57499" lon="-2.49036">
        <ele>23.38564728326</ele>
        <time>2022-08-10T16:32:55.167Z</time>
      </trkpt>
      <trkpt lat="47.57519" lon="-2.49053">
        <ele>22.06856728361</ele>
        <time>2022-08-10T16:32:55.569Z</time>
      </trkpt>
      <trkpt lat="47.57557" lon="-2.49097">
        <ele>20.67499962521</ele>
        <time>2022-08-10T16:32:55.979Z</time>
      </trkpt>
      <trkpt lat="47.57595" lon="-2.49146">
        <ele>19.32296152853</ele>
        <time>2022-08-10T16:32:56.397Z</time>
      </trkpt>
      <trkpt lat="47.57659" lon="-2.49205">
        <ele>17.95967007841</ele>
        <time>2022-08-10T16:32:56.827Z</time>
      </trkpt>
      <trkpt lat="47.57705" lon="-2.49246">
        <ele>16.89057219112</ele>
        <time>2022-08-10T16:32:57.266Z</time>
      </trkpt>
      <trkpt lat="47.57713" lon="-2.49255">
        <ele>15.98556893883</ele>
        <time>2022-08-10T16:32:57.706Z</time>
      </trkpt>
      <trkpt lat="47.57717" lon="-2.49265">
        <ele>15.25821769661</ele>
        <time>2022-08-10T16:32:58.147Z</time>
      </trkpt>
      <trkpt lat="47.5772" lon="-2.49276">
        <ele>14.7240825312</ele>
        <time>2022-08-10T16:32:58.590Z</time>
      </trkpt>
      <trkpt lat="47.57719" lon="-2.4929">
        <ele>14.41166151536</ele>
        <time>2022-08-10T16:32:59.034Z</time>
      </trkpt>
      <trkpt lat="47.57716" lon="-2.49297">
        <ele>14.2964580838</ele>
        <time>2022-08-10T16:32:59.479Z</time>
      </trkpt>
      <trkpt lat="47.57704" lon="-2.49314">
        <ele>14.37287473502</ele>
        <time>2022-08-10T16:32:59.927Z</time>
      </trkpt>
      <trkpt lat="47.57694" lon="-2.49328">
        <ele>14.6297657449</ele>
        <time>2022-08-10T16:33:00.377Z</time>
      </trkpt>
      <trkpt lat="47.57687" lon="-2.49351">
        <ele>15.08315475557</ele>
        <time>2022-08-10T16:33:00.830Z</time>
      </trkpt>
      <trkpt lat="47.57686" lon="-2.49368">
        <ele>15.69295903025</ele>
        <time>2022-08-10T16:33:01.285Z</time>
      </trkpt>
      <trkpt lat="47.57689" lon="-2.49392">
        <ele>16.433496332</ele>
        <time>2022-08-10T16:33:01.742Z</time>
      </trkpt>
      <trkpt lat="47.57703" lon="-2.49426">
        <ele>17.31798608807</ele>
        <time>2022-08-10T16:33:02.204Z</time>
      </trkpt>
      <trkpt lat="47.57718" lon="-2.49444">
        <ele>18.26216493608</ele>
        <time>2022-08-10T16:33:02.669Z</time>
      </trkpt>
      <trkpt lat="47.57727" lon="-2.49452">
        <ele>19.23435913606</ele>
        <time>2022-08-10T16:33:03.135Z</time>
      </trkpt>
      <trkpt lat="47.57754" lon="-2.49465">
        <ele>20.25388369826</ele>
        <time>2022-08-10T16:33:03.606Z</time>
      </trkpt>
      <trkpt lat="47.57789" lon="-2.49483">
        <ele>21.25501847284</ele>
        <time>2022-08-10T16:33:04.083Z</time>
      </trkpt>
      <trkpt lat="47.57829" lon="-2.49509">
        <ele>22.15900795835</ele>
        <time>2022-08-10T16:33:04.567Z</time>
      </trkpt>
      <trkpt lat="47.57917" lon="-2.49568">
        <ele>23.14718492791</ele>
        <time>2022-08-10T16:33:05.066Z</time>
      </trkpt>
      <trkpt lat="47.57927" lon="-2.49574">
        <ele>23.71860908973</ele>
        <time>2022-08-10T16:33:05.567Z</time>
      </trkpt>
      <trkpt lat="47.57941" lon="-2.49585">
        <ele>24.12811069711</ele>
        <time>2022-08-10T16:33:06.071Z</time>
      </trkpt>
      <trkpt lat="47.57952" lon="-2.49598">
        <ele>24.26452419155</ele>
        <time>2022-08-10T16:33:06.577Z</time>
      </trkpt>
      <trkpt lat="47.57961" lon="-2.49611">
        <ele>24.15226630487</ele>
        <time>2022-08-10T16:33:07.085Z</time>
      </trkpt>
      <trkpt lat="47.57976" lon="-2.49637">
        <ele>23.73273987499</ele>
        <time>2022-08-10T16:33:07.596Z</time>
      </trkpt>
      <trkpt lat="47.57996" lon="-2.49674">
        <ele>23.0767260791</ele>
        <time>2022-08-10T16:33:08.113Z</time>
      </trkpt>
      <trkpt lat="47.58024" lon="-2.49716">
        <ele>22.16108134409</ele>
        <time>2022-08-10T16:33:08.636Z</time>
      </trkpt>
      <trkpt lat="47.58055" lon="-2.49757">
        <ele>21.0673629528</ele>
        <time>2022-08-10T16:33:09.166Z</time>
      </trkpt>
      <trkpt lat="47.58062" lon="-2.49773">
        <ele>19.90512214048</ele>
        <time>2022-08-10T16:33:09.698Z</time>
      </trkpt>
      <trkpt lat="47.5807" lon="-2.49804">
        <ele>18.6069580833</ele>
        <time>2022-08-10T16:33:10.233Z</time>
      </trkpt>
      <trkpt lat="47.58073" lon="-2.49823">
        <ele>17.33027452985</ele>
        <time>2022-08-10T16:33:10.770Z</time>
      </trkpt>
      <trkpt lat="47.58082" lon="-2.49846">
        <ele>16.03676184</ele>
        <time>2022-08-10T16:33:11.310Z</time>
      </trkpt>
      <trkpt lat="47.58092" lon="-2.49859">
        <ele>14.83282163419</ele>
        <time>2022-08-10T16:33:11.852Z</time>
      </trkpt>
      <trkpt lat="47.58107" lon="-2.49867">
        <ele>13.72395681732</ele>
        <time>2022-08-10T16:33:12.397Z</time>
      </trkpt>
      <trkpt lat="47.5814" lon="-2.49868">
        <ele>12.75980444986</ele>
        <time>2022-08-10T16:33:12.947Z</time>
      </trkpt>
      <trkpt lat="47.58185" lon="-2.49861">
        <ele>11.85222887042</ele>
        <time>2022-08-10T16:33:13.505Z</time>
      </trkpt>
      <trkpt lat="47.58222" lon="-2.49855">
        <ele>11.18294677842</ele>
        <time>2022-08-10T16:33:14.068Z</time>
      </trkpt>
      <trkpt lat="47.5824" lon="-2.49855">
        <ele>10.76943447405</ele>
        <time>2022-08-10T16:33:14.634Z</time>
      </trkpt>
      <trkpt lat="47.58254" lon="-2.49859">
        <ele>10.59695219765</ele>
        <time>2022-08-10T16:33:15.203Z</time>
      </trkpt>
      <trkpt lat="47.58263" lon="-2.49864">
        <ele>10.66713873362</ele>
        <time>2022-08-10T16:33:15.773Z</time>
      </trkpt>
      <trkpt lat="47.58273" lon="-2.49874">
        <ele>10.97468224674</ele>
        <time>2022-08-10T16:33:16.345Z</time>
      </trkpt>
      <trkpt lat="47.5828" lon="-2.4989">
        <ele>11.48524015716</ele>
        <time>2022-08-10T16:33:16.919Z</time>
      </trkpt>
      <trkpt lat="47.58285" lon="-2.49909">
        <ele>12.21963031454</ele>
        <time>2022-08-10T16:33:17.495Z</time>
      </trkpt>
      <trkpt lat="47.58285" lon="-2.49949">
        <ele>13.1599219974</ele>
        <time>2022-08-10T16:33:18.076Z</time>
      </trkpt>
      <trkpt lat="47.58283" lon="-2.49975">
        <ele>14.28055087164</ele>
        <time>2022-08-10T16:33:18.660Z</time>
      </trkpt>
      <trkpt lat="47.58276" lon="-2.50016">
        <ele>15.62546472533</ele>
        <time>2022-08-10T16:33:19.248Z</time>
      </trkpt>
      <trkpt lat="47.58263" lon="-2.50058">
        <ele>17.09152244928</ele>
        <time>2022-08-10T16:33:19.841Z</time>
      </trkpt>
      <trkpt lat="47.58259" lon="-2.50084">
        <ele>18.61799935734</ele>
        <time>2022-08-10T16:33:20.437Z</time>
      </trkpt>
      <trkpt lat="47.5826" lon="-2.50103">
        <ele>20.16848067312</ele>
        <time>2022-08-10T16:33:21.035Z</time>
      </trkpt>
      <trkpt lat="47.58267" lon="-2.50124">
        <ele>21.78630434802</ele>
        <time>2022-08-10T16:33:21.636Z</time>
      </trkpt>
      <trkpt lat="47.5828" lon="-2.50146">
        <ele>23.52419727067</ele>
        <time>2022-08-10T16:33:22.240Z</time>
      </trkpt>
      <trkpt lat="47.58294" lon="-2.50165">
        <ele>25.30896946562</ele>
        <time>2022-08-10T16:33:22.847Z</time>
      </trkpt>
      <trkpt lat="47.58323" lon="-2.50194">
        <ele>27.23404642769</ele>
        <time>2022-08-10T16:33:23.459Z</time>
      </trkpt>
      <trkpt lat="47.5834" lon="-2.50204">
        <ele>29.10967724172</ele>
        <time>2022-08-10T16:33:24.074Z</time>
      </trkpt>
      <trkpt lat="47.58355" lon="-2.50205">
        <ele>30.9287600249</ele>
        <time>2022-08-10T16:33:24.692Z</time>
      </trkpt>
      <trkpt lat="47.58364" lon="-2.50204">
        <ele>32.68968787088</ele>
        <time>2022-08-10T16:33:25.311Z</time>
      </trkpt>
      <trkpt lat="47.58399" lon="-2.50186">
        <ele>34.45655546506</ele>
        <time>2022-08-10T16:33:25.936Z</time>
      </trkpt>
      <trkpt lat="47.5854" lon="-2.50111">
        <ele>36.38608046328</ele>
        <time>2022-08-10T16:33:26.585Z</time>
      </trkpt>
      <trkpt lat="47.58557" lon="-2.50102">
        <ele>37.91894617273</ele>
        <time>2022-08-10T16:33:27.237Z</time>
      </trkpt>
      <trkpt lat="47.58581" lon="-2.50093">
        <ele>39.37424988878</ele>
        <time>2022-08-10T16:33:27.893Z</time>
      </trkpt>
      <trkpt lat="47.58592" lon="-2.50091">
        <ele>40.70558629757</ele>
        <time>2022-08-10T16:33:28.551Z</time>
      </trkpt>
      <trkpt lat="47.58604" lon="-2.50093">
        <ele>41.91395506561</ele>
        <time>2022-08-10T16:33:29.211Z</time>
      </trkpt>
      <trkpt lat="47.58624" lon="-2.50103">
        <ele>43.02814945702</ele>
        <time>2022-08-10T16:33:29.874Z</time>
      </trkpt>
      <trkpt lat="47.5869" lon="-2.50154">
        <ele>44.00186888443</ele>
        <time>2022-08-10T16:33:30.549Z</time>
      </trkpt>
      <trkpt lat="47.58723" lon="-2.5018">
        <ele>44.97361323638</ele>
        <time>2022-08-10T16:33:31.230Z</time>
      </trkpt>
      <trkpt lat="47.58737" lon="-2.50191">
        <ele>45.78902672945</ele>
        <time>2022-08-10T16:33:31.914Z</time>
      </trkpt>
      <trkpt lat="47.58773" lon="-2.50207">
        <ele>46.50390047421</ele>
        <time>2022-08-10T16:33:32.604Z</time>
      </trkpt>
      <trkpt lat="47.5881" lon="-2.50224">
        <ele>47.06914208257</ele>
        <time>2022-08-10T16:33:33.300Z</time>
      </trkpt>
      <trkpt lat="47.58861" lon="-2.50244">
        <ele>47.50130677276</ele>
        <time>2022-08-10T16:33:34.004Z</time>
      </trkpt>
      <trkpt lat="47.58877" lon="-2.50248">
        <ele>47.95514899965</ele>
        <time>2022-08-10T16:33:34.711Z</time>
      </trkpt>
      <trkpt lat="47.58894" lon="-2.50248">
        <ele>48.37016089829</ele>
        <time>2022-08-10T16:33:35.421Z</time>
      </trkpt>
      <trkpt lat="47.58903" lon="-2.50246">
        <ele>48.73611506779</ele>
        <time>2022-08-10T16:33:36.132Z</time>
      </trkpt>
      <trkpt lat="47.58916" lon="-2.5024">
        <ele>49.08485599759</ele>
        <time>2022-08-10T16:33:36.845Z</time>
      </trkpt>
      <trkpt lat="47.5896" lon="-2.50211">
        <ele>49.3859781299</ele>
        <time>2022-08-10T16:33:37.566Z</time>
      </trkpt>
      <trkpt lat="47.58982" lon="-2.50201">
        <ele>49.76864567759</ele>
        <time>2022-08-10T16:33:38.291Z</time>
      </trkpt>
      <trkpt lat="47.59035" lon="-2.50189">
        <ele>50.16477143773</ele>
        <time>2022-08-10T16:33:39.024Z</time>
      </trkpt>
      <trkpt lat="47.59105" lon="-2.50172">
        <ele>50.60511923964</ele>
        <time>2022-08-10T16:33:39.769Z</time>
      </trkpt>
      <trkpt lat="47.59166" lon="-2.50155">
        <ele>51.06283673353</ele>
        <time>2022-08-10T16:33:40.523Z</time>
      </trkpt>
      <trkpt lat="47.59204" lon="-2.50141">
        <ele>51.63616096753</ele>
        <time>2022-08-10T16:33:41.284Z</time>
      </trkpt>
      <trkpt lat="47.59263" lon="-2.50119">
        <ele>52.21683223158</ele>
        <time>2022-08-10T16:33:42.054Z</time>
      </trkpt>
      <trkpt lat="47.59293" lon="-2.5011">
        <ele>52.84988020398</ele>
        <time>2022-08-10T16:33:42.829Z</time>
      </trkpt>
      <trkpt lat="47.59381" lon="-2.50085">
        <ele>53.58407709131</ele>
        <time>2022-08-10T16:33:43.619Z</time>
      </trkpt>
      <trkpt lat="47.59398" lon="-2.50078">
        <ele>54.17326383834</ele>
        <time>2022-08-10T16:33:44.412Z</time>
      </trkpt>
      <trkpt lat="47.59431" lon="-2.50061">
        <ele>54.75398131071</ele>
        <time>2022-08-10T16:33:45.210Z</time>
      </trkpt>
      <trkpt lat="47.59494" lon="-2.50018">
        <ele>55.19582133284</ele>
        <time>2022-08-10T16:33:46.019Z</time>
      </trkpt>
      <trkpt lat="47.59523" lon="-2.50007">
        <ele>55.58815936994</ele>
        <time>2022-08-10T16:33:46.833Z</time>
      </trkpt>
      <trkpt lat="47.59572" lon="-2.4999">
        <ele>55.95011870131</ele>
        <time>2022-08-10T16:33:47.655Z</time>
      </trkpt>
      <trkpt lat="47.59604" lon="-2.49986">
        <ele>56.22245882995</ele>
        <time>2022-08-10T16:33:48.482Z</time>
      </trkpt>
      <trkpt lat="47.59617" lon="-2.49988">
        <ele>56.35137126838</ele>
        <time>2022-08-10T16:33:49.311Z</time>
      </trkpt>
      <trkpt lat="47.59642" lon="-2.49998">
        <ele>56.34055545457</ele>
        <time>2022-08-10T16:33:50.144Z</time>
      </trkpt>
      <trkpt lat="47.59658" lon="-2.50003">
        <ele>56.18783707301</ele>
        <time>2022-08-10T16:33:50.980Z</time>
      </trkpt>
      <trkpt lat="47.59672" lon="-2.50003">
        <ele>55.8749934131</ele>
        <time>2022-08-10T16:33:51.818Z</time>
      </trkpt>
      <trkpt lat="47.59687" lon="-2.49995">
        <ele>55.38735665877</ele>
        <time>2022-08-10T16:33:52.659Z</time>
      </trkpt>
      <trkpt lat="47.59693" lon="-2.49987">
        <ele>54.75876450134</ele>
        <time>2022-08-10T16:33:53.501Z</time>
      </trkpt>
      <trkpt lat="47.59698" lon="-2.49971">
        <ele>53.986727407</ele>
        <time>2022-08-10T16:33:54.345Z</time>
      </trkpt>
      <trkpt lat="47.59708" lon="-2.49949">
        <ele>53.03733613338</ele>
        <time>2022-08-10T16:33:55.192Z</time>
      </trkpt>
      <trkpt lat="47.5972" lon="-2.49931">
        <ele>51.9556652663</ele>
        <time>2022-08-10T16:33:56.042Z</time>
      </trkpt>
      <trkpt lat="47.59737" lon="-2.4992">
        <ele>50.78026937949</ele>
        <time>2022-08-10T16:33:56.895Z</time>
      </trkpt>
      <trkpt lat="47.59775" lon="-2.49907">
        <ele>49.50099789899</ele>
        <time>2022-08-10T16:33:57.754Z</time>
      </trkpt>
      <trkpt lat="47.59842" lon="-2.49886">
        <ele>48.11216770068</ele>
        <time>2022-08-10T16:33:58.624Z</time>
      </trkpt>
      <trkpt lat="47.59916" lon="-2.49862">
        <ele>46.79491976752</ele>
        <time>2022-08-10T16:33:59.506Z</time>
      </trkpt>
      <trkpt lat="47.59983" lon="-2.49844">
        <ele>45.60326522762</ele>
        <time>2022-08-10T16:34:00.399Z</time>
      </trkpt>
      <trkpt lat="47.60001" lon="-2.49839">
        <ele>44.42303256178</ele>
        <time>2022-08-10T16:34:01.295Z</time>
      </trkpt>
      <trkpt lat="47.60022" lon="-2.49828">
        <ele>43.28136511709</ele>
        <time>2022-08-10T16:34:02.194Z</time>
      </trkpt>
      <trkpt lat="47.60064" lon="-2.49788">
        <ele>42.18821279775</ele>
        <time>2022-08-10T16:34:03.101Z</time>
      </trkpt>
      <trkpt lat="47.60131" lon="-2.49723">
        <ele>41.2014044577</ele>
        <time>2022-08-10T16:34:04.021Z</time>
      </trkpt>
      <trkpt lat="47.60179" lon="-2.4967">
        <ele>40.31186249189</ele>
        <time>2022-08-10T16:34:04.951Z</time>
      </trkpt>
      <trkpt lat="47.60222" lon="-2.49621">
        <ele>39.55739063546</ele>
        <time>2022-08-10T16:34:05.890Z</time>
      </trkpt>
      <trkpt lat="47.60238" lon="-2.49603">
        <ele>38.88160977797</ele>
        <time>2022-08-10T16:34:06.832Z</time>
      </trkpt>
      <trkpt lat="47.60279" lon="-2.49555">
        <ele>38.35355059455</ele>
        <time>2022-08-10T16:34:07.782Z</time>
      </trkpt>
      <trkpt lat="47.60336" lon="-2.49476">
        <ele>37.94564703774</ele>
        <time>2022-08-10T16:34:08.745Z</time>
      </trkpt>
      <trkpt lat="47.60412" lon="-2.49362">
        <ele>37.60040489687</ele>
        <time>2022-08-10T16:34:09.725Z</time>
      </trkpt>
      <trkpt lat="47.60435" lon="-2.49332">
        <ele>37.15008589819</ele>
        <time>2022-08-10T16:34:10.710Z</time>
      </trkpt>
      <trkpt lat="47.60451" lon="-2.49319">
        <ele>36.82287512827</ele>
        <time>2022-08-10T16:34:11.698Z</time>
      </trkpt>
      <trkpt lat="47.60487" lon="-2.49298">
        <ele>36.57815242285</ele>
        <time>2022-08-10T16:34:12.692Z</time>
      </trkpt>
      <trkpt lat="47.60521" lon="-2.49284">
        <ele>36.39995278385</ele>
        <time>2022-08-10T16:34:13.692Z</time>
      </trkpt>
      <trkpt lat="47.60562" lon="-2.49258">
        <ele>36.29705671503</ele>
        <time>2022-08-10T16:34:14.699Z</time>
      </trkpt>
      <trkpt lat="47.60589" lon="-2.49249">
        <ele>36.35429525823</ele>
        <time>2022-08-10T16:34:15.710Z</time>
      </trkpt>
      <trkpt lat="47.60622" lon="-2.49245">
        <ele>36.48625442317</ele>
        <time>2022-08-10T16:34:16.727Z</time>
      </trkpt>
      <trkpt lat="47.60643" lon="-2.4924">
        <ele>36.75175069769</ele>
        <time>2022-08-10T16:34:17.747Z</time>
      </trkpt>
      <trkpt lat="47.60665" lon="-2.49238">
        <ele>37.15457573218</ele>
        <time>2022-08-10T16:34:18.770Z</time>
      </trkpt>
      <trkpt lat="47.60688" lon="-2.49238">
        <ele>37.67405006355</ele>
        <time>2022-08-10T16:34:19.797Z</time>
      </trkpt>
      <trkpt lat="47.60714" lon="-2.49243">
        <ele>38.31596047662</ele>
        <time>2022-08-10T16:34:20.828Z</time>
      </trkpt>
      <trkpt lat="47.60739" lon="-2.49241">
        <ele>39.10845373345</ele>
        <time>2022-08-10T16:34:21.863Z</time>
      </trkpt>
      <trkpt lat="47.60768" lon="-2.4923">
        <ele>40.01692453769</ele>
        <time>2022-08-10T16:34:22.903Z</time>
      </trkpt>
      <trkpt lat="47.6084" lon="-2.49192">
        <ele>41.10029841547</ele>
        <time>2022-08-10T16:34:23.955Z</time>
      </trkpt>
      <trkpt lat="47.60866" lon="-2.49177">
        <ele>42.19336942472</ele>
        <time>2022-08-10T16:34:25.012Z</time>
      </trkpt>
      <trkpt lat="47.60881" lon="-2.49165">
        <ele>43.41053842098</ele>
        <time>2022-08-10T16:34:26.072Z</time>
      </trkpt>
      <trkpt lat="47.60913" lon="-2.49133">
        <ele>44.7638712332</ele>
        <time>2022-08-10T16:34:27.138Z</time>
      </trkpt>
      <trkpt lat="47.60941" lon="-2.491">
        <ele>46.08527074513</ele>
        <time>2022-08-10T16:34:28.209Z</time>
      </trkpt>
      <trkpt lat="47.61007" lon="-2.49022">
        <ele>47.48754727562</ele>
        <time>2022-08-10T16:34:29.294Z</time>
      </trkpt>
      <trkpt lat="47.61015" lon="-2.49007">
        <ele>48.84945760234</ele>
        <time>2022-08-10T16:34:30.381Z</time>
      </trkpt>
      <trkpt lat="47.61017" lon="-2.48995">
        <ele>50.19933800394</ele>
        <time>2022-08-10T16:34:31.469Z</time>
      </trkpt>
      <trkpt lat="47.61018" lon="-2.4898">
        <ele>51.53818738965</ele>
        <time>2022-08-10T16:34:32.559Z</time>
      </trkpt>
      <trkpt lat="47.61009" lon="-2.4889">
        <ele>52.9315493855</ele>
        <time>2022-08-10T16:34:33.659Z</time>
      </trkpt>
      <trkpt lat="47.61012" lon="-2.48859">
        <ele>54.18659511165</ele>
        <time>2022-08-10T16:34:34.762Z</time>
      </trkpt>
      <trkpt lat="47.61025" lon="-2.48853">
        <ele>55.39805205224</ele>
        <time>2022-08-10T16:34:35.867Z</time>
      </trkpt>
      <trkpt lat="47.61052" lon="-2.48837">
        <ele>56.5657294829</ele>
        <time>2022-08-10T16:34:36.977Z</time>
      </trkpt>
      <trkpt lat="47.61072" lon="-2.48818">
        <ele>57.67329345998</ele>
        <time>2022-08-10T16:34:38.091Z</time>
      </trkpt>
      <trkpt lat="47.61122" lon="-2.4876">
        <ele>58.72539974548</ele>
        <time>2022-08-10T16:34:39.215Z</time>
      </trkpt>
      <trkpt lat="47.6115" lon="-2.48727">
        <ele>59.72641115079</ele>
        <time>2022-08-10T16:34:40.345Z</time>
      </trkpt>
      <trkpt lat="47.61163" lon="-2.48713">
        <ele>60.63377276299</ele>
        <time>2022-08-10T16:34:41.477Z</time>
      </trkpt>
      <trkpt lat="47.61189" lon="-2.48693">
        <ele>61.496558019</ele>
        <time>2022-08-10T16:34:42.614Z</time>
      </trkpt>
      <trkpt lat="47.61214" lon="-2.48675">
        <ele>62.19895188571</ele>
        <time>2022-08-10T16:34:43.756Z</time>
      </trkpt>
      <trkpt lat="47.61295" lon="-2.48622">
        <ele>62.77522801923</ele>
        <time>2022-08-10T16:34:44.912Z</time>
      </trkpt>
      <trkpt lat="47.61363" lon="-2.48574">
        <ele>63.26071723234</ele>
        <time>2022-08-10T16:34:46.080Z</time>
      </trkpt>
      <trkpt lat="47.61387" lon="-2.48552">
        <ele>63.69170768114</ele>
        <time>2022-08-10T16:34:47.252Z</time>
      </trkpt>
      <trkpt lat="47.6146" lon="-2.48464">
        <ele>64.05484801834</ele>
        <time>2022-08-10T16:34:48.439Z</time>
      </trkpt>
      <trkpt lat="47.615" lon="-2.48418">
        <ele>64.35964423385</ele>
        <time>2022-08-10T16:34:49.635Z</time>
      </trkpt>
      <trkpt lat="47.61517" lon="-2.48404">
        <ele>64.61623161984</ele>
        <time>2022-08-10T16:34:50.834Z</time>
      </trkpt>
      <trkpt lat="47.61534" lon="-2.48395">
        <ele>64.83094622602</ele>
        <time>2022-08-10T16:34:52.036Z</time>
      </trkpt>
      <trkpt lat="47.61554" lon="-2.48386">
        <ele>64.99869960516</ele>
        <time>2022-08-10T16:34:53.241Z</time>
      </trkpt>
      <trkpt lat="47.61624" lon="-2.48362">
        <ele>65.21259258888</ele>
        <time>2022-08-10T16:34:54.457Z</time>
      </trkpt>
      <trkpt lat="47.61663" lon="-2.48349">
        <ele>65.41643462632</ele>
        <time>2022-08-10T16:34:55.680Z</time>
      </trkpt>
      <trkpt lat="47.61698" lon="-2.48342">
        <ele>65.5991532233</ele>
        <time>2022-08-10T16:34:56.908Z</time>
      </trkpt>
      <trkpt lat="47.61734" lon="-2.48337">
        <ele>65.77485904494</ele>
        <time>2022-08-10T16:34:58.142Z</time>
      </trkpt>
      <trkpt lat="47.61752" lon="-2.48332">
        <ele>65.97216987958</ele>
        <time>2022-08-10T16:34:59.379Z</time>
      </trkpt>
      <trkpt lat="47.61775" lon="-2.4832">
        <ele>66.19035437609</ele>
        <time>2022-08-10T16:35:00.620Z</time>
      </trkpt>
      <trkpt lat="47.61817" lon="-2.48289">
        <ele>66.40478028756</ele>
        <time>2022-08-10T16:35:01.869Z</time>
      </trkpt>
      <trkpt lat="47.61855" lon="-2.48263">
        <ele>66.64011479071</ele>
        <time>2022-08-10T16:35:03.124Z</time>
      </trkpt>
      <trkpt lat="47.61909" lon="-2.48234">
        <ele>66.89285658223</ele>
        <time>2022-08-10T16:35:04.388Z</time>
      </trkpt>
      <trkpt lat="47.61959" lon="-2.4821">
        <ele>67.14754285079</ele>
        <time>2022-08-10T16:35:05.661Z</time>
      </trkpt>
      <trkpt lat="47.62007" lon="-2.48176">
        <ele>67.53624917786</ele>
        <time>2022-08-10T16:35:06.942Z</time>
      </trkpt>
      <trkpt lat="47.62032" lon="-2.48154">
        <ele>67.93340315546</ele>
        <time>2022-08-10T16:35:08.228Z</time>
      </trkpt>
      <trkpt lat="47.62088" lon="-2.48103">
        <ele>68.38903292847</ele>
        <time>2022-08-10T16:35:09.525Z</time>
      </trkpt>
      <trkpt lat="47.62203" lon="-2.47985">
        <ele>68.67284293542</ele>
        <time>2022-08-10T16:35:10.844Z</time>
      </trkpt>
      <trkpt lat="47.62338" lon="-2.47851">
        <ele>69.23919967641</ele>
        <time>2022-08-10T16:35:12.189Z</time>
      </trkpt>
      <trkpt lat="47.62433" lon="-2.47756">
        <ele>69.88645869675</ele>
        <time>2022-08-10T16:35:13.552Z</time>
      </trkpt>
      <trkpt lat="47.62455" lon="-2.47731">
        <ele>70.45402091461</ele>
        <time>2022-08-10T16:35:14.920Z</time>
      </trkpt>
      <trkpt lat="47.62507" lon="-2.47661">
        <ele>70.95960165401</ele>
        <time>2022-08-10T16:35:16.299Z</time>
      </trkpt>
      <trkpt lat="47.62564" lon="-2.47566">
        <ele>71.6803363991</ele>
        <time>2022-08-10T16:35:17.692Z</time>
      </trkpt>
      <trkpt lat="47.62708" lon="-2.47314">
        <ele>72.40081254701</ele>
        <time>2022-08-10T16:35:19.121Z</time>
      </trkpt>
      <trkpt lat="47.6276" lon="-2.47224">
        <ele>73.15538276325</ele>
        <time>2022-08-10T16:35:20.562Z</time>
      </trkpt>
      <trkpt lat="47.6278" lon="-2.47204">
        <ele>73.81713806122</ele>
        <time>2022-08-10T16:35:22.007Z</time>
      </trkpt>
      <trkpt lat="47.6281" lon="-2.47181">
        <ele>74.38055404881</ele>
        <time>2022-08-10T16:35:23.458Z</time>
      </trkpt>
      <trkpt lat="47.62915" lon="-2.47116">
        <ele>75.02572263824</ele>
        <time>2022-08-10T16:35:24.927Z</time>
      </trkpt>
      <trkpt lat="47.63009" lon="-2.47059">
        <ele>75.57292987112</ele>
        <time>2022-08-10T16:35:26.412Z</time>
      </trkpt>
      <trkpt lat="47.63046" lon="-2.47042">
        <ele>76.18225281179</ele>
        <time>2022-08-10T16:35:27.903Z</time>
      </trkpt>
      <trkpt lat="47.63061" lon="-2.47036">
        <ele>76.71936121801</ele>
        <time>2022-08-10T16:35:29.397Z</time>
      </trkpt>
      <trkpt lat="47.63156" lon="-2.47015">
        <ele>77.31232940848</ele>
        <time>2022-08-10T16:35:30.906Z</time>
      </trkpt>
      <trkpt lat="47.63276" lon="-2.46989">
        <ele>77.76660211077</ele>
        <time>2022-08-10T16:35:32.435Z</time>
      </trkpt>
      <trkpt lat="47.63342" lon="-2.46977">
        <ele>78.19494496485</ele>
        <time>2022-08-10T16:35:33.974Z</time>
      </trkpt>
      <trkpt lat="47.63423" lon="-2.46958">
        <ele>78.5725915883</ele>
        <time>2022-08-10T16:35:35.526Z</time>
      </trkpt>
      <trkpt lat="47.63467" lon="-2.46945">
        <ele>78.91452451174</ele>
        <time>2022-08-10T16:35:37.086Z</time>
      </trkpt>
      <trkpt lat="47.63549" lon="-2.46906">
        <ele>79.24895678559</ele>
        <time>2022-08-10T16:35:38.659Z</time>
      </trkpt>
      <trkpt lat="47.63567" lon="-2.46891">
        <ele>79.57089827268</ele>
        <time>2022-08-10T16:35:40.236Z</time>
      </trkpt>
      <trkpt lat="47.6358" lon="-2.46878">
        <ele>79.85509048312</ele>
        <time>2022-08-10T16:35:41.815Z</time>
      </trkpt>
      <trkpt lat="47.63638" lon="-2.46906">
        <ele>80.08531987057</ele>
        <time>2022-08-10T16:35:43.404Z</time>
      </trkpt>
      <trkpt lat="47.63697" lon="-2.46931">
        <ele>80.31814311894</ele>
        <time>2022-08-10T16:35:45.003Z</time>
      </trkpt>
      <trkpt lat="47.63782" lon="-2.46964">
        <ele>80.56140913827</ele>
        <time>2022-08-10T16:35:46.616Z</time>
      </trkpt>
      <trkpt lat="47.63871" lon="-2.46998">
        <ele>80.70405755458</ele>
        <time>2022-08-10T16:35:48.244Z</time>
      </trkpt>
      <trkpt lat="47.63973" lon="-2.47037">
        <ele>81.0721352392</ele>
        <time>2022-08-10T16:35:49.888Z</time>
      </trkpt>
      <trkpt lat="47.6401" lon="-2.47049">
        <ele>81.39254660333</ele>
        <time>2022-08-10T16:35:51.538Z</time>
      </trkpt>
      <trkpt lat="47.64061" lon="-2.47058">
        <ele>81.80378643052</ele>
        <time>2022-08-10T16:35:53.197Z</time>
      </trkpt>
      <trkpt lat="47.64154" lon="-2.4707">
        <ele>82.27781577396</ele>
        <time>2022-08-10T16:35:54.871Z</time>
      </trkpt>
      <trkpt lat="47.64221" lon="-2.47082">
        <ele>82.70236367444</ele>
        <time>2022-08-10T16:35:56.555Z</time>
      </trkpt>
      <trkpt lat="47.64262" lon="-2.471">
        <ele>83.08510184802</ele>
        <time>2022-08-10T16:35:58.246Z</time>
      </trkpt>
      <trkpt lat="47.64345" lon="-2.47145">
        <ele>83.43938898855</ele>
        <time>2022-08-10T16:35:59.951Z</time>
      </trkpt>
      <trkpt lat="47.64377" lon="-2.47161">
        <ele>83.67088558698</ele>
        <time>2022-08-10T16:36:01.662Z</time>
      </trkpt>
      <trkpt lat="47.64433" lon="-2.47185">
        <ele>83.83396277341</ele>
        <time>2022-08-10T16:36:03.382Z</time>
      </trkpt>
      <trkpt lat="47.64439" lon="-2.47187">
        <ele>83.99303865828</ele>
        <time>2022-08-10T16:36:05.103Z</time>
      </trkpt>
      <trkpt lat="47.64497" lon="-2.47206">
        <ele>84.16634065523</ele>
        <time>2022-08-10T16:36:06.834Z</time>
      </trkpt>
      <trkpt lat="47.64517" lon="-2.4721">
        <ele>84.25309649257</ele>
        <time>2022-08-10T16:36:08.568Z</time>
      </trkpt>
      <trkpt lat="47.64526" lon="-2.47212">
        <ele>84.30210547341</ele>
        <time>2022-08-10T16:36:10.303Z</time>
      </trkpt>
      <trkpt lat="47.63999" lon="-2.47026">
        <ele>83.91188201809</ele>
        <time>2022-08-10T16:36:12.125Z</time>
      </trkpt>
      <trkpt lat="47.63997" lon="-2.47045">
        <ele>84.00149130967</ele>
        <time>2022-08-10T16:36:13.949Z</time>
      </trkpt>
      <trkpt lat="47.6401" lon="-2.47049">
        <ele>81.39254660333</ele>
        <time>2022-08-10T16:36:15.775Z</time>
      </trkpt>
      <trkpt lat="47.64061" lon="-2.47058">
        <ele>81.80378643052</ele>
        <time>2022-08-10T16:36:17.610Z</time>
      </trkpt>
      <trkpt lat="47.64154" lon="-2.4707">
        <ele>82.27781577396</ele>
        <time>2022-08-10T16:36:19.459Z</time>
      </trkpt>
      <trkpt lat="47.64221" lon="-2.47082">
        <ele>82.70236367444</ele>
        <time>2022-08-10T16:36:21.319Z</time>
      </trkpt>
      <trkpt lat="47.64262" lon="-2.471">
        <ele>83.08510184802</ele>
        <time>2022-08-10T16:36:23.186Z</time>
      </trkpt>
      <trkpt lat="47.64345" lon="-2.47145">
        <ele>83.43938898855</ele>
        <time>2022-08-10T16:36:25.067Z</time>
      </trkpt>
      <trkpt lat="47.64377" lon="-2.47161">
        <ele>83.67088558698</ele>
        <time>2022-08-10T16:36:26.954Z</time>
      </trkpt>
      <trkpt lat="47.64439" lon="-2.47187">
        <ele>83.99303865828</ele>
        <time>2022-08-10T16:36:28.851Z</time>
      </trkpt>
      <trkpt lat="47.64497" lon="-2.47206">
        <ele>84.16634065523</ele>
        <time>2022-08-10T16:36:30.757Z</time>
      </trkpt>
      <trkpt lat="47.64517" lon="-2.4721">
        <ele>84.25309649257</ele>
        <time>2022-08-10T16:36:32.667Z</time>
      </trkpt>
      <trkpt lat="47.64569" lon="-2.47215">
        <ele>87.45258702647</ele>
        <time>2022-08-10T16:36:34.585Z</time>
      </trkpt>
      <trkpt lat="47.64806" lon="-2.47221">
        <ele>87.8053166368</ele>
        <time>2022-08-10T16:36:36.541Z</time>
      </trkpt>
      <trkpt lat="47.64901" lon="-2.47222">
        <ele>88.07660299003</ele>
        <time>2022-08-10T16:36:38.512Z</time>
      </trkpt>
      <trkpt lat="47.64908" lon="-2.4722">
        <ele>88.37799942147</ele>
        <time>2022-08-10T16:36:40.484Z</time>
      </trkpt>
      <trkpt lat="47.64926" lon="-2.47214">
        <ele>88.6712453218</ele>
        <time>2022-08-10T16:36:42.459Z</time>
      </trkpt>
      <trkpt lat="47.64941" lon="-2.47204">
        <ele>88.96073793717</ele>
        <time>2022-08-10T16:36:44.437Z</time>
      </trkpt>
      <trkpt lat="47.64997" lon="-2.47154">
        <ele>89.27224947006</ele>
        <time>2022-08-10T16:36:46.425Z</time>
      </trkpt>
      <trkpt lat="47.65033" lon="-2.47122">
        <ele>89.54439392171</ele>
        <time>2022-08-10T16:36:48.420Z</time>
      </trkpt>
      <trkpt lat="47.65058" lon="-2.47099">
        <ele>89.85549357537</ele>
        <time>2022-08-10T16:36:50.420Z</time>
      </trkpt>
      <trkpt lat="47.65109" lon="-2.47056">
        <ele>90.05950333452</ele>
        <time>2022-08-10T16:36:52.429Z</time>
      </trkpt>
      <trkpt lat="47.65155" lon="-2.47027">
        <ele>90.24932301623</ele>
        <time>2022-08-10T16:36:54.446Z</time>
      </trkpt>
      <trkpt lat="47.65174" lon="-2.47018">
        <ele>90.47911266728</ele>
        <time>2022-08-10T16:36:56.466Z</time>
      </trkpt>
      <trkpt lat="47.65241" lon="-2.46997">
        <ele>90.59943310101</ele>
        <time>2022-08-10T16:36:58.497Z</time>
      </trkpt>
      <trkpt lat="47.65294" lon="-2.46982">
        <ele>90.75041630238</ele>
        <time>2022-08-10T16:37:00.537Z</time>
      </trkpt>
      <trkpt lat="47.65329" lon="-2.46974">
        <ele>90.95084274226</ele>
        <time>2022-08-10T16:37:02.583Z</time>
      </trkpt>
      <trkpt lat="47.65382" lon="-2.46958">
        <ele>91.24772343612</ele>
        <time>2022-08-10T16:37:04.637Z</time>
      </trkpt>
      <trkpt lat="47.65411" lon="-2.46946">
        <ele>91.4781580237</ele>
        <time>2022-08-10T16:37:06.696Z</time>
      </trkpt>
      <trkpt lat="47.65433" lon="-2.46932">
        <ele>91.6076411223</ele>
        <time>2022-08-10T16:37:08.759Z</time>
      </trkpt>
      <trkpt lat="47.65539" lon="-2.4684">
        <ele>91.58627905923</ele>
        <time>2022-08-10T16:37:10.842Z</time>
      </trkpt>
      <trkpt lat="47.65607" lon="-2.46782">
        <ele>91.61613421079</ele>
        <time>2022-08-10T16:37:12.937Z</time>
      </trkpt>
      <trkpt lat="47.65712" lon="-2.46686">
        <ele>91.50924095733</ele>
        <time>2022-08-10T16:37:15.052Z</time>
      </trkpt>
      <trkpt lat="47.65744" lon="-2.46644">
        <ele>91.16326861167</ele>
        <time>2022-08-10T16:37:17.174Z</time>
      </trkpt>
      <trkpt lat="47.65789" lon="-2.46576">
        <ele>90.78569085939</ele>
        <time>2022-08-10T16:37:19.306Z</time>
      </trkpt>
      <trkpt lat="47.65876" lon="-2.4644">
        <ele>90.32206733743</ele>
        <time>2022-08-10T16:37:21.458Z</time>
      </trkpt>
      <trkpt lat="47.65889" lon="-2.46418">
        <ele>89.7520098847</ele>
        <time>2022-08-10T16:37:23.614Z</time>
      </trkpt>
      <trkpt lat="47.65915" lon="-2.46386">
        <ele>89.08306644756</ele>
        <time>2022-08-10T16:37:25.775Z</time>
      </trkpt>
      <trkpt lat="47.65935" lon="-2.46364">
        <ele>88.34141728887</ele>
        <time>2022-08-10T16:37:27.940Z</time>
      </trkpt>
      <trkpt lat="47.65945" lon="-2.46361">
        <ele>87.63976418909</ele>
        <time>2022-08-10T16:37:30.107Z</time>
      </trkpt>
      <trkpt lat="47.65953" lon="-2.46364">
        <ele>86.93835744113</ele>
        <time>2022-08-10T16:37:32.275Z</time>
      </trkpt>
      <trkpt lat="47.65962" lon="-2.46374">
        <ele>86.24789799084</ele>
        <time>2022-08-10T16:37:34.445Z</time>
      </trkpt>
      <trkpt lat="47.65996" lon="-2.46437">
        <ele>85.56470305634</ele>
        <time>2022-08-10T16:37:36.623Z</time>
      </trkpt>
      <trkpt lat="47.66029" lon="-2.46505">
        <ele>84.89050336635</ele>
        <time>2022-08-10T16:37:38.811Z</time>
      </trkpt>
      <trkpt lat="47.66045" lon="-2.46545">
        <ele>84.39368677023</ele>
        <time>2022-08-10T16:37:41.004Z</time>
      </trkpt>
      <trkpt lat="47.66054" lon="-2.46555">
        <ele>83.89367069098</ele>
        <time>2022-08-10T16:37:43.198Z</time>
      </trkpt>
      <trkpt lat="47.6606" lon="-2.46557">
        <ele>83.46672207278</ele>
        <time>2022-08-10T16:37:45.393Z</time>
      </trkpt>
      <trkpt lat="47.66066" lon="-2.46556">
        <ele>83.13530224508</ele>
        <time>2022-08-10T16:37:47.589Z</time>
      </trkpt>
      <trkpt lat="47.66074" lon="-2.46552">
        <ele>82.88110821416</ele>
        <time>2022-08-10T16:37:49.787Z</time>
      </trkpt>
      <trkpt lat="47.66079" lon="-2.46552">
        <ele>82.73402379607</ele>
        <time>2022-08-10T16:37:51.985Z</time>
      </trkpt>
      <trkpt lat="47.6608" lon="-2.46563">
        <ele>82.72177650393</ele>
        <time>2022-08-10T16:37:54.185Z</time>
      </trkpt>
      <trkpt lat="47.66088" lon="-2.46598">
        <ele>82.87001289033</ele>
        <time>2022-08-10T16:37:56.389Z</time>
      </trkpt>
      <trkpt lat="47.66094" lon="-2.46615">
        <ele>83.03348000286</ele>
        <time>2022-08-10T16:37:58.595Z</time>
      </trkpt>
      <trkpt lat="47.66108" lon="-2.46646">
        <ele>83.2256088543</ele>
        <time>2022-08-10T16:38:00.805Z</time>
      </trkpt>
      <trkpt lat="47.66109" lon="-2.46652">
        <ele>83.47705411764</ele>
        <time>2022-08-10T16:38:03.015Z</time>
      </trkpt>
      <trkpt lat="47.66126" lon="-2.46667">
        <ele>83.68962031788</ele>
        <time>2022-08-10T16:38:05.229Z</time>
      </trkpt>
      <trkpt lat="47.66153" lon="-2.46695">
        <ele>83.97328057468</ele>
        <time>2022-08-10T16:38:07.448Z</time>
      </trkpt>
      <trkpt lat="47.66167" lon="-2.46713">
        <ele>84.37406149825</ele>
        <time>2022-08-10T16:38:09.670Z</time>
      </trkpt>
      <trkpt lat="47.66179" lon="-2.46733">
        <ele>84.88699260784</ele>
        <time>2022-08-10T16:38:11.895Z</time>
      </trkpt>
      <trkpt lat="47.66188" lon="-2.46755">
        <ele>85.44836730228</ele>
        <time>2022-08-10T16:38:14.123Z</time>
      </trkpt>
      <trkpt lat="47.66197" lon="-2.46779">
        <ele>86.03339561914</ele>
        <time>2022-08-10T16:38:16.354Z</time>
      </trkpt>
      <trkpt lat="47.66213" lon="-2.46834">
        <ele>86.53508171492</ele>
        <time>2022-08-10T16:38:18.591Z</time>
      </trkpt>
      <trkpt lat="47.66219" lon="-2.46867">
        <ele>87.05460206717</ele>
        <time>2022-08-10T16:38:20.832Z</time>
      </trkpt>
      <trkpt lat="47.66224" lon="-2.46931">
        <ele>87.60418166224</ele>
        <time>2022-08-10T16:38:23.080Z</time>
      </trkpt>
      <trkpt lat="47.6623" lon="-2.47015">
        <ele>88.18058466493</ele>
        <time>2022-08-10T16:38:25.337Z</time>
      </trkpt>
      <trkpt lat="47.66231" lon="-2.47037">
        <ele>88.70326443897</ele>
        <time>2022-08-10T16:38:27.596Z</time>
      </trkpt>
      <trkpt lat="47.66226" lon="-2.4708">
        <ele>89.2293223589</ele>
        <time>2022-08-10T16:38:29.860Z</time>
      </trkpt>
      <trkpt lat="47.6621" lon="-2.47143">
        <ele>89.68066412651</ele>
        <time>2022-08-10T16:38:32.131Z</time>
      </trkpt>
      <trkpt lat="47.66206" lon="-2.47171">
        <ele>90.169014989</ele>
        <time>2022-08-10T16:38:34.405Z</time>
      </trkpt>
      <trkpt lat="47.66206" lon="-2.47176">
        <ele>90.65163856195</ele>
        <time>2022-08-10T16:38:36.680Z</time>
      </trkpt>
      <trkpt lat="47.66206" lon="-2.47177">
        <ele>91.12695546735</ele>
        <time>2022-08-10T16:38:38.955Z</time>
      </trkpt>
      <trkpt lat="47.66207" lon="-2.4718">
        <ele>91.60706801277</ele>
        <time>2022-08-10T16:38:41.230Z</time>
      </trkpt>
      <trkpt lat="47.66207" lon="-2.47183">
        <ele>92.09353131832</ele>
        <time>2022-08-10T16:38:43.506Z</time>
      </trkpt>
      <trkpt lat="47.66205" lon="-2.47188">
        <ele>92.59299575547</ele>
        <time>2022-08-10T16:38:45.782Z</time>
      </trkpt>
      <trkpt lat="47.66206" lon="-2.4721">
        <ele>93.12884482265</ele>
        <time>2022-08-10T16:38:48.061Z</time>
      </trkpt>
      <trkpt lat="47.66219" lon="-2.47314">
        <ele>93.70362336017</ele>
        <time>2022-08-10T16:38:50.351Z</time>
      </trkpt>
      <trkpt lat="47.66242" lon="-2.47425">
        <ele>94.20979574813</ele>
        <time>2022-08-10T16:38:52.654Z</time>
      </trkpt>
      <trkpt lat="47.66249" lon="-2.47473">
        <ele>94.8255908878</ele>
        <time>2022-08-10T16:38:54.962Z</time>
      </trkpt>
      <trkpt lat="47.66258" lon="-2.47516">
        <ele>95.46420811427</ele>
        <time>2022-08-10T16:38:57.275Z</time>
      </trkpt>
      <trkpt lat="47.66275" lon="-2.47552">
        <ele>96.11623712109</ele>
        <time>2022-08-10T16:38:59.593Z</time>
      </trkpt>
      <trkpt lat="47.66301" lon="-2.47599">
        <ele>96.72005296708</ele>
        <time>2022-08-10T16:39:01.917Z</time>
      </trkpt>
      <trkpt lat="47.66317" lon="-2.4763">
        <ele>97.32727357335</ele>
        <time>2022-08-10T16:39:04.245Z</time>
      </trkpt>
      <trkpt lat="47.66332" lon="-2.47661">
        <ele>97.98921970691</ele>
        <time>2022-08-10T16:39:06.577Z</time>
      </trkpt>
      <trkpt lat="47.6634" lon="-2.47688">
        <ele>98.65570135178</ele>
        <time>2022-08-10T16:39:08.913Z</time>
      </trkpt>
      <trkpt lat="47.66346" lon="-2.4771">
        <ele>99.33051524406</ele>
        <time>2022-08-10T16:39:11.251Z</time>
      </trkpt>
      <trkpt lat="47.66353" lon="-2.47741">
        <ele>100.01137307127</ele>
        <time>2022-08-10T16:39:13.593Z</time>
      </trkpt>
      <trkpt lat="47.66368" lon="-2.47816">
        <ele>100.73479681905</ele>
        <time>2022-08-10T16:39:15.943Z</time>
      </trkpt>
      <trkpt lat="47.66377" lon="-2.47851">
        <ele>101.48117016541</ele>
        <time>2022-08-10T16:39:18.297Z</time>
      </trkpt>
      <trkpt lat="47.66499" lon="-2.48315">
        <ele>102.36076272821</ele>
        <time>2022-08-10T16:39:20.705Z</time>
      </trkpt>
      <trkpt lat="47.66539" lon="-2.48466">
        <ele>103.05046335539</ele>
        <time>2022-08-10T16:39:23.131Z</time>
      </trkpt>
      <trkpt lat="47.66567" lon="-2.48564">
        <ele>103.85697104056</ele>
        <time>2022-08-10T16:39:25.568Z</time>
      </trkpt>
      <trkpt lat="47.66602" lon="-2.48642">
        <ele>104.58915037826</ele>
        <time>2022-08-10T16:39:28.015Z</time>
      </trkpt>
      <trkpt lat="47.66673" lon="-2.48784">
        <ele>105.29080433261</ele>
        <time>2022-08-10T16:39:30.481Z</time>
      </trkpt>
      <trkpt lat="47.667" lon="-2.48834">
        <ele>105.79879313869</ele>
        <time>2022-08-10T16:39:32.954Z</time>
      </trkpt>
      <trkpt lat="47.66722" lon="-2.48865">
        <ele>106.33010328565</ele>
        <time>2022-08-10T16:39:35.432Z</time>
      </trkpt>
      <trkpt lat="47.668" lon="-2.48959">
        <ele>106.91406587421</ele>
        <time>2022-08-10T16:39:37.926Z</time>
      </trkpt>
      <trkpt lat="47.66842" lon="-2.49008">
        <ele>107.32959143794</ele>
        <time>2022-08-10T16:39:40.429Z</time>
      </trkpt>
      <trkpt lat="47.66927" lon="-2.49107">
        <ele>107.83206586862</ele>
        <time>2022-08-10T16:39:42.949Z</time>
      </trkpt>
      <trkpt lat="47.67017" lon="-2.4921">
        <ele>108.48350391406</ele>
        <time>2022-08-10T16:39:45.487Z</time>
      </trkpt>
      <trkpt lat="47.67091" lon="-2.49315">
        <ele>108.93440383641</ele>
        <time>2022-08-10T16:39:48.042Z</time>
      </trkpt>
      <trkpt lat="47.67111" lon="-2.49358">
        <ele>109.40989177311</ele>
        <time>2022-08-10T16:39:50.602Z</time>
      </trkpt>
      <trkpt lat="47.67143" lon="-2.49429">
        <ele>109.87261654558</ele>
        <time>2022-08-10T16:39:53.172Z</time>
      </trkpt>
      <trkpt lat="47.67183" lon="-2.49516">
        <ele>110.3247216285</ele>
        <time>2022-08-10T16:39:55.753Z</time>
      </trkpt>
      <trkpt lat="47.67246" lon="-2.49647">
        <ele>110.70308438788</ele>
        <time>2022-08-10T16:39:58.351Z</time>
      </trkpt>
      <trkpt lat="47.67277" lon="-2.49717">
        <ele>111.08611005568</ele>
        <time>2022-08-10T16:40:00.958Z</time>
      </trkpt>
      <trkpt lat="47.67297" lon="-2.49752">
        <ele>111.40311138097</ele>
        <time>2022-08-10T16:40:03.570Z</time>
      </trkpt>
      <trkpt lat="47.6733" lon="-2.49799">
        <ele>111.67824146544</ele>
        <time>2022-08-10T16:40:06.190Z</time>
      </trkpt>
      <trkpt lat="47.67347" lon="-2.49815">
        <ele>111.90780747396</ele>
        <time>2022-08-10T16:40:08.813Z</time>
      </trkpt>
      <trkpt lat="47.67384" lon="-2.49834">
        <ele>112.14437945273</ele>
        <time>2022-08-10T16:40:11.442Z</time>
      </trkpt>
      <trkpt lat="47.67427" lon="-2.4985">
        <ele>112.36587111692</ele>
        <time>2022-08-10T16:40:14.078Z</time>
      </trkpt>
      <trkpt lat="47.67551" lon="-2.49889">
        <ele>112.48880653783</ele>
        <time>2022-08-10T16:40:16.735Z</time>
      </trkpt>
      <trkpt lat="47.67742" lon="-2.49956">
        <ele>112.5479873402</ele>
        <time>2022-08-10T16:40:19.423Z</time>
      </trkpt>
      <trkpt lat="47.67903" lon="-2.50011">
        <ele>112.66591374314</ele>
        <time>2022-08-10T16:40:22.138Z</time>
      </trkpt>
      <trkpt lat="47.67951" lon="-2.50027">
        <ele>112.78227668816</ele>
        <time>2022-08-10T16:40:24.860Z</time>
      </trkpt>
      <trkpt lat="47.6797" lon="-2.50036">
        <ele>112.94531790348</ele>
        <time>2022-08-10T16:40:27.586Z</time>
      </trkpt>
      <trkpt lat="47.67983" lon="-2.50046">
        <ele>113.1028102434</ele>
        <time>2022-08-10T16:40:30.314Z</time>
      </trkpt>
      <trkpt lat="47.68037" lon="-2.50099">
        <ele>113.32357059887</ele>
        <time>2022-08-10T16:40:33.052Z</time>
      </trkpt>
      <trkpt lat="47.68071" lon="-2.50137">
        <ele>113.50598596748</ele>
        <time>2022-08-10T16:40:35.797Z</time>
      </trkpt>
      <trkpt lat="47.6811" lon="-2.50176">
        <ele>113.79524449485</ele>
        <time>2022-08-10T16:40:38.550Z</time>
      </trkpt>
      <trkpt lat="47.68203" lon="-2.50264">
        <ele>114.1092364637</ele>
        <time>2022-08-10T16:40:41.320Z</time>
      </trkpt>
      <trkpt lat="47.68231" lon="-2.5029">
        <ele>114.46991945203</ele>
        <time>2022-08-10T16:40:44.096Z</time>
      </trkpt>
      <trkpt lat="47.68275" lon="-2.50332">
        <ele>114.86183461462</ele>
        <time>2022-08-10T16:40:46.880Z</time>
      </trkpt>
      <trkpt lat="47.6832" lon="-2.50377">
        <ele>115.26879784644</ele>
        <time>2022-08-10T16:40:49.673Z</time>
      </trkpt>
      <trkpt lat="47.68346" lon="-2.50398">
        <ele>115.76489532537</ele>
        <time>2022-08-10T16:40:52.470Z</time>
      </trkpt>
      <trkpt lat="47.68364" lon="-2.50412">
        <ele>116.34983120214</ele>
        <time>2022-08-10T16:40:55.271Z</time>
      </trkpt>
      <trkpt lat="47.68386" lon="-2.50424">
        <ele>116.97518494722</ele>
        <time>2022-08-10T16:40:58.075Z</time>
      </trkpt>
      <trkpt lat="47.68406" lon="-2.50434">
        <ele>117.65962570987</ele>
        <time>2022-08-10T16:41:00.883Z</time>
      </trkpt>
      <trkpt lat="47.68428" lon="-2.5044">
        <ele>118.38341612317</ele>
        <time>2022-08-10T16:41:03.694Z</time>
      </trkpt>
      <trkpt lat="47.68453" lon="-2.50444">
        <ele>119.16038292048</ele>
        <time>2022-08-10T16:41:06.509Z</time>
      </trkpt>
      <trkpt lat="47.68488" lon="-2.50444">
        <ele>119.93970516917</ele>
        <time>2022-08-10T16:41:09.330Z</time>
      </trkpt>
      <trkpt lat="47.68525" lon="-2.50441">
        <ele>120.70146541981</ele>
        <time>2022-08-10T16:41:12.157Z</time>
      </trkpt>
      <trkpt lat="47.68576" lon="-2.50432">
        <ele>121.38191037576</ele>
        <time>2022-08-10T16:41:14.992Z</time>
      </trkpt>
      <trkpt lat="47.6864" lon="-2.50423">
        <ele>122.26068412866</ele>
        <time>2022-08-10T16:41:17.838Z</time>
      </trkpt>
      <trkpt lat="47.68658" lon="-2.50422">
        <ele>122.9581834282</ele>
        <time>2022-08-10T16:41:20.686Z</time>
      </trkpt>
      <trkpt lat="47.68686" lon="-2.50424">
        <ele>123.63060734057</ele>
        <time>2022-08-10T16:41:23.539Z</time>
      </trkpt>
      <trkpt lat="47.68721" lon="-2.50435">
        <ele>124.26778003523</ele>
        <time>2022-08-10T16:41:26.398Z</time>
      </trkpt>
      <trkpt lat="47.6875" lon="-2.50447">
        <ele>124.806419574</ele>
        <time>2022-08-10T16:41:29.261Z</time>
      </trkpt>
      <trkpt lat="47.68775" lon="-2.50463">
        <ele>125.28517659452</ele>
        <time>2022-08-10T16:41:32.129Z</time>
      </trkpt>
      <trkpt lat="47.68807" lon="-2.5049">
        <ele>125.74861785771</ele>
        <time>2022-08-10T16:41:35.003Z</time>
      </trkpt>
      <trkpt lat="47.68835" lon="-2.50519">
        <ele>126.12264862028</ele>
        <time>2022-08-10T16:41:37.882Z</time>
      </trkpt>
      <trkpt lat="47.68894" lon="-2.50605">
        <ele>126.50830193657</ele>
        <time>2022-08-10T16:41:40.774Z</time>
      </trkpt>
      <trkpt lat="47.68944" lon="-2.50679">
        <ele>126.75371237767</ele>
        <time>2022-08-10T16:41:43.678Z</time>
      </trkpt>
      <trkpt lat="47.68956" lon="-2.50692">
        <ele>126.89761022391</ele>
        <time>2022-08-10T16:41:46.584Z</time>
      </trkpt>
      <trkpt lat="47.68969" lon="-2.50682">
        <ele>126.98477065634</ele>
        <time>2022-08-10T16:41:49.492Z</time>
      </trkpt>
      <trkpt lat="47.68983" lon="-2.50678">
        <ele>127.0154367397</ele>
        <time>2022-08-10T16:41:52.403Z</time>
      </trkpt>
      <trkpt lat="47.6903" lon="-2.50667">
        <ele>127.03273109658</ele>
        <time>2022-08-10T16:41:55.321Z</time>
      </trkpt>
      <trkpt lat="47.6915" lon="-2.50646">
        <ele>126.92206739195</ele>
        <time>2022-08-10T16:41:58.259Z</time>
      </trkpt>
      <trkpt lat="47.6931" lon="-2.50616">
        <ele>126.69100176429</ele>
        <time>2022-08-10T16:42:01.223Z</time>
      </trkpt>
      <trkpt lat="47.69368" lon="-2.50607">
        <ele>126.51092618081</ele>
        <time>2022-08-10T16:42:04.196Z</time>
      </trkpt>
      <trkpt lat="47.69425" lon="-2.50595">
        <ele>126.5009324238</ele>
        <time>2022-08-10T16:42:07.178Z</time>
      </trkpt>
      <trkpt lat="47.69452" lon="-2.50582">
        <ele>126.48206897553</ele>
        <time>2022-08-10T16:42:10.165Z</time>
      </trkpt>
      <trkpt lat="47.69468" lon="-2.50571">
        <ele>126.49187893212</ele>
        <time>2022-08-10T16:42:13.154Z</time>
      </trkpt>
      <trkpt lat="47.69493" lon="-2.50555">
        <ele>126.5645594554</ele>
        <time>2022-08-10T16:42:16.148Z</time>
      </trkpt>
      <trkpt lat="47.69506" lon="-2.5055">
        <ele>126.69594008374</ele>
        <time>2022-08-10T16:42:19.144Z</time>
      </trkpt>
      <trkpt lat="47.69521" lon="-2.50548">
        <ele>126.84734721215</ele>
        <time>2022-08-10T16:42:22.142Z</time>
      </trkpt>
      <trkpt lat="47.69538" lon="-2.50551">
        <ele>127.02601780064</ele>
        <time>2022-08-10T16:42:25.143Z</time>
      </trkpt>
      <trkpt lat="47.69555" lon="-2.50558">
        <ele>127.23269913332</ele>
        <time>2022-08-10T16:42:28.147Z</time>
      </trkpt>
      <trkpt lat="47.69578" lon="-2.50549">
        <ele>127.44616577976</ele>
        <time>2022-08-10T16:42:31.155Z</time>
      </trkpt>
      <trkpt lat="47.69587" lon="-2.50542">
        <ele>127.66078756427</ele>
        <time>2022-08-10T16:42:34.164Z</time>
      </trkpt>
      <trkpt lat="47.69599" lon="-2.50537">
        <ele>127.8697317248</ele>
        <time>2022-08-10T16:42:37.175Z</time>
      </trkpt>
      <trkpt lat="47.69605" lon="-2.50537">
        <ele>128.03375357088</ele>
        <time>2022-08-10T16:42:40.187Z</time>
      </trkpt>
      <trkpt lat="47.69611" lon="-2.5054">
        <ele>128.13658598313</ele>
        <time>2022-08-10T16:42:43.200Z</time>
      </trkpt>
      <trkpt lat="47.69619" lon="-2.50544">
        <ele>128.16091303311</ele>
        <time>2022-08-10T16:42:46.215Z</time>
      </trkpt>
      <trkpt lat="47.69647" lon="-2.5055">
        <ele>128.13379631171</ele>
        <time>2022-08-10T16:42:49.234Z</time>
      </trkpt>
      <trkpt lat="47.69701" lon="-2.50518">
        <ele>127.97526493802</ele>
        <time>2022-08-10T16:42:52.263Z</time>
      </trkpt>
      <trkpt lat="47.69736" lon="-2.50501">
        <ele>127.65659330673</ele>
        <time>2022-08-10T16:42:55.297Z</time>
      </trkpt>
      <trkpt lat="47.69786" lon="-2.50477">
        <ele>127.03758477006</ele>
        <time>2022-08-10T16:42:58.340Z</time>
      </trkpt>
      <trkpt lat="47.69838" lon="-2.50452">
        <ele>126.17109537782</ele>
        <time>2022-08-10T16:43:01.392Z</time>
      </trkpt>
      <trkpt lat="47.69861" lon="-2.50441">
        <ele>125.19290815612</ele>
        <time>2022-08-10T16:43:04.447Z</time>
      </trkpt>
      <trkpt lat="47.69889" lon="-2.50435">
        <ele>124.04600518073</ele>
        <time>2022-08-10T16:43:07.507Z</time>
      </trkpt>
      <trkpt lat="47.69917" lon="-2.50432">
        <ele>122.71534754775</ele>
        <time>2022-08-10T16:43:10.572Z</time>
      </trkpt>
      <trkpt lat="47.69991" lon="-2.50431">
        <ele>121.2828051493</ele>
        <time>2022-08-10T16:43:13.648Z</time>
      </trkpt>
      <trkpt lat="47.70122" lon="-2.50425">
        <ele>119.38880274185</ele>
        <time>2022-08-10T16:43:16.745Z</time>
      </trkpt>
      <trkpt lat="47.70391" lon="-2.50416">
        <ele>117.36641152988</ele>
        <time>2022-08-10T16:43:19.885Z</time>
      </trkpt>
      <trkpt lat="47.70705" lon="-2.50407">
        <ele>114.90757891772</ele>
        <time>2022-08-10T16:43:23.076Z</time>
      </trkpt>
      <trkpt lat="47.70864" lon="-2.50401">
        <ele>112.35161576025</ele>
        <time>2022-08-10T16:43:26.292Z</time>
      </trkpt>
      <trkpt lat="47.70885" lon="-2.50404">
        <ele>110.10768375862</ele>
        <time>2022-08-10T16:43:29.512Z</time>
      </trkpt>
      <trkpt lat="47.70892" lon="-2.50407">
        <ele>107.89199344215</ele>
        <time>2022-08-10T16:43:32.733Z</time>
      </trkpt>
      <trkpt lat="47.70903" lon="-2.50413">
        <ele>105.69757690079</ele>
        <time>2022-08-10T16:43:35.956Z</time>
      </trkpt>
      <trkpt lat="47.70915" lon="-2.50425">
        <ele>103.54100822781</ele>
        <time>2022-08-10T16:43:39.181Z</time>
      </trkpt>
      <trkpt lat="47.70926" lon="-2.50445">
        <ele>101.5076569975</ele>
        <time>2022-08-10T16:43:42.409Z</time>
      </trkpt>
      <trkpt lat="47.70934" lon="-2.50445">
        <ele>99.5524596345</ele>
        <time>2022-08-10T16:43:45.638Z</time>
      </trkpt>
      <trkpt lat="47.70951" lon="-2.50443">
        <ele>97.68770925121</ele>
        <time>2022-08-10T16:43:48.870Z</time>
      </trkpt>
      <trkpt lat="47.70999" lon="-2.50431">
        <ele>95.9262722682</ele>
        <time>2022-08-10T16:43:52.110Z</time>
      </trkpt>
      <trkpt lat="47.71142" lon="-2.50391">
        <ele>94.07689784538</ele>
        <time>2022-08-10T16:43:55.373Z</time>
      </trkpt>
      <trkpt lat="47.7124" lon="-2.50366">
        <ele>92.54240883386</ele>
        <time>2022-08-10T16:43:58.652Z</time>
      </trkpt>
      <trkpt lat="47.71258" lon="-2.50361">
        <ele>91.12720044055</ele>
        <time>2022-08-10T16:44:01.934Z</time>
      </trkpt>
      <trkpt lat="47.7128" lon="-2.50347">
        <ele>89.83074295439</ele>
        <time>2022-08-10T16:44:05.219Z</time>
      </trkpt>
      <trkpt lat="47.71378" lon="-2.50252">
        <ele>88.63886284067</ele>
        <time>2022-08-10T16:44:08.523Z</time>
      </trkpt>
      <trkpt lat="47.71417" lon="-2.50222">
        <ele>87.56205920469</ele>
        <time>2022-08-10T16:44:11.834Z</time>
      </trkpt>
      <trkpt lat="47.71434" lon="-2.50211">
        <ele>86.58538544264</ele>
        <time>2022-08-10T16:44:15.148Z</time>
      </trkpt>
      <trkpt lat="47.71489" lon="-2.50185">
        <ele>85.6115377494</ele>
        <time>2022-08-10T16:44:18.471Z</time>
      </trkpt>
      <trkpt lat="47.71516" lon="-2.50169">
        <ele>84.68702910074</ele>
        <time>2022-08-10T16:44:21.799Z</time>
      </trkpt>
      <trkpt lat="47.71529" lon="-2.50156">
        <ele>83.80915811273</ele>
        <time>2022-08-10T16:44:25.130Z</time>
      </trkpt>
      <trkpt lat="47.71548" lon="-2.50128">
        <ele>82.94541835028</ele>
        <time>2022-08-10T16:44:28.465Z</time>
      </trkpt>
      <trkpt lat="47.71588" lon="-2.50057">
        <ele>82.10110542698</ele>
        <time>2022-08-10T16:44:31.810Z</time>
      </trkpt>
      <trkpt lat="47.71613" lon="-2.50017">
        <ele>81.14394494642</ele>
        <time>2022-08-10T16:44:35.161Z</time>
      </trkpt>
      <trkpt lat="47.7164" lon="-2.49982">
        <ele>80.1218282639</ele>
        <time>2022-08-10T16:44:38.518Z</time>
      </trkpt>
      <trkpt lat="47.71704" lon="-2.49915">
        <ele>78.94789779369</ele>
        <time>2022-08-10T16:44:41.887Z</time>
      </trkpt>
      <trkpt lat="47.71808" lon="-2.49805">
        <ele>77.39626291278</ele>
        <time>2022-08-10T16:44:45.277Z</time>
      </trkpt>
      <trkpt lat="47.71896" lon="-2.49713">
        <ele>75.73906745934</ele>
        <time>2022-08-10T16:44:48.684Z</time>
      </trkpt>
      <trkpt lat="47.72098" lon="-2.495">
        <ele>73.98990384313</ele>
        <time>2022-08-10T16:44:52.131Z</time>
      </trkpt>
      <trkpt lat="47.72112" lon="-2.49484">
        <ele>72.25638017634</ele>
        <time>2022-08-10T16:44:55.580Z</time>
      </trkpt>
      <trkpt lat="47.72153" lon="-2.49438">
        <ele>70.36581788867</ele>
        <time>2022-08-10T16:44:59.038Z</time>
      </trkpt>
      <trkpt lat="47.72168" lon="-2.49416">
        <ele>68.54912677572</ele>
        <time>2022-08-10T16:45:02.499Z</time>
      </trkpt>
      <trkpt lat="47.72176" lon="-2.49397">
        <ele>66.74829429909</ele>
        <time>2022-08-10T16:45:05.962Z</time>
      </trkpt>
      <trkpt lat="47.72182" lon="-2.49374">
        <ele>64.91701840041</ele>
        <time>2022-08-10T16:45:09.428Z</time>
      </trkpt>
      <trkpt lat="47.72187" lon="-2.4932">
        <ele>63.05960494175</ele>
        <time>2022-08-10T16:45:12.900Z</time>
      </trkpt>
      <trkpt lat="47.72192" lon="-2.49237">
        <ele>61.25809183025</ele>
        <time>2022-08-10T16:45:16.381Z</time>
      </trkpt>
      <trkpt lat="47.72195" lon="-2.49186">
        <ele>59.51418997415</ele>
        <time>2022-08-10T16:45:19.867Z</time>
      </trkpt>
      <trkpt lat="47.72198" lon="-2.4916">
        <ele>57.86537902243</ele>
        <time>2022-08-10T16:45:23.356Z</time>
      </trkpt>
      <trkpt lat="47.72206" lon="-2.49136">
        <ele>56.33398995591</ele>
        <time>2022-08-10T16:45:26.848Z</time>
      </trkpt>
      <trkpt lat="47.72206" lon="-2.49136">
        <ele>54.98092057561</ele>
        <time>2022-08-10T16:45:30.340Z</time>
      </trkpt>
      <trkpt lat="47.72206" lon="-2.49136">
        <ele>56.33398995591</ele>
        <time>2022-08-10T16:45:33.832Z</time>
      </trkpt>
      <trkpt lat="47.72223" lon="-2.49106">
        <ele>52.64137186633</ele>
        <time>2022-08-10T16:45:37.328Z</time>
      </trkpt>
      <trkpt lat="47.72283" lon="-2.49015">
        <ele>51.61025871611</ele>
        <time>2022-08-10T16:45:40.838Z</time>
      </trkpt>
      <trkpt lat="47.72288" lon="-2.48994">
        <ele>50.82708920988</ele>
        <time>2022-08-10T16:45:44.351Z</time>
      </trkpt>
      <trkpt lat="47.72289" lon="-2.48971">
        <ele>50.21369708408</ele>
        <time>2022-08-10T16:45:47.866Z</time>
      </trkpt>
      <trkpt lat="47.72288" lon="-2.48959">
        <ele>49.77622029238</ele>
        <time>2022-08-10T16:45:51.382Z</time>
      </trkpt>
      <trkpt lat="47.72276" lon="-2.4892">
        <ele>49.49303253483</ele>
        <time>2022-08-10T16:45:54.903Z</time>
      </trkpt>
      <trkpt lat="47.72242" lon="-2.48825">
        <ele>49.43687620448</ele>
        <time>2022-08-10T16:45:58.436Z</time>
      </trkpt>
      <trkpt lat="47.72237" lon="-2.48799">
        <ele>49.5399617028</ele>
        <time>2022-08-10T16:46:01.972Z</time>
      </trkpt>
      <trkpt lat="47.72238" lon="-2.48773">
        <ele>49.75571134993</ele>
        <time>2022-08-10T16:46:05.510Z</time>
      </trkpt>
      <trkpt lat="47.72245" lon="-2.48737">
        <ele>50.09709017251</ele>
        <time>2022-08-10T16:46:09.052Z</time>
      </trkpt>
      <trkpt lat="47.72258" lon="-2.48671">
        <ele>50.48989452087</ele>
        <time>2022-08-10T16:46:12.602Z</time>
      </trkpt>
      <trkpt lat="47.72259" lon="-2.48647">
        <ele>50.94845815268</ele>
        <time>2022-08-10T16:46:16.154Z</time>
      </trkpt>
      <trkpt lat="47.72258" lon="-2.48634">
        <ele>51.4662638664</ele>
        <time>2022-08-10T16:46:19.708Z</time>
      </trkpt>
      <trkpt lat="47.72254" lon="-2.48606">
        <ele>51.98868088116</ele>
        <time>2022-08-10T16:46:23.265Z</time>
      </trkpt>
      <trkpt lat="47.72224" lon="-2.48519">
        <ele>52.71586133965</ele>
        <time>2022-08-10T16:46:26.833Z</time>
      </trkpt>
      <trkpt lat="47.72195" lon="-2.4844">
        <ele>53.28175291223</ele>
        <time>2022-08-10T16:46:30.410Z</time>
      </trkpt>
      <trkpt lat="47.7216" lon="-2.48325">
        <ele>53.76545952322</ele>
        <time>2022-08-10T16:46:34.001Z</time>
      </trkpt>
      <trkpt lat="47.72116" lon="-2.48174">
        <ele>53.99854600026</ele>
        <time>2022-08-10T16:46:37.610Z</time>
      </trkpt>
      <trkpt lat="47.72104" lon="-2.4813">
        <ele>54.31531283525</ele>
        <time>2022-08-10T16:46:41.224Z</time>
      </trkpt>
      <trkpt lat="47.72099" lon="-2.481">
        <ele>54.49632131691</ele>
        <time>2022-08-10T16:46:44.841Z</time>
      </trkpt>
      <trkpt lat="47.72099" lon="-2.48062">
        <ele>54.52635312165</ele>
        <time>2022-08-10T16:46:48.462Z</time>
      </trkpt>
      <trkpt lat="47.72101" lon="-2.47981">
        <ele>54.33046253537</ele>
        <time>2022-08-10T16:46:52.092Z</time>
      </trkpt>
      <trkpt lat="47.72098" lon="-2.47851">
        <ele>54.05209171641</ele>
        <time>2022-08-10T16:46:55.736Z</time>
      </trkpt>
      <trkpt lat="47.72092" lon="-2.478">
        <ele>53.66249803612</ele>
        <time>2022-08-10T16:46:59.386Z</time>
      </trkpt>
      <trkpt lat="47.72082" lon="-2.47744">
        <ele>53.14052361514</ele>
        <time>2022-08-10T16:47:03.042Z</time>
      </trkpt>
      <trkpt lat="47.72071" lon="-2.4768">
        <ele>52.51168040467</ele>
        <time>2022-08-10T16:47:06.705Z</time>
      </trkpt>
      <trkpt lat="47.72064" lon="-2.47618">
        <ele>51.79079582579</ele>
        <time>2022-08-10T16:47:10.375Z</time>
      </trkpt>
      <trkpt lat="47.72064" lon="-2.47576">
        <ele>50.96436054566</ele>
        <time>2022-08-10T16:47:14.049Z</time>
      </trkpt>
      <trkpt lat="47.72062" lon="-2.47545">
        <ele>50.06406520887</ele>
        <time>2022-08-10T16:47:17.727Z</time>
      </trkpt>
      <trkpt lat="47.72049" lon="-2.47458">
        <ele>49.11281540831</ele>
        <time>2022-08-10T16:47:21.414Z</time>
      </trkpt>
      <trkpt lat="47.72045" lon="-2.47416">
        <ele>48.13679913761</ele>
        <time>2022-08-10T16:47:25.106Z</time>
      </trkpt>
      <trkpt lat="47.72036" lon="-2.47386">
        <ele>47.15385304666</ele>
        <time>2022-08-10T16:47:28.801Z</time>
      </trkpt>
      <trkpt lat="47.72012" lon="-2.47329">
        <ele>46.16195705762</ele>
        <time>2022-08-10T16:47:32.504Z</time>
      </trkpt>
      <trkpt lat="47.71999" lon="-2.47292">
        <ele>45.198565936</ele>
        <time>2022-08-10T16:47:36.211Z</time>
      </trkpt>
      <trkpt lat="47.71994" lon="-2.47265">
        <ele>44.22545008446</ele>
        <time>2022-08-10T16:47:39.921Z</time>
      </trkpt>
      <trkpt lat="47.71986" lon="-2.47208">
        <ele>43.2465576613</ele>
        <time>2022-08-10T16:47:43.638Z</time>
      </trkpt>
      <trkpt lat="47.71978" lon="-2.47138">
        <ele>42.21191845353</ele>
        <time>2022-08-10T16:47:47.362Z</time>
      </trkpt>
      <trkpt lat="47.71976" lon="-2.47098">
        <ele>41.25100518583</ele>
        <time>2022-08-10T16:47:51.091Z</time>
      </trkpt>
      <trkpt lat="47.71976" lon="-2.47065">
        <ele>40.28059222504</ele>
        <time>2022-08-10T16:47:54.823Z</time>
      </trkpt>
      <trkpt lat="47.71983" lon="-2.46994">
        <ele>39.28882631375</ele>
        <time>2022-08-10T16:47:58.563Z</time>
      </trkpt>
      <trkpt lat="47.71993" lon="-2.469">
        <ele>38.34166310482</ele>
        <time>2022-08-10T16:48:02.313Z</time>
      </trkpt>
      <trkpt lat="47.71999" lon="-2.46875">
        <ele>37.42796150393</ele>
        <time>2022-08-10T16:48:06.066Z</time>
      </trkpt>
      <trkpt lat="47.72005" lon="-2.46859">
        <ele>36.53726614628</ele>
        <time>2022-08-10T16:48:09.821Z</time>
      </trkpt>
      <trkpt lat="47.7204" lon="-2.46787">
        <ele>35.57994804174</ele>
        <time>2022-08-10T16:48:13.586Z</time>
      </trkpt>
      <trkpt lat="47.72051" lon="-2.46766">
        <ele>34.76015701485</ele>
        <time>2022-08-10T16:48:17.353Z</time>
      </trkpt>
      <trkpt lat="47.72054" lon="-2.46769">
        <ele>34.01540725655</ele>
        <time>2022-08-10T16:48:21.121Z</time>
      </trkpt>
      <trkpt lat="47.7207" lon="-2.46784">
        <ele>33.28129414435</ele>
        <time>2022-08-10T16:48:24.892Z</time>
      </trkpt>
      <trkpt lat="47.72106" lon="-2.46819">
        <ele>32.65471807761</ele>
        <time>2022-08-10T16:48:28.670Z</time>
      </trkpt>
      <trkpt lat="47.72175" lon="-2.46887">
        <ele>32.17689314107</ele>
        <time>2022-08-10T16:48:32.461Z</time>
      </trkpt>
      <trkpt lat="47.72217" lon="-2.46926">
        <ele>31.87386189163</ele>
        <time>2022-08-10T16:48:36.260Z</time>
      </trkpt>
      <trkpt lat="47.7223" lon="-2.46934">
        <ele>31.71610144677</ele>
        <time>2022-08-10T16:48:40.061Z</time>
      </trkpt>
      <trkpt lat="47.72235" lon="-2.46934">
        <ele>31.6555025186</ele>
        <time>2022-08-10T16:48:43.863Z</time>
      </trkpt>
      <trkpt lat="47.7225" lon="-2.46919">
        <ele>31.73763050543</ele>
        <time>2022-08-10T16:48:47.668Z</time>
      </trkpt>
      <trkpt lat="47.72279" lon="-2.46895">
        <ele>31.92627215636</ele>
        <time>2022-08-10T16:48:51.478Z</time>
      </trkpt>
      <trkpt lat="47.72317" lon="-2.46874">
        <ele>32.27057152784</ele>
        <time>2022-08-10T16:48:55.295Z</time>
      </trkpt>
      <trkpt lat="47.72358" lon="-2.46842">
        <ele>32.70604902335</ele>
        <time>2022-08-10T16:48:59.119Z</time>
      </trkpt>
      <trkpt lat="47.724" lon="-2.46802">
        <ele>33.24159588445</ele>
        <time>2022-08-10T16:49:02.951Z</time>
      </trkpt>
      <trkpt lat="47.72421" lon="-2.46789">
        <ele>33.83234097795</ele>
        <time>2022-08-10T16:49:06.787Z</time>
      </trkpt>
      <trkpt lat="47.72484" lon="-2.46753">
        <ele>34.42792218364</ele>
        <time>2022-08-10T16:49:10.634Z</time>
      </trkpt>
      <trkpt lat="47.72515" lon="-2.46742">
        <ele>35.23727625732</ele>
        <time>2022-08-10T16:49:14.486Z</time>
      </trkpt>
      <trkpt lat="47.72547" lon="-2.46738">
        <ele>36.21318186869</ele>
        <time>2022-08-10T16:49:18.343Z</time>
      </trkpt>
      <trkpt lat="47.72565" lon="-2.46739">
        <ele>37.28221356973</ele>
        <time>2022-08-10T16:49:22.203Z</time>
      </trkpt>
      <trkpt lat="47.72599" lon="-2.4674">
        <ele>38.47198507744</ele>
        <time>2022-08-10T16:49:26.068Z</time>
      </trkpt>
      <trkpt lat="47.72638" lon="-2.46744">
        <ele>39.8183758212</ele>
        <time>2022-08-10T16:49:29.940Z</time>
      </trkpt>
      <trkpt lat="47.72656" lon="-2.46742">
        <ele>41.13417272375</ele>
        <time>2022-08-10T16:49:33.815Z</time>
      </trkpt>
      <trkpt lat="47.72669" lon="-2.46738">
        <ele>42.48378423576</ele>
        <time>2022-08-10T16:49:37.692Z</time>
      </trkpt>
      <trkpt lat="47.72679" lon="-2.46733">
        <ele>43.86536163715</ele>
        <time>2022-08-10T16:49:41.570Z</time>
      </trkpt>
      <trkpt lat="47.72701" lon="-2.46714">
        <ele>45.2986869142</ele>
        <time>2022-08-10T16:49:45.452Z</time>
      </trkpt>
      <trkpt lat="47.72711" lon="-2.46706">
        <ele>46.75112346188</ele>
        <time>2022-08-10T16:49:49.336Z</time>
      </trkpt>
      <trkpt lat="47.7272" lon="-2.46702">
        <ele>48.23228844113</ele>
        <time>2022-08-10T16:49:53.222Z</time>
      </trkpt>
      <trkpt lat="47.7274" lon="-2.46699">
        <ele>49.77605450231</ele>
        <time>2022-08-10T16:49:57.111Z</time>
      </trkpt>
      <trkpt lat="47.72769" lon="-2.46697">
        <ele>51.36503307442</ele>
        <time>2022-08-10T16:50:01.005Z</time>
      </trkpt>
      <trkpt lat="47.72785" lon="-2.46694">
        <ele>52.93243381018</ele>
        <time>2022-08-10T16:50:04.901Z</time>
      </trkpt>
      <trkpt lat="47.72818" lon="-2.46669">
        <ele>54.56526163671</ele>
        <time>2022-08-10T16:50:08.803Z</time>
      </trkpt>
      <trkpt lat="47.72841" lon="-2.46655">
        <ele>56.18291345253</ele>
        <time>2022-08-10T16:50:12.709Z</time>
      </trkpt>
      <trkpt lat="47.72859" lon="-2.46649">
        <ele>57.73619290346</ele>
        <time>2022-08-10T16:50:16.618Z</time>
      </trkpt>
      <trkpt lat="47.7293" lon="-2.4663">
        <ele>59.41412215415</ele>
        <time>2022-08-10T16:50:20.539Z</time>
      </trkpt>
      <trkpt lat="47.72965" lon="-2.4662">
        <ele>60.93548562965</ele>
        <time>2022-08-10T16:50:24.465Z</time>
      </trkpt>
      <trkpt lat="47.72987" lon="-2.46616">
        <ele>62.40711033414</ele>
        <time>2022-08-10T16:50:28.395Z</time>
      </trkpt>
      <trkpt lat="47.73022" lon="-2.46616">
        <ele>63.87817855448</ele>
        <time>2022-08-10T16:50:32.330Z</time>
      </trkpt>
      <trkpt lat="47.73073" lon="-2.46622">
        <ele>65.44435827971</ele>
        <time>2022-08-10T16:50:36.274Z</time>
      </trkpt>
      <trkpt lat="47.73119" lon="-2.46616">
        <ele>66.89310343897</ele>
        <time>2022-08-10T16:50:40.225Z</time>
      </trkpt>
      <trkpt lat="47.73146" lon="-2.46623">
        <ele>68.28193509081</ele>
        <time>2022-08-10T16:50:44.180Z</time>
      </trkpt>
      <trkpt lat="47.73164" lon="-2.46629">
        <ele>69.68196521146</ele>
        <time>2022-08-10T16:50:48.138Z</time>
      </trkpt>
      <trkpt lat="47.73183" lon="-2.46632">
        <ele>71.09021707918</ele>
        <time>2022-08-10T16:50:52.099Z</time>
      </trkpt>
      <trkpt lat="47.73237" lon="-2.46643">
        <ele>72.53686978139</ele>
        <time>2022-08-10T16:50:56.069Z</time>
      </trkpt>
      <trkpt lat="47.73296" lon="-2.46667">
        <ele>74.01544048869</ele>
        <time>2022-08-10T16:51:00.049Z</time>
      </trkpt>
      <trkpt lat="47.73311" lon="-2.46674">
        <ele>75.46195278455</ele>
        <time>2022-08-10T16:51:04.031Z</time>
      </trkpt>
      <trkpt lat="47.73342" lon="-2.46683">
        <ele>76.96517840673</ele>
        <time>2022-08-10T16:51:08.019Z</time>
      </trkpt>
      <trkpt lat="47.73365" lon="-2.4669">
        <ele>78.4630342089</ele>
        <time>2022-08-10T16:51:12.010Z</time>
      </trkpt>
      <trkpt lat="47.73411" lon="-2.46709">
        <ele>79.92386403595</ele>
        <time>2022-08-10T16:51:16.009Z</time>
      </trkpt>
      <trkpt lat="47.73433" lon="-2.46716">
        <ele>81.39100152842</ele>
        <time>2022-08-10T16:51:20.012Z</time>
      </trkpt>
      <trkpt lat="47.73448" lon="-2.46717">
        <ele>82.86360511436</ele>
        <time>2022-08-10T16:51:24.017Z</time>
      </trkpt>
      <trkpt lat="47.73486" lon="-2.46717">
        <ele>84.41509471116</ele>
        <time>2022-08-10T16:51:28.028Z</time>
      </trkpt>
      <trkpt lat="47.73541" lon="-2.46714">
        <ele>86.05631207161</ele>
        <time>2022-08-10T16:51:32.048Z</time>
      </trkpt>
      <trkpt lat="47.73575" lon="-2.46708">
        <ele>87.63987182312</ele>
        <time>2022-08-10T16:51:36.073Z</time>
      </trkpt>
      <trkpt lat="47.73611" lon="-2.46692">
        <ele>89.22391443674</ele>
        <time>2022-08-10T16:51:40.104Z</time>
      </trkpt>
      <trkpt lat="47.73676" lon="-2.46658">
        <ele>91.01675058493</ele>
        <time>2022-08-10T16:51:44.146Z</time>
      </trkpt>
      <trkpt lat="47.73687" lon="-2.46649">
        <ele>92.53884747551</ele>
        <time>2022-08-10T16:51:48.190Z</time>
      </trkpt>
      <trkpt lat="47.73694" lon="-2.4664">
        <ele>93.99007087452</ele>
        <time>2022-08-10T16:51:52.236Z</time>
      </trkpt>
      <trkpt lat="47.73698" lon="-2.46633">
        <ele>95.3606822073</ele>
        <time>2022-08-10T16:51:56.283Z</time>
      </trkpt>
      <trkpt lat="47.73704" lon="-2.4661">
        <ele>96.65104442196</ele>
        <time>2022-08-10T16:52:00.333Z</time>
      </trkpt>
      <trkpt lat="47.73716" lon="-2.46539">
        <ele>97.94364624677</ele>
        <time>2022-08-10T16:52:04.390Z</time>
      </trkpt>
      <trkpt lat="47.73727" lon="-2.46491">
        <ele>99.05364566886</ele>
        <time>2022-08-10T16:52:08.453Z</time>
      </trkpt>
      <trkpt lat="47.73736" lon="-2.46477">
        <ele>100.04758347558</ele>
        <time>2022-08-10T16:52:12.518Z</time>
      </trkpt>
      <trkpt lat="47.73743" lon="-2.46468">
        <ele>100.91971092305</ele>
        <time>2022-08-10T16:52:16.584Z</time>
      </trkpt>
      <trkpt lat="47.73758" lon="-2.46461">
        <ele>101.69125993179</ele>
        <time>2022-08-10T16:52:20.653Z</time>
      </trkpt>
      <trkpt lat="47.73775" lon="-2.46458">
        <ele>102.31868403961</ele>
        <time>2022-08-10T16:52:24.725Z</time>
      </trkpt>
      <trkpt lat="47.73799" lon="-2.46462">
        <ele>102.81090066086</ele>
        <time>2022-08-10T16:52:28.801Z</time>
      </trkpt>
      <trkpt lat="47.73817" lon="-2.46469">
        <ele>103.21335715763</ele>
        <time>2022-08-10T16:52:32.880Z</time>
      </trkpt>
      <trkpt lat="47.73867" lon="-2.46498">
        <ele>103.56894493294</ele>
        <time>2022-08-10T16:52:36.967Z</time>
      </trkpt>
      <trkpt lat="47.73917" lon="-2.46517">
        <ele>103.69003841875</ele>
        <time>2022-08-10T16:52:41.062Z</time>
      </trkpt>
      <trkpt lat="47.73941" lon="-2.46544">
        <ele>103.70755510444</ele>
        <time>2022-08-10T16:52:45.162Z</time>
      </trkpt>
      <trkpt lat="47.73957" lon="-2.46555">
        <ele>103.64945238581</ele>
        <time>2022-08-10T16:52:49.265Z</time>
      </trkpt>
      <trkpt lat="47.7399" lon="-2.4656">
        <ele>103.49531168795</ele>
        <time>2022-08-10T16:52:53.373Z</time>
      </trkpt>
      <trkpt lat="47.74012" lon="-2.46557">
        <ele>103.29672297516</ele>
        <time>2022-08-10T16:52:57.485Z</time>
      </trkpt>
      <trkpt lat="47.74039" lon="-2.46547">
        <ele>103.05956055525</ele>
        <time>2022-08-10T16:53:01.601Z</time>
      </trkpt>
      <trkpt lat="47.74077" lon="-2.4653">
        <ele>102.85202701407</ele>
        <time>2022-08-10T16:53:05.724Z</time>
      </trkpt>
      <trkpt lat="47.74111" lon="-2.46512">
        <ele>102.57899773018</ele>
        <time>2022-08-10T16:53:09.853Z</time>
      </trkpt>
      <trkpt lat="47.74132" lon="-2.46496">
        <ele>102.27335276149</ele>
        <time>2022-08-10T16:53:13.985Z</time>
      </trkpt>
      <trkpt lat="47.74149" lon="-2.46474">
        <ele>101.99966772978</ele>
        <time>2022-08-10T16:53:18.121Z</time>
      </trkpt>
      <trkpt lat="47.74215" lon="-2.46337">
        <ele>101.78420571435</ele>
        <time>2022-08-10T16:53:22.275Z</time>
      </trkpt>
      <trkpt lat="47.74348" lon="-2.46056">
        <ele>101.68395516235</ele>
        <time>2022-08-10T16:53:26.466Z</time>
      </trkpt>
      <trkpt lat="47.74441" lon="-2.45859">
        <ele>101.56105532564</ele>
        <time>2022-08-10T16:53:30.683Z</time>
      </trkpt>
      <trkpt lat="47.74647" lon="-2.45419">
        <ele>101.30954570902</ele>
        <time>2022-08-10T16:53:34.958Z</time>
      </trkpt>
      <trkpt lat="47.74722" lon="-2.45258">
        <ele>101.24912992254</ele>
        <time>2022-08-10T16:53:39.254Z</time>
      </trkpt>
      <trkpt lat="47.7495" lon="-2.44771">
        <ele>101.14881446171</ele>
        <time>2022-08-10T16:53:43.614Z</time>
      </trkpt>
      <trkpt lat="47.7509" lon="-2.44467">
        <ele>101.02517276758</ele>
        <time>2022-08-10T16:53:48.014Z</time>
      </trkpt>
      <trkpt lat="47.75229" lon="-2.44175">
        <ele>101.00126789499</ele>
        <time>2022-08-10T16:53:52.452Z</time>
      </trkpt>
      <trkpt lat="47.75279" lon="-2.4407">
        <ele>101.01395822633</ele>
        <time>2022-08-10T16:53:56.904Z</time>
      </trkpt>
      <trkpt lat="47.75327" lon="-2.43971">
        <ele>100.82471046415</ele>
        <time>2022-08-10T16:54:01.370Z</time>
      </trkpt>
      <trkpt lat="47.75344" lon="-2.43933">
        <ele>100.52621192321</ele>
        <time>2022-08-10T16:54:05.840Z</time>
      </trkpt>
      <trkpt lat="47.75352" lon="-2.43896">
        <ele>100.2192125431</ele>
        <time>2022-08-10T16:54:10.315Z</time>
      </trkpt>
      <trkpt lat="47.7536" lon="-2.43876">
        <ele>99.86446957104</ele>
        <time>2022-08-10T16:54:14.792Z</time>
      </trkpt>
      <trkpt lat="47.75375" lon="-2.43863">
        <ele>99.40086842265</ele>
        <time>2022-08-10T16:54:19.272Z</time>
      </trkpt>
      <trkpt lat="47.75398" lon="-2.43839">
        <ele>98.83769476519</ele>
        <time>2022-08-10T16:54:23.756Z</time>
      </trkpt>
      <trkpt lat="47.75406" lon="-2.43831">
        <ele>98.11704013656</ele>
        <time>2022-08-10T16:54:28.242Z</time>
      </trkpt>
      <trkpt lat="47.75418" lon="-2.43825">
        <ele>97.23133032058</ele>
        <time>2022-08-10T16:54:32.730Z</time>
      </trkpt>
      <trkpt lat="47.75435" lon="-2.4382">
        <ele>96.18176353568</ele>
        <time>2022-08-10T16:54:37.221Z</time>
      </trkpt>
      <trkpt lat="47.75457" lon="-2.43818">
        <ele>94.93618604392</ele>
        <time>2022-08-10T16:54:41.715Z</time>
      </trkpt>
      <trkpt lat="47.75496" lon="-2.43816">
        <ele>93.51075274601</ele>
        <time>2022-08-10T16:54:46.216Z</time>
      </trkpt>
      <trkpt lat="47.75593" lon="-2.43788">
        <ele>92.01381692825</ele>
        <time>2022-08-10T16:54:50.732Z</time>
      </trkpt>
      <trkpt lat="47.75679" lon="-2.43763">
        <ele>90.36697972751</ele>
        <time>2022-08-10T16:54:55.262Z</time>
      </trkpt>
      <trkpt lat="47.75869" lon="-2.43707">
        <ele>88.6647647601</ele>
        <time>2022-08-10T16:54:59.823Z</time>
      </trkpt>
      <trkpt lat="47.76097" lon="-2.43639">
        <ele>86.59729683519</ele>
        <time>2022-08-10T16:55:04.422Z</time>
      </trkpt>
      <trkpt lat="47.76362" lon="-2.43562">
        <ele>84.33947942353</ele>
        <time>2022-08-10T16:55:09.064Z</time>
      </trkpt>
      <trkpt lat="47.76686" lon="-2.43464">
        <ele>82.35341129533</ele>
        <time>2022-08-10T16:55:13.759Z</time>
      </trkpt>
      <trkpt lat="47.76917" lon="-2.43393">
        <ele>79.94065278879</ele>
        <time>2022-08-10T16:55:18.492Z</time>
      </trkpt>
      <trkpt lat="47.77076" lon="-2.43344">
        <ele>77.68812363938</ele>
        <time>2022-08-10T16:55:23.251Z</time>
      </trkpt>
      <trkpt lat="47.77217" lon="-2.433">
        <ele>75.46951133905</ele>
        <time>2022-08-10T16:55:28.033Z</time>
      </trkpt>
      <trkpt lat="47.77289" lon="-2.43275">
        <ele>73.20861263645</ele>
        <time>2022-08-10T16:55:32.827Z</time>
      </trkpt>
      <trkpt lat="47.77337" lon="-2.43248">
        <ele>70.90038006806</ele>
        <time>2022-08-10T16:55:37.629Z</time>
      </trkpt>
      <trkpt lat="47.77363" lon="-2.43232">
        <ele>68.57925900486</ele>
        <time>2022-08-10T16:55:42.435Z</time>
      </trkpt>
      <trkpt lat="47.77411" lon="-2.4319">
        <ele>66.20691835495</ele>
        <time>2022-08-10T16:55:47.250Z</time>
      </trkpt>
      <trkpt lat="47.77526" lon="-2.43088">
        <ele>63.81828792987</ele>
        <time>2022-08-10T16:55:52.087Z</time>
      </trkpt>
      <trkpt lat="47.77606" lon="-2.43016">
        <ele>61.20319938908</ele>
        <time>2022-08-10T16:55:56.939Z</time>
      </trkpt>
      <trkpt lat="47.77779" lon="-2.42859">
        <ele>58.36526498974</ele>
        <time>2022-08-10T16:56:01.823Z</time>
      </trkpt>
      <trkpt lat="47.7796" lon="-2.42695">
        <ele>55.4937821467</ele>
        <time>2022-08-10T16:56:06.741Z</time>
      </trkpt>
      <trkpt lat="47.77973" lon="-2.42687">
        <ele>52.80575062867</ele>
        <time>2022-08-10T16:56:11.661Z</time>
      </trkpt>
      <trkpt lat="47.77988" lon="-2.42681">
        <ele>50.10762207862</ele>
        <time>2022-08-10T16:56:16.584Z</time>
      </trkpt>
      <trkpt lat="47.78005" lon="-2.42678">
        <ele>47.41204943277</ele>
        <time>2022-08-10T16:56:21.510Z</time>
      </trkpt>
      <trkpt lat="47.78027" lon="-2.4268">
        <ele>44.68557657169</ele>
        <time>2022-08-10T16:56:26.439Z</time>
      </trkpt>
      <trkpt lat="47.78051" lon="-2.42682">
        <ele>42.00165335814</ele>
        <time>2022-08-10T16:56:31.372Z</time>
      </trkpt>
      <trkpt lat="47.78069" lon="-2.42683">
        <ele>39.33989163423</ele>
        <time>2022-08-10T16:56:36.308Z</time>
      </trkpt>
      <trkpt lat="47.78101" lon="-2.42678">
        <ele>36.70335336802</ele>
        <time>2022-08-10T16:56:41.249Z</time>
      </trkpt>
      <trkpt lat="47.78176" lon="-2.42649">
        <ele>34.01418759658</ele>
        <time>2022-08-10T16:56:46.202Z</time>
      </trkpt>
      <trkpt lat="47.78239" lon="-2.42623">
        <ele>31.53311269182</ele>
        <time>2022-08-10T16:56:51.166Z</time>
      </trkpt>
      <trkpt lat="47.78487" lon="-2.42515">
        <ele>28.73055498494</ele>
        <time>2022-08-10T16:56:56.171Z</time>
      </trkpt>
      <trkpt lat="47.78521" lon="-2.42505">
        <ele>26.54245499566</ele>
        <time>2022-08-10T16:57:01.182Z</time>
      </trkpt>
      <trkpt lat="47.78537" lon="-2.42503">
        <ele>24.54556477309</ele>
        <time>2022-08-10T16:57:06.195Z</time>
      </trkpt>
      <trkpt lat="47.78567" lon="-2.42498">
        <ele>22.73966524493</ele>
        <time>2022-08-10T16:57:11.213Z</time>
      </trkpt>
      <trkpt lat="47.7858" lon="-2.42501">
        <ele>21.12421682308</ele>
        <time>2022-08-10T16:57:16.233Z</time>
      </trkpt>
      <trkpt lat="47.7858" lon="-2.42507">
        <ele>19.76270159471</ele>
        <time>2022-08-10T16:57:21.254Z</time>
      </trkpt>
      <trkpt lat="47.78582" lon="-2.42517">
        <ele>18.60846309904</ele>
        <time>2022-08-10T16:57:26.276Z</time>
      </trkpt>
      <trkpt lat="47.78584" lon="-2.42535">
        <ele>17.68205496338</ele>
        <time>2022-08-10T16:57:31.300Z</time>
      </trkpt>
      <trkpt lat="47.78596" lon="-2.42561">
        <ele>16.94085256814</ele>
        <time>2022-08-10T16:57:36.327Z</time>
      </trkpt>
      <trkpt lat="47.786" lon="-2.42576">
        <ele>16.45614628457</ele>
        <time>2022-08-10T16:57:41.356Z</time>
      </trkpt>
      <trkpt lat="47.78602" lon="-2.42591">
        <ele>16.21256816648</ele>
        <time>2022-08-10T16:57:46.387Z</time>
      </trkpt>
      <trkpt lat="47.78608" lon="-2.42645">
        <ele>16.20323712895</ele>
        <time>2022-08-10T16:57:51.424Z</time>
      </trkpt>
      <trkpt lat="47.78603" lon="-2.42591">
        <ele>16.40356289055</ele>
        <time>2022-08-10T16:57:56.467Z</time>
      </trkpt>
      <trkpt lat="47.7861" lon="-2.42671">
        <ele>16.79417973666</ele>
        <time>2022-08-10T16:58:01.518Z</time>
      </trkpt>
      <trkpt lat="47.78621" lon="-2.42756">
        <ele>17.4233185808</ele>
        <time>2022-08-10T16:58:06.579Z</time>
      </trkpt>
      <trkpt lat="47.78638" lon="-2.4287">
        <ele>18.16996414597</ele>
        <time>2022-08-10T16:58:11.652Z</time>
      </trkpt>
      <trkpt lat="47.78645" lon="-2.42892">
        <ele>19.04283379138</ele>
        <time>2022-08-10T16:58:16.728Z</time>
      </trkpt>
      <trkpt lat="47.78667" lon="-2.42932">
        <ele>20.04361041749</ele>
        <time>2022-08-10T16:58:21.809Z</time>
      </trkpt>
      <trkpt lat="47.7872" lon="-2.43025">
        <ele>21.11025951541</ele>
        <time>2022-08-10T16:58:26.904Z</time>
      </trkpt>
      <trkpt lat="47.78738" lon="-2.43057">
        <ele>22.19299254114</ele>
        <time>2022-08-10T16:58:32.003Z</time>
      </trkpt>
      <trkpt lat="47.78756" lon="-2.43104">
        <ele>23.34526415018</ele>
        <time>2022-08-10T16:58:37.108Z</time>
      </trkpt>
      <trkpt lat="47.78812" lon="-2.43385">
        <ele>24.65815645542</ele>
        <time>2022-08-10T16:58:42.244Z</time>
      </trkpt>
      <trkpt lat="47.7881" lon="-2.4342">
        <ele>25.74478777761</ele>
        <time>2022-08-10T16:58:47.384Z</time>
      </trkpt>
      <trkpt lat="47.78793" lon="-2.4346">
        <ele>26.76466022837</ele>
        <time>2022-08-10T16:58:52.529Z</time>
      </trkpt>
      <trkpt lat="47.7876" lon="-2.43525">
        <ele>27.82133268499</ele>
        <time>2022-08-10T16:58:57.683Z</time>
      </trkpt>
      <trkpt lat="47.7874" lon="-2.43573">
        <ele>28.75357637239</ele>
        <time>2022-08-10T16:59:02.843Z</time>
      </trkpt>
      <trkpt lat="47.78734" lon="-2.4361">
        <ele>29.54612429272</ele>
        <time>2022-08-10T16:59:08.007Z</time>
      </trkpt>
      <trkpt lat="47.78738" lon="-2.43665">
        <ele>30.2245132145</ele>
        <time>2022-08-10T16:59:13.177Z</time>
      </trkpt>
      <trkpt lat="47.78747" lon="-2.4371">
        <ele>30.77633509667</ele>
        <time>2022-08-10T16:59:18.352Z</time>
      </trkpt>
      <trkpt lat="47.7875" lon="-2.43759">
        <ele>31.21524107801</ele>
        <time>2022-08-10T16:59:23.533Z</time>
      </trkpt>
      <trkpt lat="47.78753" lon="-2.4382">
        <ele>31.63032483746</ele>
        <time>2022-08-10T16:59:28.720Z</time>
      </trkpt>
      <trkpt lat="47.78757" lon="-2.4392">
        <ele>31.83161854658</ele>
        <time>2022-08-10T16:59:33.918Z</time>
      </trkpt>
      <trkpt lat="47.78776" lon="-2.43946">
        <ele>31.80012929058</ele>
        <time>2022-08-10T16:59:39.120Z</time>
      </trkpt>
      <trkpt lat="47.78794" lon="-2.43966">
        <ele>31.69379093728</ele>
        <time>2022-08-10T16:59:44.326Z</time>
      </trkpt>
      <trkpt lat="47.78808" lon="-2.43985">
        <ele>31.52587010141</ele>
        <time>2022-08-10T16:59:49.535Z</time>
      </trkpt>
      <trkpt lat="47.78817" lon="-2.44004">
        <ele>31.26195758994</ele>
        <time>2022-08-10T16:59:54.746Z</time>
      </trkpt>
      <trkpt lat="47.78823" lon="-2.44025">
        <ele>30.9142139545</ele>
        <time>2022-08-10T16:59:59.960Z</time>
      </trkpt>
      <trkpt lat="47.78827" lon="-2.44063">
        <ele>30.47797035014</ele>
        <time>2022-08-10T17:00:05.178Z</time>
      </trkpt>
      <trkpt lat="47.7883" lon="-2.44117">
        <ele>29.99951399906</ele>
        <time>2022-08-10T17:00:10.402Z</time>
      </trkpt>
      <trkpt lat="47.78833" lon="-2.44181">
        <ele>29.46990228444</ele>
        <time>2022-08-10T17:00:15.633Z</time>
      </trkpt>
      <trkpt lat="47.78827" lon="-2.44216">
        <ele>28.88675253433</ele>
        <time>2022-08-10T17:00:20.868Z</time>
      </trkpt>
      <trkpt lat="47.7881" lon="-2.44278">
        <ele>28.19837800025</ele>
        <time>2022-08-10T17:00:26.110Z</time>
      </trkpt>
      <trkpt lat="47.78808" lon="-2.44304">
        <ele>27.59447586725</ele>
        <time>2022-08-10T17:00:31.355Z</time>
      </trkpt>
      <trkpt lat="47.78812" lon="-2.44338">
        <ele>27.08706300007</ele>
        <time>2022-08-10T17:00:36.603Z</time>
      </trkpt>
      <trkpt lat="47.78815" lon="-2.4438">
        <ele>26.70647371978</ele>
        <time>2022-08-10T17:00:41.856Z</time>
      </trkpt>
      <trkpt lat="47.78814" lon="-2.44411">
        <ele>26.35189335206</ele>
        <time>2022-08-10T17:00:47.112Z</time>
      </trkpt>
      <trkpt lat="47.78809" lon="-2.44464">
        <ele>26.03441681772</ele>
        <time>2022-08-10T17:00:52.374Z</time>
      </trkpt>
      <trkpt lat="47.788" lon="-2.44517">
        <ele>25.69810596393</ele>
        <time>2022-08-10T17:00:57.642Z</time>
      </trkpt>
      <trkpt lat="47.78791" lon="-2.4458">
        <ele>25.35056361726</ele>
        <time>2022-08-10T17:01:02.917Z</time>
      </trkpt>
      <trkpt lat="47.7878" lon="-2.4463">
        <ele>25.0563161115</ele>
        <time>2022-08-10T17:01:08.198Z</time>
      </trkpt>
      <trkpt lat="47.78764" lon="-2.44678">
        <ele>24.847640533</ele>
        <time>2022-08-10T17:01:13.484Z</time>
      </trkpt>
      <trkpt lat="47.78756" lon="-2.44708">
        <ele>24.72070046288</ele>
        <time>2022-08-10T17:01:18.774Z</time>
      </trkpt>
      <trkpt lat="47.78756" lon="-2.44724">
        <ele>24.67232406728</ele>
        <time>2022-08-10T17:01:24.066Z</time>
      </trkpt>
      <trkpt lat="47.78764" lon="-2.44743">
        <ele>24.67676298409</ele>
        <time>2022-08-10T17:01:29.360Z</time>
      </trkpt>
      <trkpt lat="47.78795" lon="-2.44761">
        <ele>24.76880738184</ele>
        <time>2022-08-10T17:01:34.659Z</time>
      </trkpt>
      <trkpt lat="47.78812" lon="-2.44772">
        <ele>25.01331977231</ele>
        <time>2022-08-10T17:01:39.961Z</time>
      </trkpt>
      <trkpt lat="47.78859" lon="-2.4481">
        <ele>25.39337001637</ele>
        <time>2022-08-10T17:01:45.272Z</time>
      </trkpt>
      <trkpt lat="47.78922" lon="-2.4485">
        <ele>25.97184872252</ele>
        <time>2022-08-10T17:01:50.594Z</time>
      </trkpt>
      <trkpt lat="47.78983" lon="-2.44883">
        <ele>26.70226298376</ele>
        <time>2022-08-10T17:01:55.926Z</time>
      </trkpt>
      <trkpt lat="47.79004" lon="-2.44888">
        <ele>27.42041136246</ele>
        <time>2022-08-10T17:02:01.262Z</time>
      </trkpt>
      <trkpt lat="47.79037" lon="-2.44893">
        <ele>28.1693885817</ele>
        <time>2022-08-10T17:02:06.603Z</time>
      </trkpt>
      <trkpt lat="47.79059" lon="-2.44893">
        <ele>28.98614691613</ele>
        <time>2022-08-10T17:02:11.948Z</time>
      </trkpt>
      <trkpt lat="47.79075" lon="-2.44894">
        <ele>29.83868639895</ele>
        <time>2022-08-10T17:02:17.295Z</time>
      </trkpt>
      <trkpt lat="47.79106" lon="-2.44887">
        <ele>30.75618370492</ele>
        <time>2022-08-10T17:02:22.647Z</time>
      </trkpt>
      <trkpt lat="47.79159" lon="-2.44869">
        <ele>31.74078397039</ele>
        <time>2022-08-10T17:02:28.008Z</time>
      </trkpt>
      <trkpt lat="47.79214" lon="-2.44852">
        <ele>32.64140652871</ele>
        <time>2022-08-10T17:02:33.378Z</time>
      </trkpt>
      <trkpt lat="47.79236" lon="-2.44851">
        <ele>33.59498570192</ele>
        <time>2022-08-10T17:02:38.751Z</time>
      </trkpt>
      <trkpt lat="47.79246" lon="-2.4486">
        <ele>34.56860959766</ele>
        <time>2022-08-10T17:02:44.126Z</time>
      </trkpt>
      <trkpt lat="47.79248" lon="-2.44868">
        <ele>35.53400937607</ele>
        <time>2022-08-10T17:02:49.502Z</time>
      </trkpt>
      <trkpt lat="47.79251" lon="-2.4488">
        <ele>36.48998174508</ele>
        <time>2022-08-10T17:02:54.880Z</time>
      </trkpt>
      <trkpt lat="47.79252" lon="-2.44922">
        <ele>37.47361559729</ele>
        <time>2022-08-10T17:03:00.262Z</time>
      </trkpt>
      <trkpt lat="47.79254" lon="-2.44965">
        <ele>38.41983967247</ele>
        <time>2022-08-10T17:03:05.649Z</time>
      </trkpt>
      <trkpt lat="47.79258" lon="-2.44985">
        <ele>39.3664444683</ele>
        <time>2022-08-10T17:03:11.038Z</time>
      </trkpt>
      <trkpt lat="47.79262" lon="-2.44998">
        <ele>40.30465173232</ele>
        <time>2022-08-10T17:03:16.428Z</time>
      </trkpt>
      <trkpt lat="47.79271" lon="-2.45007">
        <ele>41.22600953211</ele>
        <time>2022-08-10T17:03:21.820Z</time>
      </trkpt>
      <trkpt lat="47.79289" lon="-2.45015">
        <ele>42.13840371459</ele>
        <time>2022-08-10T17:03:27.215Z</time>
      </trkpt>
      <trkpt lat="47.79325" lon="-2.45019">
        <ele>43.01209306819</ele>
        <time>2022-08-10T17:03:32.616Z</time>
      </trkpt>
      <trkpt lat="47.79349" lon="-2.45024">
        <ele>43.8283545452</ele>
        <time>2022-08-10T17:03:38.021Z</time>
      </trkpt>
      <trkpt lat="47.79412" lon="-2.45016">
        <ele>44.64711932773</ele>
        <time>2022-08-10T17:03:43.436Z</time>
      </trkpt>
      <trkpt lat="47.79465" lon="-2.45006">
        <ele>45.47836343636</ele>
        <time>2022-08-10T17:03:48.860Z</time>
      </trkpt>
      <trkpt lat="47.79537" lon="-2.44994">
        <ele>46.39477570788</ele>
        <time>2022-08-10T17:03:54.295Z</time>
      </trkpt>
      <trkpt lat="47.79554" lon="-2.45">
        <ele>47.05304568801</ele>
        <time>2022-08-10T17:03:59.733Z</time>
      </trkpt>
      <trkpt lat="47.79566" lon="-2.45011">
        <ele>47.63104151112</ele>
        <time>2022-08-10T17:04:05.173Z</time>
      </trkpt>
      <trkpt lat="47.79579" lon="-2.45038">
        <ele>48.13757477671</ele>
        <time>2022-08-10T17:04:10.617Z</time>
      </trkpt>
      <trkpt lat="47.79588" lon="-2.4506">
        <ele>48.54008196867</ele>
        <time>2022-08-10T17:04:16.064Z</time>
      </trkpt>
      <trkpt lat="47.79605" lon="-2.45105">
        <ele>48.94303858241</ele>
        <time>2022-08-10T17:04:21.516Z</time>
      </trkpt>
      <trkpt lat="47.79615" lon="-2.45138">
        <ele>49.29777599348</ele>
        <time>2022-08-10T17:04:26.972Z</time>
      </trkpt>
      <trkpt lat="47.7962" lon="-2.45163">
        <ele>49.59097658207</ele>
        <time>2022-08-10T17:04:32.431Z</time>
      </trkpt>
      <trkpt lat="47.7963" lon="-2.45208">
        <ele>49.84735784084</ele>
        <time>2022-08-10T17:04:37.895Z</time>
      </trkpt>
      <trkpt lat="47.79648" lon="-2.45248">
        <ele>50.00129648389</ele>
        <time>2022-08-10T17:04:43.364Z</time>
      </trkpt>
      <trkpt lat="47.79659" lon="-2.45264">
        <ele>50.22891443431</ele>
        <time>2022-08-10T17:04:48.836Z</time>
      </trkpt>
      <trkpt lat="47.79672" lon="-2.45275">
        <ele>50.46247771003</ele>
        <time>2022-08-10T17:04:54.310Z</time>
      </trkpt>
      <trkpt lat="47.79687" lon="-2.45291">
        <ele>50.74617547018</ele>
        <time>2022-08-10T17:04:59.787Z</time>
      </trkpt>
      <trkpt lat="47.79704" lon="-2.45321">
        <ele>51.13534180118</ele>
        <time>2022-08-10T17:05:05.268Z</time>
      </trkpt>
      <trkpt lat="47.79714" lon="-2.45346">
        <ele>51.53025410859</ele>
        <time>2022-08-10T17:05:10.752Z</time>
      </trkpt>
      <trkpt lat="47.79719" lon="-2.45357">
        <ele>51.90831020732</ele>
        <time>2022-08-10T17:05:16.238Z</time>
      </trkpt>
      <trkpt lat="47.79714" lon="-2.45345">
        <ele>52.23661841077</ele>
        <time>2022-08-10T17:05:21.725Z</time>
      </trkpt>
      <trkpt lat="47.79724" lon="-2.45373">
        <ele>52.71460489257</ele>
        <time>2022-08-10T17:05:27.216Z</time>
      </trkpt>
      <trkpt lat="47.79732" lon="-2.45406">
        <ele>53.20379207337</ele>
        <time>2022-08-10T17:05:32.711Z</time>
      </trkpt>
      <trkpt lat="47.79736" lon="-2.45433">
        <ele>53.65959063375</ele>
        <time>2022-08-10T17:05:38.208Z</time>
      </trkpt>
      <trkpt lat="47.79737" lon="-2.45486">
        <ele>54.14548747013</ele>
        <time>2022-08-10T17:05:43.711Z</time>
      </trkpt>
      <trkpt lat="47.79733" lon="-2.4555">
        <ele>54.56782268951</ele>
        <time>2022-08-10T17:05:49.221Z</time>
      </trkpt>
      <trkpt lat="47.79733" lon="-2.45603">
        <ele>55.01627613631</ele>
        <time>2022-08-10T17:05:54.737Z</time>
      </trkpt>
      <trkpt lat="47.79742" lon="-2.45678">
        <ele>55.49536394727</ele>
        <time>2022-08-10T17:06:00.261Z</time>
      </trkpt>
      <trkpt lat="47.79752" lon="-2.4576">
        <ele>56.00842684018</ele>
        <time>2022-08-10T17:06:05.794Z</time>
      </trkpt>
      <trkpt lat="47.79758" lon="-2.45814">
        <ele>56.44524410528</ele>
        <time>2022-08-10T17:06:11.333Z</time>
      </trkpt>
      <trkpt lat="47.79758" lon="-2.45866">
        <ele>56.92901945177</ele>
        <time>2022-08-10T17:06:16.878Z</time>
      </trkpt>
      <trkpt lat="47.79761" lon="-2.45905">
        <ele>57.44410594699</ele>
        <time>2022-08-10T17:06:22.427Z</time>
      </trkpt>
      <trkpt lat="47.79765" lon="-2.45925">
        <ele>58.06885845387</ele>
        <time>2022-08-10T17:06:27.978Z</time>
      </trkpt>
      <trkpt lat="47.7978" lon="-2.46011">
        <ele>58.70122427104</ele>
        <time>2022-08-10T17:06:33.539Z</time>
      </trkpt>
      <trkpt lat="47.79788" lon="-2.4608">
        <ele>59.51401671475</ele>
        <time>2022-08-10T17:06:39.107Z</time>
      </trkpt>
      <trkpt lat="47.79794" lon="-2.46102">
        <ele>60.46207873658</ele>
        <time>2022-08-10T17:06:44.678Z</time>
      </trkpt>
      <trkpt lat="47.79802" lon="-2.4612">
        <ele>61.56357839267</ele>
        <time>2022-08-10T17:06:50.251Z</time>
      </trkpt>
      <trkpt lat="47.79811" lon="-2.46134">
        <ele>62.84792508538</ele>
        <time>2022-08-10T17:06:55.826Z</time>
      </trkpt>
      <trkpt lat="47.79831" lon="-2.46151">
        <ele>64.2654282161</ele>
        <time>2022-08-10T17:07:01.405Z</time>
      </trkpt>
      <trkpt lat="47.79833" lon="-2.46152">
        <ele>65.80944461502</ele>
        <time>2022-08-10T17:07:06.984Z</time>
      </trkpt>
      <trkpt lat="47.79881" lon="-2.46179">
        <ele>67.59822865524</ele>
        <time>2022-08-10T17:07:12.571Z</time>
      </trkpt>
      <trkpt lat="47.79911" lon="-2.46196">
        <ele>69.42806468369</ele>
        <time>2022-08-10T17:07:18.164Z</time>
      </trkpt>
      <trkpt lat="47.79941" lon="-2.46203">
        <ele>71.40666427583</ele>
        <time>2022-08-10T17:07:23.761Z</time>
      </trkpt>
      <trkpt lat="47.80061" lon="-2.46216">
        <ele>73.63668957073</ele>
        <time>2022-08-10T17:07:29.378Z</time>
      </trkpt>
      <trkpt lat="47.80207" lon="-2.46233">
        <ele>75.6375817333</ele>
        <time>2022-08-10T17:07:35.018Z</time>
      </trkpt>
      <trkpt lat="47.80297" lon="-2.46244">
        <ele>77.60246167849</ele>
        <time>2022-08-10T17:07:40.673Z</time>
      </trkpt>
      <trkpt lat="47.8032" lon="-2.46246">
        <ele>79.41305464714</ele>
        <time>2022-08-10T17:07:46.331Z</time>
      </trkpt>
      <trkpt lat="47.80347" lon="-2.46253">
        <ele>81.12546131511</ele>
        <time>2022-08-10T17:07:51.994Z</time>
      </trkpt>
      <trkpt lat="47.80368" lon="-2.46262">
        <ele>82.69547176451</ele>
        <time>2022-08-10T17:07:57.660Z</time>
      </trkpt>
      <trkpt lat="47.8039" lon="-2.46275">
        <ele>84.14021182043</ele>
        <time>2022-08-10T17:08:03.330Z</time>
      </trkpt>
      <trkpt lat="47.80412" lon="-2.4629">
        <ele>85.38422632186</ele>
        <time>2022-08-10T17:08:09.004Z</time>
      </trkpt>
      <trkpt lat="47.80439" lon="-2.46315">
        <ele>86.40785529582</ele>
        <time>2022-08-10T17:08:14.683Z</time>
      </trkpt>
      <trkpt lat="47.80455" lon="-2.46335">
        <ele>87.28230175558</ele>
        <time>2022-08-10T17:08:20.365Z</time>
      </trkpt>
      <trkpt lat="47.80492" lon="-2.4639">
        <ele>88.02380988773</ele>
        <time>2022-08-10T17:08:26.056Z</time>
      </trkpt>
      <trkpt lat="47.80636" lon="-2.46612">
        <ele>88.5122876682</ele>
        <time>2022-08-10T17:08:31.780Z</time>
      </trkpt>
      <trkpt lat="47.80884" lon="-2.46994">
        <ele>88.57445444334</ele>
        <time>2022-08-10T17:08:37.561Z</time>
      </trkpt>
      <trkpt lat="47.80971" lon="-2.47132">
        <ele>88.76850105552</ele>
        <time>2022-08-10T17:08:43.363Z</time>
      </trkpt>
      <trkpt lat="47.80979" lon="-2.47155">
        <ele>88.75195493089</ele>
        <time>2022-08-10T17:08:49.167Z</time>
      </trkpt>
      <trkpt lat="47.80984" lon="-2.4718">
        <ele>88.58696386458</ele>
        <time>2022-08-10T17:08:54.974Z</time>
      </trkpt>
      <trkpt lat="47.80985" lon="-2.47215">
        <ele>88.31906899714</ele>
        <time>2022-08-10T17:09:00.785Z</time>
      </trkpt>
      <trkpt lat="47.80983" lon="-2.47246">
        <ele>87.89795167508</ele>
        <time>2022-08-10T17:09:06.599Z</time>
      </trkpt>
      <trkpt lat="47.80968" lon="-2.47334">
        <ele>87.33395869531</ele>
        <time>2022-08-10T17:09:12.423Z</time>
      </trkpt>
      <trkpt lat="47.80952" lon="-2.47437">
        <ele>86.70651434163</ele>
        <time>2022-08-10T17:09:18.258Z</time>
      </trkpt>
      <trkpt lat="47.8092" lon="-2.47632">
        <ele>86.10501693837</ele>
        <time>2022-08-10T17:09:24.115Z</time>
      </trkpt>
      <trkpt lat="47.80912" lon="-2.47684">
        <ele>85.37777828382</ele>
        <time>2022-08-10T17:09:29.978Z</time>
      </trkpt>
      <trkpt lat="47.80909" lon="-2.47731">
        <ele>84.59352930361</ele>
        <time>2022-08-10T17:09:35.846Z</time>
      </trkpt>
      <trkpt lat="47.8091" lon="-2.47773">
        <ele>83.78133453577</ele>
        <time>2022-08-10T17:09:41.718Z</time>
      </trkpt>
      <trkpt lat="47.80921" lon="-2.47851">
        <ele>82.93275594633</ele>
        <time>2022-08-10T17:09:47.599Z</time>
      </trkpt>
      <trkpt lat="47.80936" lon="-2.47947">
        <ele>82.09631881947</ele>
        <time>2022-08-10T17:09:53.491Z</time>
      </trkpt>
      <trkpt lat="47.80949" lon="-2.48025">
        <ele>81.27038494235</ele>
        <time>2022-08-10T17:09:59.391Z</time>
      </trkpt>
      <trkpt lat="47.8097" lon="-2.48155">
        <ele>80.65553547897</ele>
        <time>2022-08-10T17:10:05.306Z</time>
      </trkpt>
      <trkpt lat="47.80994" lon="-2.48312">
        <ele>80.0687589063</ele>
        <time>2022-08-10T17:10:11.238Z</time>
      </trkpt>
      <trkpt lat="47.81012" lon="-2.48431">
        <ele>79.59404600241</ele>
        <time>2022-08-10T17:10:17.183Z</time>
      </trkpt>
      <trkpt lat="47.81024" lon="-2.48549">
        <ele>79.29270041024</ele>
        <time>2022-08-10T17:10:23.141Z</time>
      </trkpt>
      <trkpt lat="47.81053" lon="-2.48813">
        <ele>79.23949105224</ele>
        <time>2022-08-10T17:10:29.128Z</time>
      </trkpt>
      <trkpt lat="47.81068" lon="-2.48945">
        <ele>79.24035173471</ele>
        <time>2022-08-10T17:10:35.129Z</time>
      </trkpt>
      <trkpt lat="47.81072" lon="-2.48971">
        <ele>79.36569409599</ele>
        <time>2022-08-10T17:10:41.133Z</time>
      </trkpt>
      <trkpt lat="47.81084" lon="-2.49022">
        <ele>79.62648700381</ele>
        <time>2022-08-10T17:10:47.143Z</time>
      </trkpt>
      <trkpt lat="47.81117" lon="-2.49126">
        <ele>80.21658644948</ele>
        <time>2022-08-10T17:10:53.166Z</time>
      </trkpt>
      <trkpt lat="47.81177" lon="-2.49305">
        <ele>80.81327167459</ele>
        <time>2022-08-10T17:10:59.210Z</time>
      </trkpt>
      <trkpt lat="47.81191" lon="-2.49354">
        <ele>81.36732341319</ele>
        <time>2022-08-10T17:11:05.260Z</time>
      </trkpt>
      <trkpt lat="47.81196" lon="-2.4938">
        <ele>81.86338222903</ele>
        <time>2022-08-10T17:11:11.313Z</time>
      </trkpt>
      <trkpt lat="47.81215" lon="-2.49511">
        <ele>82.1609176525</ele>
        <time>2022-08-10T17:11:17.380Z</time>
      </trkpt>
      <trkpt lat="47.8122" lon="-2.49536">
        <ele>82.66136615819</ele>
        <time>2022-08-10T17:11:23.450Z</time>
      </trkpt>
      <trkpt lat="47.81233" lon="-2.49586">
        <ele>83.1889284817</ele>
        <time>2022-08-10T17:11:29.526Z</time>
      </trkpt>
      <trkpt lat="47.81242" lon="-2.49609">
        <ele>83.69381090175</ele>
        <time>2022-08-10T17:11:35.605Z</time>
      </trkpt>
      <trkpt lat="47.81263" lon="-2.4965">
        <ele>84.21003752283</ele>
        <time>2022-08-10T17:11:41.689Z</time>
      </trkpt>
      <trkpt lat="47.81303" lon="-2.49708">
        <ele>84.41451034057</ele>
        <time>2022-08-10T17:11:47.782Z</time>
      </trkpt>
      <trkpt lat="47.81326" lon="-2.49739">
        <ele>84.65112866803</ele>
        <time>2022-08-10T17:11:53.880Z</time>
      </trkpt>
      <trkpt lat="47.81458" lon="-2.49923">
        <ele>84.98360931598</ele>
        <time>2022-08-10T17:12:00.007Z</time>
      </trkpt>
      <trkpt lat="47.81478" lon="-2.49954">
        <ele>85.10306095267</ele>
        <time>2022-08-10T17:12:06.139Z</time>
      </trkpt>
      <trkpt lat="47.81516" lon="-2.50011">
        <ele>85.11853690949</ele>
        <time>2022-08-10T17:12:12.279Z</time>
      </trkpt>
      <trkpt lat="47.8156" lon="-2.50073">
        <ele>84.98132084859</ele>
        <time>2022-08-10T17:12:18.429Z</time>
      </trkpt>
      <trkpt lat="47.81599" lon="-2.50129">
        <ele>84.79878907955</ele>
        <time>2022-08-10T17:12:24.588Z</time>
      </trkpt>
      <trkpt lat="47.81612" lon="-2.50147">
        <ele>84.43868914411</ele>
        <time>2022-08-10T17:12:30.750Z</time>
      </trkpt>
      <trkpt lat="47.81623" lon="-2.5016">
        <ele>83.96414849438</ele>
        <time>2022-08-10T17:12:36.914Z</time>
      </trkpt>
      <trkpt lat="47.8164" lon="-2.50181">
        <ele>83.30400179942</ele>
        <time>2022-08-10T17:12:43.081Z</time>
      </trkpt>
      <trkpt lat="47.81654" lon="-2.50198">
        <ele>82.5047057453</ele>
        <time>2022-08-10T17:12:49.251Z</time>
      </trkpt>
      <trkpt lat="47.81669" lon="-2.50212">
        <ele>81.51608443134</ele>
        <time>2022-08-10T17:12:55.424Z</time>
      </trkpt>
      <trkpt lat="47.81677" lon="-2.50218">
        <ele>80.40082699778</ele>
        <time>2022-08-10T17:13:01.599Z</time>
      </trkpt>
      <trkpt lat="47.81685" lon="-2.50224">
        <ele>79.15666067835</ele>
        <time>2022-08-10T17:13:07.775Z</time>
      </trkpt>
      <trkpt lat="47.8173" lon="-2.50247">
        <ele>77.69100696792</ele>
        <time>2022-08-10T17:13:13.959Z</time>
      </trkpt>
      <trkpt lat="47.81777" lon="-2.50274">
        <ele>76.1845538735</ele>
        <time>2022-08-10T17:13:20.151Z</time>
      </trkpt>
      <trkpt lat="47.8179" lon="-2.50285">
        <ele>74.6417317661</ele>
        <time>2022-08-10T17:13:26.345Z</time>
      </trkpt>
      <trkpt lat="47.81791" lon="-2.50286">
        <ele>73.06156168168</ele>
        <time>2022-08-10T17:13:32.539Z</time>
      </trkpt>
      <trkpt lat="47.81809" lon="-2.50306">
        <ele>71.3774439359</ele>
        <time>2022-08-10T17:13:38.737Z</time>
      </trkpt>
      <trkpt lat="47.8187" lon="-2.50387">
        <ele>69.51385989214</ele>
        <time>2022-08-10T17:13:44.948Z</time>
      </trkpt>
      <trkpt lat="47.81873" lon="-2.50391">
        <ele>67.91681824626</ele>
        <time>2022-08-10T17:13:51.160Z</time>
      </trkpt>
      <trkpt lat="47.81912" lon="-2.50445">
        <ele>66.35230216547</ele>
        <time>2022-08-10T17:13:57.380Z</time>
      </trkpt>
      <trkpt lat="47.81953" lon="-2.50495">
        <ele>64.74792098603</ele>
        <time>2022-08-10T17:14:03.609Z</time>
      </trkpt>
      <trkpt lat="47.81963" lon="-2.50503">
        <ele>63.38063077524</ele>
        <time>2022-08-10T17:14:09.840Z</time>
      </trkpt>
      <trkpt lat="47.81992" lon="-2.50525">
        <ele>62.11302744716</ele>
        <time>2022-08-10T17:14:16.076Z</time>
      </trkpt>
      <trkpt lat="47.82025" lon="-2.50543">
        <ele>61.01745996421</ele>
        <time>2022-08-10T17:14:22.317Z</time>
      </trkpt>
      <trkpt lat="47.82037" lon="-2.50549">
        <ele>60.06700493182</ele>
        <time>2022-08-10T17:14:28.560Z</time>
      </trkpt>
      <trkpt lat="47.82025" lon="-2.50543">
        <ele>61.01745996421</ele>
        <time>2022-08-10T17:14:34.805Z</time>
      </trkpt>
      <trkpt lat="47.82025" lon="-2.50543">
        <ele>58.70221272665</ele>
        <time>2022-08-10T17:14:41.050Z</time>
      </trkpt>
      <trkpt lat="47.82037" lon="-2.50549">
        <ele>60.06700493182</ele>
        <time>2022-08-10T17:14:47.297Z</time>
      </trkpt>
      <trkpt lat="47.82048" lon="-2.50532">
        <ele>57.95941469827</ele>
        <time>2022-08-10T17:14:53.547Z</time>
      </trkpt>
      <trkpt lat="47.82079" lon="-2.50554">
        <ele>57.79021397992</ele>
        <time>2022-08-10T17:14:59.803Z</time>
      </trkpt>
      <trkpt lat="47.82119" lon="-2.50575">
        <ele>57.84246369878</ele>
        <time>2022-08-10T17:15:06.065Z</time>
      </trkpt>
      <trkpt lat="47.82146" lon="-2.50583">
        <ele>58.07794817873</ele>
        <time>2022-08-10T17:15:12.332Z</time>
      </trkpt>
      <trkpt lat="47.82181" lon="-2.50584">
        <ele>58.50720449531</ele>
        <time>2022-08-10T17:15:18.604Z</time>
      </trkpt>
      <trkpt lat="47.82206" lon="-2.50584">
        <ele>59.03499343717</ele>
        <time>2022-08-10T17:15:24.880Z</time>
      </trkpt>
      <trkpt lat="47.82213" lon="-2.50584">
        <ele>59.62764497576</ele>
        <time>2022-08-10T17:15:31.157Z</time>
      </trkpt>
      <trkpt lat="47.82206" lon="-2.50584">
        <ele>59.03499343717</ele>
        <time>2022-08-10T17:15:37.436Z</time>
      </trkpt>
      <trkpt lat="47.82206" lon="-2.50584">
        <ele>60.96948506765</ele>
        <time>2022-08-10T17:15:43.715Z</time>
      </trkpt>
      <trkpt lat="47.82213" lon="-2.50584">
        <ele>59.62764497576</ele>
        <time>2022-08-10T17:15:49.995Z</time>
      </trkpt>
      <trkpt lat="47.82219" lon="-2.50605">
        <ele>62.62856211871</ele>
        <time>2022-08-10T17:15:56.277Z</time>
      </trkpt>
      <trkpt lat="47.82235" lon="-2.50655">
        <ele>63.50236727804</ele>
        <time>2022-08-10T17:16:02.565Z</time>
      </trkpt>
      <trkpt lat="47.82239" lon="-2.50662">
        <ele>64.35976873688</ele>
        <time>2022-08-10T17:16:08.854Z</time>
      </trkpt>
      <trkpt lat="47.82243" lon="-2.50666">
        <ele>65.21264347226</ele>
        <time>2022-08-10T17:16:15.144Z</time>
      </trkpt>
      <trkpt lat="47.82264" lon="-2.50623">
        <ele>66.17273182369</ele>
        <time>2022-08-10T17:16:21.440Z</time>
      </trkpt>
      <trkpt lat="47.82279" lon="-2.50589">
        <ele>66.97550293499</ele>
        <time>2022-08-10T17:16:27.740Z</time>
      </trkpt>
      <trkpt lat="47.82299" lon="-2.50546">
        <ele>67.7578403943</ele>
        <time>2022-08-10T17:16:34.046Z</time>
      </trkpt>
      <trkpt lat="47.82303" lon="-2.50551">
        <ele>68.50205148389</ele>
        <time>2022-08-10T17:16:40.353Z</time>
      </trkpt>
      <trkpt lat="47.82315" lon="-2.50563">
        <ele>69.21677976689</ele>
        <time>2022-08-10T17:16:46.662Z</time>
      </trkpt>
      <trkpt lat="47.82322" lon="-2.50573">
        <ele>69.86824352871</ele>
        <time>2022-08-10T17:16:52.973Z</time>
      </trkpt>
      <trkpt lat="47.82324" lon="-2.50583">
        <ele>70.44437296709</ele>
        <time>2022-08-10T17:16:59.285Z</time>
      </trkpt>
      <trkpt lat="47.82325" lon="-2.5061">
        <ele>70.97130018012</ele>
        <time>2022-08-10T17:17:05.600Z</time>
      </trkpt>
      <trkpt lat="47.82323" lon="-2.50617">
        <ele>71.42849579061</ele>
        <time>2022-08-10T17:17:11.915Z</time>
      </trkpt>
      <trkpt lat="47.82338" lon="-2.50625">
        <ele>71.8524898763</ele>
        <time>2022-08-10T17:17:18.233Z</time>
      </trkpt>
      <trkpt lat="47.82384" lon="-2.5064">
        <ele>72.24689316735</ele>
        <time>2022-08-10T17:17:24.558Z</time>
      </trkpt>
      <trkpt lat="47.82386" lon="-2.50641">
        <ele>72.55190747937</ele>
        <time>2022-08-10T17:17:30.884Z</time>
      </trkpt>
      <trkpt lat="47.82384" lon="-2.5064">
        <ele>72.81794022497</ele>
        <time>2022-08-10T17:17:37.210Z</time>
      </trkpt>
      <trkpt lat="47.82418" lon="-2.50653">
        <ele>73.03093750511</ele>
        <time>2022-08-10T17:17:43.542Z</time>
      </trkpt>
      <trkpt lat="47.82436" lon="-2.50662">
        <ele>73.23026434735</ele>
        <time>2022-08-10T17:17:49.877Z</time>
      </trkpt>
      <trkpt lat="47.8244" lon="-2.50657">
        <ele>73.42166092319</ele>
        <time>2022-08-10T17:17:56.213Z</time>
      </trkpt>
      <trkpt lat="47.82442" lon="-2.50654">
        <ele>73.6004457979</ele>
        <time>2022-08-10T17:18:02.549Z</time>
      </trkpt>
      <trkpt lat="47.82445" lon="-2.50652">
        <ele>73.77824272965</ele>
        <time>2022-08-10T17:18:08.886Z</time>
      </trkpt>
      <trkpt lat="47.82467" lon="-2.50645">
        <ele>73.96804073075</ele>
        <time>2022-08-10T17:18:15.226Z</time>
      </trkpt>
      <trkpt lat="47.82476" lon="-2.50639">
        <ele>74.15757597718</ele>
        <time>2022-08-10T17:18:21.568Z</time>
      </trkpt>
      <trkpt lat="47.82491" lon="-2.50623">
        <ele>74.37168097607</ele>
        <time>2022-08-10T17:18:27.913Z</time>
      </trkpt>
      <trkpt lat="47.82508" lon="-2.50601">
        <ele>74.60481436133</ele>
        <time>2022-08-10T17:18:34.261Z</time>
      </trkpt>
      <trkpt lat="47.8252" lon="-2.50592">
        <ele>74.86573028788</ele>
        <time>2022-08-10T17:18:40.612Z</time>
      </trkpt>
      <trkpt lat="47.82525" lon="-2.50591">
        <ele>75.14271253587</ele>
        <time>2022-08-10T17:18:46.963Z</time>
      </trkpt>
      <trkpt lat="47.82534" lon="-2.5059">
        <ele>75.45155970561</ele>
        <time>2022-08-10T17:18:53.316Z</time>
      </trkpt>
      <trkpt lat="47.82549" lon="-2.50592">
        <ele>75.83178388337</ele>
        <time>2022-08-10T17:18:59.671Z</time>
      </trkpt>
      <trkpt lat="47.82591" lon="-2.50601">
        <ele>76.27762110571</ele>
        <time>2022-08-10T17:19:06.033Z</time>
      </trkpt>
      <trkpt lat="47.82649" lon="-2.50611">
        <ele>76.68554213378</ele>
        <time>2022-08-10T17:19:12.404Z</time>
      </trkpt>
      <trkpt lat="47.82663" lon="-2.50613">
        <ele>77.06672425617</ele>
        <time>2022-08-10T17:19:18.778Z</time>
      </trkpt>
      <trkpt lat="47.82692" lon="-2.50617">
        <ele>77.45844066939</ele>
        <time>2022-08-10T17:19:25.156Z</time>
      </trkpt>
      <trkpt lat="47.82713" lon="-2.50618">
        <ele>77.8725656829</ele>
        <time>2022-08-10T17:19:31.538Z</time>
      </trkpt>
      <trkpt lat="47.82724" lon="-2.50616">
        <ele>78.29791915243</ele>
        <time>2022-08-10T17:19:37.921Z</time>
      </trkpt>
      <trkpt lat="47.82734" lon="-2.50609">
        <ele>78.73051449683</ele>
        <time>2022-08-10T17:19:44.306Z</time>
      </trkpt>
      <trkpt lat="47.8274" lon="-2.50603">
        <ele>79.16798863297</ele>
        <time>2022-08-10T17:19:50.692Z</time>
      </trkpt>
      <trkpt lat="47.82745" lon="-2.50592">
        <ele>79.60807525824</ele>
        <time>2022-08-10T17:19:57.080Z</time>
      </trkpt>
      <trkpt lat="47.82751" lon="-2.50598">
        <ele>80.06791132667</ele>
        <time>2022-08-10T17:20:03.469Z</time>
      </trkpt>
      <trkpt lat="47.82761" lon="-2.50607">
        <ele>80.52076584026</ele>
        <time>2022-08-10T17:20:09.860Z</time>
      </trkpt>
      <trkpt lat="47.8277" lon="-2.5061">
        <ele>81.00143872318</ele>
        <time>2022-08-10T17:20:16.252Z</time>
      </trkpt>
      <trkpt lat="47.82777" lon="-2.50611">
        <ele>81.50317184797</ele>
        <time>2022-08-10T17:20:22.645Z</time>
      </trkpt>
      <trkpt lat="47.82853" lon="-2.50603">
        <ele>82.04818398963</ele>
        <time>2022-08-10T17:20:29.051Z</time>
      </trkpt>
      <trkpt lat="47.82861" lon="-2.50602">
        <ele>82.59694208053</ele>
        <time>2022-08-10T17:20:35.458Z</time>
      </trkpt>
      <trkpt lat="47.82894" lon="-2.50592">
        <ele>83.20515866324</ele>
        <time>2022-08-10T17:20:41.870Z</time>
      </trkpt>
      <trkpt lat="47.82931" lon="-2.50576">
        <ele>83.83629925958</ele>
        <time>2022-08-10T17:20:48.288Z</time>
      </trkpt>
      <trkpt lat="47.82952" lon="-2.5057">
        <ele>84.43654908254</ele>
        <time>2022-08-10T17:20:54.710Z</time>
      </trkpt>
      <trkpt lat="47.8307" lon="-2.50553">
        <ele>85.12764906758</ele>
        <time>2022-08-10T17:21:01.151Z</time>
      </trkpt>
      <trkpt lat="47.83115" lon="-2.50541">
        <ele>85.68596979154</ele>
        <time>2022-08-10T17:21:07.599Z</time>
      </trkpt>
      <trkpt lat="47.83134" lon="-2.50538">
        <ele>86.22998626819</ele>
        <time>2022-08-10T17:21:14.050Z</time>
      </trkpt>
      <trkpt lat="47.8315" lon="-2.50538">
        <ele>86.77692934561</ele>
        <time>2022-08-10T17:21:20.504Z</time>
      </trkpt>
      <trkpt lat="47.83225" lon="-2.50548">
        <ele>87.30660368728</ele>
        <time>2022-08-10T17:21:26.970Z</time>
      </trkpt>
      <trkpt lat="47.83228" lon="-2.50549">
        <ele>87.83193924417</ele>
        <time>2022-08-10T17:21:33.436Z</time>
      </trkpt>
      <trkpt lat="47.83228" lon="-2.50548">
        <ele>88.35076335762</ele>
        <time>2022-08-10T17:21:39.902Z</time>
      </trkpt>
      <trkpt lat="47.83266" lon="-2.50559">
        <ele>88.91112950723</ele>
        <time>2022-08-10T17:21:46.375Z</time>
      </trkpt>
      <trkpt lat="47.83314" lon="-2.50574">
        <ele>89.39548818554</ele>
        <time>2022-08-10T17:21:52.855Z</time>
      </trkpt>
      <trkpt lat="47.83398" lon="-2.50585">
        <ele>89.99323658078</ele>
        <time>2022-08-10T17:21:59.349Z</time>
      </trkpt>
      <trkpt lat="47.83479" lon="-2.50594">
        <ele>90.68657149412</ele>
        <time>2022-08-10T17:22:05.856Z</time>
      </trkpt>
      <trkpt lat="47.8352" lon="-2.50597">
        <ele>91.32719517431</ele>
        <time>2022-08-10T17:22:12.370Z</time>
      </trkpt>
      <trkpt lat="47.83588" lon="-2.50601">
        <ele>92.04934968755</ele>
        <time>2022-08-10T17:22:18.894Z</time>
      </trkpt>
      <trkpt lat="47.83623" lon="-2.506">
        <ele>92.6872360388</ele>
        <time>2022-08-10T17:22:25.424Z</time>
      </trkpt>
      <trkpt lat="47.83657" lon="-2.50601">
        <ele>93.404280319</ele>
        <time>2022-08-10T17:22:31.959Z</time>
      </trkpt>
      <trkpt lat="47.83683" lon="-2.50598">
        <ele>94.20834795566</ele>
        <time>2022-08-10T17:22:38.499Z</time>
      </trkpt>
      <trkpt lat="47.83778" lon="-2.50586">
        <ele>95.05566606391</ele>
        <time>2022-08-10T17:22:45.054Z</time>
      </trkpt>
      <trkpt lat="47.83818" lon="-2.5058">
        <ele>96.00514916382</ele>
        <time>2022-08-10T17:22:51.615Z</time>
      </trkpt>
      <trkpt lat="47.83886" lon="-2.50576">
        <ele>97.01316999975</ele>
        <time>2022-08-10T17:22:58.187Z</time>
      </trkpt>
      <trkpt lat="47.83941" lon="-2.50573">
        <ele>98.14520660661</ele>
        <time>2022-08-10T17:23:04.768Z</time>
      </trkpt>
      <trkpt lat="47.84085" lon="-2.5056">
        <ele>99.59679185934</ele>
        <time>2022-08-10T17:23:11.372Z</time>
      </trkpt>
      <trkpt lat="47.84139" lon="-2.50558">
        <ele>100.75501634645</ele>
        <time>2022-08-10T17:23:17.985Z</time>
      </trkpt>
      <trkpt lat="47.84191" lon="-2.50561">
        <ele>101.94384638567</ele>
        <time>2022-08-10T17:23:24.606Z</time>
      </trkpt>
      <trkpt lat="47.84218" lon="-2.50565">
        <ele>103.1891061066</ele>
        <time>2022-08-10T17:23:31.232Z</time>
      </trkpt>
      <trkpt lat="47.84241" lon="-2.50572">
        <ele>104.42128965562</ele>
        <time>2022-08-10T17:23:37.861Z</time>
      </trkpt>
      <trkpt lat="47.84266" lon="-2.50584">
        <ele>105.62755956444</ele>
        <time>2022-08-10T17:23:44.494Z</time>
      </trkpt>
      <trkpt lat="47.8429" lon="-2.50598">
        <ele>106.7902088179</ele>
        <time>2022-08-10T17:23:51.132Z</time>
      </trkpt>
      <trkpt lat="47.84313" lon="-2.50613">
        <ele>107.86976524179</ele>
        <time>2022-08-10T17:23:57.774Z</time>
      </trkpt>
      <trkpt lat="47.84346" lon="-2.50642">
        <ele>108.8420488857</ele>
        <time>2022-08-10T17:24:04.422Z</time>
      </trkpt>
      <trkpt lat="47.84367" lon="-2.50663">
        <ele>109.7660508418</ele>
        <time>2022-08-10T17:24:11.074Z</time>
      </trkpt>
      <trkpt lat="47.84418" lon="-2.50723">
        <ele>110.64135345117</ele>
        <time>2022-08-10T17:24:17.736Z</time>
      </trkpt>
      <trkpt lat="47.84563" lon="-2.50897">
        <ele>111.54970691492</ele>
        <time>2022-08-10T17:24:24.428Z</time>
      </trkpt>
      <trkpt lat="47.84589" lon="-2.50925">
        <ele>112.12047452222</ele>
        <time>2022-08-10T17:24:31.125Z</time>
      </trkpt>
      <trkpt lat="47.84612" lon="-2.50944">
        <ele>112.54649678211</ele>
        <time>2022-08-10T17:24:37.826Z</time>
      </trkpt>
      <trkpt lat="47.84655" lon="-2.50972">
        <ele>112.78063546383</ele>
        <time>2022-08-10T17:24:44.535Z</time>
      </trkpt>
      <trkpt lat="47.84677" lon="-2.50984">
        <ele>112.85059486136</ele>
        <time>2022-08-10T17:24:51.248Z</time>
      </trkpt>
      <trkpt lat="47.84695" lon="-2.50992">
        <ele>112.72309788631</ele>
        <time>2022-08-10T17:24:57.964Z</time>
      </trkpt>
      <trkpt lat="47.8477" lon="-2.51026">
        <ele>112.37537890175</ele>
        <time>2022-08-10T17:25:04.692Z</time>
      </trkpt>
      <trkpt lat="47.84882" lon="-2.51076">
        <ele>111.85011113494</ele>
        <time>2022-08-10T17:25:11.439Z</time>
      </trkpt>
      <trkpt lat="47.84999" lon="-2.51133">
        <ele>110.90335903825</ele>
        <time>2022-08-10T17:25:18.206Z</time>
      </trkpt>
      <trkpt lat="47.85008" lon="-2.51137">
        <ele>110.00865805972</ele>
        <time>2022-08-10T17:25:24.974Z</time>
      </trkpt>
      <trkpt lat="47.85054" lon="-2.51162">
        <ele>109.10223790315</ele>
        <time>2022-08-10T17:25:31.750Z</time>
      </trkpt>
      <trkpt lat="47.85105" lon="-2.51187">
        <ele>107.95936606803</ele>
        <time>2022-08-10T17:25:38.535Z</time>
      </trkpt>
      <trkpt lat="47.85172" lon="-2.51223">
        <ele>106.62429612487</ele>
        <time>2022-08-10T17:25:45.331Z</time>
      </trkpt>
      <trkpt lat="47.85274" lon="-2.5128">
        <ele>105.05763352469</ele>
        <time>2022-08-10T17:25:52.144Z</time>
      </trkpt>
      <trkpt lat="47.85374" lon="-2.51339">
        <ele>103.61813881937</ele>
        <time>2022-08-10T17:25:58.975Z</time>
      </trkpt>
      <trkpt lat="47.85394" lon="-2.51349">
        <ele>102.10605145226</ele>
        <time>2022-08-10T17:26:05.809Z</time>
      </trkpt>
      <trkpt lat="47.85426" lon="-2.51363">
        <ele>100.51549847928</ele>
        <time>2022-08-10T17:26:12.648Z</time>
      </trkpt>
      <trkpt lat="47.85456" lon="-2.5137">
        <ele>99.04939665353</ele>
        <time>2022-08-10T17:26:19.492Z</time>
      </trkpt>
      <trkpt lat="47.85479" lon="-2.51374">
        <ele>97.72484072542</ele>
        <time>2022-08-10T17:26:26.340Z</time>
      </trkpt>
      <trkpt lat="47.85529" lon="-2.51379">
        <ele>96.48989595492</ele>
        <time>2022-08-10T17:26:33.196Z</time>
      </trkpt>
      <trkpt lat="47.85641" lon="-2.5139">
        <ele>95.38406000273</ele>
        <time>2022-08-10T17:26:40.070Z</time>
      </trkpt>
      <trkpt lat="47.85688" lon="-2.51409">
        <ele>94.55033122085</ele>
        <time>2022-08-10T17:26:46.952Z</time>
      </trkpt>
      <trkpt lat="47.85697" lon="-2.51408">
        <ele>94.10063590231</ele>
        <time>2022-08-10T17:26:53.835Z</time>
      </trkpt>
      <trkpt lat="47.85735" lon="-2.51406">
        <ele>94.03607574919</ele>
        <time>2022-08-10T17:27:00.724Z</time>
      </trkpt>
      <trkpt lat="47.85789" lon="-2.51415">
        <ele>94.27904609031</ele>
        <time>2022-08-10T17:27:07.622Z</time>
      </trkpt>
      <trkpt lat="47.85816" lon="-2.51422">
        <ele>94.72564083642</ele>
        <time>2022-08-10T17:27:14.524Z</time>
      </trkpt>
      <trkpt lat="47.85842" lon="-2.51428">
        <ele>95.53764661372</ele>
        <time>2022-08-10T17:27:21.431Z</time>
      </trkpt>
      <trkpt lat="47.85848" lon="-2.51429">
        <ele>96.55384754845</ele>
        <time>2022-08-10T17:27:28.339Z</time>
      </trkpt>
      <trkpt lat="47.85895" lon="-2.51469">
        <ele>97.96504832709</ele>
        <time>2022-08-10T17:27:35.255Z</time>
      </trkpt>
      <trkpt lat="47.85914" lon="-2.51491">
        <ele>99.52917725609</ele>
        <time>2022-08-10T17:27:42.175Z</time>
      </trkpt>
      <trkpt lat="47.85932" lon="-2.5152">
        <ele>101.26503044327</ele>
        <time>2022-08-10T17:27:49.099Z</time>
      </trkpt>
      <trkpt lat="47.85947" lon="-2.51556">
        <ele>103.23123973104</ele>
        <time>2022-08-10T17:27:56.028Z</time>
      </trkpt>
      <trkpt lat="47.85975" lon="-2.51654">
        <ele>105.37917340817</ele>
        <time>2022-08-10T17:28:02.968Z</time>
      </trkpt>
      <trkpt lat="47.85995" lon="-2.51729">
        <ele>107.71092579069</ele>
        <time>2022-08-10T17:28:09.917Z</time>
      </trkpt>
      <trkpt lat="47.86015" lon="-2.51807">
        <ele>110.37984493532</ele>
        <time>2022-08-10T17:28:16.875Z</time>
      </trkpt>
      <trkpt lat="47.86052" lon="-2.51983">
        <ele>113.19724251583</ele>
        <time>2022-08-10T17:28:23.853Z</time>
      </trkpt>
      <trkpt lat="47.86081" lon="-2.521">
        <ele>115.84254196721</ele>
        <time>2022-08-10T17:28:30.844Z</time>
      </trkpt>
      <trkpt lat="47.86096" lon="-2.52148">
        <ele>118.39477532141</ele>
        <time>2022-08-10T17:28:37.841Z</time>
      </trkpt>
      <trkpt lat="47.8611" lon="-2.52182">
        <ele>120.87677237025</ele>
        <time>2022-08-10T17:28:44.842Z</time>
      </trkpt>
      <trkpt lat="47.86113" lon="-2.52187">
        <ele>123.25706910052</ele>
        <time>2022-08-10T17:28:51.844Z</time>
      </trkpt>
      <trkpt lat="47.86127" lon="-2.52215">
        <ele>125.55250756742</ele>
        <time>2022-08-10T17:28:58.850Z</time>
      </trkpt>
      <trkpt lat="47.8615" lon="-2.52256">
        <ele>127.75905908218</ele>
        <time>2022-08-10T17:29:05.862Z</time>
      </trkpt>
      <trkpt lat="47.86192" lon="-2.52318">
        <ele>129.86542208406</ele>
        <time>2022-08-10T17:29:12.883Z</time>
      </trkpt>
      <trkpt lat="47.86201" lon="-2.52333">
        <ele>131.81545795969</ele>
        <time>2022-08-10T17:29:19.906Z</time>
      </trkpt>
      <trkpt lat="47.8623" lon="-2.52396">
        <ele>133.65391604301</ele>
        <time>2022-08-10T17:29:26.938Z</time>
      </trkpt>
      <trkpt lat="47.8631" lon="-2.5257">
        <ele>135.50618115745</ele>
        <time>2022-08-10T17:29:33.992Z</time>
      </trkpt>
      <trkpt lat="47.86304" lon="-2.5259">
        <ele>137.04616433349</ele>
        <time>2022-08-10T17:29:41.049Z</time>
      </trkpt>
      <trkpt lat="47.86297" lon="-2.52624">
        <ele>138.42687199359</ele>
        <time>2022-08-10T17:29:48.109Z</time>
      </trkpt>
      <trkpt lat="47.86303" lon="-2.52628">
        <ele>139.6118497228</ele>
        <time>2022-08-10T17:29:55.170Z</time>
      </trkpt>
      <trkpt lat="47.86339" lon="-2.52658">
        <ele>140.64564645191</ele>
        <time>2022-08-10T17:30:02.238Z</time>
      </trkpt>
      <trkpt lat="47.86343" lon="-2.52662">
        <ele>141.55129620941</ele>
        <time>2022-08-10T17:30:09.307Z</time>
      </trkpt>
      <trkpt lat="47.86346" lon="-2.52676">
        <ele>142.35039096544</ele>
        <time>2022-08-10T17:30:16.377Z</time>
      </trkpt>
      <trkpt lat="47.86345" lon="-2.52688">
        <ele>143.03500136473</ele>
        <time>2022-08-10T17:30:23.449Z</time>
      </trkpt>
      <trkpt lat="47.86334" lon="-2.52723">
        <ele>143.68750987875</ele>
        <time>2022-08-10T17:30:30.525Z</time>
      </trkpt>
      <trkpt lat="47.86322" lon="-2.52759">
        <ele>144.21640480664</ele>
        <time>2022-08-10T17:30:37.605Z</time>
      </trkpt>
      <trkpt lat="47.86314" lon="-2.528">
        <ele>144.6457407701</ele>
        <time>2022-08-10T17:30:44.690Z</time>
      </trkpt>
      <trkpt lat="47.8631" lon="-2.52853">
        <ele>144.92232569989</ele>
        <time>2022-08-10T17:30:51.781Z</time>
      </trkpt>
      <trkpt lat="47.8631" lon="-2.529">
        <ele>145.20945547287</ele>
        <time>2022-08-10T17:30:58.877Z</time>
      </trkpt>
      <trkpt lat="47.86312" lon="-2.5294">
        <ele>145.50683721701</ele>
        <time>2022-08-10T17:31:05.977Z</time>
      </trkpt>
      <trkpt lat="47.86319" lon="-2.53003">
        <ele>145.77702369892</ele>
        <time>2022-08-10T17:31:13.084Z</time>
      </trkpt>
      <trkpt lat="47.86332" lon="-2.531">
        <ele>146.02613633691</ele>
        <time>2022-08-10T17:31:20.201Z</time>
      </trkpt>
      <trkpt lat="47.86341" lon="-2.5316">
        <ele>146.27806554473</ele>
        <time>2022-08-10T17:31:27.325Z</time>
      </trkpt>
      <trkpt lat="47.86349" lon="-2.53184">
        <ele>146.58044799517</ele>
        <time>2022-08-10T17:31:34.452Z</time>
      </trkpt>
      <trkpt lat="47.86363" lon="-2.53197">
        <ele>146.87837378157</ele>
        <time>2022-08-10T17:31:41.582Z</time>
      </trkpt>
      <trkpt lat="47.86384" lon="-2.53204">
        <ele>147.20978989975</ele>
        <time>2022-08-10T17:31:48.715Z</time>
      </trkpt>
      <trkpt lat="47.86424" lon="-2.53214">
        <ele>147.57813344705</ele>
        <time>2022-08-10T17:31:55.855Z</time>
      </trkpt>
      <trkpt lat="47.86445" lon="-2.53221">
        <ele>147.96119487403</ele>
        <time>2022-08-10T17:32:02.998Z</time>
      </trkpt>
      <trkpt lat="47.86463" lon="-2.53233">
        <ele>148.37942336241</ele>
        <time>2022-08-10T17:32:10.144Z</time>
      </trkpt>
      <trkpt lat="47.86479" lon="-2.53249">
        <ele>148.79426135522</ele>
        <time>2022-08-10T17:32:17.293Z</time>
      </trkpt>
      <trkpt lat="47.86521" lon="-2.53315">
        <ele>149.27102749129</ele>
        <time>2022-08-10T17:32:24.452Z</time>
      </trkpt>
      <trkpt lat="47.86553" lon="-2.53368">
        <ele>149.65598593889</ele>
        <time>2022-08-10T17:32:31.619Z</time>
      </trkpt>
      <trkpt lat="47.8657" lon="-2.53391">
        <ele>150.07377431448</ele>
        <time>2022-08-10T17:32:38.789Z</time>
      </trkpt>
      <trkpt lat="47.86589" lon="-2.53411">
        <ele>150.54011031344</ele>
        <time>2022-08-10T17:32:45.963Z</time>
      </trkpt>
      <trkpt lat="47.86627" lon="-2.53433">
        <ele>151.00097006234</ele>
        <time>2022-08-10T17:32:53.144Z</time>
      </trkpt>
      <trkpt lat="47.8667" lon="-2.53453">
        <ele>151.33754218108</ele>
        <time>2022-08-10T17:33:00.332Z</time>
      </trkpt>
      <trkpt lat="47.867" lon="-2.53463">
        <ele>151.59752063092</ele>
        <time>2022-08-10T17:33:07.525Z</time>
      </trkpt>
      <trkpt lat="47.86761" lon="-2.53476">
        <ele>151.92901921648</ele>
        <time>2022-08-10T17:33:14.728Z</time>
      </trkpt>
      <trkpt lat="47.8678" lon="-2.53479">
        <ele>152.10541577768</ele>
        <time>2022-08-10T17:33:21.934Z</time>
      </trkpt>
      <trkpt lat="47.86803" lon="-2.53479">
        <ele>152.17759611602</ele>
        <time>2022-08-10T17:33:29.143Z</time>
      </trkpt>
      <trkpt lat="47.86814" lon="-2.53476">
        <ele>152.19692681854</ele>
        <time>2022-08-10T17:33:36.354Z</time>
      </trkpt>
      <trkpt lat="47.86832" lon="-2.53469">
        <ele>152.14737548591</ele>
        <time>2022-08-10T17:33:43.568Z</time>
      </trkpt>
      <trkpt lat="47.86849" lon="-2.53461">
        <ele>152.05660705463</ele>
        <time>2022-08-10T17:33:50.785Z</time>
      </trkpt>
      <trkpt lat="47.86865" lon="-2.5345">
        <ele>151.93027379949</ele>
        <time>2022-08-10T17:33:58.005Z</time>
      </trkpt>
      <trkpt lat="47.8688" lon="-2.53442">
        <ele>151.79948426169</ele>
        <time>2022-08-10T17:34:05.227Z</time>
      </trkpt>
      <trkpt lat="47.86897" lon="-2.53442">
        <ele>151.66243859981</ele>
        <time>2022-08-10T17:34:12.452Z</time>
      </trkpt>
      <trkpt lat="47.86917" lon="-2.53449">
        <ele>151.53145164179</ele>
        <time>2022-08-10T17:34:19.680Z</time>
      </trkpt>
      <trkpt lat="47.86993" lon="-2.53493">
        <ele>151.36371051883</ele>
        <time>2022-08-10T17:34:26.921Z</time>
      </trkpt>
      <trkpt lat="47.87035" lon="-2.53518">
        <ele>151.15739567035</ele>
        <time>2022-08-10T17:34:34.170Z</time>
      </trkpt>
      <trkpt lat="47.87067" lon="-2.53532">
        <ele>150.94603031721</ele>
        <time>2022-08-10T17:34:41.424Z</time>
      </trkpt>
      <trkpt lat="47.87072" lon="-2.53549">
        <ele>150.81344442323</ele>
        <time>2022-08-10T17:34:48.680Z</time>
      </trkpt>
      <trkpt lat="47.87096" lon="-2.53584">
        <ele>150.64943331597</ele>
        <time>2022-08-10T17:34:55.941Z</time>
      </trkpt>
      <trkpt lat="47.87104" lon="-2.53595">
        <ele>150.47017808629</ele>
        <time>2022-08-10T17:35:03.204Z</time>
      </trkpt>
      <trkpt lat="47.87149" lon="-2.53667">
        <ele>150.2967107007</ele>
        <time>2022-08-10T17:35:10.478Z</time>
      </trkpt>
      <trkpt lat="47.87266" lon="-2.53849">
        <ele>150.0357304332</ele>
        <time>2022-08-10T17:35:17.779Z</time>
      </trkpt>
      <trkpt lat="47.87328" lon="-2.53948">
        <ele>149.72935589528</ele>
        <time>2022-08-10T17:35:25.094Z</time>
      </trkpt>
      <trkpt lat="47.87353" lon="-2.54022">
        <ele>149.52277533242</ele>
        <time>2022-08-10T17:35:32.418Z</time>
      </trkpt>
      <trkpt lat="47.87365" lon="-2.54063">
        <ele>149.25491290263</ele>
        <time>2022-08-10T17:35:39.747Z</time>
      </trkpt>
      <trkpt lat="47.87369" lon="-2.54072">
        <ele>149.0199279043</ele>
        <time>2022-08-10T17:35:47.077Z</time>
      </trkpt>
      <trkpt lat="47.87389" lon="-2.54084">
        <ele>148.7531461689</ele>
        <time>2022-08-10T17:35:54.411Z</time>
      </trkpt>
      <trkpt lat="47.87395" lon="-2.54088">
        <ele>148.53225532853</ele>
        <time>2022-08-10T17:36:01.746Z</time>
      </trkpt>
      <trkpt lat="47.87405" lon="-2.54102">
        <ele>148.30691250116</ele>
        <time>2022-08-10T17:36:09.083Z</time>
      </trkpt>
      <trkpt lat="47.87396" lon="-2.54125">
        <ele>148.1698893217</ele>
        <time>2022-08-10T17:36:16.423Z</time>
      </trkpt>
      <trkpt lat="47.87374" lon="-2.54198">
        <ele>147.97215263524</ele>
        <time>2022-08-10T17:36:23.772Z</time>
      </trkpt>
      <trkpt lat="47.87365" lon="-2.54226">
        <ele>147.92695169994</ele>
        <time>2022-08-10T17:36:31.124Z</time>
      </trkpt>
      <trkpt lat="47.87362" lon="-2.54248">
        <ele>147.93846564781</ele>
        <time>2022-08-10T17:36:38.478Z</time>
      </trkpt>
      <trkpt lat="47.87361" lon="-2.54267">
        <ele>147.95625320988</ele>
        <time>2022-08-10T17:36:45.834Z</time>
      </trkpt>
      <trkpt lat="47.87363" lon="-2.54329">
        <ele>148.0184348671</ele>
        <time>2022-08-10T17:36:53.197Z</time>
      </trkpt>
      <trkpt lat="47.8736" lon="-2.54389">
        <ele>148.14770120965</ele>
        <time>2022-08-10T17:37:00.567Z</time>
      </trkpt>
      <trkpt lat="47.8736" lon="-2.5439">
        <ele>148.21188059384</ele>
        <time>2022-08-10T17:37:07.937Z</time>
      </trkpt>
      <trkpt lat="47.8735" lon="-2.54455">
        <ele>148.3546701119</ele>
        <time>2022-08-10T17:37:15.314Z</time>
      </trkpt>
      <trkpt lat="47.8736" lon="-2.5439">
        <ele>148.21188059384</ele>
        <time>2022-08-10T17:37:22.698Z</time>
      </trkpt>
      <trkpt lat="47.8736" lon="-2.5439">
        <ele>148.31736315629</ele>
        <time>2022-08-10T17:37:30.082Z</time>
      </trkpt>
      <trkpt lat="47.87342" lon="-2.54513">
        <ele>148.44044046326</ele>
        <time>2022-08-10T17:37:37.480Z</time>
      </trkpt>
      <trkpt lat="47.87342" lon="-2.54529">
        <ele>148.36857832444</ele>
        <time>2022-08-10T17:37:44.879Z</time>
      </trkpt>
      <trkpt lat="47.87423" lon="-2.5447">
        <ele>148.1051138356</ele>
        <time>2022-08-10T17:37:52.293Z</time>
      </trkpt>
      <trkpt lat="47.87439" lon="-2.54459">
        <ele>147.91885402722</ele>
        <time>2022-08-10T17:37:59.710Z</time>
      </trkpt>
      <trkpt lat="47.87454" lon="-2.54455">
        <ele>147.68196429595</ele>
        <time>2022-08-10T17:38:07.129Z</time>
      </trkpt>
      <trkpt lat="47.8746" lon="-2.54455">
        <ele>147.38823363434</ele>
        <time>2022-08-10T17:38:14.549Z</time>
      </trkpt>
      <trkpt lat="47.8747" lon="-2.54459">
        <ele>147.03669176096</ele>
        <time>2022-08-10T17:38:21.971Z</time>
      </trkpt>
      <trkpt lat="47.87491" lon="-2.54474">
        <ele>146.6345004467</ele>
        <time>2022-08-10T17:38:29.396Z</time>
      </trkpt>
      <trkpt lat="47.87514" lon="-2.54491">
        <ele>146.22332305795</ele>
        <time>2022-08-10T17:38:36.825Z</time>
      </trkpt>
      <trkpt lat="47.87532" lon="-2.54502">
        <ele>145.71791553306</ele>
        <time>2022-08-10T17:38:44.258Z</time>
      </trkpt>
      <trkpt lat="47.87547" lon="-2.54508">
        <ele>145.19383897192</ele>
        <time>2022-08-10T17:38:51.693Z</time>
      </trkpt>
      <trkpt lat="47.87583" lon="-2.5451">
        <ele>144.62980846293</ele>
        <time>2022-08-10T17:38:59.134Z</time>
      </trkpt>
      <trkpt lat="47.87715" lon="-2.54511">
        <ele>143.97804697653</ele>
        <time>2022-08-10T17:39:06.596Z</time>
      </trkpt>
      <trkpt lat="47.87768" lon="-2.54522">
        <ele>143.41817587677</ele>
        <time>2022-08-10T17:39:14.067Z</time>
      </trkpt>
      <trkpt lat="47.8779" lon="-2.54525">
        <ele>142.93916112606</ele>
        <time>2022-08-10T17:39:21.541Z</time>
      </trkpt>
      <trkpt lat="47.87807" lon="-2.54524">
        <ele>142.46565733372</ele>
        <time>2022-08-10T17:39:29.018Z</time>
      </trkpt>
      <trkpt lat="47.87832" lon="-2.54511">
        <ele>141.98697123565</ele>
        <time>2022-08-10T17:39:36.499Z</time>
      </trkpt>
      <trkpt lat="47.8789" lon="-2.54476">
        <ele>141.55299245529</ele>
        <time>2022-08-10T17:39:43.990Z</time>
      </trkpt>
      <trkpt lat="47.879" lon="-2.54475">
        <ele>141.14293794155</ele>
        <time>2022-08-10T17:39:51.483Z</time>
      </trkpt>
      <trkpt lat="47.87902" lon="-2.54463">
        <ele>140.74991292413</ele>
        <time>2022-08-10T17:39:58.977Z</time>
      </trkpt>
      <trkpt lat="47.87908" lon="-2.54446">
        <ele>140.39434036012</ele>
        <time>2022-08-10T17:40:06.473Z</time>
      </trkpt>
      <trkpt lat="47.87918" lon="-2.54429">
        <ele>140.0759671666</ele>
        <time>2022-08-10T17:40:13.971Z</time>
      </trkpt>
      <trkpt lat="47.87927" lon="-2.54423">
        <ele>139.79022138888</ele>
        <time>2022-08-10T17:40:21.471Z</time>
      </trkpt>
      <trkpt lat="47.87944" lon="-2.54417">
        <ele>139.52956107431</ele>
        <time>2022-08-10T17:40:28.974Z</time>
      </trkpt>
      <trkpt lat="47.87994" lon="-2.54409">
        <ele>139.2576242179</ele>
        <time>2022-08-10T17:40:36.485Z</time>
      </trkpt>
      <trkpt lat="47.88008" lon="-2.54402">
        <ele>139.06612515737</ele>
        <time>2022-08-10T17:40:43.998Z</time>
      </trkpt>
      <trkpt lat="47.88022" lon="-2.54392">
        <ele>138.94357524494</ele>
        <time>2022-08-10T17:40:51.514Z</time>
      </trkpt>
      <trkpt lat="47.88045" lon="-2.54357">
        <ele>138.87552839887</ele>
        <time>2022-08-10T17:40:59.035Z</time>
      </trkpt>
      <trkpt lat="47.88058" lon="-2.54329">
        <ele>138.84701375378</ele>
        <time>2022-08-10T17:41:06.560Z</time>
      </trkpt>
      <trkpt lat="47.8807" lon="-2.54293">
        <ele>138.88377808814</ele>
        <time>2022-08-10T17:41:14.089Z</time>
      </trkpt>
      <trkpt lat="47.88078" lon="-2.54249">
        <ele>139.01782358904</ele>
        <time>2022-08-10T17:41:21.623Z</time>
      </trkpt>
      <trkpt lat="47.88148" lon="-2.54255">
        <ele>139.22800268157</ele>
        <time>2022-08-10T17:41:29.168Z</time>
      </trkpt>
      <trkpt lat="47.88237" lon="-2.54262">
        <ele>139.42835847607</ele>
        <time>2022-08-10T17:41:36.727Z</time>
      </trkpt>
      <trkpt lat="47.88301" lon="-2.54266">
        <ele>139.89551707278</ele>
        <time>2022-08-10T17:41:44.297Z</time>
      </trkpt>
      <trkpt lat="47.88367" lon="-2.54271">
        <ele>140.58350993477</ele>
        <time>2022-08-10T17:41:51.877Z</time>
      </trkpt>
      <trkpt lat="47.8839" lon="-2.54274">
        <ele>141.16357523645</ele>
        <time>2022-08-10T17:41:59.461Z</time>
      </trkpt>
      <trkpt lat="47.88402" lon="-2.54282">
        <ele>141.76402856034</ele>
        <time>2022-08-10T17:42:07.047Z</time>
      </trkpt>
      <trkpt lat="47.88405" lon="-2.54285">
        <ele>142.39142734738</ele>
        <time>2022-08-10T17:42:14.634Z</time>
      </trkpt>
      <trkpt lat="47.88417" lon="-2.54301">
        <ele>143.03734150351</ele>
        <time>2022-08-10T17:42:22.223Z</time>
      </trkpt>
      <trkpt lat="47.88454" lon="-2.54369">
        <ele>143.73989242116</ele>
        <time>2022-08-10T17:42:29.822Z</time>
      </trkpt>
      <trkpt lat="47.88469" lon="-2.54381">
        <ele>144.42141425661</ele>
        <time>2022-08-10T17:42:37.423Z</time>
      </trkpt>
      <trkpt lat="47.88521" lon="-2.54412">
        <ele>145.04872692774</ele>
        <time>2022-08-10T17:42:45.033Z</time>
      </trkpt>
      <trkpt lat="47.88588" lon="-2.54452">
        <ele>145.61540028291</ele>
        <time>2022-08-10T17:42:52.655Z</time>
      </trkpt>
      <trkpt lat="47.88637" lon="-2.54484">
        <ele>146.18242271054</ele>
        <time>2022-08-10T17:43:00.285Z</time>
      </trkpt>
      <trkpt lat="47.88686" lon="-2.54513">
        <ele>146.72140649675</ele>
        <time>2022-08-10T17:43:07.924Z</time>
      </trkpt>
      <trkpt lat="47.88725" lon="-2.54521">
        <ele>147.08296388055</ele>
        <time>2022-08-10T17:43:15.569Z</time>
      </trkpt>
      <trkpt lat="47.88848" lon="-2.54533">
        <ele>147.28510791122</ele>
        <time>2022-08-10T17:43:23.234Z</time>
      </trkpt>
      <trkpt lat="47.88902" lon="-2.54539">
        <ele>147.31070073644</ele>
        <time>2022-08-10T17:43:30.908Z</time>
      </trkpt>
      <trkpt lat="47.88938" lon="-2.54517">
        <ele>147.28197662685</ele>
        <time>2022-08-10T17:43:38.588Z</time>
      </trkpt>
      <trkpt lat="47.89007" lon="-2.5452">
        <ele>147.21035983581</ele>
        <time>2022-08-10T17:43:46.279Z</time>
      </trkpt>
      <trkpt lat="47.89115" lon="-2.54524">
        <ele>147.00451860881</ele>
        <time>2022-08-10T17:43:53.987Z</time>
      </trkpt>
      <trkpt lat="47.89122" lon="-2.54524">
        <ele>146.78244165953</ele>
        <time>2022-08-10T17:44:01.696Z</time>
      </trkpt>
      <trkpt lat="47.89169" lon="-2.54526">
        <ele>146.50938730326</ele>
        <time>2022-08-10T17:44:09.413Z</time>
      </trkpt>
      <trkpt lat="47.89187" lon="-2.54527">
        <ele>146.17878099514</ele>
        <time>2022-08-10T17:44:17.133Z</time>
      </trkpt>
      <trkpt lat="47.89204" lon="-2.54523">
        <ele>145.77789699325</ele>
        <time>2022-08-10T17:44:24.856Z</time>
      </trkpt>
      <trkpt lat="47.8921" lon="-2.54521">
        <ele>145.27424490814</ele>
        <time>2022-08-10T17:44:32.579Z</time>
      </trkpt>
      <trkpt lat="47.89226" lon="-2.54508">
        <ele>144.65646027639</ele>
        <time>2022-08-10T17:44:40.305Z</time>
      </trkpt>
      <trkpt lat="47.89243" lon="-2.54483">
        <ele>143.92823741917</ele>
        <time>2022-08-10T17:44:48.035Z</time>
      </trkpt>
      <trkpt lat="47.89259" lon="-2.54462">
        <ele>143.20484478898</ele>
        <time>2022-08-10T17:44:55.769Z</time>
      </trkpt>
      <trkpt lat="47.89271" lon="-2.54436">
        <ele>142.4796557631</ele>
        <time>2022-08-10T17:45:03.506Z</time>
      </trkpt>
      <trkpt lat="47.89338" lon="-2.54396">
        <ele>141.74380229891</ele>
        <time>2022-08-10T17:45:11.255Z</time>
      </trkpt>
      <trkpt lat="47.89395" lon="-2.54361">
        <ele>140.85214682436</ele>
        <time>2022-08-10T17:45:19.013Z</time>
      </trkpt>
      <trkpt lat="47.89441" lon="-2.54349">
        <ele>139.89328057906</ele>
        <time>2022-08-10T17:45:26.779Z</time>
      </trkpt>
      <trkpt lat="47.89468" lon="-2.54343">
        <ele>138.9384319354</ele>
        <time>2022-08-10T17:45:34.549Z</time>
      </trkpt>
      <trkpt lat="47.89508" lon="-2.54343">
        <ele>137.98444152748</ele>
        <time>2022-08-10T17:45:42.326Z</time>
      </trkpt>
      <trkpt lat="47.89565" lon="-2.54347">
        <ele>136.92149854791</ele>
        <time>2022-08-10T17:45:50.112Z</time>
      </trkpt>
      <trkpt lat="47.89589" lon="-2.54351">
        <ele>135.79118187295</ele>
        <time>2022-08-10T17:45:57.902Z</time>
      </trkpt>
      <trkpt lat="47.89625" lon="-2.54357">
        <ele>134.59177596737</ele>
        <time>2022-08-10T17:46:05.698Z</time>
      </trkpt>
      <trkpt lat="47.8966" lon="-2.54367">
        <ele>133.40873797838</ele>
        <time>2022-08-10T17:46:13.499Z</time>
      </trkpt>
      <trkpt lat="47.89686" lon="-2.54378">
        <ele>132.26547839882</ele>
        <time>2022-08-10T17:46:21.305Z</time>
      </trkpt>
      <trkpt lat="47.89745" lon="-2.54409">
        <ele>131.13151649377</ele>
        <time>2022-08-10T17:46:29.121Z</time>
      </trkpt>
      <trkpt lat="47.89787" lon="-2.5443">
        <ele>129.82862909897</ele>
        <time>2022-08-10T17:46:36.944Z</time>
      </trkpt>
      <trkpt lat="47.89798" lon="-2.54435">
        <ele>128.56865785216</ele>
        <time>2022-08-10T17:46:44.769Z</time>
      </trkpt>
      <trkpt lat="47.89882" lon="-2.54485">
        <ele>127.19133615304</ele>
        <time>2022-08-10T17:46:52.608Z</time>
      </trkpt>
      <trkpt lat="47.89909" lon="-2.545">
        <ele>125.89435927938</ele>
        <time>2022-08-10T17:47:00.452Z</time>
      </trkpt>
      <trkpt lat="47.89928" lon="-2.54505">
        <ele>124.62311441481</ele>
        <time>2022-08-10T17:47:08.299Z</time>
      </trkpt>
      <trkpt lat="47.89947" lon="-2.54507">
        <ele>123.37420522667</ele>
        <time>2022-08-10T17:47:16.149Z</time>
      </trkpt>
      <trkpt lat="47.90009" lon="-2.54516">
        <ele>122.08497952631</ele>
        <time>2022-08-10T17:47:24.009Z</time>
      </trkpt>
      <trkpt lat="47.90038" lon="-2.54525">
        <ele>120.79141387915</ele>
        <time>2022-08-10T17:47:31.873Z</time>
      </trkpt>
      <trkpt lat="47.90059" lon="-2.54539">
        <ele>119.52802722872</ele>
        <time>2022-08-10T17:47:39.741Z</time>
      </trkpt>
      <trkpt lat="47.90066" lon="-2.54542">
        <ele>118.28619668191</ele>
        <time>2022-08-10T17:47:47.610Z</time>
      </trkpt>
      <trkpt lat="47.90077" lon="-2.5454">
        <ele>117.02218340519</ele>
        <time>2022-08-10T17:47:55.481Z</time>
      </trkpt>
      <trkpt lat="47.90086" lon="-2.54532">
        <ele>115.77856201948</ele>
        <time>2022-08-10T17:48:03.354Z</time>
      </trkpt>
      <trkpt lat="47.90096" lon="-2.54519">
        <ele>114.54781321615</ele>
        <time>2022-08-10T17:48:11.229Z</time>
      </trkpt>
      <trkpt lat="47.90105" lon="-2.54513">
        <ele>113.33577673808</ele>
        <time>2022-08-10T17:48:19.105Z</time>
      </trkpt>
      <trkpt lat="47.90113" lon="-2.54511">
        <ele>112.1605736774</ele>
        <time>2022-08-10T17:48:26.983Z</time>
      </trkpt>
      <trkpt lat="47.90123" lon="-2.54513">
        <ele>111.01680488714</ele>
        <time>2022-08-10T17:48:34.862Z</time>
      </trkpt>
      <trkpt lat="47.90143" lon="-2.54526">
        <ele>109.94407131757</ele>
        <time>2022-08-10T17:48:42.745Z</time>
      </trkpt>
      <trkpt lat="47.90164" lon="-2.54541">
        <ele>108.9602055647</ele>
        <time>2022-08-10T17:48:50.632Z</time>
      </trkpt>
      <trkpt lat="47.90181" lon="-2.54551">
        <ele>108.03822024678</ele>
        <time>2022-08-10T17:48:58.522Z</time>
      </trkpt>
      <trkpt lat="47.90214" lon="-2.54566">
        <ele>107.06976952125</ele>
        <time>2022-08-10T17:49:06.417Z</time>
      </trkpt>
      <trkpt lat="47.90239" lon="-2.54571">
        <ele>106.14694194733</ele>
        <time>2022-08-10T17:49:14.316Z</time>
      </trkpt>
      <trkpt lat="47.90264" lon="-2.54573">
        <ele>105.38336772851</ele>
        <time>2022-08-10T17:49:22.219Z</time>
      </trkpt>
      <trkpt lat="47.90349" lon="-2.54553">
        <ele>104.70478180194</ele>
        <time>2022-08-10T17:49:30.136Z</time>
      </trkpt>
      <trkpt lat="47.90389" lon="-2.54542">
        <ele>104.3320063787</ele>
        <time>2022-08-10T17:49:38.059Z</time>
      </trkpt>
      <trkpt lat="47.90413" lon="-2.54536">
        <ele>104.05863428359</ele>
        <time>2022-08-10T17:49:45.986Z</time>
      </trkpt>
      <trkpt lat="47.90423" lon="-2.54533">
        <ele>103.84546624412</ele>
        <time>2022-08-10T17:49:53.915Z</time>
      </trkpt>
      <trkpt lat="47.90413" lon="-2.54536">
        <ele>104.05863428359</ele>
        <time>2022-08-10T17:50:01.846Z</time>
      </trkpt>
      <trkpt lat="47.90413" lon="-2.54536">
        <ele>103.63496515314</ele>
        <time>2022-08-10T17:50:09.777Z</time>
      </trkpt>
      <trkpt lat="47.90423" lon="-2.54533">
        <ele>103.84546624412</ele>
        <time>2022-08-10T17:50:17.709Z</time>
      </trkpt>
      <trkpt lat="47.90417" lon="-2.54587">
        <ele>103.82062922907</ele>
        <time>2022-08-10T17:50:25.647Z</time>
      </trkpt>
      <trkpt lat="47.90415" lon="-2.54628">
        <ele>104.02332711529</ele>
        <time>2022-08-10T17:50:33.590Z</time>
      </trkpt>
      <trkpt lat="47.90413" lon="-2.54669">
        <ele>104.27225333225</ele>
        <time>2022-08-10T17:50:41.537Z</time>
      </trkpt>
      <trkpt lat="47.90409" lon="-2.54735">
        <ele>104.3750752733</ele>
        <time>2022-08-10T17:50:49.491Z</time>
      </trkpt>
      <trkpt lat="47.90409" lon="-2.54795">
        <ele>104.55794613888</ele>
        <time>2022-08-10T17:50:57.452Z</time>
      </trkpt>
      <trkpt lat="47.90407" lon="-2.54903">
        <ele>104.73197200513</ele>
        <time>2022-08-10T17:51:05.424Z</time>
      </trkpt>
      <trkpt lat="47.90411" lon="-2.55037">
        <ele>104.76783095917</ele>
        <time>2022-08-10T17:51:13.411Z</time>
      </trkpt>
      <trkpt lat="47.90415" lon="-2.55244">
        <ele>105.17078815767</ele>
        <time>2022-08-10T17:51:21.420Z</time>
      </trkpt>
      <trkpt lat="47.90417" lon="-2.55265">
        <ele>105.40851709975</ele>
        <time>2022-08-10T17:51:29.431Z</time>
      </trkpt>
      <trkpt lat="47.90422" lon="-2.55283">
        <ele>105.59784245505</ele>
        <time>2022-08-10T17:51:37.444Z</time>
      </trkpt>
      <trkpt lat="47.90462" lon="-2.55357">
        <ele>105.81399787086</ele>
        <time>2022-08-10T17:51:45.468Z</time>
      </trkpt>
      <trkpt lat="47.90494" lon="-2.55452">
        <ele>105.7927924662</ele>
        <time>2022-08-10T17:51:53.503Z</time>
      </trkpt>
      <trkpt lat="47.90529" lon="-2.55559">
        <ele>105.78610189041</ele>
        <time>2022-08-10T17:52:01.551Z</time>
      </trkpt>
      <trkpt lat="47.90542" lon="-2.55597">
        <ele>105.54986180194</ele>
        <time>2022-08-10T17:52:09.604Z</time>
      </trkpt>
      <trkpt lat="47.90579" lon="-2.55679">
        <ele>105.19999864375</ele>
        <time>2022-08-10T17:52:17.667Z</time>
      </trkpt>
      <trkpt lat="47.90622" lon="-2.55773">
        <ele>104.74237007549</ele>
        <time>2022-08-10T17:52:25.742Z</time>
      </trkpt>
      <trkpt lat="47.90628" lon="-2.55791">
        <ele>103.94190358766</ele>
        <time>2022-08-10T17:52:33.820Z</time>
      </trkpt>
      <trkpt lat="47.90632" lon="-2.55817">
        <ele>102.90245284393</ele>
        <time>2022-08-10T17:52:41.900Z</time>
      </trkpt>
      <trkpt lat="47.90646" lon="-2.55922">
        <ele>101.47157788815</ele>
        <time>2022-08-10T17:52:49.992Z</time>
      </trkpt>
      <trkpt lat="47.9065" lon="-2.5595">
        <ele>99.9667153058</ele>
        <time>2022-08-10T17:52:58.087Z</time>
      </trkpt>
      <trkpt lat="47.90661" lon="-2.56029">
        <ele>98.21984988094</ele>
        <time>2022-08-10T17:53:06.191Z</time>
      </trkpt>
      <trkpt lat="47.90668" lon="-2.5606">
        <ele>96.31141126575</ele>
        <time>2022-08-10T17:53:14.298Z</time>
      </trkpt>
      <trkpt lat="47.90677" lon="-2.56076">
        <ele>94.26460939698</ele>
        <time>2022-08-10T17:53:22.407Z</time>
      </trkpt>
      <trkpt lat="47.90705" lon="-2.56109">
        <ele>92.12287126194</ele>
        <time>2022-08-10T17:53:30.522Z</time>
      </trkpt>
      <trkpt lat="47.90729" lon="-2.56131">
        <ele>89.81214865247</ele>
        <time>2022-08-10T17:53:38.642Z</time>
      </trkpt>
      <trkpt lat="47.90753" lon="-2.56158">
        <ele>87.30194355774</ele>
        <time>2022-08-10T17:53:46.767Z</time>
      </trkpt>
      <trkpt lat="47.90761" lon="-2.5618">
        <ele>84.71199570924</ele>
        <time>2022-08-10T17:53:54.894Z</time>
      </trkpt>
      <trkpt lat="47.90768" lon="-2.56205">
        <ele>82.03995022783</ele>
        <time>2022-08-10T17:54:03.024Z</time>
      </trkpt>
      <trkpt lat="47.90778" lon="-2.56239">
        <ele>79.27862949471</ele>
        <time>2022-08-10T17:54:11.158Z</time>
      </trkpt>
      <trkpt lat="47.90789" lon="-2.56254">
        <ele>76.58160691478</ele>
        <time>2022-08-10T17:54:19.295Z</time>
      </trkpt>
      <trkpt lat="47.90807" lon="-2.56269">
        <ele>73.86948877924</ele>
        <time>2022-08-10T17:54:27.435Z</time>
      </trkpt>
      <trkpt lat="47.90834" lon="-2.56288">
        <ele>71.14770612023</ele>
        <time>2022-08-10T17:54:35.580Z</time>
      </trkpt>
      <trkpt lat="47.90866" lon="-2.5631">
        <ele>68.56963605003</ele>
        <time>2022-08-10T17:54:43.730Z</time>
      </trkpt>
      <trkpt lat="47.90948" lon="-2.56366">
        <ele>65.79399199769</ele>
        <time>2022-08-10T17:54:51.895Z</time>
      </trkpt>
      <trkpt lat="47.90997" lon="-2.56398">
        <ele>63.47418969036</ele>
        <time>2022-08-10T17:55:00.068Z</time>
      </trkpt>
      <trkpt lat="47.9103" lon="-2.5642">
        <ele>61.3736256154</ele>
        <time>2022-08-10T17:55:08.247Z</time>
      </trkpt>
      <trkpt lat="47.9104" lon="-2.56431">
        <ele>59.56812617014</ele>
        <time>2022-08-10T17:55:16.428Z</time>
      </trkpt>
      <trkpt lat="47.91042" lon="-2.56439">
        <ele>58.03135784146</ele>
        <time>2022-08-10T17:55:24.610Z</time>
      </trkpt>
      <trkpt lat="47.91045" lon="-2.56459">
        <ele>56.74168578373</ele>
        <time>2022-08-10T17:55:32.794Z</time>
      </trkpt>
      <trkpt lat="47.91043" lon="-2.56472">
        <ele>55.7205598834</ele>
        <time>2022-08-10T17:55:40.980Z</time>
      </trkpt>
      <trkpt lat="47.91036" lon="-2.5649">
        <ele>54.93007158068</ele>
        <time>2022-08-10T17:55:49.168Z</time>
      </trkpt>
      <trkpt lat="47.91024" lon="-2.56509">
        <ele>54.38636217034</ele>
        <time>2022-08-10T17:55:57.359Z</time>
      </trkpt>
      <trkpt lat="47.91003" lon="-2.56529">
        <ele>54.11928912951</ele>
        <time>2022-08-10T17:56:05.554Z</time>
      </trkpt>
      <trkpt lat="47.90983" lon="-2.5655">
        <ele>54.05590363103</ele>
        <time>2022-08-10T17:56:13.753Z</time>
      </trkpt>
      <trkpt lat="47.90978" lon="-2.56555">
        <ele>54.00459812605</ele>
        <time>2022-08-10T17:56:21.953Z</time>
      </trkpt>
      <trkpt lat="47.9097" lon="-2.56573">
        <ele>54.0671844608</ele>
        <time>2022-08-10T17:56:30.155Z</time>
      </trkpt>
      <trkpt lat="47.90965" lon="-2.56597">
        <ele>54.09587557404</ele>
        <time>2022-08-10T17:56:38.360Z</time>
      </trkpt>
      <trkpt lat="47.90957" lon="-2.56639">
        <ele>54.13997038237</ele>
        <time>2022-08-10T17:56:46.569Z</time>
      </trkpt>
      <trkpt lat="47.90951" lon="-2.56679">
        <ele>54.16583768284</ele>
        <time>2022-08-10T17:56:54.783Z</time>
      </trkpt>
      <trkpt lat="47.90949" lon="-2.56736">
        <ele>54.10229676712</ele>
        <time>2022-08-10T17:57:03.003Z</time>
      </trkpt>
      <trkpt lat="47.90955" lon="-2.56692">
        <ele>54.40047380326</ele>
        <time>2022-08-10T17:57:11.228Z</time>
      </trkpt>
      <trkpt lat="47.9095" lon="-2.56692">
        <ele>54.56734204809</ele>
        <time>2022-08-10T17:57:19.453Z</time>
      </trkpt>
      <trkpt lat="47.90949" lon="-2.56736">
        <ele>54.10229676712</ele>
        <time>2022-08-10T17:57:27.683Z</time>
      </trkpt>
      <trkpt lat="47.90952" lon="-2.56762">
        <ele>54.57571619375</ele>
        <time>2022-08-10T17:57:35.916Z</time>
      </trkpt>
      <trkpt lat="47.90971" lon="-2.56852">
        <ele>54.90495001656</ele>
        <time>2022-08-10T17:57:44.159Z</time>
      </trkpt>
      <trkpt lat="47.91011" lon="-2.5695">
        <ele>54.84125139466</ele>
        <time>2022-08-10T17:57:52.414Z</time>
      </trkpt>
      <trkpt lat="47.91027" lon="-2.56987">
        <ele>54.91166250402</ele>
        <time>2022-08-10T17:58:00.674Z</time>
      </trkpt>
      <trkpt lat="47.91045" lon="-2.57015">
        <ele>54.94600988803</ele>
        <time>2022-08-10T17:58:08.938Z</time>
      </trkpt>
      <trkpt lat="47.91069" lon="-2.57043">
        <ele>54.83318297399</ele>
        <time>2022-08-10T17:58:17.207Z</time>
      </trkpt>
      <trkpt lat="47.91077" lon="-2.57061">
        <ele>54.69357043888</ele>
        <time>2022-08-10T17:58:25.479Z</time>
      </trkpt>
      <trkpt lat="47.91087" lon="-2.57071">
        <ele>54.46438655935</ele>
        <time>2022-08-10T17:58:33.752Z</time>
      </trkpt>
      <trkpt lat="47.91114" lon="-2.5709">
        <ele>54.1519139915</ele>
        <time>2022-08-10T17:58:42.030Z</time>
      </trkpt>
      <trkpt lat="47.9113" lon="-2.57096">
        <ele>53.90855915057</ele>
        <time>2022-08-10T17:58:50.311Z</time>
      </trkpt>
      <trkpt lat="47.91139" lon="-2.57091">
        <ele>53.69203188946</ele>
        <time>2022-08-10T17:58:58.593Z</time>
      </trkpt>
      <trkpt lat="47.91146" lon="-2.57083">
        <ele>53.50353857009</ele>
        <time>2022-08-10T17:59:06.877Z</time>
      </trkpt>
      <trkpt lat="47.91152" lon="-2.57059">
        <ele>53.35223907846</ele>
        <time>2022-08-10T17:59:15.164Z</time>
      </trkpt>
      <trkpt lat="47.91161" lon="-2.57014">
        <ele>53.32845598776</ele>
        <time>2022-08-10T17:59:23.456Z</time>
      </trkpt>
      <trkpt lat="47.91165" lon="-2.56986">
        <ele>53.40770407474</ele>
        <time>2022-08-10T17:59:31.751Z</time>
      </trkpt>
      <trkpt lat="47.9117" lon="-2.56975">
        <ele>53.56298364478</ele>
        <time>2022-08-10T17:59:40.047Z</time>
      </trkpt>
      <trkpt lat="47.91161" lon="-2.56952">
        <ele>53.79273582086</ele>
        <time>2022-08-10T17:59:48.346Z</time>
      </trkpt>
      <trkpt lat="47.91151" lon="-2.5693">
        <ele>54.11358643517</ele>
        <time>2022-08-10T17:59:56.648Z</time>
      </trkpt>
      <trkpt lat="47.91141" lon="-2.56908">
        <ele>54.53959326616</ele>
        <time>2022-08-10T18:00:04.953Z</time>
      </trkpt>
      <trkpt lat="47.91135" lon="-2.56886">
        <ele>55.08148861039</ele>
        <time>2022-08-10T18:00:13.260Z</time>
      </trkpt>
      <trkpt lat="47.91136" lon="-2.56775">
        <ele>55.8702781685</ele>
        <time>2022-08-10T18:00:21.579Z</time>
      </trkpt>
      <trkpt lat="47.91138" lon="-2.56722">
        <ele>56.65323137242</ele>
        <time>2022-08-10T18:00:29.904Z</time>
      </trkpt>
      <trkpt lat="47.91143" lon="-2.56687">
        <ele>57.53363868893</ele>
        <time>2022-08-10T18:00:38.233Z</time>
      </trkpt>
      <trkpt lat="47.91152" lon="-2.56662">
        <ele>58.57525480063</ele>
        <time>2022-08-10T18:00:46.565Z</time>
      </trkpt>
      <trkpt lat="47.91163" lon="-2.56648">
        <ele>59.76767309994</ele>
        <time>2022-08-10T18:00:54.899Z</time>
      </trkpt>
      <trkpt lat="47.91169" lon="-2.56644">
        <ele>61.07007496105</ele>
        <time>2022-08-10T18:01:03.234Z</time>
      </trkpt>
      <trkpt lat="47.91176" lon="-2.56645">
        <ele>62.50643824838</ele>
        <time>2022-08-10T18:01:11.570Z</time>
      </trkpt>
      <trkpt lat="47.91192" lon="-2.56647">
        <ele>64.12561753474</ele>
        <time>2022-08-10T18:01:19.909Z</time>
      </trkpt>
      <trkpt lat="47.91195" lon="-2.56653">
        <ele>65.77308184258</ele>
        <time>2022-08-10T18:01:28.249Z</time>
      </trkpt>
      <trkpt lat="47.912" lon="-2.56674">
        <ele>67.59790644736</ele>
        <time>2022-08-10T18:01:36.591Z</time>
      </trkpt>
      <trkpt lat="47.91199" lon="-2.56717">
        <ele>69.52230063628</ele>
        <time>2022-08-10T18:01:44.938Z</time>
      </trkpt>
      <trkpt lat="47.91197" lon="-2.56753">
        <ele>71.40719622456</ele>
        <time>2022-08-10T18:01:53.289Z</time>
      </trkpt>
      <trkpt lat="47.91201" lon="-2.56774">
        <ele>73.30423020954</ele>
        <time>2022-08-10T18:02:01.642Z</time>
      </trkpt>
      <trkpt lat="47.9121" lon="-2.56793">
        <ele>75.23807992321</ele>
        <time>2022-08-10T18:02:09.997Z</time>
      </trkpt>
      <trkpt lat="47.91235" lon="-2.56829">
        <ele>77.21195198351</ele>
        <time>2022-08-10T18:02:18.358Z</time>
      </trkpt>
      <trkpt lat="47.9125" lon="-2.56845">
        <ele>79.27929850908</ele>
        <time>2022-08-10T18:02:26.722Z</time>
      </trkpt>
      <trkpt lat="47.91264" lon="-2.56863">
        <ele>81.37807048121</ele>
        <time>2022-08-10T18:02:35.089Z</time>
      </trkpt>
      <trkpt lat="47.91289" lon="-2.56907">
        <ele>83.53318028404</ele>
        <time>2022-08-10T18:02:43.462Z</time>
      </trkpt>
      <trkpt lat="47.91301" lon="-2.56925">
        <ele>85.56770318201</ele>
        <time>2022-08-10T18:02:51.838Z</time>
      </trkpt>
      <trkpt lat="47.91308" lon="-2.56931">
        <ele>87.53754704211</ele>
        <time>2022-08-10T18:03:00.215Z</time>
      </trkpt>
      <trkpt lat="47.9133" lon="-2.56939">
        <ele>89.54420919104</ele>
        <time>2022-08-10T18:03:08.596Z</time>
      </trkpt>
      <trkpt lat="47.91339" lon="-2.56943">
        <ele>91.41664993864</ele>
        <time>2022-08-10T18:03:16.978Z</time>
      </trkpt>
      <trkpt lat="47.91351" lon="-2.56956">
        <ele>93.20400521339</ele>
        <time>2022-08-10T18:03:25.363Z</time>
      </trkpt>
      <trkpt lat="47.91395" lon="-2.57022">
        <ele>94.97316692629</ele>
        <time>2022-08-10T18:03:33.758Z</time>
      </trkpt>
      <trkpt lat="47.91412" lon="-2.57059">
        <ele>96.59750162852</ele>
        <time>2022-08-10T18:03:42.158Z</time>
      </trkpt>
      <trkpt lat="47.91422" lon="-2.57087">
        <ele>98.07283068733</ele>
        <time>2022-08-10T18:03:50.561Z</time>
      </trkpt>
      <trkpt lat="47.91437" lon="-2.57171">
        <ele>99.45417514704</ele>
        <time>2022-08-10T18:03:58.973Z</time>
      </trkpt>
      <trkpt lat="47.91444" lon="-2.57195">
        <ele>100.82136689121</ele>
        <time>2022-08-10T18:04:07.388Z</time>
      </trkpt>
      <trkpt lat="47.91453" lon="-2.57212">
        <ele>102.07804575694</ele>
        <time>2022-08-10T18:04:15.805Z</time>
      </trkpt>
      <trkpt lat="47.91462" lon="-2.57222">
        <ele>103.25333921307</ele>
        <time>2022-08-10T18:04:24.224Z</time>
      </trkpt>
      <trkpt lat="47.91479" lon="-2.57235">
        <ele>104.35962668955</ele>
        <time>2022-08-10T18:04:32.646Z</time>
      </trkpt>
      <trkpt lat="47.91505" lon="-2.57265">
        <ele>105.33927384867</ele>
        <time>2022-08-10T18:04:41.074Z</time>
      </trkpt>
      <trkpt lat="47.91521" lon="-2.57294">
        <ele>106.16403745316</ele>
        <time>2022-08-10T18:04:49.506Z</time>
      </trkpt>
      <trkpt lat="47.91543" lon="-2.5734">
        <ele>106.84679568979</ele>
        <time>2022-08-10T18:04:57.944Z</time>
      </trkpt>
      <trkpt lat="47.91547" lon="-2.57353">
        <ele>107.46927522736</ele>
        <time>2022-08-10T18:05:06.383Z</time>
      </trkpt>
      <trkpt lat="47.91554" lon="-2.57382">
        <ele>108.01776682713</ele>
        <time>2022-08-10T18:05:14.826Z</time>
      </trkpt>
      <trkpt lat="47.91573" lon="-2.57486">
        <ele>108.51111506124</ele>
        <time>2022-08-10T18:05:23.280Z</time>
      </trkpt>
      <trkpt lat="47.91583" lon="-2.57549">
        <ele>108.87111292404</ele>
        <time>2022-08-10T18:05:31.741Z</time>
      </trkpt>
      <trkpt lat="47.91588" lon="-2.57605">
        <ele>109.11911507003</ele>
        <time>2022-08-10T18:05:40.208Z</time>
      </trkpt>
      <trkpt lat="47.91607" lon="-2.57764">
        <ele>109.21395850377</ele>
        <time>2022-08-10T18:05:48.693Z</time>
      </trkpt>
      <trkpt lat="47.9161" lon="-2.57803">
        <ele>109.29300857455</ele>
        <time>2022-08-10T18:05:57.182Z</time>
      </trkpt>
      <trkpt lat="47.91604" lon="-2.57897">
        <ele>109.32432068868</ele>
        <time>2022-08-10T18:06:05.681Z</time>
      </trkpt>
      <trkpt lat="47.916" lon="-2.57988">
        <ele>109.28986866852</ele>
        <time>2022-08-10T18:06:14.190Z</time>
      </trkpt>
      <trkpt lat="47.91602" lon="-2.58077">
        <ele>109.21189621546</ele>
        <time>2022-08-10T18:06:22.708Z</time>
      </trkpt>
      <trkpt lat="47.91604" lon="-2.58137">
        <ele>109.13916575347</ele>
        <time>2022-08-10T18:06:31.233Z</time>
      </trkpt>
      <trkpt lat="47.91597" lon="-2.58209">
        <ele>108.93724763409</ele>
        <time>2022-08-10T18:06:39.766Z</time>
      </trkpt>
      <trkpt lat="47.91601" lon="-2.58245">
        <ele>108.92648495233</ele>
        <time>2022-08-10T18:06:48.303Z</time>
      </trkpt>
      <trkpt lat="47.91587" lon="-2.5826">
        <ele>108.91350494502</ele>
        <time>2022-08-10T18:06:56.842Z</time>
      </trkpt>
      <trkpt lat="47.91588" lon="-2.58275">
        <ele>108.99549854083</ele>
        <time>2022-08-10T18:07:05.383Z</time>
      </trkpt>
      <trkpt lat="47.9158" lon="-2.58373">
        <ele>109.20712524042</ele>
        <time>2022-08-10T18:07:13.935Z</time>
      </trkpt>
      <trkpt lat="47.91568" lon="-2.58489">
        <ele>109.54249392586</ele>
        <time>2022-08-10T18:07:22.499Z</time>
      </trkpt>
      <trkpt lat="47.91564" lon="-2.58532">
        <ele>109.88034349167</ele>
        <time>2022-08-10T18:07:31.068Z</time>
      </trkpt>
      <trkpt lat="47.91568" lon="-2.58489">
        <ele>109.54249392586</ele>
        <time>2022-08-10T18:07:39.642Z</time>
      </trkpt>
      <trkpt lat="47.91568" lon="-2.58488">
        <ele>110.61418628336</ele>
        <time>2022-08-10T18:07:48.216Z</time>
      </trkpt>
      <trkpt lat="47.91555" lon="-2.58611">
        <ele>111.15853924761</ele>
        <time>2022-08-10T18:07:56.803Z</time>
      </trkpt>
      <trkpt lat="47.91548" lon="-2.58689">
        <ele>111.7537063295</ele>
        <time>2022-08-10T18:08:05.399Z</time>
      </trkpt>
      <trkpt lat="47.91546" lon="-2.58738">
        <ele>112.38364186649</ele>
        <time>2022-08-10T18:08:14.000Z</time>
      </trkpt>
      <trkpt lat="47.91547" lon="-2.58754">
        <ele>113.03513133252</ele>
        <time>2022-08-10T18:08:22.603Z</time>
      </trkpt>
      <trkpt lat="47.91551" lon="-2.58767">
        <ele>113.73331508961</ele>
        <time>2022-08-10T18:08:31.207Z</time>
      </trkpt>
      <trkpt lat="47.91559" lon="-2.5878">
        <ele>114.46528527594</ele>
        <time>2022-08-10T18:08:39.813Z</time>
      </trkpt>
      <trkpt lat="47.9157" lon="-2.58788">
        <ele>115.20811585652</ele>
        <time>2022-08-10T18:08:48.421Z</time>
      </trkpt>
      <trkpt lat="47.91573" lon="-2.58789">
        <ele>115.9243522869</ele>
        <time>2022-08-10T18:08:57.030Z</time>
      </trkpt>
      <trkpt lat="47.91603" lon="-2.588">
        <ele>116.64685042192</ele>
        <time>2022-08-10T18:09:05.643Z</time>
      </trkpt>
      <trkpt lat="47.91644" lon="-2.58815">
        <ele>117.30254403951</ele>
        <time>2022-08-10T18:09:14.263Z</time>
      </trkpt>
      <trkpt lat="47.91671" lon="-2.58819">
        <ele>118.02970020443</ele>
        <time>2022-08-10T18:09:22.888Z</time>
      </trkpt>
      <trkpt lat="47.91701" lon="-2.58817">
        <ele>118.72333798513</ele>
        <time>2022-08-10T18:09:31.517Z</time>
      </trkpt>
      <trkpt lat="47.91739" lon="-2.5881">
        <ele>119.33697611648</ele>
        <time>2022-08-10T18:09:40.152Z</time>
      </trkpt>
      <trkpt lat="47.9179" lon="-2.58804">
        <ele>119.93727285273</ele>
        <time>2022-08-10T18:09:48.796Z</time>
      </trkpt>
      <trkpt lat="47.91806" lon="-2.58808">
        <ele>120.46976097585</ele>
        <time>2022-08-10T18:09:57.442Z</time>
      </trkpt>
      <trkpt lat="47.91858" lon="-2.58843">
        <ele>120.92917118811</ele>
        <time>2022-08-10T18:10:06.097Z</time>
      </trkpt>
      <trkpt lat="47.91953" lon="-2.58919">
        <ele>121.33171415232</ele>
        <time>2022-08-10T18:10:14.770Z</time>
      </trkpt>
      <trkpt lat="47.91964" lon="-2.58933">
        <ele>121.6710346239</ele>
        <time>2022-08-10T18:10:23.445Z</time>
      </trkpt>
      <trkpt lat="47.91975" lon="-2.58951">
        <ele>121.92334723484</ele>
        <time>2022-08-10T18:10:32.123Z</time>
      </trkpt>
      <trkpt lat="47.91984" lon="-2.58974">
        <ele>122.1198821184</ele>
        <time>2022-08-10T18:10:40.803Z</time>
      </trkpt>
      <trkpt lat="47.92074" lon="-2.59218">
        <ele>122.24166693423</ele>
        <time>2022-08-10T18:10:49.513Z</time>
      </trkpt>
      <trkpt lat="47.92086" lon="-2.59251">
        <ele>122.29211843629</ele>
        <time>2022-08-10T18:10:58.227Z</time>
      </trkpt>
      <trkpt lat="47.9211" lon="-2.59311">
        <ele>122.36202350394</ele>
        <time>2022-08-10T18:11:06.949Z</time>
      </trkpt>
      <trkpt lat="47.92133" lon="-2.59353">
        <ele>122.31027893528</ele>
        <time>2022-08-10T18:11:15.677Z</time>
      </trkpt>
      <trkpt lat="47.92145" lon="-2.59372">
        <ele>122.15568787096</ele>
        <time>2022-08-10T18:11:24.408Z</time>
      </trkpt>
      <trkpt lat="47.92195" lon="-2.5945">
        <ele>121.86010659012</ele>
        <time>2022-08-10T18:11:33.150Z</time>
      </trkpt>
      <trkpt lat="47.92199" lon="-2.59456">
        <ele>121.63267253005</ele>
        <time>2022-08-10T18:11:41.893Z</time>
      </trkpt>
      <trkpt lat="47.9227" lon="-2.5957">
        <ele>121.2958847333</ele>
        <time>2022-08-10T18:11:50.653Z</time>
      </trkpt>
      <trkpt lat="47.92288" lon="-2.59593">
        <ele>120.99333649718</ele>
        <time>2022-08-10T18:11:59.417Z</time>
      </trkpt>
      <trkpt lat="47.92315" lon="-2.59629">
        <ele>120.67292128439</ele>
        <time>2022-08-10T18:12:08.186Z</time>
      </trkpt>
      <trkpt lat="47.92343" lon="-2.59658">
        <ele>120.20931454751</ele>
        <time>2022-08-10T18:12:16.961Z</time>
      </trkpt>
      <trkpt lat="47.92377" lon="-2.59683">
        <ele>119.72687569611</ele>
        <time>2022-08-10T18:12:25.742Z</time>
      </trkpt>
      <trkpt lat="47.9241" lon="-2.59702">
        <ele>119.27774831013</ele>
        <time>2022-08-10T18:12:34.529Z</time>
      </trkpt>
      <trkpt lat="47.92461" lon="-2.59729">
        <ele>118.66870079045</ele>
        <time>2022-08-10T18:12:43.324Z</time>
      </trkpt>
      <trkpt lat="47.92679" lon="-2.59838">
        <ele>118.36861989337</ele>
        <time>2022-08-10T18:12:52.156Z</time>
      </trkpt>
      <trkpt lat="47.92684" lon="-2.59841">
        <ele>117.67660233039</ele>
        <time>2022-08-10T18:13:00.989Z</time>
      </trkpt>
      <trkpt lat="47.92819" lon="-2.59914">
        <ele>116.9960227321</ele>
        <time>2022-08-10T18:13:09.845Z</time>
      </trkpt>
      <trkpt lat="47.92884" lon="-2.59946">
        <ele>116.05765368906</ele>
        <time>2022-08-10T18:13:18.712Z</time>
      </trkpt>
      <trkpt lat="47.92915" lon="-2.59966">
        <ele>114.92661877825</ele>
        <time>2022-08-10T18:13:27.584Z</time>
      </trkpt>
      <trkpt lat="47.92987" lon="-2.60025">
        <ele>113.55504407054</ele>
        <time>2022-08-10T18:13:36.470Z</time>
      </trkpt>
      <trkpt lat="47.93007" lon="-2.60041">
        <ele>112.15070658043</ele>
        <time>2022-08-10T18:13:45.359Z</time>
      </trkpt>
      <trkpt lat="47.93014" lon="-2.60051">
        <ele>110.62972355441</ele>
        <time>2022-08-10T18:13:54.250Z</time>
      </trkpt>
      <trkpt lat="47.93084" lon="-2.6019">
        <ele>108.81485018737</ele>
        <time>2022-08-10T18:14:03.159Z</time>
      </trkpt>
      <trkpt lat="47.93106" lon="-2.60233">
        <ele>107.0745208246</ele>
        <time>2022-08-10T18:14:12.074Z</time>
      </trkpt>
      <trkpt lat="47.93129" lon="-2.60272">
        <ele>105.25233956886</ele>
        <time>2022-08-10T18:14:20.995Z</time>
      </trkpt>
      <trkpt lat="47.93143" lon="-2.60286">
        <ele>103.44401979215</ele>
        <time>2022-08-10T18:14:29.919Z</time>
      </trkpt>
      <trkpt lat="47.93152" lon="-2.60292">
        <ele>101.63838743604</ele>
        <time>2022-08-10T18:14:38.844Z</time>
      </trkpt>
      <trkpt lat="47.93212" lon="-2.60322">
        <ele>99.84379064171</ele>
        <time>2022-08-10T18:14:47.779Z</time>
      </trkpt>
      <trkpt lat="47.93263" lon="-2.60349">
        <ele>97.96454168865</ele>
        <time>2022-08-10T18:14:56.723Z</time>
      </trkpt>
      <trkpt lat="47.93345" lon="-2.60391">
        <ele>96.23440002343</ele>
        <time>2022-08-10T18:15:05.681Z</time>
      </trkpt>
      <trkpt lat="47.93398" lon="-2.60418">
        <ele>94.62861820356</ele>
        <time>2022-08-10T18:15:14.648Z</time>
      </trkpt>
      <trkpt lat="47.93345" lon="-2.60391">
        <ele>96.23440002343</ele>
        <time>2022-08-10T18:15:23.624Z</time>
      </trkpt>
      <trkpt lat="47.93345" lon="-2.60391">
        <ele>92.19857946175</ele>
        <time>2022-08-10T18:15:32.600Z</time>
      </trkpt>
      <trkpt lat="47.93417" lon="-2.60427">
        <ele>91.05624022794</ele>
        <time>2022-08-10T18:15:41.588Z</time>
      </trkpt>
      <trkpt lat="47.93444" lon="-2.60442">
        <ele>90.23831404163</ele>
        <time>2022-08-10T18:15:50.581Z</time>
      </trkpt>
      <trkpt lat="47.93453" lon="-2.60449">
        <ele>89.67789989311</ele>
        <time>2022-08-10T18:15:59.575Z</time>
      </trkpt>
      <trkpt lat="47.93465" lon="-2.60462">
        <ele>89.37591117394</ele>
        <time>2022-08-10T18:16:08.572Z</time>
      </trkpt>
      <trkpt lat="47.93497" lon="-2.60501">
        <ele>89.25515186252</ele>
        <time>2022-08-10T18:16:17.575Z</time>
      </trkpt>
      <trkpt lat="47.93537" lon="-2.60554">
        <ele>89.48857399232</ele>
        <time>2022-08-10T18:16:26.587Z</time>
      </trkpt>
      <trkpt lat="47.93562" lon="-2.60583">
        <ele>89.97488525821</ele>
        <time>2022-08-10T18:16:35.604Z</time>
      </trkpt>
      <trkpt lat="47.93581" lon="-2.60602">
        <ele>90.71540819441</ele>
        <time>2022-08-10T18:16:44.625Z</time>
      </trkpt>
      <trkpt lat="47.93602" lon="-2.60615">
        <ele>91.64894406513</ele>
        <time>2022-08-10T18:16:53.649Z</time>
      </trkpt>
      <trkpt lat="47.9362" lon="-2.60623">
        <ele>92.81756933777</ele>
        <time>2022-08-10T18:17:02.676Z</time>
      </trkpt>
      <trkpt lat="47.93643" lon="-2.60632">
        <ele>94.14644376596</ele>
        <time>2022-08-10T18:17:11.707Z</time>
      </trkpt>
      <trkpt lat="47.9368" lon="-2.60643">
        <ele>95.63400989333</ele>
        <time>2022-08-10T18:17:20.744Z</time>
      </trkpt>
      <trkpt lat="47.93818" lon="-2.60686">
        <ele>97.3169218787</ele>
        <time>2022-08-10T18:17:29.804Z</time>
      </trkpt>
      <trkpt lat="47.93841" lon="-2.6069">
        <ele>98.95077504616</ele>
        <time>2022-08-10T18:17:38.867Z</time>
      </trkpt>
      <trkpt lat="47.93867" lon="-2.6069">
        <ele>100.60279080593</ele>
        <time>2022-08-10T18:17:47.934Z</time>
      </trkpt>
      <trkpt lat="47.93945" lon="-2.60686">
        <ele>102.31608583451</ele>
        <time>2022-08-10T18:17:57.014Z</time>
      </trkpt>
      <trkpt lat="47.93959" lon="-2.60689">
        <ele>103.93636982888</ele>
        <time>2022-08-10T18:18:06.096Z</time>
      </trkpt>
      <trkpt lat="47.93969" lon="-2.60696">
        <ele>105.49119609827</ele>
        <time>2022-08-10T18:18:15.180Z</time>
      </trkpt>
      <trkpt lat="47.94007" lon="-2.60734">
        <ele>107.04835280233</ele>
        <time>2022-08-10T18:18:24.271Z</time>
      </trkpt>
      <trkpt lat="47.94052" lon="-2.60781">
        <ele>108.3450904521</ele>
        <time>2022-08-10T18:18:33.371Z</time>
      </trkpt>
      <trkpt lat="47.94098" lon="-2.60825">
        <ele>109.47644893069</ele>
        <time>2022-08-10T18:18:42.480Z</time>
      </trkpt>
      <trkpt lat="47.94112" lon="-2.60839">
        <ele>110.41603423259</ele>
        <time>2022-08-10T18:18:51.592Z</time>
      </trkpt>
      <trkpt lat="47.94092" lon="-2.60878">
        <ele>111.18565426302</ele>
        <time>2022-08-10T18:19:00.709Z</time>
      </trkpt>
      <trkpt lat="47.94116" lon="-2.60907">
        <ele>111.74106148408</ele>
        <time>2022-08-10T18:19:09.831Z</time>
      </trkpt>
      <trkpt lat="47.94183" lon="-2.60999">
        <ele>112.02569992439</ele>
        <time>2022-08-10T18:19:18.967Z</time>
      </trkpt>
      <trkpt lat="47.942" lon="-2.61026">
        <ele>112.08165305858</ele>
        <time>2022-08-10T18:19:28.107Z</time>
      </trkpt>
      <trkpt lat="47.94209" lon="-2.61048">
        <ele>111.87422292207</ele>
        <time>2022-08-10T18:19:37.250Z</time>
      </trkpt>
      <trkpt lat="47.94217" lon="-2.61071">
        <ele>111.39010481097</ele>
        <time>2022-08-10T18:19:46.396Z</time>
      </trkpt>
      <trkpt lat="47.94224" lon="-2.61114">
        <ele>110.61057523737</ele>
        <time>2022-08-10T18:19:55.547Z</time>
      </trkpt>
      <trkpt lat="47.94231" lon="-2.61173">
        <ele>109.5664801282</ele>
        <time>2022-08-10T18:20:04.704Z</time>
      </trkpt>
      <trkpt lat="47.94223" lon="-2.61237">
        <ele>108.40945861684</ele>
        <time>2022-08-10T18:20:13.868Z</time>
      </trkpt>
      <trkpt lat="47.94222" lon="-2.61276">
        <ele>107.00720722961</ele>
        <time>2022-08-10T18:20:23.036Z</time>
      </trkpt>
      <trkpt lat="47.94226" lon="-2.61299">
        <ele>105.43521270876</ele>
        <time>2022-08-10T18:20:32.207Z</time>
      </trkpt>
      <trkpt lat="47.94232" lon="-2.61314">
        <ele>103.68130938203</ele>
        <time>2022-08-10T18:20:41.380Z</time>
      </trkpt>
      <trkpt lat="47.9424" lon="-2.61327">
        <ele>101.76212952626</ele>
        <time>2022-08-10T18:20:50.555Z</time>
      </trkpt>
      <trkpt lat="47.94251" lon="-2.61341">
        <ele>99.66924056024</ele>
        <time>2022-08-10T18:20:59.732Z</time>
      </trkpt>
      <trkpt lat="47.94259" lon="-2.61351">
        <ele>97.45351891963</ele>
        <time>2022-08-10T18:21:08.911Z</time>
      </trkpt>
      <trkpt lat="47.94267" lon="-2.61358">
        <ele>95.1386106702</ele>
        <time>2022-08-10T18:21:18.091Z</time>
      </trkpt>
      <trkpt lat="47.94274" lon="-2.61364">
        <ele>92.74351522562</ele>
        <time>2022-08-10T18:21:27.272Z</time>
      </trkpt>
      <trkpt lat="47.94285" lon="-2.61372">
        <ele>90.27920138995</ele>
        <time>2022-08-10T18:21:36.455Z</time>
      </trkpt>
      <trkpt lat="47.94305" lon="-2.61377">
        <ele>87.77783771617</ele>
        <time>2022-08-10T18:21:45.642Z</time>
      </trkpt>
      <trkpt lat="47.94317" lon="-2.61377">
        <ele>85.30208881339</ele>
        <time>2022-08-10T18:21:54.831Z</time>
      </trkpt>
      <trkpt lat="47.9435" lon="-2.61371">
        <ele>82.81124431912</ele>
        <time>2022-08-10T18:22:04.025Z</time>
      </trkpt>
      <trkpt lat="47.94411" lon="-2.6136">
        <ele>80.34029693455</ele>
        <time>2022-08-10T18:22:13.229Z</time>
      </trkpt>
      <trkpt lat="47.9444" lon="-2.61356">
        <ele>78.11965123185</ele>
        <time>2022-08-10T18:22:22.437Z</time>
      </trkpt>
      <trkpt lat="47.94458" lon="-2.61353">
        <ele>76.03590560386</ele>
        <time>2022-08-10T18:22:31.648Z</time>
      </trkpt>
      <trkpt lat="47.94478" lon="-2.6134">
        <ele>74.13879859295</ele>
        <time>2022-08-10T18:22:40.863Z</time>
      </trkpt>
      <trkpt lat="47.94531" lon="-2.61328">
        <ele>72.40484410933</ele>
        <time>2022-08-10T18:22:50.086Z</time>
      </trkpt>
      <trkpt lat="47.94549" lon="-2.61325">
        <ele>70.97150349772</ele>
        <time>2022-08-10T18:22:59.312Z</time>
      </trkpt>
      <trkpt lat="47.94563" lon="-2.61324">
        <ele>69.85306586114</ele>
        <time>2022-08-10T18:23:08.541Z</time>
      </trkpt>
      <trkpt lat="47.9457" lon="-2.61326">
        <ele>69.09071138632</ele>
        <time>2022-08-10T18:23:17.771Z</time>
      </trkpt>
      <trkpt lat="47.94584" lon="-2.61332">
        <ele>68.65959869905</ele>
        <time>2022-08-10T18:23:27.003Z</time>
      </trkpt>
      <trkpt lat="47.94604" lon="-2.61346">
        <ele>68.5715633287</ele>
        <time>2022-08-10T18:23:36.239Z</time>
      </trkpt>
      <trkpt lat="47.94673" lon="-2.61399">
        <ele>68.80742484918</ele>
        <time>2022-08-10T18:23:45.487Z</time>
      </trkpt>
      <trkpt lat="47.94709" lon="-2.61426">
        <ele>69.48579180195</ele>
        <time>2022-08-10T18:23:54.741Z</time>
      </trkpt>
      <trkpt lat="47.94731" lon="-2.6145">
        <ele>70.58645432359</ele>
        <time>2022-08-10T18:24:04.000Z</time>
      </trkpt>
      <trkpt lat="47.94737" lon="-2.61461">
        <ele>72.02028324993</ele>
        <time>2022-08-10T18:24:13.260Z</time>
      </trkpt>
      <trkpt lat="47.94742" lon="-2.61476">
        <ele>73.78301118989</ele>
        <time>2022-08-10T18:24:22.522Z</time>
      </trkpt>
      <trkpt lat="47.94765" lon="-2.61569">
        <ele>76.03501063613</ele>
        <time>2022-08-10T18:24:31.795Z</time>
      </trkpt>
      <trkpt lat="47.94816" lon="-2.61811">
        <ele>78.83720117833</ele>
        <time>2022-08-10T18:24:41.095Z</time>
      </trkpt>
      <trkpt lat="47.94821" lon="-2.61829">
        <ele>81.27066820156</ele>
        <time>2022-08-10T18:24:50.397Z</time>
      </trkpt>
      <trkpt lat="47.9483" lon="-2.61847">
        <ele>83.85398622065</ele>
        <time>2022-08-10T18:24:59.702Z</time>
      </trkpt>
      <trkpt lat="47.94846" lon="-2.61862">
        <ele>86.52372416955</ele>
        <time>2022-08-10T18:25:09.010Z</time>
      </trkpt>
      <trkpt lat="47.94865" lon="-2.61869">
        <ele>89.15103800653</ele>
        <time>2022-08-10T18:25:18.321Z</time>
      </trkpt>
      <trkpt lat="47.94911" lon="-2.6187">
        <ele>91.8324241979</ele>
        <time>2022-08-10T18:25:27.639Z</time>
      </trkpt>
      <trkpt lat="47.94929" lon="-2.61872">
        <ele>94.33388210359</ele>
        <time>2022-08-10T18:25:36.960Z</time>
      </trkpt>
      <trkpt lat="47.9494" lon="-2.61875">
        <ele>96.7112976572</ele>
        <time>2022-08-10T18:25:46.283Z</time>
      </trkpt>
      <trkpt lat="47.94947" lon="-2.61878">
        <ele>98.92138400545</ele>
        <time>2022-08-10T18:25:55.607Z</time>
      </trkpt>
      <trkpt lat="47.95003" lon="-2.61906">
        <ele>101.04883501923</ele>
        <time>2022-08-10T18:26:04.940Z</time>
      </trkpt>
      <trkpt lat="47.95014" lon="-2.6191">
        <ele>102.8606967567</ele>
        <time>2022-08-10T18:26:14.275Z</time>
      </trkpt>
      <trkpt lat="47.95014" lon="-2.61917">
        <ele>104.43229881089</ele>
        <time>2022-08-10T18:26:23.611Z</time>
      </trkpt>
      <trkpt lat="47.95013" lon="-2.61944">
        <ele>105.75406195981</ele>
        <time>2022-08-10T18:26:32.950Z</time>
      </trkpt>
      <trkpt lat="47.95002" lon="-2.62002">
        <ele>106.79565769724</ele>
        <time>2022-08-10T18:26:42.295Z</time>
      </trkpt>
      <trkpt lat="47.94985" lon="-2.62072">
        <ele>107.65821485919</ele>
        <time>2022-08-10T18:26:51.648Z</time>
      </trkpt>
      <trkpt lat="47.95035" lon="-2.62095">
        <ele>108.27683032203</ele>
        <time>2022-08-10T18:27:01.010Z</time>
      </trkpt>
      <trkpt lat="47.95097" lon="-2.62124">
        <ele>108.52871888706</ele>
        <time>2022-08-10T18:27:10.382Z</time>
      </trkpt>
      <trkpt lat="47.95114" lon="-2.62141">
        <ele>108.6200294851</ele>
        <time>2022-08-10T18:27:19.757Z</time>
      </trkpt>
      <trkpt lat="47.95124" lon="-2.62152">
        <ele>108.4553862565</ele>
        <time>2022-08-10T18:27:29.134Z</time>
      </trkpt>
      <trkpt lat="47.95155" lon="-2.6219">
        <ele>108.02561513223</ele>
        <time>2022-08-10T18:27:38.518Z</time>
      </trkpt>
      <trkpt lat="47.95175" lon="-2.62209">
        <ele>107.39495838194</ele>
        <time>2022-08-10T18:27:47.906Z</time>
      </trkpt>
      <trkpt lat="47.95205" lon="-2.62224">
        <ele>106.60431890604</ele>
        <time>2022-08-10T18:27:57.299Z</time>
      </trkpt>
      <trkpt lat="47.95262" lon="-2.62239">
        <ele>105.5594926123</ele>
        <time>2022-08-10T18:28:06.701Z</time>
      </trkpt>
      <trkpt lat="47.95302" lon="-2.62252">
        <ele>104.42838297644</ele>
        <time>2022-08-10T18:28:16.110Z</time>
      </trkpt>
      <trkpt lat="47.9534" lon="-2.62269">
        <ele>103.17969447331</ele>
        <time>2022-08-10T18:28:25.525Z</time>
      </trkpt>
      <trkpt lat="47.95367" lon="-2.62282">
        <ele>101.81616792376</ele>
        <time>2022-08-10T18:28:34.944Z</time>
      </trkpt>
      <trkpt lat="47.95399" lon="-2.62301">
        <ele>100.34801020909</ele>
        <time>2022-08-10T18:28:44.369Z</time>
      </trkpt>
      <trkpt lat="47.95413" lon="-2.62317">
        <ele>98.84973663009</ele>
        <time>2022-08-10T18:28:53.797Z</time>
      </trkpt>
      <trkpt lat="47.95426" lon="-2.62339">
        <ele>97.28367056665</ele>
        <time>2022-08-10T18:29:03.228Z</time>
      </trkpt>
      <trkpt lat="47.95445" lon="-2.62361">
        <ele>95.66613833182</ele>
        <time>2022-08-10T18:29:12.663Z</time>
      </trkpt>
      <trkpt lat="47.95464" lon="-2.62373">
        <ele>94.04068526628</ele>
        <time>2022-08-10T18:29:22.101Z</time>
      </trkpt>
      <trkpt lat="47.95569" lon="-2.62406">
        <ele>92.40911574811</ele>
        <time>2022-08-10T18:29:31.556Z</time>
      </trkpt>
      <trkpt lat="47.95657" lon="-2.62434">
        <ele>90.61773600539</ele>
        <time>2022-08-10T18:29:41.026Z</time>
      </trkpt>
      <trkpt lat="47.95707" lon="-2.62451">
        <ele>88.97633425638</ele>
        <time>2022-08-10T18:29:50.504Z</time>
      </trkpt>
      <trkpt lat="47.95719" lon="-2.62456">
        <ele>87.2186636022</ele>
        <time>2022-08-10T18:29:59.984Z</time>
      </trkpt>
      <trkpt lat="47.95743" lon="-2.62471">
        <ele>85.39150562202</ele>
        <time>2022-08-10T18:30:09.468Z</time>
      </trkpt>
      <trkpt lat="47.95776" lon="-2.62493">
        <ele>83.47373741709</ele>
        <time>2022-08-10T18:30:18.958Z</time>
      </trkpt>
      <trkpt lat="47.95837" lon="-2.62536">
        <ele>81.35540733677</ele>
        <time>2022-08-10T18:30:28.459Z</time>
      </trkpt>
      <trkpt lat="47.95847" lon="-2.62543">
        <ele>79.24708976954</ele>
        <time>2022-08-10T18:30:37.961Z</time>
      </trkpt>
      <trkpt lat="47.95871" lon="-2.62552">
        <ele>77.04423674528</ele>
        <time>2022-08-10T18:30:47.467Z</time>
      </trkpt>
      <trkpt lat="47.95913" lon="-2.62562">
        <ele>74.71443843533</ele>
        <time>2022-08-10T18:30:56.980Z</time>
      </trkpt>
      <trkpt lat="47.9592" lon="-2.62564">
        <ele>72.37434563556</ele>
        <time>2022-08-10T18:31:06.494Z</time>
      </trkpt>
      <trkpt lat="47.9604" lon="-2.62593">
        <ele>69.68698208138</ele>
        <time>2022-08-10T18:31:16.028Z</time>
      </trkpt>
      <trkpt lat="47.96112" lon="-2.62608">
        <ele>67.1540296425</ele>
        <time>2022-08-10T18:31:25.573Z</time>
      </trkpt>
      <trkpt lat="47.96148" lon="-2.62611">
        <ele>64.68586444738</ele>
        <time>2022-08-10T18:31:35.124Z</time>
      </trkpt>
      <trkpt lat="47.96248" lon="-2.62624">
        <ele>62.0638068826</ele>
        <time>2022-08-10T18:31:44.691Z</time>
      </trkpt>
      <trkpt lat="47.96305" lon="-2.6262">
        <ele>59.45515531408</ele>
        <time>2022-08-10T18:31:54.267Z</time>
      </trkpt>
      <trkpt lat="47.96325" lon="-2.62617">
        <ele>57.0194751826</ele>
        <time>2022-08-10T18:32:03.847Z</time>
      </trkpt>
      <trkpt lat="47.96367" lon="-2.62603">
        <ele>54.54301264405</ele>
        <time>2022-08-10T18:32:13.434Z</time>
      </trkpt>
      <trkpt lat="47.96397" lon="-2.62595">
        <ele>52.14643926089</ele>
        <time>2022-08-10T18:32:23.025Z</time>
      </trkpt>
      <trkpt lat="47.96425" lon="-2.62598">
        <ele>49.85306281733</ele>
        <time>2022-08-10T18:32:32.621Z</time>
      </trkpt>
      <trkpt lat="47.96431" lon="-2.62599">
        <ele>47.80706149367</ele>
        <time>2022-08-10T18:32:42.218Z</time>
      </trkpt>
      <trkpt lat="47.965" lon="-2.62613">
        <ele>45.79664520916</ele>
        <time>2022-08-10T18:32:51.826Z</time>
      </trkpt>
      <trkpt lat="47.9651" lon="-2.62615">
        <ele>44.06813178639</ele>
        <time>2022-08-10T18:33:01.436Z</time>
      </trkpt>
      <trkpt lat="47.96514" lon="-2.62599">
        <ele>42.53333236826</ele>
        <time>2022-08-10T18:33:11.047Z</time>
      </trkpt>
      <trkpt lat="47.96522" lon="-2.62579">
        <ele>41.16765623668</ele>
        <time>2022-08-10T18:33:20.661Z</time>
      </trkpt>
      <trkpt lat="47.96532" lon="-2.62569">
        <ele>39.97887155813</ele>
        <time>2022-08-10T18:33:30.277Z</time>
      </trkpt>
      <trkpt lat="47.96535" lon="-2.62566">
        <ele>38.98840069757</ele>
        <time>2022-08-10T18:33:39.893Z</time>
      </trkpt>
      <trkpt lat="47.96551" lon="-2.62562">
        <ele>38.15503749236</ele>
        <time>2022-08-10T18:33:49.512Z</time>
      </trkpt>
      <trkpt lat="47.96573" lon="-2.62563">
        <ele>37.49480610997</ele>
        <time>2022-08-10T18:33:59.135Z</time>
      </trkpt>
      <trkpt lat="47.96588" lon="-2.62569">
        <ele>37.0240180082</ele>
        <time>2022-08-10T18:34:08.760Z</time>
      </trkpt>
      <trkpt lat="47.96614" lon="-2.62577">
        <ele>36.68056808352</ele>
        <time>2022-08-10T18:34:18.389Z</time>
      </trkpt>
      <trkpt lat="47.96625" lon="-2.6258">
        <ele>36.47786445378</ele>
        <time>2022-08-10T18:34:28.020Z</time>
      </trkpt>
      <trkpt lat="47.96641" lon="-2.62579">
        <ele>36.40176808603</ele>
        <time>2022-08-10T18:34:37.654Z</time>
      </trkpt>
      <trkpt lat="47.96669" lon="-2.62569">
        <ele>36.43767675254</ele>
        <time>2022-08-10T18:34:47.292Z</time>
      </trkpt>
      <trkpt lat="47.96681" lon="-2.62547">
        <ele>36.57003462625</ele>
        <time>2022-08-10T18:34:56.933Z</time>
      </trkpt>
      <trkpt lat="47.96687" lon="-2.62524">
        <ele>36.76678119529</ele>
        <time>2022-08-10T18:35:06.577Z</time>
      </trkpt>
      <trkpt lat="47.96691" lon="-2.62506">
        <ele>37.04904490276</ele>
        <time>2022-08-10T18:35:16.223Z</time>
      </trkpt>
      <trkpt lat="47.96702" lon="-2.62467">
        <ele>37.40374023926</ele>
        <time>2022-08-10T18:35:25.874Z</time>
      </trkpt>
      <trkpt lat="47.96711" lon="-2.62455">
        <ele>37.79710286352</ele>
        <time>2022-08-10T18:35:35.527Z</time>
      </trkpt>
      <trkpt lat="47.96716" lon="-2.62451">
        <ele>38.19749910179</ele>
        <time>2022-08-10T18:35:45.180Z</time>
      </trkpt>
      <trkpt lat="47.96707" lon="-2.62422">
        <ele>38.58864010606</ele>
        <time>2022-08-10T18:35:54.837Z</time>
      </trkpt>
      <trkpt lat="47.96651" lon="-2.62248">
        <ele>38.99321995437</ele>
        <time>2022-08-10T18:36:04.515Z</time>
      </trkpt>
      <trkpt lat="47.96628" lon="-2.62168">
        <ele>39.41257548275</ele>
        <time>2022-08-10T18:36:14.202Z</time>
      </trkpt>
      <trkpt lat="47.96608" lon="-2.62111">
        <ele>39.68820862664</ele>
        <time>2022-08-10T18:36:23.896Z</time>
      </trkpt>
      <trkpt lat="47.96564" lon="-2.61973">
        <ele>40.05689969831</ele>
        <time>2022-08-10T18:36:33.606Z</time>
      </trkpt>
      <trkpt lat="47.96554" lon="-2.61943">
        <ele>40.3948739507</ele>
        <time>2022-08-10T18:36:43.320Z</time>
      </trkpt>
      <trkpt lat="47.96538" lon="-2.61903">
        <ele>40.73893491238</ele>
        <time>2022-08-10T18:36:53.039Z</time>
      </trkpt>
      <trkpt lat="47.96523" lon="-2.61857">
        <ele>41.02598202591</ele>
        <time>2022-08-10T18:37:02.763Z</time>
      </trkpt>
      <trkpt lat="47.96508" lon="-2.61787">
        <ele>41.19776653652</ele>
        <time>2022-08-10T18:37:12.495Z</time>
      </trkpt>
      <trkpt lat="47.965" lon="-2.61796">
        <ele>41.38134185376</ele>
        <time>2022-08-10T18:37:22.229Z</time>
      </trkpt>
      <trkpt lat="47.96495" lon="-2.61803">
        <ele>41.51894460642</ele>
        <time>2022-08-10T18:37:31.964Z</time>
      </trkpt>
      <trkpt lat="47.96488" lon="-2.6182">
        <ele>41.61174821813</ele>
        <time>2022-08-10T18:37:41.701Z</time>
      </trkpt>
      <trkpt lat="47.9648" lon="-2.61841">
        <ele>41.66153214365</ele>
        <time>2022-08-10T18:37:51.441Z</time>
      </trkpt>
      <trkpt lat="47.96488" lon="-2.6182">
        <ele>41.61174821813</ele>
        <time>2022-08-10T18:38:01.183Z</time>
      </trkpt>
      <trkpt lat="47.96489" lon="-2.6182">
        <ele>41.62496035732</ele>
        <time>2022-08-10T18:38:10.926Z</time>
      </trkpt>
      <trkpt lat="47.9648" lon="-2.61841">
        <ele>41.66153214365</ele>
        <time>2022-08-10T18:38:20.671Z</time>
      </trkpt>
      <trkpt lat="47.96481" lon="-2.6185">
        <ele>41.48804638918</ele>
        <time>2022-08-10T18:38:30.417Z</time>
      </trkpt>
      <trkpt lat="47.96483" lon="-2.61894">
        <ele>41.3629042898</ele>
        <time>2022-08-10T18:38:40.168Z</time>
      </trkpt>
      <trkpt lat="47.96483" lon="-2.61944">
        <ele>41.17441559952</ele>
        <time>2022-08-10T18:38:49.924Z</time>
      </trkpt>
      <trkpt lat="47.96493" lon="-2.61943">
        <ele>41.03436950058</ele>
        <time>2022-08-10T18:38:59.682Z</time>
      </trkpt>
      <trkpt lat="47.96516" lon="-2.61934">
        <ele>40.90444567195</ele>
        <time>2022-08-10T18:39:09.444Z</time>
      </trkpt>
      <trkpt lat="47.9652" lon="-2.61932">
        <ele>40.80612686695</ele>
        <time>2022-08-10T18:39:19.206Z</time>
      </trkpt>
      <trkpt lat="47.9653" lon="-2.61935">
        <ele>40.72269313037</ele>
        <time>2022-08-10T18:39:28.970Z</time>
      </trkpt>
      <trkpt lat="47.96535" lon="-2.61939">
        <ele>40.64938888655</ele>
        <time>2022-08-10T18:39:38.735Z</time>
      </trkpt>
      <trkpt lat="47.96513" lon="-2.61946">
        <ele>40.59448250903</ele>
        <time>2022-08-10T18:39:48.504Z</time>
      </trkpt>
      <trkpt lat="47.96485" lon="-2.61957">
        <ele>40.62727024436</ele>
        <time>2022-08-10T18:39:58.277Z</time>
      </trkpt>
      <trkpt lat="47.96467" lon="-2.61968">
        <ele>40.70600675895</ele>
        <time>2022-08-10T18:40:08.053Z</time>
      </trkpt>
      <trkpt lat="47.96418" lon="-2.62004">
        <ele>40.75587861268</ele>
        <time>2022-08-10T18:40:17.838Z</time>
      </trkpt>
      <trkpt lat="47.96345" lon="-2.62057">
        <ele>40.77992913631</ele>
        <time>2022-08-10T18:40:27.636Z</time>
      </trkpt>
      <trkpt lat="47.96318" lon="-2.62082">
        <ele>40.94202942364</ele>
        <time>2022-08-10T18:40:37.439Z</time>
      </trkpt>
      <trkpt lat="47.96295" lon="-2.62108">
        <ele>41.09836789741</ele>
        <time>2022-08-10T18:40:47.247Z</time>
      </trkpt>
      <trkpt lat="47.96235" lon="-2.62182">
        <ele>41.24356322104</ele>
        <time>2022-08-10T18:40:57.067Z</time>
      </trkpt>
      <trkpt lat="47.96196" lon="-2.6223">
        <ele>41.49904968494</ele>
        <time>2022-08-10T18:41:06.895Z</time>
      </trkpt>
      <trkpt lat="47.96177" lon="-2.62252">
        <ele>41.7422390659</ele>
        <time>2022-08-10T18:41:16.727Z</time>
      </trkpt>
      <trkpt lat="47.96164" lon="-2.62262">
        <ele>41.98333995802</ele>
        <time>2022-08-10T18:41:26.562Z</time>
      </trkpt>
      <trkpt lat="47.96133" lon="-2.62281">
        <ele>42.22064862416</ele>
        <time>2022-08-10T18:41:36.402Z</time>
      </trkpt>
      <trkpt lat="47.96102" lon="-2.62294">
        <ele>42.45896425659</ele>
        <time>2022-08-10T18:41:46.247Z</time>
      </trkpt>
      <trkpt lat="47.96087" lon="-2.62299">
        <ele>42.66717399207</ele>
        <time>2022-08-10T18:41:56.094Z</time>
      </trkpt>
      <trkpt lat="47.96071" lon="-2.62299">
        <ele>42.83759099085</ele>
        <time>2022-08-10T18:42:05.944Z</time>
      </trkpt>
      <trkpt lat="47.96048" lon="-2.62298">
        <ele>42.93133730909</ele>
        <time>2022-08-10T18:42:15.798Z</time>
      </trkpt>
      <trkpt lat="47.95999" lon="-2.62286">
        <ele>43.06557737537</ele>
        <time>2022-08-10T18:42:25.660Z</time>
      </trkpt>
      <trkpt lat="47.95978" lon="-2.62276">
        <ele>43.12966991341</ele>
        <time>2022-08-10T18:42:35.525Z</time>
      </trkpt>
      <trkpt lat="47.95969" lon="-2.62269">
        <ele>43.1183594558</ele>
        <time>2022-08-10T18:42:45.392Z</time>
      </trkpt>
      <trkpt lat="47.95953" lon="-2.62245">
        <ele>43.01410425054</ele>
        <time>2022-08-10T18:42:55.262Z</time>
      </trkpt>
      <trkpt lat="47.95914" lon="-2.62176">
        <ele>42.78803765801</ele>
        <time>2022-08-10T18:43:05.142Z</time>
      </trkpt>
      <trkpt lat="47.95898" lon="-2.62139">
        <ele>42.5494133089</ele>
        <time>2022-08-10T18:43:15.027Z</time>
      </trkpt>
      <trkpt lat="47.95861" lon="-2.62016">
        <ele>42.32870891647</ele>
        <time>2022-08-10T18:43:24.926Z</time>
      </trkpt>
      <trkpt lat="47.95824" lon="-2.61894">
        <ele>42.20352809131</ele>
        <time>2022-08-10T18:43:34.840Z</time>
      </trkpt>
      <trkpt lat="47.95799" lon="-2.61803">
        <ele>41.90361787774</ele>
        <time>2022-08-10T18:43:44.764Z</time>
      </trkpt>
      <trkpt lat="47.95794" lon="-2.6176">
        <ele>41.59335551165</ele>
        <time>2022-08-10T18:43:54.693Z</time>
      </trkpt>
      <trkpt lat="47.95794" lon="-2.61723">
        <ele>41.25650462756</ele>
        <time>2022-08-10T18:44:04.626Z</time>
      </trkpt>
      <trkpt lat="47.95803" lon="-2.61617">
        <ele>40.88875239995</ele>
        <time>2022-08-10T18:44:14.571Z</time>
      </trkpt>
      <trkpt lat="47.95814" lon="-2.61496">
        <ele>40.47484632179</ele>
        <time>2022-08-10T18:44:24.529Z</time>
      </trkpt>
      <trkpt lat="47.95814" lon="-2.61473">
        <ele>40.09744914477</ele>
        <time>2022-08-10T18:44:34.489Z</time>
      </trkpt>
      <trkpt lat="47.9581" lon="-2.61397">
        <ele>39.67531049651</ele>
        <time>2022-08-10T18:44:44.457Z</time>
      </trkpt>
      <trkpt lat="47.958" lon="-2.61274">
        <ele>39.27968145178</ele>
        <time>2022-08-10T18:44:54.439Z</time>
      </trkpt>
      <trkpt lat="47.95796" lon="-2.61227">
        <ele>38.99535992795</ele>
        <time>2022-08-10T18:45:04.426Z</time>
      </trkpt>
      <trkpt lat="47.95796" lon="-2.61188">
        <ele>38.67594578047</ele>
        <time>2022-08-10T18:45:14.417Z</time>
      </trkpt>
      <trkpt lat="47.95821" lon="-2.61017">
        <ele>38.28436586605</ele>
        <time>2022-08-10T18:45:24.427Z</time>
      </trkpt>
      <trkpt lat="47.95843" lon="-2.60872">
        <ele>38.03198454524</ele>
        <time>2022-08-10T18:45:34.453Z</time>
      </trkpt>
      <trkpt lat="47.95852" lon="-2.60838">
        <ele>37.80484653338</ele>
        <time>2022-08-10T18:45:44.483Z</time>
      </trkpt>
      <trkpt lat="47.95868" lon="-2.60806">
        <ele>37.57023299069</ele>
        <time>2022-08-10T18:45:54.517Z</time>
      </trkpt>
      <trkpt lat="47.95887" lon="-2.60782">
        <ele>37.42687498174</ele>
        <time>2022-08-10T18:46:04.555Z</time>
      </trkpt>
      <trkpt lat="47.95905" lon="-2.60765">
        <ele>37.31090427092</ele>
        <time>2022-08-10T18:46:14.596Z</time>
      </trkpt>
      <trkpt lat="47.95946" lon="-2.60741">
        <ele>37.25739419061</ele>
        <time>2022-08-10T18:46:24.644Z</time>
      </trkpt>
      <trkpt lat="47.95991" lon="-2.60715">
        <ele>37.20458981605</ele>
        <time>2022-08-10T18:46:34.700Z</time>
      </trkpt>
      <trkpt lat="47.96009" lon="-2.60702">
        <ele>37.18103274756</ele>
        <time>2022-08-10T18:46:44.759Z</time>
      </trkpt>
      <trkpt lat="47.96102" lon="-2.60624">
        <ele>37.14230648213</ele>
        <time>2022-08-10T18:46:54.835Z</time>
      </trkpt>
      <trkpt lat="47.96131" lon="-2.60599">
        <ele>37.16336410487</ele>
        <time>2022-08-10T18:47:04.917Z</time>
      </trkpt>
      <trkpt lat="47.96146" lon="-2.60581">
        <ele>37.23252431566</ele>
        <time>2022-08-10T18:47:15.002Z</time>
      </trkpt>
      <trkpt lat="47.96158" lon="-2.60555">
        <ele>37.31518143342</ele>
        <time>2022-08-10T18:47:25.090Z</time>
      </trkpt>
      <trkpt lat="47.96166" lon="-2.60521">
        <ele>37.42197374072</ele>
        <time>2022-08-10T18:47:35.182Z</time>
      </trkpt>
      <trkpt lat="47.96167" lon="-2.60492">
        <ele>37.49823882599</ele>
        <time>2022-08-10T18:47:45.277Z</time>
      </trkpt>
      <trkpt lat="47.96157" lon="-2.60412">
        <ele>37.57153032994</ele>
        <time>2022-08-10T18:47:55.381Z</time>
      </trkpt>
      <trkpt lat="47.96148" lon="-2.60354">
        <ele>37.68941105954</ele>
        <time>2022-08-10T18:48:05.491Z</time>
      </trkpt>
      <trkpt lat="47.96139" lon="-2.60312">
        <ele>37.79548227163</ele>
        <time>2022-08-10T18:48:15.606Z</time>
      </trkpt>
      <trkpt lat="47.9613" lon="-2.60264">
        <ele>37.84756683607</ele>
        <time>2022-08-10T18:48:25.727Z</time>
      </trkpt>
      <trkpt lat="47.96117" lon="-2.60175">
        <ele>37.87143063637</ele>
        <time>2022-08-10T18:48:35.857Z</time>
      </trkpt>
      <trkpt lat="47.96102" lon="-2.601">
        <ele>37.93087400932</ele>
        <time>2022-08-10T18:48:45.996Z</time>
      </trkpt>
      <trkpt lat="47.96063" lon="-2.59939">
        <ele>37.90913246829</ele>
        <time>2022-08-10T18:48:56.153Z</time>
      </trkpt>
      <trkpt lat="47.96057" lon="-2.59914">
        <ele>37.90162750347</ele>
        <time>2022-08-10T18:49:06.313Z</time>
      </trkpt>
      <trkpt lat="47.96052" lon="-2.59857">
        <ele>37.86645913895</ele>
        <time>2022-08-10T18:49:16.479Z</time>
      </trkpt>
      <trkpt lat="47.96054" lon="-2.59753">
        <ele>37.69492389491</ele>
        <time>2022-08-10T18:49:26.656Z</time>
      </trkpt>
      <trkpt lat="47.96056" lon="-2.59671">
        <ele>37.65127467351</ele>
        <time>2022-08-10T18:49:36.842Z</time>
      </trkpt>
      <trkpt lat="47.96054" lon="-2.59646">
        <ele>37.5474208023</ele>
        <time>2022-08-10T18:49:47.031Z</time>
      </trkpt>
      <trkpt lat="47.96046" lon="-2.59602">
        <ele>37.41012782182</ele>
        <time>2022-08-10T18:49:57.225Z</time>
      </trkpt>
      <trkpt lat="47.96039" lon="-2.59583">
        <ele>37.26019152958</ele>
        <time>2022-08-10T18:50:07.421Z</time>
      </trkpt>
      <trkpt lat="47.96017" lon="-2.59495">
        <ele>37.07111593618</ele>
        <time>2022-08-10T18:50:17.627Z</time>
      </trkpt>
      <trkpt lat="47.96009" lon="-2.59463">
        <ele>36.88352535061</ele>
        <time>2022-08-10T18:50:27.837Z</time>
      </trkpt>
      <trkpt lat="47.96006" lon="-2.59444">
        <ele>36.7054172292</ele>
        <time>2022-08-10T18:50:38.049Z</time>
      </trkpt>
      <trkpt lat="47.96005" lon="-2.59411">
        <ele>36.57948897228</ele>
        <time>2022-08-10T18:50:48.265Z</time>
      </trkpt>
      <trkpt lat="47.96006" lon="-2.59342">
        <ele>36.44930860768</ele>
        <time>2022-08-10T18:50:58.488Z</time>
      </trkpt>
      <trkpt lat="47.96007" lon="-2.59257">
        <ele>36.31717739256</ele>
        <time>2022-08-10T18:51:08.720Z</time>
      </trkpt>
      <trkpt lat="47.96011" lon="-2.5918">
        <ele>36.14569446913</ele>
        <time>2022-08-10T18:51:18.960Z</time>
      </trkpt>
      <trkpt lat="47.96009" lon="-2.59127">
        <ele>36.0046408156</ele>
        <time>2022-08-10T18:51:29.206Z</time>
      </trkpt>
      <trkpt lat="47.96002" lon="-2.59099">
        <ele>35.96764453106</ele>
        <time>2022-08-10T18:51:39.455Z</time>
      </trkpt>
      <trkpt lat="47.95993" lon="-2.59076">
        <ele>35.91365245843</ele>
        <time>2022-08-10T18:51:49.707Z</time>
      </trkpt>
      <trkpt lat="47.95978" lon="-2.59046">
        <ele>35.87839343043</ele>
        <time>2022-08-10T18:51:59.963Z</time>
      </trkpt>
      <trkpt lat="47.95958" lon="-2.59015">
        <ele>35.84785679514</ele>
        <time>2022-08-10T18:52:10.224Z</time>
      </trkpt>
      <trkpt lat="47.95938" lon="-2.58985">
        <ele>35.87605268478</ele>
        <time>2022-08-10T18:52:20.489Z</time>
      </trkpt>
      <trkpt lat="47.95921" lon="-2.58956">
        <ele>35.9361266362</ele>
        <time>2022-08-10T18:52:30.759Z</time>
      </trkpt>
      <trkpt lat="47.9591" lon="-2.58933">
        <ele>36.04554552549</ele>
        <time>2022-08-10T18:52:41.032Z</time>
      </trkpt>
      <trkpt lat="47.95899" lon="-2.58883">
        <ele>36.1752125254</ele>
        <time>2022-08-10T18:52:51.310Z</time>
      </trkpt>
      <trkpt lat="47.95893" lon="-2.5884">
        <ele>36.3319500086</ele>
        <time>2022-08-10T18:53:01.593Z</time>
      </trkpt>
      <trkpt lat="47.95878" lon="-2.58792">
        <ele>36.60129407961</ele>
        <time>2022-08-10T18:53:11.882Z</time>
      </trkpt>
      <trkpt lat="47.95849" lon="-2.58698">
        <ele>36.93195493826</ele>
        <time>2022-08-10T18:53:22.182Z</time>
      </trkpt>
      <trkpt lat="47.95843" lon="-2.5868">
        <ele>37.12903961007</ele>
        <time>2022-08-10T18:53:32.484Z</time>
      </trkpt>
      <trkpt lat="47.95823" lon="-2.5861">
        <ele>37.22883108371</ele>
        <time>2022-08-10T18:53:42.794Z</time>
      </trkpt>
      <trkpt lat="47.95801" lon="-2.58552">
        <ele>37.42489500785</ele>
        <time>2022-08-10T18:53:53.111Z</time>
      </trkpt>
      <trkpt lat="47.95791" lon="-2.58525">
        <ele>37.57628663379</ele>
        <time>2022-08-10T18:54:03.432Z</time>
      </trkpt>
      <trkpt lat="47.95768" lon="-2.58477">
        <ele>37.68349983939</ele>
        <time>2022-08-10T18:54:13.759Z</time>
      </trkpt>
      <trkpt lat="47.95729" lon="-2.58418">
        <ele>37.85728333915</ele>
        <time>2022-08-10T18:54:24.095Z</time>
      </trkpt>
      <trkpt lat="47.95711" lon="-2.58394">
        <ele>37.92145346391</ele>
        <time>2022-08-10T18:54:34.435Z</time>
      </trkpt>
      <trkpt lat="47.95704" lon="-2.58384">
        <ele>37.98551564624</ele>
        <time>2022-08-10T18:54:44.776Z</time>
      </trkpt>
      <trkpt lat="47.95667" lon="-2.58319">
        <ele>37.99124811671</ele>
        <time>2022-08-10T18:54:55.126Z</time>
      </trkpt>
      <trkpt lat="47.95643" lon="-2.5828">
        <ele>37.9954968562</ele>
        <time>2022-08-10T18:55:05.482Z</time>
      </trkpt>
      <trkpt lat="47.95609" lon="-2.58231">
        <ele>37.95276836079</ele>
        <time>2022-08-10T18:55:15.846Z</time>
      </trkpt>
      <trkpt lat="47.95556" lon="-2.58144">
        <ele>37.94246523354</ele>
        <time>2022-08-10T18:55:26.222Z</time>
      </trkpt>
      <trkpt lat="47.95452" lon="-2.5798">
        <ele>37.90355742532</ele>
        <time>2022-08-10T18:55:36.623Z</time>
      </trkpt>
      <trkpt lat="47.95433" lon="-2.57948">
        <ele>37.75588645608</ele>
        <time>2022-08-10T18:55:47.028Z</time>
      </trkpt>
      <trkpt lat="47.95412" lon="-2.57913">
        <ele>37.57040695745</ele>
        <time>2022-08-10T18:55:57.438Z</time>
      </trkpt>
      <trkpt lat="47.95387" lon="-2.57859">
        <ele>37.34204897734</ele>
        <time>2022-08-10T18:56:07.855Z</time>
      </trkpt>
      <trkpt lat="47.95381" lon="-2.5784">
        <ele>37.13925295477</ele>
        <time>2022-08-10T18:56:18.275Z</time>
      </trkpt>
      <trkpt lat="47.95356" lon="-2.57734">
        <ele>37.06867186506</ele>
        <time>2022-08-10T18:56:28.707Z</time>
      </trkpt>
      <trkpt lat="47.95335" lon="-2.57624">
        <ele>36.89352449942</ele>
        <time>2022-08-10T18:56:39.151Z</time>
      </trkpt>
      <trkpt lat="47.95331" lon="-2.57603">
        <ele>36.70300902155</ele>
        <time>2022-08-10T18:56:49.597Z</time>
      </trkpt>
      <trkpt lat="47.95335" lon="-2.57624">
        <ele>36.89352449942</ele>
        <time>2022-08-10T18:57:00.046Z</time>
      </trkpt>
      <trkpt lat="47.95335" lon="-2.57624">
        <ele>36.36732749443</ele>
        <time>2022-08-10T18:57:10.495Z</time>
      </trkpt>
      <trkpt lat="47.9532" lon="-2.57544">
        <ele>36.16092886572</ele>
        <time>2022-08-10T18:57:20.953Z</time>
      </trkpt>
      <trkpt lat="47.95322" lon="-2.57533">
        <ele>36.0012019019</ele>
        <time>2022-08-10T18:57:31.412Z</time>
      </trkpt>
      <trkpt lat="47.95325" lon="-2.57529">
        <ele>35.85325805446</ele>
        <time>2022-08-10T18:57:41.871Z</time>
      </trkpt>
      <trkpt lat="47.95338" lon="-2.5752">
        <ele>35.70780116119</ele>
        <time>2022-08-10T18:57:52.333Z</time>
      </trkpt>
      <trkpt lat="47.95335" lon="-2.5751">
        <ele>35.59795018175</ele>
        <time>2022-08-10T18:58:02.796Z</time>
      </trkpt>
      <trkpt lat="47.95332" lon="-2.57496">
        <ele>35.48953073062</ele>
        <time>2022-08-10T18:58:13.261Z</time>
      </trkpt>
      <trkpt lat="47.95328" lon="-2.57483">
        <ele>35.41608574465</ele>
        <time>2022-08-10T18:58:23.727Z</time>
      </trkpt>
      <trkpt lat="47.95327" lon="-2.57478">
        <ele>35.37075348305</ele>
        <time>2022-08-10T18:58:34.194Z</time>
      </trkpt>
      <trkpt lat="47.95322" lon="-2.57472">
        <ele>35.35179040178</ele>
        <time>2022-08-10T18:58:44.662Z</time>
      </trkpt>
      <trkpt lat="47.95308" lon="-2.57479">
        <ele>35.35064590772</ele>
        <time>2022-08-10T18:58:55.132Z</time>
      </trkpt>
      <trkpt lat="47.95303" lon="-2.57469">
        <ele>35.3541971765</ele>
        <time>2022-08-10T18:59:05.603Z</time>
      </trkpt>
      <trkpt lat="47.95298" lon="-2.57446">
        <ele>35.37571943267</ele>
        <time>2022-08-10T18:59:16.077Z</time>
      </trkpt>
      <trkpt lat="47.95294" lon="-2.57396">
        <ele>35.44842441924</ele>
        <time>2022-08-10T18:59:26.556Z</time>
      </trkpt>
      <trkpt lat="47.95294" lon="-2.57383">
        <ele>35.49440267895</ele>
        <time>2022-08-10T18:59:37.037Z</time>
      </trkpt>
      <trkpt lat="47.95301" lon="-2.57351">
        <ele>35.55847955271</ele>
        <time>2022-08-10T18:59:47.521Z</time>
      </trkpt>
      <trkpt lat="47.95309" lon="-2.57314">
        <ele>35.64286202681</ele>
        <time>2022-08-10T18:59:58.010Z</time>
      </trkpt>
      <trkpt lat="47.95301" lon="-2.57351">
        <ele>35.55847955271</ele>
        <time>2022-08-10T19:00:08.503Z</time>
      </trkpt>
      <trkpt lat="47.95301" lon="-2.57351">
        <ele>35.65153184673</ele>
        <time>2022-08-10T19:00:18.996Z</time>
      </trkpt>
      <trkpt lat="47.95314" lon="-2.57295">
        <ele>35.71567676241</ele>
        <time>2022-08-10T19:00:29.495Z</time>
      </trkpt>
      <trkpt lat="47.9532" lon="-2.57256">
        <ele>35.72333591835</ele>
        <time>2022-08-10T19:00:39.998Z</time>
      </trkpt>
      <trkpt lat="47.95327" lon="-2.5714">
        <ele>35.56055727472</ele>
        <time>2022-08-10T19:00:50.514Z</time>
      </trkpt>
      <trkpt lat="47.95328" lon="-2.57125">
        <ele>35.54074390951</ele>
        <time>2022-08-10T19:01:01.032Z</time>
      </trkpt>
      <trkpt lat="47.95336" lon="-2.5707">
        <ele>35.57375338321</ele>
        <time>2022-08-10T19:01:11.556Z</time>
      </trkpt>
      <trkpt lat="47.95355" lon="-2.56965">
        <ele>35.54946097793</ele>
        <time>2022-08-10T19:01:22.091Z</time>
      </trkpt>
      <trkpt lat="47.95362" lon="-2.56923">
        <ele>35.47696001</ele>
        <time>2022-08-10T19:01:32.631Z</time>
      </trkpt>
      <trkpt lat="47.95364" lon="-2.56874">
        <ele>35.42320980356</ele>
        <time>2022-08-10T19:01:43.176Z</time>
      </trkpt>
      <trkpt lat="47.95365" lon="-2.5678">
        <ele>35.42623285329</ele>
        <time>2022-08-10T19:01:53.731Z</time>
      </trkpt>
      <trkpt lat="47.95367" lon="-2.56708">
        <ele>35.41450993882</ele>
        <time>2022-08-10T19:02:04.294Z</time>
      </trkpt>
      <trkpt lat="47.9537" lon="-2.56673">
        <ele>35.3838559623</ele>
        <time>2022-08-10T19:02:14.861Z</time>
      </trkpt>
      <trkpt lat="47.95387" lon="-2.56595">
        <ele>35.33211821465</ele>
        <time>2022-08-10T19:02:25.437Z</time>
      </trkpt>
      <trkpt lat="47.95394" lon="-2.56576">
        <ele>35.28211132394</ele>
        <time>2022-08-10T19:02:36.015Z</time>
      </trkpt>
      <trkpt lat="47.95396" lon="-2.56574">
        <ele>35.23766383944</ele>
        <time>2022-08-10T19:02:46.593Z</time>
      </trkpt>
      <trkpt lat="47.95396" lon="-2.56558">
        <ele>35.19530950049</ele>
        <time>2022-08-10T19:02:57.173Z</time>
      </trkpt>
      <trkpt lat="47.95396" lon="-2.56547">
        <ele>35.16663749965</ele>
        <time>2022-08-10T19:03:07.754Z</time>
      </trkpt>
      <trkpt lat="47.95397" lon="-2.56539">
        <ele>35.13354641481</ele>
        <time>2022-08-10T19:03:18.336Z</time>
      </trkpt>
      <trkpt lat="47.954" lon="-2.5651">
        <ele>35.09614022409</ele>
        <time>2022-08-10T19:03:28.921Z</time>
      </trkpt>
      <trkpt lat="47.95399" lon="-2.56481">
        <ele>35.05416755511</ele>
        <time>2022-08-10T19:03:39.509Z</time>
      </trkpt>
      <trkpt lat="47.95392" lon="-2.56436">
        <ele>35.00794211633</ele>
        <time>2022-08-10T19:03:50.102Z</time>
      </trkpt>
      <trkpt lat="47.95362" lon="-2.56259">
        <ele>34.89696890637</ele>
        <time>2022-08-10T19:04:00.715Z</time>
      </trkpt>
      <trkpt lat="47.95355" lon="-2.56222">
        <ele>34.86553813688</ele>
        <time>2022-08-10T19:04:11.332Z</time>
      </trkpt>
      <trkpt lat="47.95347" lon="-2.56194">
        <ele>34.87651016693</ele>
        <time>2022-08-10T19:04:21.952Z</time>
      </trkpt>
      <trkpt lat="47.95318" lon="-2.5612">
        <ele>34.90706683548</ele>
        <time>2022-08-10T19:04:32.582Z</time>
      </trkpt>
      <trkpt lat="47.95307" lon="-2.56098">
        <ele>34.89827971081</ele>
        <time>2022-08-10T19:04:43.215Z</time>
      </trkpt>
      <trkpt lat="47.95289" lon="-2.5607">
        <ele>34.94637747526</ele>
        <time>2022-08-10T19:04:53.852Z</time>
      </trkpt>
      <trkpt lat="47.9526" lon="-2.56038">
        <ele>34.97995513444</ele>
        <time>2022-08-10T19:05:04.495Z</time>
      </trkpt>
      <trkpt lat="47.9524" lon="-2.56018">
        <ele>35.02400268929</ele>
        <time>2022-08-10T19:05:15.141Z</time>
      </trkpt>
      <trkpt lat="47.95219" lon="-2.55987">
        <ele>35.03071219514</ele>
        <time>2022-08-10T19:05:25.792Z</time>
      </trkpt>
      <trkpt lat="47.95211" lon="-2.55962">
        <ele>35.06569860499</ele>
        <time>2022-08-10T19:05:36.446Z</time>
      </trkpt>
      <trkpt lat="47.95209" lon="-2.55946">
        <ele>35.13686678406</ele>
        <time>2022-08-10T19:05:47.102Z</time>
      </trkpt>
      <trkpt lat="47.9519" lon="-2.55825">
        <ele>35.25342666102</ele>
        <time>2022-08-10T19:05:57.771Z</time>
      </trkpt>
      <trkpt lat="47.95182" lon="-2.55774">
        <ele>35.1721774302</ele>
        <time>2022-08-10T19:06:08.446Z</time>
      </trkpt>
      <trkpt lat="47.95171" lon="-2.55703">
        <ele>35.26581906886</ele>
        <time>2022-08-10T19:06:19.129Z</time>
      </trkpt>
      <trkpt lat="47.95169" lon="-2.55666">
        <ele>35.39011302172</ele>
        <time>2022-08-10T19:06:29.816Z</time>
      </trkpt>
      <trkpt lat="47.9517" lon="-2.55656">
        <ele>35.48327910318</ele>
        <time>2022-08-10T19:06:40.504Z</time>
      </trkpt>
      <trkpt lat="47.95175" lon="-2.5564">
        <ele>35.57922412077</ele>
        <time>2022-08-10T19:06:51.194Z</time>
      </trkpt>
      <trkpt lat="47.95189" lon="-2.55615">
        <ele>35.67356774572</ele>
        <time>2022-08-10T19:07:01.887Z</time>
      </trkpt>
      <trkpt lat="47.95211" lon="-2.55577">
        <ele>35.803773923</ele>
        <time>2022-08-10T19:07:12.586Z</time>
      </trkpt>
      <trkpt lat="47.95223" lon="-2.5555">
        <ele>35.93678633428</ele>
        <time>2022-08-10T19:07:23.288Z</time>
      </trkpt>
      <trkpt lat="47.95224" lon="-2.55547">
        <ele>36.07270439914</ele>
        <time>2022-08-10T19:07:33.990Z</time>
      </trkpt>
      <trkpt lat="47.95232" lon="-2.55522">
        <ele>36.21159815464</ele>
        <time>2022-08-10T19:07:44.695Z</time>
      </trkpt>
      <trkpt lat="47.9524" lon="-2.55484">
        <ele>36.3677977228</ele>
        <time>2022-08-10T19:07:55.405Z</time>
      </trkpt>
      <trkpt lat="47.95258" lon="-2.55385">
        <ele>36.55405610042</ele>
        <time>2022-08-10T19:08:06.126Z</time>
      </trkpt>
      <trkpt lat="47.95266" lon="-2.55337">
        <ele>36.73378449227</ele>
        <time>2022-08-10T19:08:16.852Z</time>
      </trkpt>
      <trkpt lat="47.95273" lon="-2.55293">
        <ele>36.94153387641</ele>
        <time>2022-08-10T19:08:27.583Z</time>
      </trkpt>
      <trkpt lat="47.95277" lon="-2.55254">
        <ele>37.11711424457</ele>
        <time>2022-08-10T19:08:38.318Z</time>
      </trkpt>
      <trkpt lat="47.95283" lon="-2.55162">
        <ele>37.31978235459</ele>
        <time>2022-08-10T19:08:49.063Z</time>
      </trkpt>
      <trkpt lat="47.95284" lon="-2.55129">
        <ele>37.48911230408</ele>
        <time>2022-08-10T19:08:59.812Z</time>
      </trkpt>
      <trkpt lat="47.95282" lon="-2.55082">
        <ele>37.67795961831</ele>
        <time>2022-08-10T19:09:10.566Z</time>
      </trkpt>
      <trkpt lat="47.95272" lon="-2.54916">
        <ele>38.02651531064</ele>
        <time>2022-08-10T19:09:21.338Z</time>
      </trkpt>
      <trkpt lat="47.95266" lon="-2.54872">
        <ele>38.21205319614</ele>
        <time>2022-08-10T19:09:32.115Z</time>
      </trkpt>
      <trkpt lat="47.95253" lon="-2.54822">
        <ele>38.5181987891</ele>
        <time>2022-08-10T19:09:42.897Z</time>
      </trkpt>
      <trkpt lat="47.95244" lon="-2.54803">
        <ele>38.67590385285</ele>
        <time>2022-08-10T19:09:53.682Z</time>
      </trkpt>
      <trkpt lat="47.95192" lon="-2.54724">
        <ele>38.78933202124</ele>
        <time>2022-08-10T19:10:04.479Z</time>
      </trkpt>
      <trkpt lat="47.95137" lon="-2.54643">
        <ele>38.43718559822</ele>
        <time>2022-08-10T19:10:15.288Z</time>
      </trkpt>
      <trkpt lat="47.95136" lon="-2.54641">
        <ele>38.40974038443</ele>
        <time>2022-08-10T19:10:26.097Z</time>
      </trkpt>
      <trkpt lat="47.95137" lon="-2.54643">
        <ele>38.43718559822</ele>
        <time>2022-08-10T19:10:36.907Z</time>
      </trkpt>
      <trkpt lat="47.95137" lon="-2.54644">
        <ele>38.28503698859</ele>
        <time>2022-08-10T19:10:47.717Z</time>
      </trkpt>
      <trkpt lat="47.9513" lon="-2.54633">
        <ele>38.19544052479</ele>
        <time>2022-08-10T19:10:58.528Z</time>
      </trkpt>
      <trkpt lat="47.95125" lon="-2.54621">
        <ele>38.08138022722</ele>
        <time>2022-08-10T19:11:09.341Z</time>
      </trkpt>
      <trkpt lat="47.95125" lon="-2.54621">
        <ele>37.97454862684</ele>
        <time>2022-08-10T19:11:20.154Z</time>
      </trkpt>
      <trkpt lat="47.9512" lon="-2.54605">
        <ele>37.8810419388</ele>
        <time>2022-08-10T19:11:30.969Z</time>
      </trkpt>
      <trkpt lat="47.9511" lon="-2.54605">
        <ele>37.76585066474</ele>
        <time>2022-08-10T19:11:41.785Z</time>
      </trkpt>
      <trkpt lat="47.95084" lon="-2.54573">
        <ele>37.65151962785</ele>
        <time>2022-08-10T19:11:52.607Z</time>
      </trkpt>
      <trkpt lat="47.95097" lon="-2.54589">
        <ele>37.54743964607</ele>
        <time>2022-08-10T19:12:03.432Z</time>
      </trkpt>
      <trkpt lat="47.95084" lon="-2.54573">
        <ele>37.65151962785</ele>
        <time>2022-08-10T19:12:14.259Z</time>
      </trkpt>
      <trkpt lat="47.95084" lon="-2.54573">
        <ele>37.29055561149</ele>
        <time>2022-08-10T19:12:25.086Z</time>
      </trkpt>
      <trkpt lat="47.95079" lon="-2.54568">
        <ele>37.15158055797</ele>
        <time>2022-08-10T19:12:35.914Z</time>
      </trkpt>
      <trkpt lat="47.95047" lon="-2.54531">
        <ele>36.92399986565</ele>
        <time>2022-08-10T19:12:46.749Z</time>
      </trkpt>
      <trkpt lat="47.95047" lon="-2.54531">
        <ele>36.78431850114</ele>
        <time>2022-08-10T19:12:57.584Z</time>
      </trkpt>
      <trkpt lat="47.94998" lon="-2.54473">
        <ele>36.72349800667</ele>
        <time>2022-08-10T19:13:08.429Z</time>
      </trkpt>
      <trkpt lat="47.94998" lon="-2.54472">
        <ele>36.56151881055</ele>
        <time>2022-08-10T19:13:19.274Z</time>
      </trkpt>
      <trkpt lat="47.94998" lon="-2.54473">
        <ele>36.72349800667</ele>
        <time>2022-08-10T19:13:30.119Z</time>
      </trkpt>
      <trkpt lat="47.94929" lon="-2.54394">
        <ele>36.26868898896</ele>
        <time>2022-08-10T19:13:40.978Z</time>
      </trkpt>
      <trkpt lat="47.94953" lon="-2.54422">
        <ele>36.02227846948</ele>
        <time>2022-08-10T19:13:51.842Z</time>
      </trkpt>
      <trkpt lat="47.94929" lon="-2.54394">
        <ele>36.26868898896</ele>
        <time>2022-08-10T19:14:02.711Z</time>
      </trkpt>
      <trkpt lat="47.94857" lon="-2.54341">
        <ele>35.35858395227</ele>
        <time>2022-08-10T19:14:13.593Z</time>
      </trkpt>
      <trkpt lat="47.94676" lon="-2.54217">
        <ele>35.02929508533</ele>
        <time>2022-08-10T19:14:24.507Z</time>
      </trkpt>
      <trkpt lat="47.9452" lon="-2.54086">
        <ele>34.55972295614</ele>
        <time>2022-08-10T19:14:35.449Z</time>
      </trkpt>
      <trkpt lat="47.94481" lon="-2.54058">
        <ele>34.09051894688</ele>
        <time>2022-08-10T19:14:46.398Z</time>
      </trkpt>
      <trkpt lat="47.94435" lon="-2.54029">
        <ele>33.64106109074</ele>
        <time>2022-08-10T19:14:57.355Z</time>
      </trkpt>
      <trkpt lat="47.94394" lon="-2.54007">
        <ele>33.18811193473</ele>
        <time>2022-08-10T19:15:08.319Z</time>
      </trkpt>
      <trkpt lat="47.94312" lon="-2.53987">
        <ele>32.81617684446</ele>
        <time>2022-08-10T19:15:19.296Z</time>
      </trkpt>
      <trkpt lat="47.94249" lon="-2.53964">
        <ele>32.39972881182</ele>
        <time>2022-08-10T19:15:30.284Z</time>
      </trkpt>
      <trkpt lat="47.93975" lon="-2.5384">
        <ele>32.00640702692</ele>
        <time>2022-08-10T19:15:41.318Z</time>
      </trkpt>
      <trkpt lat="47.93891" lon="-2.53832">
        <ele>31.56205430458</ele>
        <time>2022-08-10T19:15:52.365Z</time>
      </trkpt>
      <trkpt lat="47.93854" lon="-2.53821">
        <ele>31.35551412081</ele>
        <time>2022-08-10T19:16:03.418Z</time>
      </trkpt>
      <trkpt lat="47.93836" lon="-2.5381">
        <ele>31.11363857904</ele>
        <time>2022-08-10T19:16:14.474Z</time>
      </trkpt>
      <trkpt lat="47.9357" lon="-2.53538">
        <ele>30.8155088524</ele>
        <time>2022-08-10T19:16:25.582Z</time>
      </trkpt>
      <trkpt lat="47.9357" lon="-2.53538">
        <ele>30.67113108729</ele>
        <time>2022-08-10T19:16:36.690Z</time>
      </trkpt>
      <trkpt lat="47.93538" lon="-2.53505">
        <ele>30.5888373311</ele>
        <time>2022-08-10T19:16:47.804Z</time>
      </trkpt>
      <trkpt lat="47.93524" lon="-2.53482">
        <ele>30.5249209086</ele>
        <time>2022-08-10T19:16:58.922Z</time>
      </trkpt>
      <trkpt lat="47.93496" lon="-2.53343">
        <ele>30.63317615932</ele>
        <time>2022-08-10T19:17:10.055Z</time>
      </trkpt>
      <trkpt lat="47.93482" lon="-2.53302">
        <ele>30.70353115174</ele>
        <time>2022-08-10T19:17:21.193Z</time>
      </trkpt>
      <trkpt lat="47.9346" lon="-2.53265">
        <ele>30.78115112711</ele>
        <time>2022-08-10T19:17:32.336Z</time>
      </trkpt>
      <trkpt lat="47.93423" lon="-2.53227">
        <ele>30.98987565031</ele>
        <time>2022-08-10T19:17:43.487Z</time>
      </trkpt>
      <trkpt lat="47.93423" lon="-2.53227">
        <ele>31.15092309904</ele>
        <time>2022-08-10T19:17:54.638Z</time>
      </trkpt>
      <trkpt lat="47.93357" lon="-2.53163">
        <ele>31.41923002935</ele>
        <time>2022-08-10T19:18:05.801Z</time>
      </trkpt>
      <trkpt lat="47.93259" lon="-2.52929">
        <ele>31.36363908956</ele>
        <time>2022-08-10T19:18:16.994Z</time>
      </trkpt>
      <trkpt lat="47.93217" lon="-2.52874">
        <ele>31.54606974653</ele>
        <time>2022-08-10T19:18:28.196Z</time>
      </trkpt>
      <trkpt lat="47.93138" lon="-2.52814">
        <ele>31.85378943786</ele>
        <time>2022-08-10T19:18:39.412Z</time>
      </trkpt>
      <trkpt lat="47.9312" lon="-2.52794">
        <ele>32.04438483175</ele>
        <time>2022-08-10T19:18:50.632Z</time>
      </trkpt>
      <trkpt lat="47.9311" lon="-2.52775">
        <ele>32.21997105519</ele>
        <time>2022-08-10T19:19:01.854Z</time>
      </trkpt>
      <trkpt lat="47.93101" lon="-2.52743">
        <ele>32.3281458915</ele>
        <time>2022-08-10T19:19:13.080Z</time>
      </trkpt>
      <trkpt lat="47.93095" lon="-2.52672">
        <ele>32.2837213725</ele>
        <time>2022-08-10T19:19:24.314Z</time>
      </trkpt>
      <trkpt lat="47.93098" lon="-2.52605">
        <ele>32.25888589063</ele>
        <time>2022-08-10T19:19:35.555Z</time>
      </trkpt>
      <trkpt lat="47.93112" lon="-2.5249">
        <ele>32.22239924741</ele>
        <time>2022-08-10T19:19:46.808Z</time>
      </trkpt>
      <trkpt lat="47.93113" lon="-2.52428">
        <ele>32.05710917802</ele>
        <time>2022-08-10T19:19:58.068Z</time>
      </trkpt>
      <trkpt lat="47.93109" lon="-2.52342">
        <ele>31.87236168282</ele>
        <time>2022-08-10T19:20:09.337Z</time>
      </trkpt>
      <trkpt lat="47.931" lon="-2.52255">
        <ele>31.53892247677</ele>
        <time>2022-08-10T19:20:20.616Z</time>
      </trkpt>
      <trkpt lat="47.93098" lon="-2.52196">
        <ele>31.19404636059</ele>
        <time>2022-08-10T19:20:31.901Z</time>
      </trkpt>
      <trkpt lat="47.93125" lon="-2.51923">
        <ele>30.99780854473</ele>
        <time>2022-08-10T19:20:43.216Z</time>
      </trkpt>
      <trkpt lat="47.93123" lon="-2.51877">
        <ele>30.6243333289</ele>
        <time>2022-08-10T19:20:54.536Z</time>
      </trkpt>
      <trkpt lat="47.93115" lon="-2.51828">
        <ele>30.21138850809</ele>
        <time>2022-08-10T19:21:05.861Z</time>
      </trkpt>
      <trkpt lat="47.93105" lon="-2.51773">
        <ele>29.84379658171</ele>
        <time>2022-08-10T19:21:17.192Z</time>
      </trkpt>
      <trkpt lat="47.93074" lon="-2.51598">
        <ele>29.54892157161</ele>
        <time>2022-08-10T19:21:28.543Z</time>
      </trkpt>
      <trkpt lat="47.93061" lon="-2.51559">
        <ele>29.23136268545</ele>
        <time>2022-08-10T19:21:39.899Z</time>
      </trkpt>
      <trkpt lat="47.93043" lon="-2.51525">
        <ele>28.90009433012</ele>
        <time>2022-08-10T19:21:51.259Z</time>
      </trkpt>
      <trkpt lat="47.92911" lon="-2.51285">
        <ele>28.41137422008</ele>
        <time>2022-08-10T19:22:02.653Z</time>
      </trkpt>
      <trkpt lat="47.92896" lon="-2.51262">
        <ele>28.12113028707</ele>
        <time>2022-08-10T19:22:14.050Z</time>
      </trkpt>
      <trkpt lat="47.92884" lon="-2.51237">
        <ele>27.88667975096</ele>
        <time>2022-08-10T19:22:25.450Z</time>
      </trkpt>
      <trkpt lat="47.92844" lon="-2.51156">
        <ele>27.71056247968</ele>
        <time>2022-08-10T19:22:36.861Z</time>
      </trkpt>
      <trkpt lat="47.92824" lon="-2.51108">
        <ele>27.48057527478</ele>
        <time>2022-08-10T19:22:48.278Z</time>
      </trkpt>
      <trkpt lat="47.92805" lon="-2.51057">
        <ele>27.40788322259</ele>
        <time>2022-08-10T19:22:59.702Z</time>
      </trkpt>
      <trkpt lat="47.92756" lon="-2.50867">
        <ele>27.26448102013</ele>
        <time>2022-08-10T19:23:11.148Z</time>
      </trkpt>
      <trkpt lat="47.92738" lon="-2.50694">
        <ele>27.22835085313</ele>
        <time>2022-08-10T19:23:22.612Z</time>
      </trkpt>
      <trkpt lat="47.92721" lon="-2.50636">
        <ele>27.24143980552</ele>
        <time>2022-08-10T19:23:34.083Z</time>
      </trkpt>
      <trkpt lat="47.92702" lon="-2.50586">
        <ele>27.32859393637</ele>
        <time>2022-08-10T19:23:45.560Z</time>
      </trkpt>
      <trkpt lat="47.92692" lon="-2.50566">
        <ele>27.44342423211</ele>
        <time>2022-08-10T19:23:57.040Z</time>
      </trkpt>
      <trkpt lat="47.9267" lon="-2.50529">
        <ele>27.65313741849</ele>
        <time>2022-08-10T19:24:08.525Z</time>
      </trkpt>
      <trkpt lat="47.92599" lon="-2.50432">
        <ele>27.99760023916</ele>
        <time>2022-08-10T19:24:20.026Z</time>
      </trkpt>
      <trkpt lat="47.92564" lon="-2.50365">
        <ele>28.24897786935</ele>
        <time>2022-08-10T19:24:31.536Z</time>
      </trkpt>
      <trkpt lat="47.92496" lon="-2.50276">
        <ele>28.53175379039</ele>
        <time>2022-08-10T19:24:43.060Z</time>
      </trkpt>
      <trkpt lat="47.92458" lon="-2.50229">
        <ele>28.70877716114</ele>
        <time>2022-08-10T19:24:54.592Z</time>
      </trkpt>
      <trkpt lat="47.92373" lon="-2.50152">
        <ele>29.04442055673</ele>
        <time>2022-08-10T19:25:06.140Z</time>
      </trkpt>
      <trkpt lat="47.92297" lon="-2.50105">
        <ele>29.30363803127</ele>
        <time>2022-08-10T19:25:17.701Z</time>
      </trkpt>
      <trkpt lat="47.92277" lon="-2.50074">
        <ele>29.58283270776</ele>
        <time>2022-08-10T19:25:29.267Z</time>
      </trkpt>
      <trkpt lat="47.92267" lon="-2.50043">
        <ele>29.75890481512</ele>
        <time>2022-08-10T19:25:40.837Z</time>
      </trkpt>
      <trkpt lat="47.92262" lon="-2.50013">
        <ele>29.92436963721</ele>
        <time>2022-08-10T19:25:52.410Z</time>
      </trkpt>
      <trkpt lat="47.92263" lon="-2.49983">
        <ele>30.07425040563</ele>
        <time>2022-08-10T19:26:03.986Z</time>
      </trkpt>
      <trkpt lat="47.92267" lon="-2.49948">
        <ele>30.18743910179</ele>
        <time>2022-08-10T19:26:15.566Z</time>
      </trkpt>
      <trkpt lat="47.92281" lon="-2.49901">
        <ele>30.18616309048</ele>
        <time>2022-08-10T19:26:27.152Z</time>
      </trkpt>
      <trkpt lat="47.92306" lon="-2.49845">
        <ele>30.13893228848</ele>
        <time>2022-08-10T19:26:38.745Z</time>
      </trkpt>
      <trkpt lat="47.92314" lon="-2.49834">
        <ele>30.12193810742</ele>
        <time>2022-08-10T19:26:50.340Z</time>
      </trkpt>
      <trkpt lat="47.92343" lon="-2.49804">
        <ele>30.12028012083</ele>
        <time>2022-08-10T19:27:01.940Z</time>
      </trkpt>
      <trkpt lat="47.92352" lon="-2.49789">
        <ele>30.11819562963</ele>
        <time>2022-08-10T19:27:13.542Z</time>
      </trkpt>
      <trkpt lat="47.92352" lon="-2.49789">
        <ele>30.11919481285</ele>
        <time>2022-08-10T19:27:25.144Z</time>
      </trkpt>
      <trkpt lat="47.92387" lon="-2.4966">
        <ele>30.15394516744</ele>
        <time>2022-08-10T19:27:36.761Z</time>
      </trkpt>
      <trkpt lat="47.92395" lon="-2.49612">
        <ele>30.21465429665</ele>
        <time>2022-08-10T19:27:48.384Z</time>
      </trkpt>
      <trkpt lat="47.92397" lon="-2.49569">
        <ele>30.24260018999</ele>
        <time>2022-08-10T19:28:00.011Z</time>
      </trkpt>
      <trkpt lat="47.92394" lon="-2.49543">
        <ele>30.22340541166</ele>
        <time>2022-08-10T19:28:11.641Z</time>
      </trkpt>
      <trkpt lat="47.92389" lon="-2.49516">
        <ele>30.15381975772</ele>
        <time>2022-08-10T19:28:23.274Z</time>
      </trkpt>
      <trkpt lat="47.9238" lon="-2.4949">
        <ele>30.04824208528</ele>
        <time>2022-08-10T19:28:34.910Z</time>
      </trkpt>
      <trkpt lat="47.92291" lon="-2.49289">
        <ele>30.15829985136</ele>
        <time>2022-08-10T19:28:46.572Z</time>
      </trkpt>
      <trkpt lat="47.92267" lon="-2.49246">
        <ele>30.01714397328</ele>
        <time>2022-08-10T19:28:58.240Z</time>
      </trkpt>
      <trkpt lat="47.92223" lon="-2.49185">
        <ele>29.84139219877</ele>
        <time>2022-08-10T19:29:09.918Z</time>
      </trkpt>
      <trkpt lat="47.92194" lon="-2.4915">
        <ele>29.74640473946</ele>
        <time>2022-08-10T19:29:21.602Z</time>
      </trkpt>
      <trkpt lat="47.92124" lon="-2.49087">
        <ele>29.51830719769</ele>
        <time>2022-08-10T19:29:33.299Z</time>
      </trkpt>
      <trkpt lat="47.92111" lon="-2.49074">
        <ele>29.44106602926</ele>
        <time>2022-08-10T19:29:44.999Z</time>
      </trkpt>
      <trkpt lat="47.921" lon="-2.49057">
        <ele>29.30885959249</ele>
        <time>2022-08-10T19:29:56.701Z</time>
      </trkpt>
      <trkpt lat="47.9209" lon="-2.49034">
        <ele>29.18867055242</ele>
        <time>2022-08-10T19:30:08.406Z</time>
      </trkpt>
      <trkpt lat="47.92086" lon="-2.49026">
        <ele>29.02571059748</ele>
        <time>2022-08-10T19:30:20.112Z</time>
      </trkpt>
      <trkpt lat="47.9201" lon="-2.48814">
        <ele>28.99455566189</ele>
        <time>2022-08-10T19:30:31.844Z</time>
      </trkpt>
      <trkpt lat="47.91983" lon="-2.48774">
        <ele>28.87139513891</ele>
        <time>2022-08-10T19:30:43.582Z</time>
      </trkpt>
      <trkpt lat="47.91763" lon="-2.48516">
        <ele>28.52165321737</ele>
        <time>2022-08-10T19:30:55.365Z</time>
      </trkpt>
      <trkpt lat="47.91712" lon="-2.48427">
        <ele>28.3800585329</ele>
        <time>2022-08-10T19:31:07.160Z</time>
      </trkpt>
      <trkpt lat="47.91673" lon="-2.48375">
        <ele>28.33257817413</ele>
        <time>2022-08-10T19:31:18.964Z</time>
      </trkpt>
      <trkpt lat="47.91627" lon="-2.48336">
        <ele>28.30414686171</ele>
        <time>2022-08-10T19:31:30.776Z</time>
      </trkpt>
      <trkpt lat="47.91569" lon="-2.48297">
        <ele>28.3527270855</ele>
        <time>2022-08-10T19:31:42.599Z</time>
      </trkpt>
      <trkpt lat="47.91475" lon="-2.48243">
        <ele>28.10097849726</ele>
        <time>2022-08-10T19:31:54.438Z</time>
      </trkpt>
      <trkpt lat="47.91339" lon="-2.48182">
        <ele>27.91639276257</ele>
        <time>2022-08-10T19:32:06.299Z</time>
      </trkpt>
      <trkpt lat="47.91309" lon="-2.48169">
        <ele>27.8269674861</ele>
        <time>2022-08-10T19:32:18.165Z</time>
      </trkpt>
      <trkpt lat="47.91339" lon="-2.48182">
        <ele>27.91639276257</ele>
        <time>2022-08-10T19:32:30.037Z</time>
      </trkpt>
      <trkpt lat="47.91339" lon="-2.48182">
        <ele>27.85195819942</ele>
        <time>2022-08-10T19:32:41.909Z</time>
      </trkpt>
      <trkpt lat="47.91254" lon="-2.48144">
        <ele>27.86190015021</ele>
        <time>2022-08-10T19:32:53.795Z</time>
      </trkpt>
      <trkpt lat="47.91244" lon="-2.48142">
        <ele>27.9390150951</ele>
        <time>2022-08-10T19:33:05.682Z</time>
      </trkpt>
      <trkpt lat="47.91214" lon="-2.48147">
        <ele>28.06394070554</ele>
        <time>2022-08-10T19:33:17.574Z</time>
      </trkpt>
      <trkpt lat="47.91108" lon="-2.48149">
        <ele>28.09419874083</ele>
        <time>2022-08-10T19:33:29.483Z</time>
      </trkpt>
      <trkpt lat="47.91001" lon="-2.48147">
        <ele>28.33983600821</ele>
        <time>2022-08-10T19:33:41.409Z</time>
      </trkpt>
      <trkpt lat="47.9098" lon="-2.48138">
        <ele>28.42796321571</ele>
        <time>2022-08-10T19:33:53.339Z</time>
      </trkpt>
      <trkpt lat="47.9096" lon="-2.48109">
        <ele>28.48059761914</ele>
        <time>2022-08-10T19:34:05.273Z</time>
      </trkpt>
      <trkpt lat="47.90892" lon="-2.47931">
        <ele>28.3643539407</ele>
        <time>2022-08-10T19:34:17.229Z</time>
      </trkpt>
      <trkpt lat="47.90823" lon="-2.47819">
        <ele>28.3647370169</ele>
        <time>2022-08-10T19:34:29.202Z</time>
      </trkpt>
      <trkpt lat="47.90823" lon="-2.47819">
        <ele>28.34529544458</ele>
        <time>2022-08-10T19:34:41.175Z</time>
      </trkpt>
      <trkpt lat="47.90783" lon="-2.47761">
        <ele>28.33494424875</ele>
        <time>2022-08-10T19:34:53.157Z</time>
      </trkpt>
      <trkpt lat="47.90774" lon="-2.47737">
        <ele>28.24067213595</ele>
        <time>2022-08-10T19:35:05.142Z</time>
      </trkpt>
      <trkpt lat="47.90771" lon="-2.4772">
        <ele>28.12357165446</ele>
        <time>2022-08-10T19:35:17.129Z</time>
      </trkpt>
      <trkpt lat="47.90772" lon="-2.47697">
        <ele>28.02410353634</ele>
        <time>2022-08-10T19:35:29.118Z</time>
      </trkpt>
      <trkpt lat="47.90783" lon="-2.47591">
        <ele>27.94208016962</ele>
        <time>2022-08-10T19:35:41.119Z</time>
      </trkpt>
      <trkpt lat="47.90778" lon="-2.47567">
        <ele>27.84156778356</ele>
        <time>2022-08-10T19:35:53.122Z</time>
      </trkpt>
      <trkpt lat="47.90774" lon="-2.47555">
        <ele>27.72674152573</ele>
        <time>2022-08-10T19:36:05.127Z</time>
      </trkpt>
      <trkpt lat="47.90763" lon="-2.4754">
        <ele>27.58104386263</ele>
        <time>2022-08-10T19:36:17.134Z</time>
      </trkpt>
      <trkpt lat="47.90563" lon="-2.47333">
        <ele>27.36366003081</ele>
        <time>2022-08-10T19:36:29.180Z</time>
      </trkpt>
      <trkpt lat="47.9055" lon="-2.47317">
        <ele>27.24764339418</ele>
        <time>2022-08-10T19:36:41.229Z</time>
      </trkpt>
      <trkpt lat="47.9054" lon="-2.47301">
        <ele>27.10793682636</ele>
        <time>2022-08-10T19:36:53.280Z</time>
      </trkpt>
      <trkpt lat="47.90534" lon="-2.47285">
        <ele>26.9741519796</ele>
        <time>2022-08-10T19:37:05.333Z</time>
      </trkpt>
      <trkpt lat="47.90523" lon="-2.47232">
        <ele>26.86668482384</ele>
        <time>2022-08-10T19:37:17.392Z</time>
      </trkpt>
      <trkpt lat="47.9052" lon="-2.47214">
        <ele>26.77886794256</ele>
        <time>2022-08-10T19:37:29.453Z</time>
      </trkpt>
      <trkpt lat="47.9052" lon="-2.47214">
        <ele>26.67871629159</ele>
        <time>2022-08-10T19:37:41.514Z</time>
      </trkpt>
      <trkpt lat="47.90509" lon="-2.47176">
        <ele>26.70141929604</ele>
        <time>2022-08-10T19:37:53.580Z</time>
      </trkpt>
      <trkpt lat="47.90503" lon="-2.47162">
        <ele>26.61377926215</ele>
        <time>2022-08-10T19:38:05.647Z</time>
      </trkpt>
      <trkpt lat="47.90494" lon="-2.47148">
        <ele>26.48325978494</ele>
        <time>2022-08-10T19:38:17.716Z</time>
      </trkpt>
      <trkpt lat="47.90486" lon="-2.47139">
        <ele>26.36555412137</ele>
        <time>2022-08-10T19:38:29.787Z</time>
      </trkpt>
      <trkpt lat="47.90423" lon="-2.47074">
        <ele>26.27449712669</ele>
        <time>2022-08-10T19:38:41.870Z</time>
      </trkpt>
      <trkpt lat="47.90366" lon="-2.47023">
        <ele>26.15154855532</ele>
        <time>2022-08-10T19:38:53.964Z</time>
      </trkpt>
      <trkpt lat="47.90363" lon="-2.47021">
        <ele>26.1195115083</ele>
        <time>2022-08-10T19:39:06.058Z</time>
      </trkpt>
      <trkpt lat="47.90347" lon="-2.47009">
        <ele>26.09466995669</ele>
        <time>2022-08-10T19:39:18.155Z</time>
      </trkpt>
      <trkpt lat="47.90253" lon="-2.46978">
        <ele>26.18977733358</ele>
        <time>2022-08-10T19:39:30.268Z</time>
      </trkpt>
      <trkpt lat="47.90228" lon="-2.46946">
        <ele>26.19617336811</ele>
        <time>2022-08-10T19:39:42.386Z</time>
      </trkpt>
      <trkpt lat="47.90189" lon="-2.46793">
        <ele>26.33198367736</ele>
        <time>2022-08-10T19:39:54.522Z</time>
      </trkpt>
      <trkpt lat="47.90174" lon="-2.46742">
        <ele>26.41587561197</ele>
        <time>2022-08-10T19:40:06.664Z</time>
      </trkpt>
      <trkpt lat="47.90153" lon="-2.46702">
        <ele>26.5346921894</ele>
        <time>2022-08-10T19:40:18.811Z</time>
      </trkpt>
      <trkpt lat="47.90127" lon="-2.46671">
        <ele>26.58557125652</ele>
        <time>2022-08-10T19:40:30.963Z</time>
      </trkpt>
      <trkpt lat="47.90073" lon="-2.46622">
        <ele>26.94604145466</ele>
        <time>2022-08-10T19:40:43.126Z</time>
      </trkpt>
      <trkpt lat="47.90044" lon="-2.46592">
        <ele>27.15204729641</ele>
        <time>2022-08-10T19:40:55.294Z</time>
      </trkpt>
      <trkpt lat="47.90029" lon="-2.46569">
        <ele>27.31027392192</ele>
        <time>2022-08-10T19:41:07.466Z</time>
      </trkpt>
      <trkpt lat="47.90006" lon="-2.46526">
        <ele>27.39789896729</ele>
        <time>2022-08-10T19:41:19.644Z</time>
      </trkpt>
      <trkpt lat="47.8999" lon="-2.46481">
        <ele>27.50906862575</ele>
        <time>2022-08-10T19:41:31.827Z</time>
      </trkpt>
      <trkpt lat="47.89984" lon="-2.46459">
        <ele>27.62694102244</ele>
        <time>2022-08-10T19:41:44.013Z</time>
      </trkpt>
      <trkpt lat="47.89978" lon="-2.46395">
        <ele>27.72957223399</ele>
        <time>2022-08-10T19:41:56.206Z</time>
      </trkpt>
      <trkpt lat="47.89976" lon="-2.46352">
        <ele>27.82275627878</ele>
        <time>2022-08-10T19:42:08.403Z</time>
      </trkpt>
      <trkpt lat="47.89981" lon="-2.46275">
        <ele>28.00594591614</ele>
        <time>2022-08-10T19:42:20.609Z</time>
      </trkpt>
      <trkpt lat="47.89992" lon="-2.462">
        <ele>28.11199708458</ele>
        <time>2022-08-10T19:42:32.823Z</time>
      </trkpt>
      <trkpt lat="47.90007" lon="-2.46159">
        <ele>28.24333625591</ele>
        <time>2022-08-10T19:42:45.042Z</time>
      </trkpt>
      <trkpt lat="47.90013" lon="-2.46154">
        <ele>28.38340480356</ele>
        <time>2022-08-10T19:42:57.262Z</time>
      </trkpt>
      <trkpt lat="47.90019" lon="-2.46135">
        <ele>28.54757655076</ele>
        <time>2022-08-10T19:43:09.484Z</time>
      </trkpt>
      <trkpt lat="47.90026" lon="-2.46097">
        <ele>28.73222727809</ele>
        <time>2022-08-10T19:43:21.710Z</time>
      </trkpt>
      <trkpt lat="47.90033" lon="-2.45937">
        <ele>28.89538556557</ele>
        <time>2022-08-10T19:43:33.954Z</time>
      </trkpt>
      <trkpt lat="47.9003" lon="-2.45914">
        <ele>29.07459989572</ele>
        <time>2022-08-10T19:43:46.200Z</time>
      </trkpt>
      <trkpt lat="47.9003" lon="-2.45914">
        <ele>29.22667585124</ele>
        <time>2022-08-10T19:43:58.446Z</time>
      </trkpt>
      <trkpt lat="47.90027" lon="-2.45893">
        <ele>29.39506155522</ele>
        <time>2022-08-10T19:44:10.695Z</time>
      </trkpt>
      <trkpt lat="47.90022" lon="-2.45871">
        <ele>29.52964302993</ele>
        <time>2022-08-10T19:44:22.946Z</time>
      </trkpt>
      <trkpt lat="47.90008" lon="-2.45837">
        <ele>29.68931373106</ele>
        <time>2022-08-10T19:44:35.201Z</time>
      </trkpt>
      <trkpt lat="47.89999" lon="-2.45824">
        <ele>29.73758503598</ele>
        <time>2022-08-10T19:44:47.458Z</time>
      </trkpt>
      <trkpt lat="47.89984" lon="-2.45805">
        <ele>29.74425358123</ele>
        <time>2022-08-10T19:44:59.718Z</time>
      </trkpt>
      <trkpt lat="47.89982" lon="-2.45803">
        <ele>29.67721020999</ele>
        <time>2022-08-10T19:45:11.979Z</time>
      </trkpt>
      <trkpt lat="47.89982" lon="-2.45803">
        <ele>29.54933864272</ele>
        <time>2022-08-10T19:45:24.240Z</time>
      </trkpt>
      <trkpt lat="47.89946" lon="-2.45767">
        <ele>29.36118594879</ele>
        <time>2022-08-10T19:45:36.508Z</time>
      </trkpt>
      <trkpt lat="47.89855" lon="-2.45694">
        <ele>29.07532801352</ele>
        <time>2022-08-10T19:45:48.792Z</time>
      </trkpt>
      <trkpt lat="47.89753" lon="-2.45636">
        <ele>28.65056463315</ele>
        <time>2022-08-10T19:46:01.094Z</time>
      </trkpt>
      <trkpt lat="47.89617" lon="-2.45502">
        <ele>28.39430093155</ele>
        <time>2022-08-10T19:46:13.422Z</time>
      </trkpt>
      <trkpt lat="47.89597" lon="-2.45484">
        <ele>28.063112134</ele>
        <time>2022-08-10T19:46:25.754Z</time>
      </trkpt>
      <trkpt lat="47.89517" lon="-2.45458">
        <ele>27.64154952221</ele>
        <time>2022-08-10T19:46:38.099Z</time>
      </trkpt>
      <trkpt lat="47.89485" lon="-2.45433">
        <ele>27.23686395749</ele>
        <time>2022-08-10T19:46:50.450Z</time>
      </trkpt>
      <trkpt lat="47.89458" lon="-2.45392">
        <ele>26.94435559909</ele>
        <time>2022-08-10T19:47:02.807Z</time>
      </trkpt>
      <trkpt lat="47.89436" lon="-2.45373">
        <ele>26.64202484796</ele>
        <time>2022-08-10T19:47:15.168Z</time>
      </trkpt>
      <trkpt lat="47.89047" lon="-2.45239">
        <ele>26.0877335366</ele>
        <time>2022-08-10T19:47:27.593Z</time>
      </trkpt>
      <trkpt lat="47.88991" lon="-2.45232">
        <ele>25.77070178874</ele>
        <time>2022-08-10T19:47:40.027Z</time>
      </trkpt>
      <trkpt lat="47.88972" lon="-2.45237">
        <ele>25.48070537022</ele>
        <time>2022-08-10T19:47:52.464Z</time>
      </trkpt>
      <trkpt lat="47.88953" lon="-2.45245">
        <ele>25.24118134997</ele>
        <time>2022-08-10T19:48:04.904Z</time>
      </trkpt>
      <trkpt lat="47.88891" lon="-2.45284">
        <ele>25.22830269345</ele>
        <time>2022-08-10T19:48:17.355Z</time>
      </trkpt>
      <trkpt lat="47.88872" lon="-2.45289">
        <ele>25.20032637422</ele>
        <time>2022-08-10T19:48:29.809Z</time>
      </trkpt>
      <trkpt lat="47.88864" lon="-2.4529">
        <ele>25.14332031825</ele>
        <time>2022-08-10T19:48:42.264Z</time>
      </trkpt>
      <trkpt lat="47.88844" lon="-2.45276">
        <ele>25.14124828788</ele>
        <time>2022-08-10T19:48:54.723Z</time>
      </trkpt>
      <trkpt lat="47.88705" lon="-2.45059">
        <ele>25.0090220591</ele>
        <time>2022-08-10T19:49:07.214Z</time>
      </trkpt>
      <trkpt lat="47.88686" lon="-2.45025">
        <ele>25.07541653385</ele>
        <time>2022-08-10T19:49:19.710Z</time>
      </trkpt>
      <trkpt lat="47.88671" lon="-2.44991">
        <ele>25.2025297823</ele>
        <time>2022-08-10T19:49:32.210Z</time>
      </trkpt>
      <trkpt lat="47.88665" lon="-2.44965">
        <ele>25.31810167341</ele>
        <time>2022-08-10T19:49:44.713Z</time>
      </trkpt>
      <trkpt lat="47.88652" lon="-2.44885">
        <ele>25.46647663779</ele>
        <time>2022-08-10T19:49:57.225Z</time>
      </trkpt>
      <trkpt lat="47.88645" lon="-2.44831">
        <ele>25.54420782678</ele>
        <time>2022-08-10T19:50:09.743Z</time>
      </trkpt>
      <trkpt lat="47.88644" lon="-2.44807">
        <ele>25.56458283617</ele>
        <time>2022-08-10T19:50:22.263Z</time>
      </trkpt>
      <trkpt lat="47.88645" lon="-2.44778">
        <ele>25.52546847238</ele>
        <time>2022-08-10T19:50:34.787Z</time>
      </trkpt>
      <trkpt lat="47.88696" lon="-2.44513">
        <ele>25.18999989632</ele>
        <time>2022-08-10T19:50:47.340Z</time>
      </trkpt>
      <trkpt lat="47.88696" lon="-2.44513">
        <ele>25.11105704009</ele>
        <time>2022-08-10T19:50:59.893Z</time>
      </trkpt>
      <trkpt lat="47.88734" lon="-2.44098">
        <ele>24.9819032902</ele>
        <time>2022-08-10T19:51:12.491Z</time>
      </trkpt>
      <trkpt lat="47.8873" lon="-2.43984">
        <ele>24.86768885428</ele>
        <time>2022-08-10T19:51:25.102Z</time>
      </trkpt>
      <trkpt lat="47.88739" lon="-2.43942">
        <ele>24.78049686981</ele>
        <time>2022-08-10T19:51:37.717Z</time>
      </trkpt>
      <trkpt lat="47.88754" lon="-2.43887">
        <ele>24.68793504575</ele>
        <time>2022-08-10T19:51:50.339Z</time>
      </trkpt>
      <trkpt lat="47.88773" lon="-2.43834">
        <ele>24.59594154327</ele>
        <time>2022-08-10T19:52:02.967Z</time>
      </trkpt>
      <trkpt lat="47.88785" lon="-2.43783">
        <ele>24.51532577286</ele>
        <time>2022-08-10T19:52:15.601Z</time>
      </trkpt>
      <trkpt lat="47.88801" lon="-2.43664">
        <ele>24.31414305239</ele>
        <time>2022-08-10T19:52:28.248Z</time>
      </trkpt>
      <trkpt lat="47.88803" lon="-2.43635">
        <ele>24.12730081557</ele>
        <time>2022-08-10T19:52:40.898Z</time>
      </trkpt>
      <trkpt lat="47.88803" lon="-2.43635">
        <ele>23.9496621204</ele>
        <time>2022-08-10T19:52:53.548Z</time>
      </trkpt>
      <trkpt lat="47.88786" lon="-2.43593">
        <ele>23.69024162042</ele>
        <time>2022-08-10T19:53:06.204Z</time>
      </trkpt>
      <trkpt lat="47.88772" lon="-2.43557">
        <ele>23.47222535198</ele>
        <time>2022-08-10T19:53:18.864Z</time>
      </trkpt>
      <trkpt lat="47.88762" lon="-2.43522">
        <ele>23.24880105273</ele>
        <time>2022-08-10T19:53:31.528Z</time>
      </trkpt>
      <trkpt lat="47.88728" lon="-2.43324">
        <ele>23.14026384223</ele>
        <time>2022-08-10T19:53:44.214Z</time>
      </trkpt>
      <trkpt lat="47.88725" lon="-2.43313">
        <ele>22.96612117203</ele>
        <time>2022-08-10T19:53:56.902Z</time>
      </trkpt>
      <trkpt lat="47.88716" lon="-2.43272">
        <ele>22.78115161723</ele>
        <time>2022-08-10T19:54:09.594Z</time>
      </trkpt>
      <trkpt lat="47.88696" lon="-2.43222">
        <ele>22.65896026915</ele>
        <time>2022-08-10T19:54:22.292Z</time>
      </trkpt>
      <trkpt lat="47.8862" lon="-2.43071">
        <ele>22.47687365733</ele>
        <time>2022-08-10T19:54:35.011Z</time>
      </trkpt>
      <trkpt lat="47.88576" lon="-2.42958">
        <ele>22.32095221159</ele>
        <time>2022-08-10T19:54:47.744Z</time>
      </trkpt>
      <trkpt lat="47.88548" lon="-2.42903">
        <ele>22.20290060649</ele>
        <time>2022-08-10T19:55:00.484Z</time>
      </trkpt>
      <trkpt lat="47.88469" lon="-2.42779">
        <ele>22.14423676897</ele>
        <time>2022-08-10T19:55:13.243Z</time>
      </trkpt>
      <trkpt lat="47.88396" lon="-2.42641">
        <ele>21.98259891695</ele>
        <time>2022-08-10T19:55:26.020Z</time>
      </trkpt>
      <trkpt lat="47.88373" lon="-2.42607">
        <ele>21.88862798364</ele>
        <time>2022-08-10T19:55:38.803Z</time>
      </trkpt>
      <trkpt lat="47.88336" lon="-2.42571">
        <ele>21.76262782289</ele>
        <time>2022-08-10T19:55:51.593Z</time>
      </trkpt>
      <trkpt lat="47.88224" lon="-2.42488">
        <ele>21.48884904476</ele>
        <time>2022-08-10T19:56:04.403Z</time>
      </trkpt>
      <trkpt lat="47.88198" lon="-2.42461">
        <ele>21.34900635919</ele>
        <time>2022-08-10T19:56:17.218Z</time>
      </trkpt>
      <trkpt lat="47.88198" lon="-2.42461">
        <ele>21.20126618131</ele>
        <time>2022-08-10T19:56:30.033Z</time>
      </trkpt>
      <trkpt lat="47.88195" lon="-2.42457">
        <ele>21.06030644324</ele>
        <time>2022-08-10T19:56:42.849Z</time>
      </trkpt>
      <trkpt lat="47.88156" lon="-2.42413">
        <ele>20.90559526332</ele>
        <time>2022-08-10T19:56:55.672Z</time>
      </trkpt>
      <trkpt lat="47.88134" lon="-2.42383">
        <ele>20.7974183034</ele>
        <time>2022-08-10T19:57:08.500Z</time>
      </trkpt>
      <trkpt lat="47.88087" lon="-2.42333">
        <ele>20.66942903627</ele>
        <time>2022-08-10T19:57:21.337Z</time>
      </trkpt>
      <trkpt lat="47.88081" lon="-2.42328">
        <ele>20.55064996208</ele>
        <time>2022-08-10T19:57:34.176Z</time>
      </trkpt>
      <trkpt lat="47.87989" lon="-2.42338">
        <ele>20.42131319267</ele>
        <time>2022-08-10T19:57:47.029Z</time>
      </trkpt>
      <trkpt lat="47.87984" lon="-2.42339">
        <ele>20.33175174762</ele>
        <time>2022-08-10T19:57:59.883Z</time>
      </trkpt>
      <trkpt lat="47.87984" lon="-2.42339">
        <ele>20.26090637721</ele>
        <time>2022-08-10T19:58:12.737Z</time>
      </trkpt>
      <trkpt lat="47.88018" lon="-2.42334">
        <ele>20.19817340784</ele>
        <time>2022-08-10T19:58:25.596Z</time>
      </trkpt>
      <trkpt lat="47.88018" lon="-2.42335">
        <ele>20.17354670072</ele>
        <time>2022-08-10T19:58:38.455Z</time>
      </trkpt>
      <trkpt lat="47.87989" lon="-2.42338">
        <ele>20.42131319267</ele>
        <time>2022-08-10T19:58:51.319Z</time>
      </trkpt>
      <trkpt lat="47.87984" lon="-2.42339">
        <ele>20.33175174762</ele>
        <time>2022-08-10T19:59:04.184Z</time>
      </trkpt>
      <trkpt lat="47.87979" lon="-2.4234">
        <ele>20.28559137016</ele>
        <time>2022-08-10T19:59:17.050Z</time>
      </trkpt>
      <trkpt lat="47.87925" lon="-2.42348">
        <ele>20.4733432744</ele>
        <time>2022-08-10T19:59:29.924Z</time>
      </trkpt>
      <trkpt lat="47.87844" lon="-2.42384">
        <ele>20.6356981709</ele>
        <time>2022-08-10T19:59:42.812Z</time>
      </trkpt>
      <trkpt lat="47.87802" lon="-2.42422">
        <ele>20.72274930041</ele>
        <time>2022-08-10T19:59:55.708Z</time>
      </trkpt>
      <trkpt lat="47.87743" lon="-2.42492">
        <ele>20.96981879201</ele>
        <time>2022-08-10T20:00:08.616Z</time>
      </trkpt>
      <trkpt lat="47.87691" lon="-2.42561">
        <ele>21.14690481225</ele>
        <time>2022-08-10T20:00:21.535Z</time>
      </trkpt>
      <trkpt lat="47.87667" lon="-2.42603">
        <ele>21.43383719754</ele>
        <time>2022-08-10T20:00:34.460Z</time>
      </trkpt>
      <trkpt lat="47.8761" lon="-2.42713">
        <ele>21.8578991371</ele>
        <time>2022-08-10T20:00:47.400Z</time>
      </trkpt>
      <trkpt lat="47.87575" lon="-2.42762">
        <ele>22.28992168509</ele>
        <time>2022-08-10T20:01:00.348Z</time>
      </trkpt>
      <trkpt lat="47.8754" lon="-2.42788">
        <ele>22.68391046659</ele>
        <time>2022-08-10T20:01:13.302Z</time>
      </trkpt>
      <trkpt lat="47.87509" lon="-2.42801">
        <ele>23.19381385371</ele>
        <time>2022-08-10T20:01:26.261Z</time>
      </trkpt>
      <trkpt lat="47.87472" lon="-2.42803">
        <ele>23.69373742652</ele>
        <time>2022-08-10T20:01:39.226Z</time>
      </trkpt>
      <trkpt lat="47.87435" lon="-2.42802">
        <ele>24.26089780887</ele>
        <time>2022-08-10T20:01:52.197Z</time>
      </trkpt>
      <trkpt lat="47.87394" lon="-2.42797">
        <ele>24.86507840132</ele>
        <time>2022-08-10T20:02:05.174Z</time>
      </trkpt>
      <trkpt lat="47.8736" lon="-2.42789">
        <ele>25.50041263816</ele>
        <time>2022-08-10T20:02:18.157Z</time>
      </trkpt>
      <trkpt lat="47.87289" lon="-2.42756">
        <ele>26.24211574882</ele>
        <time>2022-08-10T20:02:31.152Z</time>
      </trkpt>
      <trkpt lat="47.87229" lon="-2.42713">
        <ele>27.1905201152</ele>
        <time>2022-08-10T20:02:44.158Z</time>
      </trkpt>
      <trkpt lat="47.87216" lon="-2.42709">
        <ele>27.89282577098</ele>
        <time>2022-08-10T20:02:57.166Z</time>
      </trkpt>
      <trkpt lat="47.87211" lon="-2.4271">
        <ele>28.49709122933</ele>
        <time>2022-08-10T20:03:10.174Z</time>
      </trkpt>
      <trkpt lat="47.87211" lon="-2.4271">
        <ele>28.9931283145</ele>
        <time>2022-08-10T20:03:23.182Z</time>
      </trkpt>
      <trkpt lat="47.87197" lon="-2.42717">
        <ele>29.46079650526</ele>
        <time>2022-08-10T20:03:36.193Z</time>
      </trkpt>
      <trkpt lat="47.87162" lon="-2.42752">
        <ele>29.75648868622</ele>
        <time>2022-08-10T20:03:49.211Z</time>
      </trkpt>
      <trkpt lat="47.8711" lon="-2.42845">
        <ele>29.95941382921</ele>
        <time>2022-08-10T20:04:02.242Z</time>
      </trkpt>
      <trkpt lat="47.87082" lon="-2.42966">
        <ele>30.02693521243</ele>
        <time>2022-08-10T20:04:15.286Z</time>
      </trkpt>
      <trkpt lat="47.87069" lon="-2.43006">
        <ele>29.95015499655</ele>
        <time>2022-08-10T20:04:28.335Z</time>
      </trkpt>
      <trkpt lat="47.87003" lon="-2.43141">
        <ele>29.74124663777</ele>
        <time>2022-08-10T20:04:41.402Z</time>
      </trkpt>
      <trkpt lat="47.86999" lon="-2.43159">
        <ele>29.48904231867</ele>
        <time>2022-08-10T20:04:54.471Z</time>
      </trkpt>
      <trkpt lat="47.86972" lon="-2.43285">
        <ele>29.04582904624</ele>
        <time>2022-08-10T20:05:07.554Z</time>
      </trkpt>
      <trkpt lat="47.86946" lon="-2.43345">
        <ele>28.65939055408</ele>
        <time>2022-08-10T20:05:20.645Z</time>
      </trkpt>
      <trkpt lat="47.86914" lon="-2.4339">
        <ele>28.30955393995</ele>
        <time>2022-08-10T20:05:33.743Z</time>
      </trkpt>
      <trkpt lat="47.8686" lon="-2.43439">
        <ele>27.94880907483</ele>
        <time>2022-08-10T20:05:46.851Z</time>
      </trkpt>
      <trkpt lat="47.86819" lon="-2.43482">
        <ele>27.39631357209</ele>
        <time>2022-08-10T20:05:59.967Z</time>
      </trkpt>
      <trkpt lat="47.86777" lon="-2.43559">
        <ele>26.77393657539</ele>
        <time>2022-08-10T20:06:13.094Z</time>
      </trkpt>
      <trkpt lat="47.86776" lon="-2.43561">
        <ele>26.28979598711</ele>
        <time>2022-08-10T20:06:26.221Z</time>
      </trkpt>
      <trkpt lat="47.86727" lon="-2.43686">
        <ele>25.80199473424</ele>
        <time>2022-08-10T20:06:39.364Z</time>
      </trkpt>
      <trkpt lat="47.86707" lon="-2.43755">
        <ele>25.27672981656</ele>
        <time>2022-08-10T20:06:52.515Z</time>
      </trkpt>
      <trkpt lat="47.86691" lon="-2.43817">
        <ele>24.90703982858</ele>
        <time>2022-08-10T20:07:05.673Z</time>
      </trkpt>
      <trkpt lat="47.8668" lon="-2.43881">
        <ele>24.52820384657</ele>
        <time>2022-08-10T20:07:18.838Z</time>
      </trkpt>
      <trkpt lat="47.86665" lon="-2.43984">
        <ele>24.27134217114</ele>
        <time>2022-08-10T20:07:32.015Z</time>
      </trkpt>
      <trkpt lat="47.8665" lon="-2.44105">
        <ele>24.20126045685</ele>
        <time>2022-08-10T20:07:45.205Z</time>
      </trkpt>
      <trkpt lat="47.86636" lon="-2.44423">
        <ele>24.22676577513</ele>
        <time>2022-08-10T20:07:58.429Z</time>
      </trkpt>
      <trkpt lat="47.86633" lon="-2.44444">
        <ele>24.17612473271</ele>
        <time>2022-08-10T20:08:11.655Z</time>
      </trkpt>
      <trkpt lat="47.86625" lon="-2.44453">
        <ele>24.1505014422</ele>
        <time>2022-08-10T20:08:24.883Z</time>
      </trkpt>
      <trkpt lat="47.8662" lon="-2.44455">
        <ele>24.14676991016</ele>
        <time>2022-08-10T20:08:38.112Z</time>
      </trkpt>
      <trkpt lat="47.86569" lon="-2.44446">
        <ele>24.06266827799</ele>
        <time>2022-08-10T20:08:51.349Z</time>
      </trkpt>
      <trkpt lat="47.86544" lon="-2.44441">
        <ele>24.03925303692</ele>
        <time>2022-08-10T20:09:04.590Z</time>
      </trkpt>
      <trkpt lat="47.86569" lon="-2.44446">
        <ele>24.06266827799</ele>
        <time>2022-08-10T20:09:17.835Z</time>
      </trkpt>
      <trkpt lat="47.86569" lon="-2.44446">
        <ele>24.21972231462</ele>
        <time>2022-08-10T20:09:31.080Z</time>
      </trkpt>
      <trkpt lat="47.86516" lon="-2.44436">
        <ele>24.23728460336</ele>
        <time>2022-08-10T20:09:44.334Z</time>
      </trkpt>
      <trkpt lat="47.86502" lon="-2.44614">
        <ele>24.55687940871</ele>
        <time>2022-08-10T20:09:57.607Z</time>
      </trkpt>
      <trkpt lat="47.86502" lon="-2.44614">
        <ele>24.59812232944</ele>
        <time>2022-08-10T20:10:10.880Z</time>
      </trkpt>
      <trkpt lat="47.86501" lon="-2.44626">
        <ele>24.65013560625</ele>
        <time>2022-08-10T20:10:24.154Z</time>
      </trkpt>
      <trkpt lat="47.86392" lon="-2.44591">
        <ele>24.41411951359</ele>
        <time>2022-08-10T20:10:37.446Z</time>
      </trkpt>
      <trkpt lat="47.86373" lon="-2.44584">
        <ele>24.3331846763</ele>
        <time>2022-08-10T20:10:50.741Z</time>
      </trkpt>
      <trkpt lat="47.86355" lon="-2.44581">
        <ele>24.27442403571</ele>
        <time>2022-08-10T20:11:04.039Z</time>
      </trkpt>
      <trkpt lat="47.86345" lon="-2.44578">
        <ele>24.20953356689</ele>
        <time>2022-08-10T20:11:17.339Z</time>
      </trkpt>
      <trkpt lat="47.86326" lon="-2.44573">
        <ele>24.14304609696</ele>
        <time>2022-08-10T20:11:30.642Z</time>
      </trkpt>
      <trkpt lat="47.86345" lon="-2.44578">
        <ele>24.08932958518</ele>
        <time>2022-08-10T20:11:43.948Z</time>
      </trkpt>
      <trkpt lat="47.86319" lon="-2.44571">
        <ele>24.01793944108</ele>
        <time>2022-08-10T20:11:57.258Z</time>
      </trkpt>
      <trkpt lat="47.86223" lon="-2.44556">
        <ele>23.95328370709</ele>
        <time>2022-08-10T20:12:10.584Z</time>
      </trkpt>
      <trkpt lat="47.86144" lon="-2.44556">
        <ele>23.84359445166</ele>
        <time>2022-08-10T20:12:23.922Z</time>
      </trkpt>
      <trkpt lat="47.86063" lon="-2.44581">
        <ele>23.80800439513</ele>
        <time>2022-08-10T20:12:37.274Z</time>
      </trkpt>
      <trkpt lat="47.86035" lon="-2.44599">
        <ele>23.73000178333</ele>
        <time>2022-08-10T20:12:50.631Z</time>
      </trkpt>
      <trkpt lat="47.85978" lon="-2.44653">
        <ele>23.76728607784</ele>
        <time>2022-08-10T20:13:03.998Z</time>
      </trkpt>
      <trkpt lat="47.85943" lon="-2.44675">
        <ele>23.72075515368</ele>
        <time>2022-08-10T20:13:17.372Z</time>
      </trkpt>
      <trkpt lat="47.85893" lon="-2.44687">
        <ele>23.6059246638</ele>
        <time>2022-08-10T20:13:30.754Z</time>
      </trkpt>
      <trkpt lat="47.85807" lon="-2.44693">
        <ele>23.41741134852</ele>
        <time>2022-08-10T20:13:44.149Z</time>
      </trkpt>
      <trkpt lat="47.85765" lon="-2.44686">
        <ele>23.24519885914</ele>
        <time>2022-08-10T20:13:57.551Z</time>
      </trkpt>
      <trkpt lat="47.8568" lon="-2.44641">
        <ele>22.95615665038</ele>
        <time>2022-08-10T20:14:10.968Z</time>
      </trkpt>
      <trkpt lat="47.85623" lon="-2.4462">
        <ele>22.84952310979</ele>
        <time>2022-08-10T20:14:24.394Z</time>
      </trkpt>
      <trkpt lat="47.85528" lon="-2.44621">
        <ele>22.63448941558</ele>
        <time>2022-08-10T20:14:37.835Z</time>
      </trkpt>
      <trkpt lat="47.85428" lon="-2.44644">
        <ele>22.30375453247</ele>
        <time>2022-08-10T20:14:51.292Z</time>
      </trkpt>
      <trkpt lat="47.85306" lon="-2.44638">
        <ele>22.1246733986</ele>
        <time>2022-08-10T20:15:04.769Z</time>
      </trkpt>
      <trkpt lat="47.85299" lon="-2.44636">
        <ele>21.87573428027</ele>
        <time>2022-08-10T20:15:18.247Z</time>
      </trkpt>
      <trkpt lat="47.85299" lon="-2.44636">
        <ele>21.59749353139</ele>
        <time>2022-08-10T20:15:31.725Z</time>
      </trkpt>
      <trkpt lat="47.85135" lon="-2.44581">
        <ele>21.34269479612</ele>
        <time>2022-08-10T20:15:45.230Z</time>
      </trkpt>
      <trkpt lat="47.84961" lon="-2.44518">
        <ele>20.81692914452</ele>
        <time>2022-08-10T20:15:58.764Z</time>
      </trkpt>
      <trkpt lat="47.84901" lon="-2.44478">
        <ele>20.57668977119</ele>
        <time>2022-08-10T20:16:12.308Z</time>
      </trkpt>
      <trkpt lat="47.84835" lon="-2.44418">
        <ele>20.32234389637</ele>
        <time>2022-08-10T20:16:25.865Z</time>
      </trkpt>
      <trkpt lat="47.84824" lon="-2.44404">
        <ele>20.04708154659</ele>
        <time>2022-08-10T20:16:39.424Z</time>
      </trkpt>
      <trkpt lat="47.84706" lon="-2.4426">
        <ele>19.83741086992</ele>
        <time>2022-08-10T20:16:53.007Z</time>
      </trkpt>
      <trkpt lat="47.84591" lon="-2.44218">
        <ele>19.64078526942</ele>
        <time>2022-08-10T20:17:06.609Z</time>
      </trkpt>
      <trkpt lat="47.84484" lon="-2.44187">
        <ele>19.50417547533</ele>
        <time>2022-08-10T20:17:20.229Z</time>
      </trkpt>
      <trkpt lat="47.84457" lon="-2.44177">
        <ele>19.36634525138</ele>
        <time>2022-08-10T20:17:33.853Z</time>
      </trkpt>
      <trkpt lat="47.84428" lon="-2.44153">
        <ele>19.3250096845</ele>
        <time>2022-08-10T20:17:47.483Z</time>
      </trkpt>
      <trkpt lat="47.84405" lon="-2.44122">
        <ele>19.26767691333</ele>
        <time>2022-08-10T20:18:01.117Z</time>
      </trkpt>
      <trkpt lat="47.84373" lon="-2.44045">
        <ele>19.06386475161</ele>
        <time>2022-08-10T20:18:14.761Z</time>
      </trkpt>
      <trkpt lat="47.84341" lon="-2.43982">
        <ele>19.02696742391</ele>
        <time>2022-08-10T20:18:28.414Z</time>
      </trkpt>
      <trkpt lat="47.84233" lon="-2.4381">
        <ele>18.94787691126</ele>
        <time>2022-08-10T20:18:42.092Z</time>
      </trkpt>
      <trkpt lat="47.84164" lon="-2.43717">
        <ele>18.9565257295</ele>
        <time>2022-08-10T20:18:55.785Z</time>
      </trkpt>
      <trkpt lat="47.84083" lon="-2.43633">
        <ele>19.13063611796</ele>
        <time>2022-08-10T20:19:09.494Z</time>
      </trkpt>
      <trkpt lat="47.84037" lon="-2.43563">
        <ele>19.1562687017</ele>
        <time>2022-08-10T20:19:23.213Z</time>
      </trkpt>
      <trkpt lat="47.84007" lon="-2.43494">
        <ele>19.30541285972</ele>
        <time>2022-08-10T20:19:36.941Z</time>
      </trkpt>
      <trkpt lat="47.83978" lon="-2.43417">
        <ele>19.426233621</ele>
        <time>2022-08-10T20:19:50.679Z</time>
      </trkpt>
      <trkpt lat="47.83978" lon="-2.43415">
        <ele>19.57492686771</ele>
        <time>2022-08-10T20:20:04.417Z</time>
      </trkpt>
      <trkpt lat="47.83978" lon="-2.43415">
        <ele>19.73126965101</ele>
        <time>2022-08-10T20:20:18.155Z</time>
      </trkpt>
      <trkpt lat="47.83978" lon="-2.43415">
        <ele>19.57492686771</ele>
        <time>2022-08-10T20:20:31.893Z</time>
      </trkpt>
      <trkpt lat="47.83964" lon="-2.43363">
        <ele>20.08547003501</ele>
        <time>2022-08-10T20:20:45.637Z</time>
      </trkpt>
      <trkpt lat="47.83959" lon="-2.43334">
        <ele>20.2571307886</ele>
        <time>2022-08-10T20:20:59.384Z</time>
      </trkpt>
      <trkpt lat="47.83953" lon="-2.43266">
        <ele>20.40072694069</ele>
        <time>2022-08-10T20:21:13.139Z</time>
      </trkpt>
      <trkpt lat="47.83953" lon="-2.43238">
        <ele>20.52516327278</ele>
        <time>2022-08-10T20:21:26.897Z</time>
      </trkpt>
      <trkpt lat="47.83956" lon="-2.43211">
        <ele>20.58898009362</ele>
        <time>2022-08-10T20:21:40.658Z</time>
      </trkpt>
      <trkpt lat="47.83964" lon="-2.43179">
        <ele>20.56283273126</ele>
        <time>2022-08-10T20:21:54.422Z</time>
      </trkpt>
      <trkpt lat="47.83964" lon="-2.43179">
        <ele>20.52724083645</ele>
        <time>2022-08-10T20:22:08.186Z</time>
      </trkpt>
      <trkpt lat="47.83969" lon="-2.43168">
        <ele>20.43079056244</ele>
        <time>2022-08-10T20:22:21.952Z</time>
      </trkpt>
      <trkpt lat="47.83977" lon="-2.43155">
        <ele>20.28790204633</ele>
        <time>2022-08-10T20:22:35.720Z</time>
      </trkpt>
      <trkpt lat="47.84" lon="-2.43122">
        <ele>20.10231411267</ele>
        <time>2022-08-10T20:22:49.493Z</time>
      </trkpt>
      <trkpt lat="47.84004" lon="-2.431">
        <ele>19.92244042179</ele>
        <time>2022-08-10T20:23:03.268Z</time>
      </trkpt>
      <trkpt lat="47.83999" lon="-2.4308">
        <ele>19.73394654227</ele>
        <time>2022-08-10T20:23:17.045Z</time>
      </trkpt>
      <trkpt lat="47.83963" lon="-2.42994">
        <ele>19.42275915295</ele>
        <time>2022-08-10T20:23:30.833Z</time>
      </trkpt>
      <trkpt lat="47.83905" lon="-2.42841">
        <ele>19.04960496398</ele>
        <time>2022-08-10T20:23:44.640Z</time>
      </trkpt>
      <trkpt lat="47.83853" lon="-2.42728">
        <ele>18.87011072776</ele>
        <time>2022-08-10T20:23:58.462Z</time>
      </trkpt>
      <trkpt lat="47.83853" lon="-2.42728">
        <ele>18.60532718827</ele>
        <time>2022-08-10T20:24:12.284Z</time>
      </trkpt>
      <trkpt lat="47.83847" lon="-2.42715">
        <ele>18.31742855378</ele>
        <time>2022-08-10T20:24:26.108Z</time>
      </trkpt>
      <trkpt lat="47.8382" lon="-2.42672">
        <ele>18.06991858921</ele>
        <time>2022-08-10T20:24:39.938Z</time>
      </trkpt>
      <trkpt lat="47.83796" lon="-2.42619">
        <ele>17.81427418699</ele>
        <time>2022-08-10T20:24:53.775Z</time>
      </trkpt>
      <trkpt lat="47.8374" lon="-2.42412">
        <ele>17.64392726442</ele>
        <time>2022-08-10T20:25:07.636Z</time>
      </trkpt>
      <trkpt lat="47.8372" lon="-2.42327">
        <ele>17.47034353181</ele>
        <time>2022-08-10T20:25:21.507Z</time>
      </trkpt>
      <trkpt lat="47.83704" lon="-2.42246">
        <ele>17.39172374877</ele>
        <time>2022-08-10T20:25:35.387Z</time>
      </trkpt>
      <trkpt lat="47.83692" lon="-2.42149">
        <ele>17.28101242648</ele>
        <time>2022-08-10T20:25:49.277Z</time>
      </trkpt>
      <trkpt lat="47.83688" lon="-2.4205">
        <ele>17.25651306755</ele>
        <time>2022-08-10T20:26:03.178Z</time>
      </trkpt>
      <trkpt lat="47.83692" lon="-2.41974">
        <ele>17.26982319047</ele>
        <time>2022-08-10T20:26:17.087Z</time>
      </trkpt>
      <trkpt lat="47.837" lon="-2.41919">
        <ele>17.33463797683</ele>
        <time>2022-08-10T20:26:31.002Z</time>
      </trkpt>
      <trkpt lat="47.83705" lon="-2.41871">
        <ele>17.41020805426</ele>
        <time>2022-08-10T20:26:44.923Z</time>
      </trkpt>
      <trkpt lat="47.83702" lon="-2.4185">
        <ele>17.5684005625</ele>
        <time>2022-08-10T20:26:58.846Z</time>
      </trkpt>
      <trkpt lat="47.83685" lon="-2.41803">
        <ele>17.78806685266</ele>
        <time>2022-08-10T20:27:12.775Z</time>
      </trkpt>
      <trkpt lat="47.83645" lon="-2.41729">
        <ele>18.12871991681</ele>
        <time>2022-08-10T20:27:26.714Z</time>
      </trkpt>
      <trkpt lat="47.83609" lon="-2.41687">
        <ele>18.30287084907</ele>
        <time>2022-08-10T20:27:40.660Z</time>
      </trkpt>
      <trkpt lat="47.83579" lon="-2.41662">
        <ele>18.63773480427</ele>
        <time>2022-08-10T20:27:54.612Z</time>
      </trkpt>
      <trkpt lat="47.83534" lon="-2.41645">
        <ele>19.0083744532</ele>
        <time>2022-08-10T20:28:08.571Z</time>
      </trkpt>
      <trkpt lat="47.83509" lon="-2.41625">
        <ele>19.33653513239</ele>
        <time>2022-08-10T20:28:22.535Z</time>
      </trkpt>
      <trkpt lat="47.83484" lon="-2.41588">
        <ele>19.60835902817</ele>
        <time>2022-08-10T20:28:36.504Z</time>
      </trkpt>
      <trkpt lat="47.83448" lon="-2.41524">
        <ele>19.93199955578</ele>
        <time>2022-08-10T20:28:50.482Z</time>
      </trkpt>
      <trkpt lat="47.83394" lon="-2.41451">
        <ele>20.08407336497</ele>
        <time>2022-08-10T20:29:04.472Z</time>
      </trkpt>
      <trkpt lat="47.83316" lon="-2.41319">
        <ele>20.3518266846</ele>
        <time>2022-08-10T20:29:18.481Z</time>
      </trkpt>
      <trkpt lat="47.83277" lon="-2.41267">
        <ele>20.59253876583</ele>
        <time>2022-08-10T20:29:32.498Z</time>
      </trkpt>
      <trkpt lat="47.83162" lon="-2.41171">
        <ele>20.80783009993</ele>
        <time>2022-08-10T20:29:46.537Z</time>
      </trkpt>
      <trkpt lat="47.83132" lon="-2.41135">
        <ele>21.01844015941</ele>
        <time>2022-08-10T20:30:00.582Z</time>
      </trkpt>
      <trkpt lat="47.83097" lon="-2.41087">
        <ele>21.05691357711</ele>
        <time>2022-08-10T20:30:14.634Z</time>
      </trkpt>
      <trkpt lat="47.83078" lon="-2.41061">
        <ele>21.10958385706</ele>
        <time>2022-08-10T20:30:28.690Z</time>
      </trkpt>
      <trkpt lat="47.82968" lon="-2.40952">
        <ele>21.20611026104</ele>
        <time>2022-08-10T20:30:42.768Z</time>
      </trkpt>
      <trkpt lat="47.82942" lon="-2.40931">
        <ele>21.22381269462</ele>
        <time>2022-08-10T20:30:56.850Z</time>
      </trkpt>
      <trkpt lat="47.8293" lon="-2.40921">
        <ele>21.20789597535</ele>
        <time>2022-08-10T20:31:10.935Z</time>
      </trkpt>
      <trkpt lat="47.82856" lon="-2.40841">
        <ele>21.17850068652</ele>
        <time>2022-08-10T20:31:25.034Z</time>
      </trkpt>
      <trkpt lat="47.82856" lon="-2.40841">
        <ele>21.07644753617</ele>
        <time>2022-08-10T20:31:39.133Z</time>
      </trkpt>
      <trkpt lat="47.82812" lon="-2.40793">
        <ele>20.97933687422</ele>
        <time>2022-08-10T20:31:53.241Z</time>
      </trkpt>
      <trkpt lat="47.82568" lon="-2.40409">
        <ele>20.69639578059</ele>
        <time>2022-08-10T20:32:07.406Z</time>
      </trkpt>
      <trkpt lat="47.82548" lon="-2.40367">
        <ele>20.41049834385</ele>
        <time>2022-08-10T20:32:21.576Z</time>
      </trkpt>
      <trkpt lat="47.82532" lon="-2.40304">
        <ele>20.18695722494</ele>
        <time>2022-08-10T20:32:35.754Z</time>
      </trkpt>
      <trkpt lat="47.82522" lon="-2.40253">
        <ele>19.99891529492</ele>
        <time>2022-08-10T20:32:49.937Z</time>
      </trkpt>
      <trkpt lat="47.82502" lon="-2.4003">
        <ele>19.71762891794</ele>
        <time>2022-08-10T20:33:04.145Z</time>
      </trkpt>
      <trkpt lat="47.82491" lon="-2.39973">
        <ele>19.40573149914</ele>
        <time>2022-08-10T20:33:18.359Z</time>
      </trkpt>
      <trkpt lat="47.82474" lon="-2.39941">
        <ele>19.12183136311</ele>
        <time>2022-08-10T20:33:32.578Z</time>
      </trkpt>
      <trkpt lat="47.82432" lon="-2.39889">
        <ele>18.79474588272</ele>
        <time>2022-08-10T20:33:46.805Z</time>
      </trkpt>
      <trkpt lat="47.82432" lon="-2.39889">
        <ele>18.50105971396</ele>
        <time>2022-08-10T20:34:01.032Z</time>
      </trkpt>
      <trkpt lat="47.82413" lon="-2.39864">
        <ele>18.20517797639</ele>
        <time>2022-08-10T20:34:15.263Z</time>
      </trkpt>
      <trkpt lat="47.82413" lon="-2.39864">
        <ele>17.9074149271</ele>
        <time>2022-08-10T20:34:29.494Z</time>
      </trkpt>
      <trkpt lat="47.82413" lon="-2.39864">
        <ele>17.60740451355</ele>
        <time>2022-08-10T20:34:43.725Z</time>
      </trkpt>
      <trkpt lat="47.82055" lon="-2.39402">
        <ele>17.39571790974</ele>
        <time>2022-08-10T20:34:58.032Z</time>
      </trkpt>
      <trkpt lat="47.82003" lon="-2.39334">
        <ele>17.16091214407</ele>
        <time>2022-08-10T20:35:12.350Z</time>
      </trkpt>
      <trkpt lat="47.81984" lon="-2.3931">
        <ele>16.89898232921</ele>
        <time>2022-08-10T20:35:26.672Z</time>
      </trkpt>
      <trkpt lat="47.81959" lon="-2.39278">
        <ele>16.48197516576</ele>
        <time>2022-08-10T20:35:41.000Z</time>
      </trkpt>
      <trkpt lat="47.81924" lon="-2.39232">
        <ele>16.04500510393</ele>
        <time>2022-08-10T20:35:55.335Z</time>
      </trkpt>
      <trkpt lat="47.81911" lon="-2.39216">
        <ele>15.72102116112</ele>
        <time>2022-08-10T20:36:09.673Z</time>
      </trkpt>
      <trkpt lat="47.81674" lon="-2.38911">
        <ele>15.42461718496</ele>
        <time>2022-08-10T20:36:24.061Z</time>
      </trkpt>
      <trkpt lat="47.8133" lon="-2.38469">
        <ele>15.0992999995</ele>
        <time>2022-08-10T20:36:38.522Z</time>
      </trkpt>
      <trkpt lat="47.81231" lon="-2.38338">
        <ele>14.81123653306</ele>
        <time>2022-08-10T20:36:53.004Z</time>
      </trkpt>
      <trkpt lat="47.81212" lon="-2.38313">
        <ele>14.65333753668</ele>
        <time>2022-08-10T20:37:07.490Z</time>
      </trkpt>
      <trkpt lat="47.81231" lon="-2.38338">
        <ele>14.81123653306</ele>
        <time>2022-08-10T20:37:21.980Z</time>
      </trkpt>
      <trkpt lat="47.81231" lon="-2.38338">
        <ele>14.52034894449</ele>
        <time>2022-08-10T20:37:36.470Z</time>
      </trkpt>
      <trkpt lat="47.81196" lon="-2.38293">
        <ele>14.57605427289</ele>
        <time>2022-08-10T20:37:50.968Z</time>
      </trkpt>
      <trkpt lat="47.81194" lon="-2.38298">
        <ele>14.69052213889</ele>
        <time>2022-08-10T20:38:05.466Z</time>
      </trkpt>
      <trkpt lat="47.81195" lon="-2.38299">
        <ele>14.86294955136</ele>
        <time>2022-08-10T20:38:19.964Z</time>
      </trkpt>
      <trkpt lat="47.81194" lon="-2.38298">
        <ele>14.69052213889</ele>
        <time>2022-08-10T20:38:34.463Z</time>
      </trkpt>
      <trkpt lat="47.81193" lon="-2.38299">
        <ele>15.40249506889</ele>
        <time>2022-08-10T20:38:48.962Z</time>
      </trkpt>
      <trkpt lat="47.81183" lon="-2.38316">
        <ele>15.80951107513</ele>
        <time>2022-08-10T20:39:03.463Z</time>
      </trkpt>
      <trkpt lat="47.81193" lon="-2.38299">
        <ele>15.40249506889</ele>
        <time>2022-08-10T20:39:17.967Z</time>
      </trkpt>
      <trkpt lat="47.81178" lon="-2.3833">
        <ele>16.64764558266</ele>
        <time>2022-08-10T20:39:32.475Z</time>
      </trkpt>
      <trkpt lat="47.81106" lon="-2.38382">
        <ele>17.20919922161</ele>
        <time>2022-08-10T20:39:46.996Z</time>
      </trkpt>
      <trkpt lat="47.81092" lon="-2.38395">
        <ele>17.59400706452</ele>
        <time>2022-08-10T20:40:01.519Z</time>
      </trkpt>
      <trkpt lat="47.81067" lon="-2.38404">
        <ele>17.99435881058</ele>
        <time>2022-08-10T20:40:16.046Z</time>
      </trkpt>
      <trkpt lat="47.81038" lon="-2.3842">
        <ele>18.37197858897</ele>
        <time>2022-08-10T20:40:30.578Z</time>
      </trkpt>
      <trkpt lat="47.81004" lon="-2.38447">
        <ele>18.73377098765</ele>
        <time>2022-08-10T20:40:45.116Z</time>
      </trkpt>
      <trkpt lat="47.80967" lon="-2.38481">
        <ele>18.99063026067</ele>
        <time>2022-08-10T20:40:59.661Z</time>
      </trkpt>
      <trkpt lat="47.80982" lon="-2.38466">
        <ele>19.22431498341</ele>
        <time>2022-08-10T20:41:14.209Z</time>
      </trkpt>
      <trkpt lat="47.80967" lon="-2.38481">
        <ele>19.4070884102</ele>
        <time>2022-08-10T20:41:28.760Z</time>
      </trkpt>
      <trkpt lat="47.80961" lon="-2.38484">
        <ele>19.53542431641</ele>
        <time>2022-08-10T20:41:43.312Z</time>
      </trkpt>
      <trkpt lat="47.80955" lon="-2.38484">
        <ele>19.61391305317</ele>
        <time>2022-08-10T20:41:57.865Z</time>
      </trkpt>
      <trkpt lat="47.80945" lon="-2.38478">
        <ele>19.64959790592</ele>
        <time>2022-08-10T20:42:12.420Z</time>
      </trkpt>
      <trkpt lat="47.80936" lon="-2.38467">
        <ele>19.61604537317</ele>
        <time>2022-08-10T20:42:26.977Z</time>
      </trkpt>
      <trkpt lat="47.80925" lon="-2.38447">
        <ele>19.53355269063</ele>
        <time>2022-08-10T20:42:41.536Z</time>
      </trkpt>
      <trkpt lat="47.80902" lon="-2.3842">
        <ele>19.44172852297</ele>
        <time>2022-08-10T20:42:56.100Z</time>
      </trkpt>
      <trkpt lat="47.80884" lon="-2.38398">
        <ele>19.23890921142</ele>
        <time>2022-08-10T20:43:10.668Z</time>
      </trkpt>
      <trkpt lat="47.80883" lon="-2.38401">
        <ele>19.06405328086</ele>
        <time>2022-08-10T20:43:25.236Z</time>
      </trkpt>
      <trkpt lat="47.80877" lon="-2.38423">
        <ele>18.89359754768</ele>
        <time>2022-08-10T20:43:39.807Z</time>
      </trkpt>
      <trkpt lat="47.80871" lon="-2.38445">
        <ele>18.71945224192</ele>
        <time>2022-08-10T20:43:54.380Z</time>
      </trkpt>
      <trkpt lat="47.80877" lon="-2.38423">
        <ele>18.89359754768</ele>
        <time>2022-08-10T20:44:08.956Z</time>
      </trkpt>
      <trkpt lat="47.80878" lon="-2.38424">
        <ele>18.42544037626</ele>
        <time>2022-08-10T20:44:23.532Z</time>
      </trkpt>
      <trkpt lat="47.80863" lon="-2.38466">
        <ele>18.32810794037</ele>
        <time>2022-08-10T20:44:38.113Z</time>
      </trkpt>
      <trkpt lat="47.80846" lon="-2.38512">
        <ele>18.29374285368</ele>
        <time>2022-08-10T20:44:52.700Z</time>
      </trkpt>
      <trkpt lat="47.8083" lon="-2.38589">
        <ele>18.41312008705</ele>
        <time>2022-08-10T20:45:07.296Z</time>
      </trkpt>
      <trkpt lat="47.80813" lon="-2.38678">
        <ele>18.6535415633</ele>
        <time>2022-08-10T20:45:21.902Z</time>
      </trkpt>
      <trkpt lat="47.80803" lon="-2.38728">
        <ele>18.95892688617</ele>
        <time>2022-08-10T20:45:36.513Z</time>
      </trkpt>
      <trkpt lat="47.80804" lon="-2.38729">
        <ele>19.35458072811</ele>
        <time>2022-08-10T20:45:51.124Z</time>
      </trkpt>
      <trkpt lat="47.80805" lon="-2.3873">
        <ele>19.88982537794</ele>
        <time>2022-08-10T20:46:05.736Z</time>
      </trkpt>
      <trkpt lat="47.80807" lon="-2.38732">
        <ele>20.57900601535</ele>
        <time>2022-08-10T20:46:20.348Z</time>
      </trkpt>
      <trkpt lat="47.80808" lon="-2.38735">
        <ele>21.43978038487</ele>
        <time>2022-08-10T20:46:34.960Z</time>
      </trkpt>
      <trkpt lat="47.80809" lon="-2.38743">
        <ele>22.48432302515</ele>
        <time>2022-08-10T20:46:49.573Z</time>
      </trkpt>
      <trkpt lat="47.80807" lon="-2.3875">
        <ele>23.72781271441</ele>
        <time>2022-08-10T20:47:04.187Z</time>
      </trkpt>
      <trkpt lat="47.80805" lon="-2.38752">
        <ele>25.17417741559</ele>
        <time>2022-08-10T20:47:18.801Z</time>
      </trkpt>
      <trkpt lat="47.80804" lon="-2.38753">
        <ele>26.8258957963</ele>
        <time>2022-08-10T20:47:33.416Z</time>
      </trkpt>
      <trkpt lat="47.80806" lon="-2.38775">
        <ele>28.6795971538</ele>
        <time>2022-08-10T20:47:48.033Z</time>
      </trkpt>
      <trkpt lat="47.80807" lon="-2.38788">
        <ele>30.75019853788</ele>
        <time>2022-08-10T20:48:02.651Z</time>
      </trkpt>
      <trkpt lat="47.80811" lon="-2.38849">
        <ele>33.11448399846</ele>
        <time>2022-08-10T20:48:17.276Z</time>
      </trkpt>
      <trkpt lat="47.80822" lon="-2.39064">
        <ele>35.80845754543</ele>
        <time>2022-08-10T20:48:31.924Z</time>
      </trkpt>
      <trkpt lat="47.80836" lon="-2.39258">
        <ele>38.50025326045</ele>
        <time>2022-08-10T20:48:46.593Z</time>
      </trkpt>
      <trkpt lat="47.80839" lon="-2.39312">
        <ele>41.14622116011</ele>
        <time>2022-08-10T20:49:01.268Z</time>
      </trkpt>
      <trkpt lat="47.80849" lon="-2.39522">
        <ele>44.00236709423</ele>
        <time>2022-08-10T20:49:15.966Z</time>
      </trkpt>
      <trkpt lat="47.80858" lon="-2.39664">
        <ele>46.83438206278</ele>
        <time>2022-08-10T20:49:30.679Z</time>
      </trkpt>
      <trkpt lat="47.80851" lon="-2.39741">
        <ele>49.72618289759</ele>
        <time>2022-08-10T20:49:45.401Z</time>
      </trkpt>
      <trkpt lat="47.80845" lon="-2.39796">
        <ele>52.37312667262</ele>
        <time>2022-08-10T20:50:00.129Z</time>
      </trkpt>
      <trkpt lat="47.80815" lon="-2.39996">
        <ele>55.01110568338</ele>
        <time>2022-08-10T20:50:14.879Z</time>
      </trkpt>
      <trkpt lat="47.80805" lon="-2.40057">
        <ele>57.48193457283</ele>
        <time>2022-08-10T20:50:29.635Z</time>
      </trkpt>
      <trkpt lat="47.80801" lon="-2.40064">
        <ele>59.76599977029</ele>
        <time>2022-08-10T20:50:44.392Z</time>
      </trkpt>
      <trkpt lat="47.80794" lon="-2.40089">
        <ele>61.91364006284</ele>
        <time>2022-08-10T20:50:59.152Z</time>
      </trkpt>
      <trkpt lat="47.80784" lon="-2.40107">
        <ele>63.91471422428</ele>
        <time>2022-08-10T20:51:13.915Z</time>
      </trkpt>
      <trkpt lat="47.80766" lon="-2.40128">
        <ele>65.76172243054</ele>
        <time>2022-08-10T20:51:28.682Z</time>
      </trkpt>
      <trkpt lat="47.80751" lon="-2.40134">
        <ele>67.44047265803</ele>
        <time>2022-08-10T20:51:43.451Z</time>
      </trkpt>
      <trkpt lat="47.80727" lon="-2.40139">
        <ele>68.95440762293</ele>
        <time>2022-08-10T20:51:58.224Z</time>
      </trkpt>
      <trkpt lat="47.80703" lon="-2.40139">
        <ele>70.3262554132</ele>
        <time>2022-08-10T20:52:13.001Z</time>
      </trkpt>
      <trkpt lat="47.8068" lon="-2.40137">
        <ele>71.59143387023</ele>
        <time>2022-08-10T20:52:27.781Z</time>
      </trkpt>
      <trkpt lat="47.80656" lon="-2.40137">
        <ele>72.74613942846</ele>
        <time>2022-08-10T20:52:42.565Z</time>
      </trkpt>
      <trkpt lat="47.80652" lon="-2.40139">
        <ele>73.72055661555</ele>
        <time>2022-08-10T20:52:57.350Z</time>
      </trkpt>
      <trkpt lat="47.80642" lon="-2.40141">
        <ele>74.58411152333</ele>
        <time>2022-08-10T20:53:12.137Z</time>
      </trkpt>
      <trkpt lat="47.80624" lon="-2.40146">
        <ele>75.34116388064</ele>
        <time>2022-08-10T20:53:26.927Z</time>
      </trkpt>
      <trkpt lat="47.80614" lon="-2.40151">
        <ele>75.94707377464</ele>
        <time>2022-08-10T20:53:41.718Z</time>
      </trkpt>
      <trkpt lat="47.80608" lon="-2.40146">
        <ele>76.43109915585</ele>
        <time>2022-08-10T20:53:56.510Z</time>
      </trkpt>
      <trkpt lat="47.8058" lon="-2.40124">
        <ele>76.76510183388</ele>
        <time>2022-08-10T20:54:11.307Z</time>
      </trkpt>
      <trkpt lat="47.80529" lon="-2.40085">
        <ele>77.08523359991</ele>
        <time>2022-08-10T20:54:26.114Z</time>
      </trkpt>
      <trkpt lat="47.80512" lon="-2.40073">
        <ele>77.22718906111</ele>
        <time>2022-08-10T20:54:40.924Z</time>
      </trkpt>
      <trkpt lat="47.80471" lon="-2.40046">
        <ele>77.24377091983</ele>
        <time>2022-08-10T20:54:55.741Z</time>
      </trkpt>
      <trkpt lat="47.80429" lon="-2.40022">
        <ele>77.08968359893</ele>
        <time>2022-08-10T20:55:10.565Z</time>
      </trkpt>
      <trkpt lat="47.80362" lon="-2.39982">
        <ele>76.78176346159</ele>
        <time>2022-08-10T20:55:25.401Z</time>
      </trkpt>
      <trkpt lat="47.80264" lon="-2.39925">
        <ele>76.40866594719</ele>
        <time>2022-08-10T20:55:40.253Z</time>
      </trkpt>
      <trkpt lat="47.80195" lon="-2.39882">
        <ele>75.78597098759</ele>
        <time>2022-08-10T20:55:55.117Z</time>
      </trkpt>
      <trkpt lat="47.80128" lon="-2.39846">
        <ele>75.04514709952</ele>
        <time>2022-08-10T20:56:09.993Z</time>
      </trkpt>
      <trkpt lat="47.80093" lon="-2.39829">
        <ele>74.14737137772</ele>
        <time>2022-08-10T20:56:24.875Z</time>
      </trkpt>
      <trkpt lat="47.80075" lon="-2.39822">
        <ele>73.10067958587</ele>
        <time>2022-08-10T20:56:39.760Z</time>
      </trkpt>
      <trkpt lat="47.80041" lon="-2.39814">
        <ele>71.96416850832</ele>
        <time>2022-08-10T20:56:54.650Z</time>
      </trkpt>
      <trkpt lat="47.80008" lon="-2.39812">
        <ele>70.83645390646</ele>
        <time>2022-08-10T20:57:09.545Z</time>
      </trkpt>
      <trkpt lat="47.79975" lon="-2.39813">
        <ele>69.60051821694</ele>
        <time>2022-08-10T20:57:24.446Z</time>
      </trkpt>
      <trkpt lat="47.79921" lon="-2.39826">
        <ele>68.3628535194</ele>
        <time>2022-08-10T20:57:39.356Z</time>
      </trkpt>
      <trkpt lat="47.79882" lon="-2.39845">
        <ele>66.92315543385</ele>
        <time>2022-08-10T20:57:54.272Z</time>
      </trkpt>
      <trkpt lat="47.79841" lon="-2.39871">
        <ele>65.50396863767</ele>
        <time>2022-08-10T20:58:09.195Z</time>
      </trkpt>
      <trkpt lat="47.79817" lon="-2.3989">
        <ele>64.15058962596</ele>
        <time>2022-08-10T20:58:24.123Z</time>
      </trkpt>
      <trkpt lat="47.79802" lon="-2.39905">
        <ele>62.85492112957</ele>
        <time>2022-08-10T20:58:39.053Z</time>
      </trkpt>
      <trkpt lat="47.79781" lon="-2.39929">
        <ele>61.59448059372</ele>
        <time>2022-08-10T20:58:53.988Z</time>
      </trkpt>
      <trkpt lat="47.79757" lon="-2.39958">
        <ele>60.42608434938</ele>
        <time>2022-08-10T20:59:08.928Z</time>
      </trkpt>
      <trkpt lat="47.79677" lon="-2.40087">
        <ele>59.29126283865</ele>
        <time>2022-08-10T20:59:23.887Z</time>
      </trkpt>
      <trkpt lat="47.79604" lon="-2.40205">
        <ele>58.15037016064</ele>
        <time>2022-08-10T20:59:38.863Z</time>
      </trkpt>
      <trkpt lat="47.79543" lon="-2.40303">
        <ele>57.24611726333</ele>
        <time>2022-08-10T20:59:53.853Z</time>
      </trkpt>
      <trkpt lat="47.7951" lon="-2.40354">
        <ele>56.33411246134</ele>
        <time>2022-08-10T21:00:08.851Z</time>
      </trkpt>
      <trkpt lat="47.79493" lon="-2.4038">
        <ele>55.48658948407</ele>
        <time>2022-08-10T21:00:23.853Z</time>
      </trkpt>
      <trkpt lat="47.79489" lon="-2.40386">
        <ele>54.64747110028</ele>
        <time>2022-08-10T21:00:38.856Z</time>
      </trkpt>
      <trkpt lat="47.79469" lon="-2.40411">
        <ele>53.77414964198</ele>
        <time>2022-08-10T21:00:53.863Z</time>
      </trkpt>
      <trkpt lat="47.79452" lon="-2.40427">
        <ele>52.90099177068</ele>
        <time>2022-08-10T21:01:08.873Z</time>
      </trkpt>
      <trkpt lat="47.79419" lon="-2.40455">
        <ele>52.02092818935</ele>
        <time>2022-08-10T21:01:23.889Z</time>
      </trkpt>
      <trkpt lat="47.79393" lon="-2.40472">
        <ele>51.23401946055</ele>
        <time>2022-08-10T21:01:38.910Z</time>
      </trkpt>
      <trkpt lat="47.79373" lon="-2.40486">
        <ele>50.50958446918</ele>
        <time>2022-08-10T21:01:53.934Z</time>
      </trkpt>
      <trkpt lat="47.79354" lon="-2.40495">
        <ele>49.79611120236</ele>
        <time>2022-08-10T21:02:08.961Z</time>
      </trkpt>
      <trkpt lat="47.79335" lon="-2.40503">
        <ele>49.10314414362</ele>
        <time>2022-08-10T21:02:23.992Z</time>
      </trkpt>
      <trkpt lat="47.79296" lon="-2.40512">
        <ele>48.41616793436</ele>
        <time>2022-08-10T21:02:39.029Z</time>
      </trkpt>
      <trkpt lat="47.79251" lon="-2.40516">
        <ele>47.6841825791</ele>
        <time>2022-08-10T21:02:54.073Z</time>
      </trkpt>
      <trkpt lat="47.79231" lon="-2.40515">
        <ele>46.98907369779</ele>
        <time>2022-08-10T21:03:09.120Z</time>
      </trkpt>
      <trkpt lat="47.79196" lon="-2.4051">
        <ele>46.32683322749</ele>
        <time>2022-08-10T21:03:24.173Z</time>
      </trkpt>
      <trkpt lat="47.79162" lon="-2.40497">
        <ele>45.61005415367</ele>
        <time>2022-08-10T21:03:39.232Z</time>
      </trkpt>
      <trkpt lat="47.79111" lon="-2.40471">
        <ele>44.82413628689</ele>
        <time>2022-08-10T21:03:54.299Z</time>
      </trkpt>
      <trkpt lat="47.79094" lon="-2.4046">
        <ele>44.07502644952</ele>
        <time>2022-08-10T21:04:09.369Z</time>
      </trkpt>
      <trkpt lat="47.79063" lon="-2.40434">
        <ele>43.27113596387</ele>
        <time>2022-08-10T21:04:24.445Z</time>
      </trkpt>
      <trkpt lat="47.79045" lon="-2.40417">
        <ele>42.43257038798</ele>
        <time>2022-08-10T21:04:39.524Z</time>
      </trkpt>
      <trkpt lat="47.79019" lon="-2.40387">
        <ele>41.52309101381</ele>
        <time>2022-08-10T21:04:54.609Z</time>
      </trkpt>
      <trkpt lat="47.79004" lon="-2.40368">
        <ele>40.60024514994</ele>
        <time>2022-08-10T21:05:09.697Z</time>
      </trkpt>
      <trkpt lat="47.78989" lon="-2.40344">
        <ele>39.66276894166</ele>
        <time>2022-08-10T21:05:24.788Z</time>
      </trkpt>
      <trkpt lat="47.78972" lon="-2.40313">
        <ele>38.65183588491</ele>
        <time>2022-08-10T21:05:39.884Z</time>
      </trkpt>
      <trkpt lat="47.78944" lon="-2.40255">
        <ele>37.58703465061</ele>
        <time>2022-08-10T21:05:54.987Z</time>
      </trkpt>
      <trkpt lat="47.78924" lon="-2.40202">
        <ele>36.54042412659</ele>
        <time>2022-08-10T21:06:10.097Z</time>
      </trkpt>
      <trkpt lat="47.78909" lon="-2.40143">
        <ele>35.47804882124</ele>
        <time>2022-08-10T21:06:25.214Z</time>
      </trkpt>
      <trkpt lat="47.78844" lon="-2.39894">
        <ele>34.524562016</ele>
        <time>2022-08-10T21:06:40.359Z</time>
      </trkpt>
      <trkpt lat="47.78743" lon="-2.39506">
        <ele>33.09312581649</ele>
        <time>2022-08-10T21:06:55.549Z</time>
      </trkpt>
      <trkpt lat="47.7884" lon="-2.39873">
        <ele>32.2435453878</ele>
        <time>2022-08-10T21:07:10.782Z</time>
      </trkpt>
      <trkpt lat="47.78745" lon="-2.39505">
        <ele>30.80100823172</ele>
        <time>2022-08-10T21:07:26.057Z</time>
      </trkpt>
      <trkpt lat="47.78674" lon="-2.39229">
        <ele>29.61081430587</ele>
        <time>2022-08-10T21:07:41.364Z</time>
      </trkpt>
      <trkpt lat="47.78648" lon="-2.39161">
        <ele>28.48318643373</ele>
        <time>2022-08-10T21:07:56.680Z</time>
      </trkpt>
      <trkpt lat="47.78617" lon="-2.39103">
        <ele>27.49698879563</ele>
        <time>2022-08-10T21:08:12.004Z</time>
      </trkpt>
      <trkpt lat="47.78579" lon="-2.3905">
        <ele>26.42871230506</ele>
        <time>2022-08-10T21:08:27.336Z</time>
      </trkpt>
      <trkpt lat="47.78543" lon="-2.39008">
        <ele>25.47962213223</ele>
        <time>2022-08-10T21:08:42.675Z</time>
      </trkpt>
      <trkpt lat="47.78482" lon="-2.38962">
        <ele>24.5751105036</ele>
        <time>2022-08-10T21:08:58.025Z</time>
      </trkpt>
      <trkpt lat="47.78421" lon="-2.38933">
        <ele>23.74165289368</ele>
        <time>2022-08-10T21:09:13.386Z</time>
      </trkpt>
      <trkpt lat="47.78285" lon="-2.38928">
        <ele>23.09484066118</ele>
        <time>2022-08-10T21:09:28.769Z</time>
      </trkpt>
      <trkpt lat="47.78187" lon="-2.38977">
        <ele>22.75063949764</ele>
        <time>2022-08-10T21:09:44.168Z</time>
      </trkpt>
      <trkpt lat="47.78187" lon="-2.38977">
        <ele>22.59770123307</ele>
        <time>2022-08-10T21:09:59.567Z</time>
      </trkpt>
      <trkpt lat="47.78161" lon="-2.38992">
        <ele>22.62309815256</ele>
        <time>2022-08-10T21:10:14.970Z</time>
      </trkpt>
      <trkpt lat="47.78023" lon="-2.39082">
        <ele>22.84313464862</ele>
        <time>2022-08-10T21:10:30.398Z</time>
      </trkpt>
      <trkpt lat="47.77949" lon="-2.39169">
        <ele>23.47609651397</ele>
        <time>2022-08-10T21:10:45.841Z</time>
      </trkpt>
      <trkpt lat="47.77908" lon="-2.39226">
        <ele>24.19799167138</ele>
        <time>2022-08-10T21:11:01.293Z</time>
      </trkpt>
      <trkpt lat="47.77848" lon="-2.39316">
        <ele>25.1002859775</ele>
        <time>2022-08-10T21:11:16.758Z</time>
      </trkpt>
      <trkpt lat="47.77738" lon="-2.3954">
        <ele>26.04396532352</ele>
        <time>2022-08-10T21:11:32.253Z</time>
      </trkpt>
      <trkpt lat="47.77673" lon="-2.39663">
        <ele>27.06703956722</ele>
        <time>2022-08-10T21:11:47.765Z</time>
      </trkpt>
      <trkpt lat="47.77631" lon="-2.39722">
        <ele>28.17428916392</ele>
        <time>2022-08-10T21:12:03.286Z</time>
      </trkpt>
      <trkpt lat="47.77553" lon="-2.39784">
        <ele>29.38956320281</ele>
        <time>2022-08-10T21:12:18.822Z</time>
      </trkpt>
      <trkpt lat="47.77496" lon="-2.39809">
        <ele>30.57276828961</ele>
        <time>2022-08-10T21:12:34.367Z</time>
      </trkpt>
      <trkpt lat="47.77451" lon="-2.39821">
        <ele>31.82250098536</ele>
        <time>2022-08-10T21:12:49.919Z</time>
      </trkpt>
      <trkpt lat="47.77423" lon="-2.39818">
        <ele>33.14683637589</ele>
        <time>2022-08-10T21:13:05.476Z</time>
      </trkpt>
      <trkpt lat="47.77423" lon="-2.39818">
        <ele>34.50792210661</ele>
        <time>2022-08-10T21:13:21.033Z</time>
      </trkpt>
      <trkpt lat="47.77393" lon="-2.39821">
        <ele>35.90166754125</ele>
        <time>2022-08-10T21:13:36.595Z</time>
      </trkpt>
      <trkpt lat="47.77334" lon="-2.39808">
        <ele>37.4285331028</ele>
        <time>2022-08-10T21:13:52.166Z</time>
      </trkpt>
      <trkpt lat="47.77263" lon="-2.39771">
        <ele>38.81522926996</ele>
        <time>2022-08-10T21:14:07.749Z</time>
      </trkpt>
      <trkpt lat="47.77222" lon="-2.39734">
        <ele>40.25440012583</ele>
        <time>2022-08-10T21:14:23.340Z</time>
      </trkpt>
      <trkpt lat="47.77183" lon="-2.39691">
        <ele>41.85849371927</ele>
        <time>2022-08-10T21:14:38.939Z</time>
      </trkpt>
      <trkpt lat="47.77131" lon="-2.39618">
        <ele>43.21047485636</ele>
        <time>2022-08-10T21:14:54.549Z</time>
      </trkpt>
      <trkpt lat="47.77131" lon="-2.39618">
        <ele>44.50498569714</ele>
        <time>2022-08-10T21:15:10.159Z</time>
      </trkpt>
      <trkpt lat="47.77041" lon="-2.39506">
        <ele>46.02405464155</ele>
        <time>2022-08-10T21:15:25.788Z</time>
      </trkpt>
      <trkpt lat="47.76927" lon="-2.39452">
        <ele>46.91101096827</ele>
        <time>2022-08-10T21:15:41.436Z</time>
      </trkpt>
      <trkpt lat="47.76798" lon="-2.39452">
        <ele>48.3735627136</ele>
        <time>2022-08-10T21:15:57.105Z</time>
      </trkpt>
      <trkpt lat="47.76715" lon="-2.39489">
        <ele>49.39109858839</ele>
        <time>2022-08-10T21:16:12.788Z</time>
      </trkpt>
      <trkpt lat="47.76688" lon="-2.39509">
        <ele>50.19138299237</ele>
        <time>2022-08-10T21:16:28.476Z</time>
      </trkpt>
      <trkpt lat="47.76667" lon="-2.39531">
        <ele>50.8726450504</ele>
        <time>2022-08-10T21:16:44.168Z</time>
      </trkpt>
      <trkpt lat="47.76667" lon="-2.39531">
        <ele>51.5674085265</ele>
        <time>2022-08-10T21:16:59.860Z</time>
      </trkpt>
      <trkpt lat="47.76658" lon="-2.3954">
        <ele>52.1477142147</ele>
        <time>2022-08-10T21:17:15.553Z</time>
      </trkpt>
      <trkpt lat="47.76551" lon="-2.39665">
        <ele>52.92283507354</ele>
        <time>2022-08-10T21:17:31.268Z</time>
      </trkpt>
      <trkpt lat="47.76549" lon="-2.39667">
        <ele>53.46131943748</ele>
        <time>2022-08-10T21:17:46.984Z</time>
      </trkpt>
      <trkpt lat="47.76512" lon="-2.39705">
        <ele>54.10991810592</ele>
        <time>2022-08-10T21:18:02.707Z</time>
      </trkpt>
      <trkpt lat="47.76455" lon="-2.39745">
        <ele>54.52933153829</ele>
        <time>2022-08-10T21:18:18.440Z</time>
      </trkpt>
      <trkpt lat="47.76151" lon="-2.39888">
        <ele>54.98297985129</ele>
        <time>2022-08-10T21:18:34.224Z</time>
      </trkpt>
      <trkpt lat="47.76142" lon="-2.39889">
        <ele>55.51958771962</ele>
        <time>2022-08-10T21:18:50.009Z</time>
      </trkpt>
      <trkpt lat="47.76142" lon="-2.39889">
        <ele>56.12709474799</ele>
        <time>2022-08-10T21:19:05.794Z</time>
      </trkpt>
      <trkpt lat="47.76134" lon="-2.39889">
        <ele>56.81318889851</ele>
        <time>2022-08-10T21:19:21.581Z</time>
      </trkpt>
      <trkpt lat="47.76071" lon="-2.3991">
        <ele>57.50964975814</ele>
        <time>2022-08-10T21:19:37.378Z</time>
      </trkpt>
      <trkpt lat="47.75991" lon="-2.39948">
        <ele>58.49989497159</ele>
        <time>2022-08-10T21:19:53.189Z</time>
      </trkpt>
      <trkpt lat="47.75934" lon="-2.3999">
        <ele>59.53168934363</ele>
        <time>2022-08-10T21:20:09.010Z</time>
      </trkpt>
      <trkpt lat="47.75886" lon="-2.40019">
        <ele>60.81321968457</ele>
        <time>2022-08-10T21:20:24.839Z</time>
      </trkpt>
      <trkpt lat="47.75749" lon="-2.40072">
        <ele>62.31416727007</ele>
        <time>2022-08-10T21:20:40.691Z</time>
      </trkpt>
      <trkpt lat="47.75641" lon="-2.40088">
        <ele>63.816302139</ele>
        <time>2022-08-10T21:20:56.560Z</time>
      </trkpt>
      <trkpt lat="47.75425" lon="-2.4009">
        <ele>65.74489445365</ele>
        <time>2022-08-10T21:21:12.464Z</time>
      </trkpt>
      <trkpt lat="47.75395" lon="-2.40096">
        <ele>67.60118291096</ele>
        <time>2022-08-10T21:21:28.372Z</time>
      </trkpt>
      <trkpt lat="47.75395" lon="-2.40096">
        <ele>69.52802608405</ele>
        <time>2022-08-10T21:21:44.280Z</time>
      </trkpt>
      <trkpt lat="47.75263" lon="-2.40126">
        <ele>71.46036085925</ele>
        <time>2022-08-10T21:22:00.210Z</time>
      </trkpt>
      <trkpt lat="47.7512" lon="-2.40203">
        <ele>73.71986777404</ele>
        <time>2022-08-10T21:22:16.164Z</time>
      </trkpt>
      <trkpt lat="47.74463" lon="-2.40701">
        <ele>75.89499954701</ele>
        <time>2022-08-10T21:22:32.236Z</time>
      </trkpt>
      <trkpt lat="47.74446" lon="-2.40712">
        <ele>77.84400597187</ele>
        <time>2022-08-10T21:22:48.311Z</time>
      </trkpt>
      <trkpt lat="47.73891" lon="-2.41132">
        <ele>79.93823675179</ele>
        <time>2022-08-10T21:23:04.486Z</time>
      </trkpt>
      <trkpt lat="47.73891" lon="-2.41132">
        <ele>81.4709307075</ele>
        <time>2022-08-10T21:23:20.661Z</time>
      </trkpt>
      <trkpt lat="47.73818" lon="-2.41187">
        <ele>82.91248182222</ele>
        <time>2022-08-10T21:23:36.849Z</time>
      </trkpt>
      <trkpt lat="47.73716" lon="-2.41271">
        <ele>83.8876176864</ele>
        <time>2022-08-10T21:23:53.056Z</time>
      </trkpt>
      <trkpt lat="47.73625" lon="-2.41359">
        <ele>84.5235625689</ele>
        <time>2022-08-10T21:24:09.280Z</time>
      </trkpt>
      <trkpt lat="47.73575" lon="-2.41411">
        <ele>84.71700165478</ele>
        <time>2022-08-10T21:24:25.514Z</time>
      </trkpt>
      <trkpt lat="47.73533" lon="-2.41459">
        <ele>84.66290474784</ele>
        <time>2022-08-10T21:24:41.757Z</time>
      </trkpt>
      <trkpt lat="47.73318" lon="-2.41713">
        <ele>84.19300254614</ele>
        <time>2022-08-10T21:24:58.044Z</time>
      </trkpt>
      <trkpt lat="47.73269" lon="-2.41767">
        <ele>83.31883840927</ele>
        <time>2022-08-10T21:25:14.340Z</time>
      </trkpt>
      <trkpt lat="47.73218" lon="-2.41817">
        <ele>82.08714333182</ele>
        <time>2022-08-10T21:25:30.646Z</time>
      </trkpt>
      <trkpt lat="47.7314" lon="-2.41886">
        <ele>80.4512065302</ele>
        <time>2022-08-10T21:25:46.967Z</time>
      </trkpt>
      <trkpt lat="47.73027" lon="-2.41957">
        <ele>78.72308458367</ele>
        <time>2022-08-10T21:26:03.307Z</time>
      </trkpt>
      <trkpt lat="47.72975" lon="-2.41978">
        <ele>76.54287216404</ele>
        <time>2022-08-10T21:26:19.656Z</time>
      </trkpt>
      <trkpt lat="47.72858" lon="-2.42014">
        <ele>74.16850359917</ele>
        <time>2022-08-10T21:26:36.024Z</time>
      </trkpt>
      <trkpt lat="47.7268" lon="-2.42054">
        <ele>71.39068238831</ele>
        <time>2022-08-10T21:26:52.421Z</time>
      </trkpt>
      <trkpt lat="47.72511" lon="-2.42095">
        <ele>68.61155997473</ele>
        <time>2022-08-10T21:27:08.845Z</time>
      </trkpt>
      <trkpt lat="47.72357" lon="-2.4215">
        <ele>65.66712007085</ele>
        <time>2022-08-10T21:27:25.295Z</time>
      </trkpt>
      <trkpt lat="47.72214" lon="-2.42207">
        <ele>62.68090095566</ele>
        <time>2022-08-10T21:27:41.768Z</time>
      </trkpt>
      <trkpt lat="47.72214" lon="-2.42207">
        <ele>59.93988606713</ele>
        <time>2022-08-10T21:27:58.241Z</time>
      </trkpt>
      <trkpt lat="47.72199" lon="-2.42212">
        <ele>57.28271297228</ele>
        <time>2022-08-10T21:28:14.717Z</time>
      </trkpt>
      <trkpt lat="47.72184" lon="-2.42217">
        <ele>54.77753023628</ele>
        <time>2022-08-10T21:28:31.195Z</time>
      </trkpt>
      <trkpt lat="47.72111" lon="-2.42244">
        <ele>52.47134941735</ele>
        <time>2022-08-10T21:28:47.685Z</time>
      </trkpt>
      <trkpt lat="47.72038" lon="-2.42254">
        <ele>50.18364110036</ele>
        <time>2022-08-10T21:29:04.187Z</time>
      </trkpt>
      <trkpt lat="47.71902" lon="-2.42257">
        <ele>48.02382858195</ele>
        <time>2022-08-10T21:29:20.711Z</time>
      </trkpt>
      <trkpt lat="47.71876" lon="-2.42257">
        <ele>46.39320577723</ele>
        <time>2022-08-10T21:29:37.239Z</time>
      </trkpt>
      <trkpt lat="47.71871" lon="-2.42257">
        <ele>45.14638722438</ele>
        <time>2022-08-10T21:29:53.768Z</time>
      </trkpt>
      <trkpt lat="47.71779" lon="-2.42262">
        <ele>44.1078191993</ele>
        <time>2022-08-10T21:30:10.312Z</time>
      </trkpt>
      <trkpt lat="47.7159" lon="-2.42272">
        <ele>43.60421869536</ele>
        <time>2022-08-10T21:30:26.886Z</time>
      </trkpt>
      <trkpt lat="47.71481" lon="-2.4227">
        <ele>43.54737872319</ele>
        <time>2022-08-10T21:30:43.477Z</time>
      </trkpt>
      <trkpt lat="47.7141" lon="-2.42256">
        <ele>43.93163481788</ele>
        <time>2022-08-10T21:31:00.080Z</time>
      </trkpt>
      <trkpt lat="47.71322" lon="-2.42237">
        <ele>44.542441169</ele>
        <time>2022-08-10T21:31:16.697Z</time>
      </trkpt>
      <trkpt lat="47.71179" lon="-2.42185">
        <ele>45.54283458352</ele>
        <time>2022-08-10T21:31:33.338Z</time>
      </trkpt>
      <trkpt lat="47.71098" lon="-2.42146">
        <ele>46.70892000137</ele>
        <time>2022-08-10T21:31:49.992Z</time>
      </trkpt>
      <trkpt lat="47.71098" lon="-2.42146">
        <ele>48.09242361319</ele>
        <time>2022-08-10T21:32:06.646Z</time>
      </trkpt>
      <trkpt lat="47.70893" lon="-2.42031">
        <ele>49.87490536908</ele>
        <time>2022-08-10T21:32:23.335Z</time>
      </trkpt>
      <trkpt lat="47.70893" lon="-2.42031">
        <ele>51.62559144686</ele>
        <time>2022-08-10T21:32:40.024Z</time>
      </trkpt>
      <trkpt lat="47.70877" lon="-2.42021">
        <ele>53.53748437495</ele>
        <time>2022-08-10T21:32:56.716Z</time>
      </trkpt>
      <trkpt lat="47.70795" lon="-2.41973">
        <ele>55.71459151938</ele>
        <time>2022-08-10T21:33:13.422Z</time>
      </trkpt>
      <trkpt lat="47.70764" lon="-2.41959">
        <ele>57.74278407062</ele>
        <time>2022-08-10T21:33:30.133Z</time>
      </trkpt>
      <trkpt lat="47.70712" lon="-2.41941">
        <ele>59.80588149353</ele>
        <time>2022-08-10T21:33:46.853Z</time>
      </trkpt>
      <trkpt lat="47.70651" lon="-2.41934">
        <ele>61.82730605751</ele>
        <time>2022-08-10T21:34:03.583Z</time>
      </trkpt>
      <trkpt lat="47.7061" lon="-2.41944">
        <ele>63.70360430496</ele>
        <time>2022-08-10T21:34:20.319Z</time>
      </trkpt>
      <trkpt lat="47.70545" lon="-2.41964">
        <ele>65.55241186655</ele>
        <time>2022-08-10T21:34:37.066Z</time>
      </trkpt>
      <trkpt lat="47.70491" lon="-2.42002">
        <ele>67.3892712105</ele>
        <time>2022-08-10T21:34:53.823Z</time>
      </trkpt>
      <trkpt lat="47.70472" lon="-2.4202">
        <ele>69.04364542929</ele>
        <time>2022-08-10T21:35:10.583Z</time>
      </trkpt>
      <trkpt lat="47.70443" lon="-2.4205">
        <ele>70.54635682426</ele>
        <time>2022-08-10T21:35:27.349Z</time>
      </trkpt>
      <trkpt lat="47.70415" lon="-2.42087">
        <ele>72.10560634057</ele>
        <time>2022-08-10T21:35:44.121Z</time>
      </trkpt>
      <trkpt lat="47.70415" lon="-2.42087">
        <ele>73.33828909524</ele>
        <time>2022-08-10T21:36:00.893Z</time>
      </trkpt>
      <trkpt lat="47.70386" lon="-2.42129">
        <ele>74.69435802857</ele>
        <time>2022-08-10T21:36:17.671Z</time>
      </trkpt>
      <trkpt lat="47.70362" lon="-2.42172">
        <ele>75.71360754528</ele>
        <time>2022-08-10T21:36:34.455Z</time>
      </trkpt>
      <trkpt lat="47.70336" lon="-2.42246">
        <ele>76.34059144764</ele>
        <time>2022-08-10T21:36:51.248Z</time>
      </trkpt>
      <trkpt lat="47.70319" lon="-2.42321">
        <ele>76.81900788412</ele>
        <time>2022-08-10T21:37:08.050Z</time>
      </trkpt>
      <trkpt lat="47.70303" lon="-2.42413">
        <ele>77.13037041631</ele>
        <time>2022-08-10T21:37:24.862Z</time>
      </trkpt>
      <trkpt lat="47.70303" lon="-2.42413">
        <ele>77.44586810593</ele>
        <time>2022-08-10T21:37:41.674Z</time>
      </trkpt>
      <trkpt lat="47.70301" lon="-2.4245">
        <ele>77.62750713971</ele>
        <time>2022-08-10T21:37:58.490Z</time>
      </trkpt>
      <trkpt lat="47.70302" lon="-2.42546">
        <ele>77.70516672748</ele>
        <time>2022-08-10T21:38:15.317Z</time>
      </trkpt>
      <trkpt lat="47.70315" lon="-2.43011">
        <ele>78.02925124216</ele>
        <time>2022-08-10T21:38:32.194Z</time>
      </trkpt>
      <trkpt lat="47.70315" lon="-2.43036">
        <ele>78.01405359819</ele>
        <time>2022-08-10T21:38:49.074Z</time>
      </trkpt>
      <trkpt lat="47.70314" lon="-2.43051">
        <ele>78.00390711722</ele>
        <time>2022-08-10T21:39:05.955Z</time>
      </trkpt>
      <trkpt lat="47.70311" lon="-2.43089">
        <ele>78.0717822728</ele>
        <time>2022-08-10T21:39:22.840Z</time>
      </trkpt>
      <trkpt lat="47.70306" lon="-2.43129">
        <ele>78.17603273026</ele>
        <time>2022-08-10T21:39:39.730Z</time>
      </trkpt>
      <trkpt lat="47.70296" lon="-2.43178">
        <ele>78.27352272285</ele>
        <time>2022-08-10T21:39:56.625Z</time>
      </trkpt>
      <trkpt lat="47.70296" lon="-2.43178">
        <ele>78.38643392102</ele>
        <time>2022-08-10T21:40:13.520Z</time>
      </trkpt>
      <trkpt lat="47.70281" lon="-2.43231">
        <ele>78.51917274671</ele>
        <time>2022-08-10T21:40:30.422Z</time>
      </trkpt>
      <trkpt lat="47.70259" lon="-2.43294">
        <ele>78.66296291245</ele>
        <time>2022-08-10T21:40:47.331Z</time>
      </trkpt>
      <trkpt lat="47.70226" lon="-2.43357">
        <ele>79.04751370112</ele>
        <time>2022-08-10T21:41:04.249Z</time>
      </trkpt>
      <trkpt lat="47.70194" lon="-2.43406">
        <ele>79.50001005676</ele>
        <time>2022-08-10T21:41:21.174Z</time>
      </trkpt>
      <trkpt lat="47.70154" lon="-2.4345">
        <ele>80.01602750657</ele>
        <time>2022-08-10T21:41:38.107Z</time>
      </trkpt>
      <trkpt lat="47.70104" lon="-2.43492">
        <ele>80.7029762332</ele>
        <time>2022-08-10T21:41:55.049Z</time>
      </trkpt>
      <trkpt lat="47.70074" lon="-2.43511">
        <ele>81.41063231818</ele>
        <time>2022-08-10T21:42:11.997Z</time>
      </trkpt>
      <trkpt lat="47.70053" lon="-2.43521">
        <ele>82.1663532903</ele>
        <time>2022-08-10T21:42:28.948Z</time>
      </trkpt>
      <trkpt lat="47.70006" lon="-2.43536">
        <ele>82.96979629532</ele>
        <time>2022-08-10T21:42:45.907Z</time>
      </trkpt>
      <trkpt lat="47.69984" lon="-2.4354">
        <ele>83.83778943362</ele>
        <time>2022-08-10T21:43:02.869Z</time>
      </trkpt>
      <trkpt lat="47.69953" lon="-2.43542">
        <ele>84.8044165806</ele>
        <time>2022-08-10T21:43:19.836Z</time>
      </trkpt>
      <trkpt lat="47.69927" lon="-2.43541">
        <ele>85.84830647083</ele>
        <time>2022-08-10T21:43:36.808Z</time>
      </trkpt>
      <trkpt lat="47.69821" lon="-2.43524">
        <ele>87.02900644385</ele>
        <time>2022-08-10T21:43:53.796Z</time>
      </trkpt>
      <trkpt lat="47.69621" lon="-2.43491">
        <ele>88.3897626134</ele>
        <time>2022-08-10T21:44:10.817Z</time>
      </trkpt>
      <trkpt lat="47.69576" lon="-2.4349">
        <ele>89.42797359748</ele>
        <time>2022-08-10T21:44:27.845Z</time>
      </trkpt>
      <trkpt lat="47.6952" lon="-2.43491">
        <ele>90.5612068751</ele>
        <time>2022-08-10T21:44:44.882Z</time>
      </trkpt>
      <trkpt lat="47.69427" lon="-2.4351">
        <ele>91.93648634402</ele>
        <time>2022-08-10T21:45:01.934Z</time>
      </trkpt>
      <trkpt lat="47.69385" lon="-2.43525">
        <ele>92.96532192189</ele>
        <time>2022-08-10T21:45:18.993Z</time>
      </trkpt>
      <trkpt lat="47.69367" lon="-2.43534">
        <ele>94.0316875346</ele>
        <time>2022-08-10T21:45:36.055Z</time>
      </trkpt>
      <trkpt lat="47.6935" lon="-2.43542">
        <ele>95.11054802548</ele>
        <time>2022-08-10T21:45:53.120Z</time>
      </trkpt>
      <trkpt lat="47.69265" lon="-2.43593">
        <ele>96.09340616123</ele>
        <time>2022-08-10T21:46:10.199Z</time>
      </trkpt>
      <trkpt lat="47.69227" lon="-2.4362">
        <ele>97.04593881721</ele>
        <time>2022-08-10T21:46:27.285Z</time>
      </trkpt>
      <trkpt lat="47.69094" lon="-2.43731">
        <ele>97.73451065878</ele>
        <time>2022-08-10T21:46:44.396Z</time>
      </trkpt>
      <trkpt lat="47.69094" lon="-2.43732">
        <ele>98.64273624642</ele>
        <time>2022-08-10T21:47:01.507Z</time>
      </trkpt>
      <trkpt lat="47.69094" lon="-2.43731">
        <ele>99.52634932955</ele>
        <time>2022-08-10T21:47:18.618Z</time>
      </trkpt>
      <trkpt lat="47.69094" lon="-2.43731">
        <ele>100.38177357189</ele>
        <time>2022-08-10T21:47:35.729Z</time>
      </trkpt>
      <trkpt lat="47.68928" lon="-2.43871">
        <ele>101.52850900208</ele>
        <time>2022-08-10T21:47:52.870Z</time>
      </trkpt>
      <trkpt lat="47.68762" lon="-2.44013">
        <ele>102.51149293125</ele>
        <time>2022-08-10T21:48:10.042Z</time>
      </trkpt>
      <trkpt lat="47.68716" lon="-2.44052">
        <ele>103.16488348788</ele>
        <time>2022-08-10T21:48:27.223Z</time>
      </trkpt>
      <trkpt lat="47.6871" lon="-2.44058">
        <ele>103.75196720351</ele>
        <time>2022-08-10T21:48:44.405Z</time>
      </trkpt>
      <trkpt lat="47.68716" lon="-2.44074">
        <ele>104.31141682648</ele>
        <time>2022-08-10T21:49:01.589Z</time>
      </trkpt>
      <trkpt lat="47.68725" lon="-2.44093">
        <ele>104.74436544356</ele>
        <time>2022-08-10T21:49:18.775Z</time>
      </trkpt>
      <trkpt lat="47.68737" lon="-2.44101">
        <ele>105.01972034988</ele>
        <time>2022-08-10T21:49:35.963Z</time>
      </trkpt>
      <trkpt lat="47.68751" lon="-2.44111">
        <ele>105.12242215835</ele>
        <time>2022-08-10T21:49:53.154Z</time>
      </trkpt>
      <trkpt lat="47.6877" lon="-2.44128">
        <ele>105.08415857145</ele>
        <time>2022-08-10T21:50:10.348Z</time>
      </trkpt>
      <trkpt lat="47.68787" lon="-2.44149">
        <ele>104.90940637375</ele>
        <time>2022-08-10T21:50:27.546Z</time>
      </trkpt>
      <trkpt lat="47.68798" lon="-2.44165">
        <ele>104.67207601511</ele>
        <time>2022-08-10T21:50:44.746Z</time>
      </trkpt>
      <trkpt lat="47.68801" lon="-2.44174">
        <ele>104.404076956</ele>
        <time>2022-08-10T21:51:01.947Z</time>
      </trkpt>
      <trkpt lat="47.68802" lon="-2.44184">
        <ele>104.1002486456</ele>
        <time>2022-08-10T21:51:19.150Z</time>
      </trkpt>
      <trkpt lat="47.68806" lon="-2.4421">
        <ele>103.73582219758</ele>
        <time>2022-08-10T21:51:36.355Z</time>
      </trkpt>
      <trkpt lat="47.6881" lon="-2.44243">
        <ele>103.33864976269</ele>
        <time>2022-08-10T21:51:53.564Z</time>
      </trkpt>
      <trkpt lat="47.68816" lon="-2.44272">
        <ele>102.94471198427</ele>
        <time>2022-08-10T21:52:10.776Z</time>
      </trkpt>
      <trkpt lat="47.6883" lon="-2.44309">
        <ele>102.54605764106</ele>
        <time>2022-08-10T21:52:27.993Z</time>
      </trkpt>
      <trkpt lat="47.68839" lon="-2.44332">
        <ele>102.16419531167</ele>
        <time>2022-08-10T21:52:45.213Z</time>
      </trkpt>
      <trkpt lat="47.68851" lon="-2.44363">
        <ele>101.79667138259</ele>
        <time>2022-08-10T21:53:02.437Z</time>
      </trkpt>
      <trkpt lat="47.68867" lon="-2.44403">
        <ele>101.44898635474</ele>
        <time>2022-08-10T21:53:19.666Z</time>
      </trkpt>
      <trkpt lat="47.68871" lon="-2.44425">
        <ele>101.18218249369</ele>
        <time>2022-08-10T21:53:36.897Z</time>
      </trkpt>
      <trkpt lat="47.68859" lon="-2.44436">
        <ele>100.93414538274</ele>
        <time>2022-08-10T21:53:54.130Z</time>
      </trkpt>
      <trkpt lat="47.68779" lon="-2.44507">
        <ele>100.74979972925</ele>
        <time>2022-08-10T21:54:11.378Z</time>
      </trkpt>
      <trkpt lat="47.68724" lon="-2.44554">
        <ele>100.54933317754</ele>
        <time>2022-08-10T21:54:28.636Z</time>
      </trkpt>
      <trkpt lat="47.68693" lon="-2.4459">
        <ele>100.32711450867</ele>
        <time>2022-08-10T21:54:45.901Z</time>
      </trkpt>
      <trkpt lat="47.6864" lon="-2.44637">
        <ele>100.19374833239</ele>
        <time>2022-08-10T21:55:03.176Z</time>
      </trkpt>
      <trkpt lat="47.68577" lon="-2.44707">
        <ele>99.94621607593</ele>
        <time>2022-08-10T21:55:20.463Z</time>
      </trkpt>
      <trkpt lat="47.68552" lon="-2.4473">
        <ele>99.7767019548</ele>
        <time>2022-08-10T21:55:37.755Z</time>
      </trkpt>
      <trkpt lat="47.68545" lon="-2.44735">
        <ele>99.61650116606</ele>
        <time>2022-08-10T21:55:55.048Z</time>
      </trkpt>
      <trkpt lat="47.68559" lon="-2.44727">
        <ele>99.46505234094</ele>
        <time>2022-08-10T21:56:12.344Z</time>
      </trkpt>
      <trkpt lat="47.68558" lon="-2.44725">
        <ele>99.32243236415</ele>
        <time>2022-08-10T21:56:29.640Z</time>
      </trkpt>
      <trkpt lat="47.68522" lon="-2.44752">
        <ele>99.17030498857</ele>
        <time>2022-08-10T21:56:46.942Z</time>
      </trkpt>
      <trkpt lat="47.68496" lon="-2.44774">
        <ele>98.98499055051</ele>
        <time>2022-08-10T21:57:04.249Z</time>
      </trkpt>
      <trkpt lat="47.68489" lon="-2.44782">
        <ele>98.86607648048</ele>
        <time>2022-08-10T21:57:21.557Z</time>
      </trkpt>
      <trkpt lat="47.68488" lon="-2.44788">
        <ele>98.77575432579</ele>
        <time>2022-08-10T21:57:38.866Z</time>
      </trkpt>
      <trkpt lat="47.68478" lon="-2.44806">
        <ele>98.69582985958</ele>
        <time>2022-08-10T21:57:56.178Z</time>
      </trkpt>
      <trkpt lat="47.68479" lon="-2.44809">
        <ele>98.65242757336</ele>
        <time>2022-08-10T21:58:13.490Z</time>
      </trkpt>
      <trkpt lat="47.6848" lon="-2.44813">
        <ele>98.63025208557</ele>
        <time>2022-08-10T21:58:30.802Z</time>
      </trkpt>
      <trkpt lat="47.68481" lon="-2.44821">
        <ele>98.63246858644</ele>
        <time>2022-08-10T21:58:48.115Z</time>
      </trkpt>
      <trkpt lat="47.68479" lon="-2.44829">
        <ele>98.64433106693</ele>
        <time>2022-08-10T21:59:05.429Z</time>
      </trkpt>
      <trkpt lat="47.68473" lon="-2.4484">
        <ele>98.6771283093</ele>
        <time>2022-08-10T21:59:22.745Z</time>
      </trkpt>
      <trkpt lat="47.68464" lon="-2.44844">
        <ele>98.71918479354</ele>
        <time>2022-08-10T21:59:40.062Z</time>
      </trkpt>
      <trkpt lat="47.6846" lon="-2.44843">
        <ele>98.7670436396</ele>
        <time>2022-08-10T21:59:57.380Z</time>
      </trkpt>
      <trkpt lat="47.68454" lon="-2.4484">
        <ele>98.82323869971</ele>
        <time>2022-08-10T22:00:14.699Z</time>
      </trkpt>
      <trkpt lat="47.68447" lon="-2.44828">
        <ele>98.88582985968</ele>
        <time>2022-08-10T22:00:32.020Z</time>
      </trkpt>
      <trkpt lat="47.68446" lon="-2.4482">
        <ele>98.96581053272</ele>
        <time>2022-08-10T22:00:49.342Z</time>
      </trkpt>
      <trkpt lat="47.68446" lon="-2.44816">
        <ele>99.05191963462</ele>
        <time>2022-08-10T22:01:06.664Z</time>
      </trkpt>
      <trkpt lat="47.68446" lon="-2.44815">
        <ele>99.14415488443</ele>
        <time>2022-08-10T22:01:23.986Z</time>
      </trkpt>
      <trkpt lat="47.68431" lon="-2.44806">
        <ele>99.23886753834</ele>
        <time>2022-08-10T22:01:41.311Z</time>
      </trkpt>
      <trkpt lat="47.68396" lon="-2.44817">
        <ele>99.35368303039</ele>
        <time>2022-08-10T22:01:58.641Z</time>
      </trkpt>
      <trkpt lat="47.68344" lon="-2.44838">
        <ele>99.41658039323</ele>
        <time>2022-08-10T22:02:15.980Z</time>
      </trkpt>
      <trkpt lat="47.68314" lon="-2.44851">
        <ele>99.52835332149</ele>
        <time>2022-08-10T22:02:33.324Z</time>
      </trkpt>
      <trkpt lat="47.68296" lon="-2.44859">
        <ele>99.63846347302</ele>
        <time>2022-08-10T22:02:50.671Z</time>
      </trkpt>
      <trkpt lat="47.68278" lon="-2.44867">
        <ele>99.73425580277</ele>
        <time>2022-08-10T22:03:08.021Z</time>
      </trkpt>
      <trkpt lat="47.68265" lon="-2.44879">
        <ele>99.82125245159</ele>
        <time>2022-08-10T22:03:25.374Z</time>
      </trkpt>
      <trkpt lat="47.68259" lon="-2.44889">
        <ele>99.89710029897</ele>
        <time>2022-08-10T22:03:42.728Z</time>
      </trkpt>
      <trkpt lat="47.68259" lon="-2.44894">
        <ele>99.95829170727</ele>
        <time>2022-08-10T22:04:00.083Z</time>
      </trkpt>
      <trkpt lat="47.68256" lon="-2.44899">
        <ele>100.00109962298</ele>
        <time>2022-08-10T22:04:17.438Z</time>
      </trkpt>
      <trkpt lat="47.68249" lon="-2.44902">
        <ele>100.02969877387</ele>
        <time>2022-08-10T22:04:34.794Z</time>
      </trkpt>
      <trkpt lat="47.68242" lon="-2.449">
        <ele>100.03238037933</ele>
        <time>2022-08-10T22:04:52.152Z</time>
      </trkpt>
      <trkpt lat="47.68238" lon="-2.44898">
        <ele>99.99320838131</ele>
        <time>2022-08-10T22:05:09.510Z</time>
      </trkpt>
      <trkpt lat="47.68237" lon="-2.44896">
        <ele>99.91975611841</ele>
        <time>2022-08-10T22:05:26.869Z</time>
      </trkpt>
      <trkpt lat="47.68229" lon="-2.44892">
        <ele>99.80612520054</ele>
        <time>2022-08-10T22:05:44.229Z</time>
      </trkpt>
      <trkpt lat="47.68202" lon="-2.44887">
        <ele>99.65090998887</ele>
        <time>2022-08-10T22:06:01.593Z</time>
      </trkpt>
      <trkpt lat="47.68193" lon="-2.44889">
        <ele>99.46917637966</ele>
        <time>2022-08-10T22:06:18.959Z</time>
      </trkpt>
      <trkpt lat="47.68172" lon="-2.44898">
        <ele>99.26176856725</ele>
        <time>2022-08-10T22:06:36.328Z</time>
      </trkpt>
      <trkpt lat="47.6809" lon="-2.4493">
        <ele>99.01789997243</ele>
        <time>2022-08-10T22:06:53.711Z</time>
      </trkpt>
      <trkpt lat="47.68053" lon="-2.44943">
        <ele>98.60630166441</ele>
        <time>2022-08-10T22:07:11.100Z</time>
      </trkpt>
      <trkpt lat="47.68028" lon="-2.44948">
        <ele>98.20266834499</ele>
        <time>2022-08-10T22:07:28.493Z</time>
      </trkpt>
      <trkpt lat="47.67981" lon="-2.44955">
        <ele>97.69471555185</ele>
        <time>2022-08-10T22:07:45.893Z</time>
      </trkpt>
      <trkpt lat="47.67977" lon="-2.44958">
        <ele>97.2491697818</ele>
        <time>2022-08-10T22:08:03.294Z</time>
      </trkpt>
      <trkpt lat="47.6793" lon="-2.44969">
        <ele>96.74508694886</ele>
        <time>2022-08-10T22:08:20.703Z</time>
      </trkpt>
      <trkpt lat="47.6793" lon="-2.4497">
        <ele>96.25439081164</ele>
        <time>2022-08-10T22:08:38.112Z</time>
      </trkpt>
      <trkpt lat="47.67929" lon="-2.44974">
        <ele>95.73860269851</ele>
        <time>2022-08-10T22:08:55.521Z</time>
      </trkpt>
      <trkpt lat="47.67924" lon="-2.44978">
        <ele>95.202246865</ele>
        <time>2022-08-10T22:09:12.931Z</time>
      </trkpt>
      <trkpt lat="47.6792" lon="-2.44978">
        <ele>94.65251707496</ele>
        <time>2022-08-10T22:09:30.342Z</time>
      </trkpt>
      <trkpt lat="47.67918" lon="-2.44976">
        <ele>94.08699197959</ele>
        <time>2022-08-10T22:09:47.753Z</time>
      </trkpt>
      <trkpt lat="47.67917" lon="-2.44975">
        <ele>93.50169889979</ele>
        <time>2022-08-10T22:10:05.164Z</time>
      </trkpt>
      <trkpt lat="47.67916" lon="-2.44975">
        <ele>92.89689062966</ele>
        <time>2022-08-10T22:10:22.576Z</time>
      </trkpt>
      <trkpt lat="47.67873" lon="-2.44988">
        <ele>92.28523488525</ele>
        <time>2022-08-10T22:10:39.995Z</time>
      </trkpt>
      <trkpt lat="47.67868" lon="-2.44988">
        <ele>91.65412754985</ele>
        <time>2022-08-10T22:10:57.414Z</time>
      </trkpt>
      <trkpt lat="47.67831" lon="-2.45">
        <ele>91.07587788977</ele>
        <time>2022-08-10T22:11:14.840Z</time>
      </trkpt>
      <trkpt lat="47.67773" lon="-2.45013">
        <ele>90.33802470996</ele>
        <time>2022-08-10T22:11:32.275Z</time>
      </trkpt>
      <trkpt lat="47.67684" lon="-2.4503">
        <ele>89.59640499638</ele>
        <time>2022-08-10T22:11:49.724Z</time>
      </trkpt>
      <trkpt lat="47.67656" lon="-2.45034">
        <ele>88.9172006988</ele>
        <time>2022-08-10T22:12:07.178Z</time>
      </trkpt>
      <trkpt lat="47.67626" lon="-2.45033">
        <ele>88.28812221241</ele>
        <time>2022-08-10T22:12:24.637Z</time>
      </trkpt>
      <trkpt lat="47.6757" lon="-2.45024">
        <ele>87.63022806702</ele>
        <time>2022-08-10T22:12:42.105Z</time>
      </trkpt>
      <trkpt lat="47.67447" lon="-2.44987">
        <ele>86.92656372671</ele>
        <time>2022-08-10T22:12:59.593Z</time>
      </trkpt>
      <trkpt lat="47.67406" lon="-2.44979">
        <ele>86.44155357969</ele>
        <time>2022-08-10T22:13:17.087Z</time>
      </trkpt>
      <trkpt lat="47.67356" lon="-2.44974">
        <ele>86.09938685596</ele>
        <time>2022-08-10T22:13:34.589Z</time>
      </trkpt>
      <trkpt lat="47.6735" lon="-2.44974">
        <ele>85.815237443</ele>
        <time>2022-08-10T22:13:52.092Z</time>
      </trkpt>
      <trkpt lat="47.67326" lon="-2.44975">
        <ele>85.65648124969</ele>
        <time>2022-08-10T22:14:09.599Z</time>
      </trkpt>
      <trkpt lat="47.67285" lon="-2.44981">
        <ele>85.61367856201</ele>
        <time>2022-08-10T22:14:27.113Z</time>
      </trkpt>
      <trkpt lat="47.6728" lon="-2.44983">
        <ele>85.61182189102</ele>
        <time>2022-08-10T22:14:44.628Z</time>
      </trkpt>
      <trkpt lat="47.67279" lon="-2.44985">
        <ele>85.69374953986</ele>
        <time>2022-08-10T22:15:02.143Z</time>
      </trkpt>
      <trkpt lat="47.67276" lon="-2.44988">
        <ele>85.8604023834</ele>
        <time>2022-08-10T22:15:19.658Z</time>
      </trkpt>
      <trkpt lat="47.67273" lon="-2.4499">
        <ele>86.1000529469</ele>
        <time>2022-08-10T22:15:37.174Z</time>
      </trkpt>
      <trkpt lat="47.67266" lon="-2.4499">
        <ele>86.40924365151</ele>
        <time>2022-08-10T22:15:54.691Z</time>
      </trkpt>
      <trkpt lat="47.67263" lon="-2.44987">
        <ele>86.76759463671</ele>
        <time>2022-08-10T22:16:12.209Z</time>
      </trkpt>
      <trkpt lat="47.67262" lon="-2.44985">
        <ele>87.17405185562</ele>
        <time>2022-08-10T22:16:29.727Z</time>
      </trkpt>
      <trkpt lat="47.67257" lon="-2.44985">
        <ele>87.62820664461</ele>
        <time>2022-08-10T22:16:47.246Z</time>
      </trkpt>
      <trkpt lat="47.67237" lon="-2.44994">
        <ele>88.11967649853</ele>
        <time>2022-08-10T22:17:04.768Z</time>
      </trkpt>
      <trkpt lat="47.67201" lon="-2.44995">
        <ele>88.65441032307</ele>
        <time>2022-08-10T22:17:22.296Z</time>
      </trkpt>
      <trkpt lat="47.67187" lon="-2.44998">
        <ele>89.17175820825</ele>
        <time>2022-08-10T22:17:39.826Z</time>
      </trkpt>
      <trkpt lat="47.67127" lon="-2.45014">
        <ele>89.7424774963</ele>
        <time>2022-08-10T22:17:57.366Z</time>
      </trkpt>
      <trkpt lat="47.67107" lon="-2.45018">
        <ele>90.2388979604</ele>
        <time>2022-08-10T22:18:14.909Z</time>
      </trkpt>
      <trkpt lat="47.67104" lon="-2.45021">
        <ele>90.68021340703</ele>
        <time>2022-08-10T22:18:32.453Z</time>
      </trkpt>
      <trkpt lat="47.671" lon="-2.45024">
        <ele>91.08148995106</ele>
        <time>2022-08-10T22:18:49.997Z</time>
      </trkpt>
      <trkpt lat="47.67078" lon="-2.45027">
        <ele>91.45849351161</ele>
        <time>2022-08-10T22:19:07.545Z</time>
      </trkpt>
      <trkpt lat="47.6704" lon="-2.45026">
        <ele>91.74919599946</ele>
        <time>2022-08-10T22:19:25.099Z</time>
      </trkpt>
      <trkpt lat="47.67039" lon="-2.45028">
        <ele>91.98567711742</ele>
        <time>2022-08-10T22:19:42.653Z</time>
      </trkpt>
      <trkpt lat="47.67038" lon="-2.4503">
        <ele>92.16536593</ele>
        <time>2022-08-10T22:20:00.208Z</time>
      </trkpt>
      <trkpt lat="47.67036" lon="-2.45032">
        <ele>92.28844188984</ele>
        <time>2022-08-10T22:20:17.763Z</time>
      </trkpt>
      <trkpt lat="47.67031" lon="-2.45032">
        <ele>92.35559701413</ele>
        <time>2022-08-10T22:20:35.319Z</time>
      </trkpt>
      <trkpt lat="47.67028" lon="-2.4503">
        <ele>92.37975258048</ele>
        <time>2022-08-10T22:20:52.875Z</time>
      </trkpt>
      <trkpt lat="47.67026" lon="-2.45028">
        <ele>92.36890942356</ele>
        <time>2022-08-10T22:21:10.432Z</time>
      </trkpt>
      <trkpt lat="47.66943" lon="-2.45016">
        <ele>92.33840769537</ele>
        <time>2022-08-10T22:21:28.002Z</time>
      </trkpt>
      <trkpt lat="47.66897" lon="-2.45013">
        <ele>92.2579582992</ele>
        <time>2022-08-10T22:21:45.579Z</time>
      </trkpt>
      <trkpt lat="47.66863" lon="-2.45009">
        <ele>92.14972488847</ele>
        <time>2022-08-10T22:22:03.162Z</time>
      </trkpt>
      <trkpt lat="47.66856" lon="-2.45009">
        <ele>92.05025475614</ele>
        <time>2022-08-10T22:22:20.746Z</time>
      </trkpt>
      <trkpt lat="47.66833" lon="-2.45018">
        <ele>91.92470699696</ele>
        <time>2022-08-10T22:22:38.334Z</time>
      </trkpt>
      <trkpt lat="47.6683" lon="-2.45022">
        <ele>91.85133800163</ele>
        <time>2022-08-10T22:22:55.922Z</time>
      </trkpt>
      <trkpt lat="47.66825" lon="-2.45025">
        <ele>91.80616001447</ele>
        <time>2022-08-10T22:23:13.511Z</time>
      </trkpt>
      <trkpt lat="47.66819" lon="-2.45024">
        <ele>91.803756845</ele>
        <time>2022-08-10T22:23:31.101Z</time>
      </trkpt>
      <trkpt lat="47.66812" lon="-2.45014">
        <ele>91.85845254569</ele>
        <time>2022-08-10T22:23:48.693Z</time>
      </trkpt>
      <trkpt lat="47.66812" lon="-2.45012">
        <ele>91.96391768472</ele>
        <time>2022-08-10T22:24:06.285Z</time>
      </trkpt>
      <trkpt lat="47.66812" lon="-2.45008">
        <ele>92.12780539243</ele>
        <time>2022-08-10T22:24:23.877Z</time>
      </trkpt>
      <trkpt lat="47.66812" lon="-2.45004">
        <ele>92.34903224442</ele>
        <time>2022-08-10T22:24:41.470Z</time>
      </trkpt>
      <trkpt lat="47.66814" lon="-2.44997">
        <ele>92.63371412672</ele>
        <time>2022-08-10T22:24:59.064Z</time>
      </trkpt>
      <trkpt lat="47.66819" lon="-2.44992">
        <ele>92.97373943045</ele>
        <time>2022-08-10T22:25:16.659Z</time>
      </trkpt>
      <trkpt lat="47.66821" lon="-2.44991">
        <ele>93.35353692816</ele>
        <time>2022-08-10T22:25:34.254Z</time>
      </trkpt>
      <trkpt lat="47.66859" lon="-2.44884">
        <ele>93.85815086541</ele>
        <time>2022-08-10T22:25:51.862Z</time>
      </trkpt>
      <trkpt lat="47.66857" lon="-2.44848">
        <ele>94.3124560746</ele>
        <time>2022-08-10T22:26:09.474Z</time>
      </trkpt>
      <trkpt lat="47.66854" lon="-2.4483">
        <ele>94.80262823271</ele>
        <time>2022-08-10T22:26:27.088Z</time>
      </trkpt>
      <trkpt lat="47.66839" lon="-2.44772">
        <ele>95.34875650473</ele>
        <time>2022-08-10T22:26:44.709Z</time>
      </trkpt>
      <trkpt lat="47.66824" lon="-2.44726">
        <ele>95.89153884668</ele>
        <time>2022-08-10T22:27:02.335Z</time>
      </trkpt>
      <trkpt lat="47.66823" lon="-2.44727">
        <ele>96.3633941128</ele>
        <time>2022-08-10T22:27:19.961Z</time>
      </trkpt>
      <trkpt lat="47.66822" lon="-2.44727">
        <ele>96.81567169813</ele>
        <time>2022-08-10T22:27:37.588Z</time>
      </trkpt>
      <trkpt lat="47.6682" lon="-2.44727">
        <ele>97.23923454024</ele>
        <time>2022-08-10T22:27:55.215Z</time>
      </trkpt>
      <trkpt lat="47.66817" lon="-2.44724">
        <ele>97.63145715478</ele>
        <time>2022-08-10T22:28:12.842Z</time>
      </trkpt>
      <trkpt lat="47.66815" lon="-2.44716">
        <ele>97.98307063462</ele>
        <time>2022-08-10T22:28:30.470Z</time>
      </trkpt>
      <trkpt lat="47.66816" lon="-2.44711">
        <ele>98.28482703173</ele>
        <time>2022-08-10T22:28:48.099Z</time>
      </trkpt>
      <trkpt lat="47.66817" lon="-2.44709">
        <ele>98.53748817312</ele>
        <time>2022-08-10T22:29:05.728Z</time>
      </trkpt>
      <trkpt lat="47.66774" lon="-2.44584">
        <ele>98.84645513156</ele>
        <time>2022-08-10T22:29:23.372Z</time>
      </trkpt>
      <trkpt lat="47.66749" lon="-2.44512">
        <ele>98.95033686899</ele>
        <time>2022-08-10T22:29:41.025Z</time>
      </trkpt>
      <trkpt lat="47.66725" lon="-2.44441">
        <ele>98.97180473398</ele>
        <time>2022-08-10T22:29:58.687Z</time>
      </trkpt>
      <trkpt lat="47.66715" lon="-2.44418">
        <ele>99.0091794984</ele>
        <time>2022-08-10T22:30:16.352Z</time>
      </trkpt>
      <trkpt lat="47.66709" lon="-2.44407">
        <ele>99.00328541424</ele>
        <time>2022-08-10T22:30:34.018Z</time>
      </trkpt>
      <trkpt lat="47.66708" lon="-2.44406">
        <ele>98.94823043589</ele>
        <time>2022-08-10T22:30:51.684Z</time>
      </trkpt>
      <trkpt lat="47.66706" lon="-2.44405">
        <ele>98.85139641016</ele>
        <time>2022-08-10T22:31:09.351Z</time>
      </trkpt>
      <trkpt lat="47.66704" lon="-2.44403">
        <ele>98.71668448497</ele>
        <time>2022-08-10T22:31:27.018Z</time>
      </trkpt>
      <trkpt lat="47.667" lon="-2.44397">
        <ele>98.54830692034</ele>
        <time>2022-08-10T22:31:44.686Z</time>
      </trkpt>
      <trkpt lat="47.66699" lon="-2.4439">
        <ele>98.35088546968</ele>
        <time>2022-08-10T22:32:02.355Z</time>
      </trkpt>
      <trkpt lat="47.667" lon="-2.44386">
        <ele>98.12945657325</ele>
        <time>2022-08-10T22:32:20.024Z</time>
      </trkpt>
      <trkpt lat="47.66701" lon="-2.44384">
        <ele>97.88970824019</ele>
        <time>2022-08-10T22:32:37.694Z</time>
      </trkpt>
      <trkpt lat="47.667" lon="-2.44378">
        <ele>97.64419087872</ele>
        <time>2022-08-10T22:32:55.364Z</time>
      </trkpt>
      <trkpt lat="47.66696" lon="-2.44357">
        <ele>97.4070893738</ele>
        <time>2022-08-10T22:33:13.037Z</time>
      </trkpt>
      <trkpt lat="47.66655" lon="-2.44233">
        <ele>97.04761274858</ele>
        <time>2022-08-10T22:33:30.725Z</time>
      </trkpt>
      <trkpt lat="47.66642" lon="-2.4419">
        <ele>96.7727896795</ele>
        <time>2022-08-10T22:33:48.418Z</time>
      </trkpt>
      <trkpt lat="47.66634" lon="-2.44176">
        <ele>96.529062144</ele>
        <time>2022-08-10T22:34:06.113Z</time>
      </trkpt>
      <trkpt lat="47.66633" lon="-2.44177">
        <ele>96.30648816262</ele>
        <time>2022-08-10T22:34:23.808Z</time>
      </trkpt>
      <trkpt lat="47.66628" lon="-2.44178">
        <ele>96.11074716455</ele>
        <time>2022-08-10T22:34:41.504Z</time>
      </trkpt>
      <trkpt lat="47.66624" lon="-2.44177">
        <ele>95.94675460993</ele>
        <time>2022-08-10T22:34:59.200Z</time>
      </trkpt>
      <trkpt lat="47.66619" lon="-2.44174">
        <ele>95.81867262992</ele>
        <time>2022-08-10T22:35:16.897Z</time>
      </trkpt>
      <trkpt lat="47.66614" lon="-2.44167">
        <ele>95.73221406065</ele>
        <time>2022-08-10T22:35:34.595Z</time>
      </trkpt>
      <trkpt lat="47.66611" lon="-2.44156">
        <ele>95.68941267479</ele>
        <time>2022-08-10T22:35:52.295Z</time>
      </trkpt>
      <trkpt lat="47.66612" lon="-2.44151">
        <ele>95.68512110374</ele>
        <time>2022-08-10T22:36:09.995Z</time>
      </trkpt>
      <trkpt lat="47.66589" lon="-2.44132">
        <ele>95.75788320596</ele>
        <time>2022-08-10T22:36:27.699Z</time>
      </trkpt>
      <trkpt lat="47.66575" lon="-2.44123">
        <ele>95.82938173564</ele>
        <time>2022-08-10T22:36:45.406Z</time>
      </trkpt>
      <trkpt lat="47.66546" lon="-2.44119">
        <ele>95.94788168231</ele>
        <time>2022-08-10T22:37:03.117Z</time>
      </trkpt>
      <trkpt lat="47.66538" lon="-2.44119">
        <ele>96.11553691692</ele>
        <time>2022-08-10T22:37:20.830Z</time>
      </trkpt>
      <trkpt lat="47.66464" lon="-2.4411">
        <ele>96.39768074556</ele>
        <time>2022-08-10T22:37:38.555Z</time>
      </trkpt>
      <trkpt lat="47.6639" lon="-2.44098">
        <ele>96.64506143154</ele>
        <time>2022-08-10T22:37:56.291Z</time>
      </trkpt>
      <trkpt lat="47.66465" lon="-2.44109">
        <ele>96.96421642576</ele>
        <time>2022-08-10T22:38:14.040Z</time>
      </trkpt>
      <trkpt lat="47.66465" lon="-2.4411">
        <ele>97.30251443123</ele>
        <time>2022-08-10T22:38:31.789Z</time>
      </trkpt>
      <trkpt lat="47.66421" lon="-2.44103">
        <ele>97.69351045286</ele>
        <time>2022-08-10T22:38:49.545Z</time>
      </trkpt>
      <trkpt lat="47.66381" lon="-2.44097">
        <ele>98.0535525834</ele>
        <time>2022-08-10T22:39:07.307Z</time>
      </trkpt>
      <trkpt lat="47.66379" lon="-2.44098">
        <ele>98.472636757</ele>
        <time>2022-08-10T22:39:25.070Z</time>
      </trkpt>
      <trkpt lat="47.66371" lon="-2.44101">
        <ele>98.90422751599</ele>
        <time>2022-08-10T22:39:42.834Z</time>
      </trkpt>
      <trkpt lat="47.66359" lon="-2.44103">
        <ele>99.33631749736</ele>
        <time>2022-08-10T22:40:00.600Z</time>
      </trkpt>
      <trkpt lat="47.66356" lon="-2.44105">
        <ele>99.78177071328</ele>
        <time>2022-08-10T22:40:18.366Z</time>
      </trkpt>
      <trkpt lat="47.66351" lon="-2.44104">
        <ele>100.21186509619</ele>
        <time>2022-08-10T22:40:36.133Z</time>
      </trkpt>
      <trkpt lat="47.66348" lon="-2.44099">
        <ele>100.61878575936</ele>
        <time>2022-08-10T22:40:53.901Z</time>
      </trkpt>
      <trkpt lat="47.66332" lon="-2.44091">
        <ele>100.97028747287</ele>
        <time>2022-08-10T22:41:11.672Z</time>
      </trkpt>
      <trkpt lat="47.66322" lon="-2.44087">
        <ele>101.28575517524</ele>
        <time>2022-08-10T22:41:29.444Z</time>
      </trkpt>
      <trkpt lat="47.66283" lon="-2.44082">
        <ele>101.56595544393</ele>
        <time>2022-08-10T22:41:47.222Z</time>
      </trkpt>
      <trkpt lat="47.6623" lon="-2.44074">
        <ele>101.7626673613</ele>
        <time>2022-08-10T22:42:05.009Z</time>
      </trkpt>
      <trkpt lat="47.66105" lon="-2.44054">
        <ele>101.96241505768</ele>
        <time>2022-08-10T22:42:22.816Z</time>
      </trkpt>
      <trkpt lat="47.66004" lon="-2.44039">
        <ele>102.00470041979</ele>
        <time>2022-08-10T22:42:40.639Z</time>
      </trkpt>
      <trkpt lat="47.65995" lon="-2.44038">
        <ele>101.78375738161</ele>
        <time>2022-08-10T22:42:58.464Z</time>
      </trkpt>
      <trkpt lat="47.65977" lon="-2.44042">
        <ele>101.39004617369</ele>
        <time>2022-08-10T22:43:16.292Z</time>
      </trkpt>
      <trkpt lat="47.65909" lon="-2.44057">
        <ele>100.89853148773</ele>
        <time>2022-08-10T22:43:34.131Z</time>
      </trkpt>
      <trkpt lat="47.65874" lon="-2.44065">
        <ele>100.13718277635</ele>
        <time>2022-08-10T22:43:51.975Z</time>
      </trkpt>
      <trkpt lat="47.65791" lon="-2.44084">
        <ele>99.05893096833</ele>
        <time>2022-08-10T22:44:09.833Z</time>
      </trkpt>
      <trkpt lat="47.65714" lon="-2.44103">
        <ele>97.58379970669</ele>
        <time>2022-08-10T22:44:27.703Z</time>
      </trkpt>
      <trkpt lat="47.6568" lon="-2.44116">
        <ele>96.03250552315</ele>
        <time>2022-08-10T22:44:45.579Z</time>
      </trkpt>
      <trkpt lat="47.65626" lon="-2.44141">
        <ele>94.21854493848</ele>
        <time>2022-08-10T22:45:03.464Z</time>
      </trkpt>
      <trkpt lat="47.6557" lon="-2.44171">
        <ele>92.27539972992</ele>
        <time>2022-08-10T22:45:21.359Z</time>
      </trkpt>
      <trkpt lat="47.65557" lon="-2.44174">
        <ele>90.37888509907</ele>
        <time>2022-08-10T22:45:39.256Z</time>
      </trkpt>
      <trkpt lat="47.6554" lon="-2.44174">
        <ele>88.39332276652</ele>
        <time>2022-08-10T22:45:57.155Z</time>
      </trkpt>
      <trkpt lat="47.65522" lon="-2.4417">
        <ele>86.39466952884</ele>
        <time>2022-08-10T22:46:15.057Z</time>
      </trkpt>
      <trkpt lat="47.6547" lon="-2.44149">
        <ele>84.37904719642</ele>
        <time>2022-08-10T22:46:32.968Z</time>
      </trkpt>
      <trkpt lat="47.65436" lon="-2.44133">
        <ele>82.42520506872</ele>
        <time>2022-08-10T22:46:50.885Z</time>
      </trkpt>
      <trkpt lat="47.65425" lon="-2.44123">
        <ele>80.61675432801</ele>
        <time>2022-08-10T22:47:08.804Z</time>
      </trkpt>
      <trkpt lat="47.6542" lon="-2.4412">
        <ele>78.93591299729</ele>
        <time>2022-08-10T22:47:26.724Z</time>
      </trkpt>
      <trkpt lat="47.65406" lon="-2.4412">
        <ele>77.35518644548</ele>
        <time>2022-08-10T22:47:44.646Z</time>
      </trkpt>
      <trkpt lat="47.65385" lon="-2.44122">
        <ele>75.91450819328</ele>
        <time>2022-08-10T22:48:02.571Z</time>
      </trkpt>
      <trkpt lat="47.6535" lon="-2.44004">
        <ele>74.6422935752</ele>
        <time>2022-08-10T22:48:20.510Z</time>
      </trkpt>
      <trkpt lat="47.6532" lon="-2.43918">
        <ele>73.55343534676</ele>
        <time>2022-08-10T22:48:38.460Z</time>
      </trkpt>
      <trkpt lat="47.65281" lon="-2.43833">
        <ele>72.72267709577</ele>
        <time>2022-08-10T22:48:56.421Z</time>
      </trkpt>
      <trkpt lat="47.65252" lon="-2.43776">
        <ele>72.10583249276</ele>
        <time>2022-08-10T22:49:14.389Z</time>
      </trkpt>
      <trkpt lat="47.65177" lon="-2.43634">
        <ele>71.84617949652</ele>
        <time>2022-08-10T22:49:32.377Z</time>
      </trkpt>
      <trkpt lat="47.65106" lon="-2.43499">
        <ele>72.16136844107</ele>
        <time>2022-08-10T22:49:50.383Z</time>
      </trkpt>
      <trkpt lat="47.65081" lon="-2.43451">
        <ele>72.57819734564</ele>
        <time>2022-08-10T22:50:08.396Z</time>
      </trkpt>
      <trkpt lat="47.6504" lon="-2.43365">
        <ele>73.26650784639</ele>
        <time>2022-08-10T22:50:26.420Z</time>
      </trkpt>
      <trkpt lat="47.65014" lon="-2.43306">
        <ele>73.93130736077</ele>
        <time>2022-08-10T22:50:44.452Z</time>
      </trkpt>
      <trkpt lat="47.64993" lon="-2.43245">
        <ele>74.5795731448</ele>
        <time>2022-08-10T22:51:02.491Z</time>
      </trkpt>
      <trkpt lat="47.64972" lon="-2.43167">
        <ele>75.2080568018</ele>
        <time>2022-08-10T22:51:20.540Z</time>
      </trkpt>
      <trkpt lat="47.64962" lon="-2.43114">
        <ele>75.99714672417</ele>
        <time>2022-08-10T22:51:38.594Z</time>
      </trkpt>
      <trkpt lat="47.6496" lon="-2.43079">
        <ele>76.80883249138</ele>
        <time>2022-08-10T22:51:56.652Z</time>
      </trkpt>
      <trkpt lat="47.64958" lon="-2.43011">
        <ele>77.63579836867</ele>
        <time>2022-08-10T22:52:14.718Z</time>
      </trkpt>
      <trkpt lat="47.64956" lon="-2.42916">
        <ele>78.6031798894</ele>
        <time>2022-08-10T22:52:32.794Z</time>
      </trkpt>
      <trkpt lat="47.64954" lon="-2.42863">
        <ele>79.57610115435</ele>
        <time>2022-08-10T22:52:50.876Z</time>
      </trkpt>
      <trkpt lat="47.6495" lon="-2.42841">
        <ele>80.53039266916</ele>
        <time>2022-08-10T22:53:08.960Z</time>
      </trkpt>
      <trkpt lat="47.64946" lon="-2.42829">
        <ele>81.48206519249</ele>
        <time>2022-08-10T22:53:27.046Z</time>
      </trkpt>
      <trkpt lat="47.64926" lon="-2.42796">
        <ele>82.45189810484</ele>
        <time>2022-08-10T22:53:45.136Z</time>
      </trkpt>
      <trkpt lat="47.64913" lon="-2.42772">
        <ele>83.43022526269</ele>
        <time>2022-08-10T22:54:03.230Z</time>
      </trkpt>
      <trkpt lat="47.64899" lon="-2.42722">
        <ele>84.40498992299</ele>
        <time>2022-08-10T22:54:21.330Z</time>
      </trkpt>
      <trkpt lat="47.64863" lon="-2.42596">
        <ele>85.45304846709</ele>
        <time>2022-08-10T22:54:39.444Z</time>
      </trkpt>
      <trkpt lat="47.64842" lon="-2.42522">
        <ele>86.40656030971</ele>
        <time>2022-08-10T22:54:57.567Z</time>
      </trkpt>
      <trkpt lat="47.64766" lon="-2.4224">
        <ele>87.03654940493</ele>
        <time>2022-08-10T22:55:15.723Z</time>
      </trkpt>
      <trkpt lat="47.64729" lon="-2.42103">
        <ele>87.72097871861</ele>
        <time>2022-08-10T22:55:33.895Z</time>
      </trkpt>
      <trkpt lat="47.64709" lon="-2.42021">
        <ele>88.42398821339</ele>
        <time>2022-08-10T22:55:52.076Z</time>
      </trkpt>
      <trkpt lat="47.64691" lon="-2.42018">
        <ele>89.1821716266</ele>
        <time>2022-08-10T22:56:10.260Z</time>
      </trkpt>
      <trkpt lat="47.64671" lon="-2.4201">
        <ele>89.93957849325</ele>
        <time>2022-08-10T22:56:28.447Z</time>
      </trkpt>
      <trkpt lat="47.64588" lon="-2.4197">
        <ele>90.78927405267</ele>
        <time>2022-08-10T22:56:46.648Z</time>
      </trkpt>
      <trkpt lat="47.64537" lon="-2.41944">
        <ele>91.51580203628</ele>
        <time>2022-08-10T22:57:04.858Z</time>
      </trkpt>
      <trkpt lat="47.64419" lon="-2.41879">
        <ele>92.02194394891</ele>
        <time>2022-08-10T22:57:23.088Z</time>
      </trkpt>
      <trkpt lat="47.64406" lon="-2.41875">
        <ele>92.47152583518</ele>
        <time>2022-08-10T22:57:41.320Z</time>
      </trkpt>
      <trkpt lat="47.64394" lon="-2.41873">
        <ele>92.76686466963</ele>
        <time>2022-08-10T22:57:59.554Z</time>
      </trkpt>
      <trkpt lat="47.64384" lon="-2.41876">
        <ele>92.9368514858</ele>
        <time>2022-08-10T22:58:17.790Z</time>
      </trkpt>
      <trkpt lat="47.64367" lon="-2.41887">
        <ele>92.97841603901</ele>
        <time>2022-08-10T22:58:36.029Z</time>
      </trkpt>
      <trkpt lat="47.64302" lon="-2.41933">
        <ele>92.94734759354</ele>
        <time>2022-08-10T22:58:54.279Z</time>
      </trkpt>
      <trkpt lat="47.64293" lon="-2.41938">
        <ele>92.66745585219</ele>
        <time>2022-08-10T22:59:12.531Z</time>
      </trkpt>
      <trkpt lat="47.64285" lon="-2.41941">
        <ele>92.22973428912</ele>
        <time>2022-08-10T22:59:30.784Z</time>
      </trkpt>
      <trkpt lat="47.64273" lon="-2.41942">
        <ele>91.63055123041</ele>
        <time>2022-08-10T22:59:49.039Z</time>
      </trkpt>
      <trkpt lat="47.64267" lon="-2.41942">
        <ele>90.89140166447</ele>
        <time>2022-08-10T23:00:07.295Z</time>
      </trkpt>
      <trkpt lat="47.64253" lon="-2.41938">
        <ele>90.00827112</ele>
        <time>2022-08-10T23:00:25.553Z</time>
      </trkpt>
      <trkpt lat="47.64215" lon="-2.41912">
        <ele>89.00627657923</ele>
        <time>2022-08-10T23:00:43.818Z</time>
      </trkpt>
      <trkpt lat="47.64107" lon="-2.41842">
        <ele>87.74771136724</ele>
        <time>2022-08-10T23:01:02.102Z</time>
      </trkpt>
      <trkpt lat="47.64092" lon="-2.41831">
        <ele>86.54790350719</ele>
        <time>2022-08-10T23:01:20.389Z</time>
      </trkpt>
      <trkpt lat="47.64084" lon="-2.4182">
        <ele>85.31827267413</ele>
        <time>2022-08-10T23:01:38.677Z</time>
      </trkpt>
      <trkpt lat="47.64079" lon="-2.41807">
        <ele>84.08650877905</ele>
        <time>2022-08-10T23:01:56.967Z</time>
      </trkpt>
      <trkpt lat="47.64076" lon="-2.41786">
        <ele>82.87183986843</ele>
        <time>2022-08-10T23:02:15.259Z</time>
      </trkpt>
      <trkpt lat="47.64076" lon="-2.41759">
        <ele>81.66412729098</ele>
        <time>2022-08-10T23:02:33.554Z</time>
      </trkpt>
      <trkpt lat="47.64083" lon="-2.41708">
        <ele>80.54974920897</ele>
        <time>2022-08-10T23:02:51.855Z</time>
      </trkpt>
      <trkpt lat="47.64089" lon="-2.41672">
        <ele>79.54124423454</ele>
        <time>2022-08-10T23:03:10.160Z</time>
      </trkpt>
      <trkpt lat="47.64092" lon="-2.4165">
        <ele>78.67123178432</ele>
        <time>2022-08-10T23:03:28.467Z</time>
      </trkpt>
      <trkpt lat="47.64097" lon="-2.41609">
        <ele>77.90772557043</ele>
        <time>2022-08-10T23:03:46.779Z</time>
      </trkpt>
      <trkpt lat="47.64099" lon="-2.41575">
        <ele>77.3533800988</ele>
        <time>2022-08-10T23:04:05.095Z</time>
      </trkpt>
      <trkpt lat="47.64095" lon="-2.41547">
        <ele>77.00450348227</ele>
        <time>2022-08-10T23:04:23.414Z</time>
      </trkpt>
      <trkpt lat="47.64088" lon="-2.41523">
        <ele>76.84403648003</ele>
        <time>2022-08-10T23:04:41.736Z</time>
      </trkpt>
      <trkpt lat="47.64068" lon="-2.41479">
        <ele>76.88225715996</ele>
        <time>2022-08-10T23:05:00.063Z</time>
      </trkpt>
      <trkpt lat="47.64037" lon="-2.41412">
        <ele>77.30695301237</ele>
        <time>2022-08-10T23:05:18.399Z</time>
      </trkpt>
      <trkpt lat="47.64027" lon="-2.4139">
        <ele>77.74533667231</ele>
        <time>2022-08-10T23:05:36.738Z</time>
      </trkpt>
      <trkpt lat="47.64022" lon="-2.41371">
        <ele>78.34877158596</ele>
        <time>2022-08-10T23:05:55.079Z</time>
      </trkpt>
      <trkpt lat="47.64022" lon="-2.41352">
        <ele>79.05594146246</ele>
        <time>2022-08-10T23:06:13.422Z</time>
      </trkpt>
      <trkpt lat="47.64023" lon="-2.41328">
        <ele>79.88855334806</ele>
        <time>2022-08-10T23:06:31.768Z</time>
      </trkpt>
      <trkpt lat="47.64025" lon="-2.4131">
        <ele>80.76995816998</ele>
        <time>2022-08-10T23:06:50.116Z</time>
      </trkpt>
      <trkpt lat="47.64014" lon="-2.41298">
        <ele>81.67878701031</ele>
        <time>2022-08-10T23:07:08.466Z</time>
      </trkpt>
      <trkpt lat="47.63998" lon="-2.41275">
        <ele>82.60943508739</ele>
        <time>2022-08-10T23:07:26.820Z</time>
      </trkpt>
      <trkpt lat="47.63987" lon="-2.41255">
        <ele>83.49421411621</ele>
        <time>2022-08-10T23:07:45.176Z</time>
      </trkpt>
      <trkpt lat="47.63967" lon="-2.41208">
        <ele>84.33503349258</ele>
        <time>2022-08-10T23:08:03.538Z</time>
      </trkpt>
      <trkpt lat="47.63954" lon="-2.4116">
        <ele>85.14751976252</ele>
        <time>2022-08-10T23:08:21.906Z</time>
      </trkpt>
      <trkpt lat="47.63918" lon="-2.41017">
        <ele>85.88045940244</ele>
        <time>2022-08-10T23:08:40.290Z</time>
      </trkpt>
      <trkpt lat="47.63874" lon="-2.40842">
        <ele>86.31187511249</ele>
        <time>2022-08-10T23:08:58.695Z</time>
      </trkpt>
      <trkpt lat="47.63846" lon="-2.40735">
        <ele>86.59143695765</ele>
        <time>2022-08-10T23:09:17.112Z</time>
      </trkpt>
      <trkpt lat="47.63816" lon="-2.4061">
        <ele>86.6996597086</ele>
        <time>2022-08-10T23:09:35.543Z</time>
      </trkpt>
      <trkpt lat="47.63766" lon="-2.40415">
        <ele>86.62956851165</ele>
        <time>2022-08-10T23:09:53.997Z</time>
      </trkpt>
      <trkpt lat="47.63711" lon="-2.40196">
        <ele>86.39000014815</ele>
        <time>2022-08-10T23:10:12.476Z</time>
      </trkpt>
      <trkpt lat="47.63687" lon="-2.40105">
        <ele>86.23183545461</ele>
        <time>2022-08-10T23:10:30.966Z</time>
      </trkpt>
      <trkpt lat="47.63686" lon="-2.40092">
        <ele>85.92686560672</ele>
        <time>2022-08-10T23:10:49.457Z</time>
      </trkpt>
      <trkpt lat="47.63672" lon="-2.40094">
        <ele>85.55263650082</ele>
        <time>2022-08-10T23:11:07.951Z</time>
      </trkpt>
      <trkpt lat="47.6365" lon="-2.40088">
        <ele>85.10442961815</ele>
        <time>2022-08-10T23:11:26.448Z</time>
      </trkpt>
      <trkpt lat="47.63627" lon="-2.40084">
        <ele>84.62090158878</ele>
        <time>2022-08-10T23:11:44.949Z</time>
      </trkpt>
      <trkpt lat="47.63613" lon="-2.40084">
        <ele>84.14250167992</ele>
        <time>2022-08-10T23:12:03.452Z</time>
      </trkpt>
      <trkpt lat="47.63607" lon="-2.40088">
        <ele>83.67041889973</ele>
        <time>2022-08-10T23:12:21.956Z</time>
      </trkpt>
      <trkpt lat="47.63602" lon="-2.40097">
        <ele>83.22846967865</ele>
        <time>2022-08-10T23:12:40.461Z</time>
      </trkpt>
      <trkpt lat="47.63596" lon="-2.40126">
        <ele>82.84576337408</ele>
        <time>2022-08-10T23:12:58.970Z</time>
      </trkpt>
      <trkpt lat="47.63597" lon="-2.40149">
        <ele>82.52079579129</ele>
        <time>2022-08-10T23:13:17.481Z</time>
      </trkpt>
      <trkpt lat="47.63598" lon="-2.40191">
        <ele>82.24361773451</ele>
        <time>2022-08-10T23:13:35.997Z</time>
      </trkpt>
      <trkpt lat="47.63604" lon="-2.40216">
        <ele>82.05555562218</ele>
        <time>2022-08-10T23:13:54.516Z</time>
      </trkpt>
      <trkpt lat="47.63608" lon="-2.4023">
        <ele>81.94177986008</ele>
        <time>2022-08-10T23:14:13.036Z</time>
      </trkpt>
      <trkpt lat="47.63608" lon="-2.40247">
        <ele>81.90117844523</ele>
        <time>2022-08-10T23:14:31.558Z</time>
      </trkpt>
      <trkpt lat="47.63602" lon="-2.40266">
        <ele>81.95622199715</ele>
        <time>2022-08-10T23:14:50.082Z</time>
      </trkpt>
      <trkpt lat="47.63589" lon="-2.40291">
        <ele>82.10735290586</ele>
        <time>2022-08-10T23:15:08.610Z</time>
      </trkpt>
      <trkpt lat="47.63574" lon="-2.40319">
        <ele>82.324642431</ele>
        <time>2022-08-10T23:15:27.142Z</time>
      </trkpt>
      <trkpt lat="47.63558" lon="-2.40351">
        <ele>82.56827626307</ele>
        <time>2022-08-10T23:15:45.678Z</time>
      </trkpt>
      <trkpt lat="47.63546" lon="-2.40381">
        <ele>82.88530686375</ele>
        <time>2022-08-10T23:16:04.218Z</time>
      </trkpt>
      <trkpt lat="47.6354" lon="-2.40406">
        <ele>83.26315327839</ele>
        <time>2022-08-10T23:16:22.761Z</time>
      </trkpt>
      <trkpt lat="47.63531" lon="-2.40441">
        <ele>83.69098760114</ele>
        <time>2022-08-10T23:16:41.308Z</time>
      </trkpt>
      <trkpt lat="47.63526" lon="-2.40483">
        <ele>84.16704695268</ele>
        <time>2022-08-10T23:16:59.859Z</time>
      </trkpt>
      <trkpt lat="47.63534" lon="-2.4044">
        <ele>84.54676543441</ele>
        <time>2022-08-10T23:17:18.415Z</time>
      </trkpt>
      <trkpt lat="47.63532" lon="-2.40438">
        <ele>84.99380579104</ele>
        <time>2022-08-10T23:17:36.972Z</time>
      </trkpt>
      <trkpt lat="47.63525" lon="-2.40499">
        <ele>85.52687989825</ele>
        <time>2022-08-10T23:17:55.535Z</time>
      </trkpt>
      <trkpt lat="47.63523" lon="-2.40526">
        <ele>86.00395113451</ele>
        <time>2022-08-10T23:18:14.101Z</time>
      </trkpt>
      <trkpt lat="47.63521" lon="-2.40533">
        <ele>86.42889504651</ele>
        <time>2022-08-10T23:18:32.668Z</time>
      </trkpt>
      <trkpt lat="47.63516" lon="-2.4054">
        <ele>86.83090176649</ele>
        <time>2022-08-10T23:18:51.236Z</time>
      </trkpt>
      <trkpt lat="47.63509" lon="-2.40548">
        <ele>87.20509796599</ele>
        <time>2022-08-10T23:19:09.805Z</time>
      </trkpt>
      <trkpt lat="47.63496" lon="-2.40555">
        <ele>87.55066054287</ele>
        <time>2022-08-10T23:19:28.377Z</time>
      </trkpt>
      <trkpt lat="47.63471" lon="-2.40569">
        <ele>87.86495073019</ele>
        <time>2022-08-10T23:19:46.953Z</time>
      </trkpt>
      <trkpt lat="47.63436" lon="-2.40585">
        <ele>88.06074180387</ele>
        <time>2022-08-10T23:20:05.535Z</time>
      </trkpt>
      <trkpt lat="47.63392" lon="-2.40617">
        <ele>88.12306026924</ele>
        <time>2022-08-10T23:20:24.125Z</time>
      </trkpt>
      <trkpt lat="47.63355" lon="-2.40641">
        <ele>88.35349842048</ele>
        <time>2022-08-10T23:20:42.721Z</time>
      </trkpt>
      <trkpt lat="47.63294" lon="-2.40679">
        <ele>88.71654103458</ele>
        <time>2022-08-10T23:21:01.328Z</time>
      </trkpt>
      <trkpt lat="47.63285" lon="-2.40687">
        <ele>88.88025371425</ele>
        <time>2022-08-10T23:21:19.936Z</time>
      </trkpt>
      <trkpt lat="47.63271" lon="-2.40709">
        <ele>89.005809525</ele>
        <time>2022-08-10T23:21:38.548Z</time>
      </trkpt>
      <trkpt lat="47.63266" lon="-2.40712">
        <ele>89.02368807819</ele>
        <time>2022-08-10T23:21:57.161Z</time>
      </trkpt>
      <trkpt lat="47.6326" lon="-2.40712">
        <ele>88.96937689008</ele>
        <time>2022-08-10T23:22:15.775Z</time>
      </trkpt>
      <trkpt lat="47.63256" lon="-2.40683">
        <ele>88.83655232756</ele>
        <time>2022-08-10T23:22:34.392Z</time>
      </trkpt>
      <trkpt lat="47.63234" lon="-2.40614">
        <ele>88.57839788628</ele>
        <time>2022-08-10T23:22:53.017Z</time>
      </trkpt>
      <trkpt lat="47.63207" lon="-2.40519">
        <ele>88.37423782481</ele>
        <time>2022-08-10T23:23:11.653Z</time>
      </trkpt>
      <trkpt lat="47.63172" lon="-2.40392">
        <ele>87.99415943301</ele>
        <time>2022-08-10T23:23:30.304Z</time>
      </trkpt>
      <trkpt lat="47.63151" lon="-2.40316">
        <ele>87.53213206322</ele>
        <time>2022-08-10T23:23:48.964Z</time>
      </trkpt>
      <trkpt lat="47.63121" lon="-2.40342">
        <ele>86.9832821455</ele>
        <time>2022-08-10T23:24:07.629Z</time>
      </trkpt>
      <trkpt lat="47.63035" lon="-2.40423">
        <ele>86.17830010426</ele>
        <time>2022-08-10T23:24:26.311Z</time>
      </trkpt>
      <trkpt lat="47.62953" lon="-2.405">
        <ele>85.5137171316</ele>
        <time>2022-08-10T23:24:45.008Z</time>
      </trkpt>
      <trkpt lat="47.62911" lon="-2.40538">
        <ele>84.81095354805</ele>
        <time>2022-08-10T23:25:03.713Z</time>
      </trkpt>
      <trkpt lat="47.62894" lon="-2.40551">
        <ele>84.18905204304</ele>
        <time>2022-08-10T23:25:22.421Z</time>
      </trkpt>
      <trkpt lat="47.62888" lon="-2.40553">
        <ele>83.58972760138</ele>
        <time>2022-08-10T23:25:41.130Z</time>
      </trkpt>
      <trkpt lat="47.62836" lon="-2.40552">
        <ele>82.95141785261</ele>
        <time>2022-08-10T23:25:59.848Z</time>
      </trkpt>
      <trkpt lat="47.62746" lon="-2.40547">
        <ele>82.36945063693</ele>
        <time>2022-08-10T23:26:18.580Z</time>
      </trkpt>
      <trkpt lat="47.62638" lon="-2.40543">
        <ele>82.11777432856</ele>
        <time>2022-08-10T23:26:37.329Z</time>
      </trkpt>
      <trkpt lat="47.62623" lon="-2.40543">
        <ele>81.62429053046</ele>
        <time>2022-08-10T23:26:56.081Z</time>
      </trkpt>
      <trkpt lat="47.6261" lon="-2.40539">
        <ele>81.12423204143</ele>
        <time>2022-08-10T23:27:14.835Z</time>
      </trkpt>
      <trkpt lat="47.62604" lon="-2.40533">
        <ele>80.61648525808</ele>
        <time>2022-08-10T23:27:33.590Z</time>
      </trkpt>
      <trkpt lat="47.62588" lon="-2.4053">
        <ele>80.09957697496</ele>
        <time>2022-08-10T23:27:52.348Z</time>
      </trkpt>
      <trkpt lat="47.62551" lon="-2.40522">
        <ele>79.59692080356</ele>
        <time>2022-08-10T23:28:11.112Z</time>
      </trkpt>
      <trkpt lat="47.62516" lon="-2.40522">
        <ele>79.09127750322</ele>
        <time>2022-08-10T23:28:29.881Z</time>
      </trkpt>
      <trkpt lat="47.62354" lon="-2.40541">
        <ele>78.4531438869</ele>
        <time>2022-08-10T23:28:48.676Z</time>
      </trkpt>
      <trkpt lat="47.62275" lon="-2.40552">
        <ele>77.94998509158</ele>
        <time>2022-08-10T23:29:07.484Z</time>
      </trkpt>
      <trkpt lat="47.6225" lon="-2.40554">
        <ele>77.52853585557</ele>
        <time>2022-08-10T23:29:26.296Z</time>
      </trkpt>
      <trkpt lat="47.62247" lon="-2.40553">
        <ele>77.13512296413</ele>
        <time>2022-08-10T23:29:45.108Z</time>
      </trkpt>
      <trkpt lat="47.62242" lon="-2.40573">
        <ele>76.79559960391</ele>
        <time>2022-08-10T23:30:03.923Z</time>
      </trkpt>
      <trkpt lat="47.62235" lon="-2.40609">
        <ele>76.50121311686</ele>
        <time>2022-08-10T23:30:22.742Z</time>
      </trkpt>
      <trkpt lat="47.6223" lon="-2.40631">
        <ele>76.21929225954</ele>
        <time>2022-08-10T23:30:41.563Z</time>
      </trkpt>
      <trkpt lat="47.62225" lon="-2.40654">
        <ele>75.93994858687</ele>
        <time>2022-08-10T23:31:00.387Z</time>
      </trkpt>
      <trkpt lat="47.62203" lon="-2.4069">
        <ele>75.65573636138</ele>
        <time>2022-08-10T23:31:19.216Z</time>
      </trkpt>
      <trkpt lat="47.62188" lon="-2.40704">
        <ele>75.41379245808</ele>
        <time>2022-08-10T23:31:38.048Z</time>
      </trkpt>
      <trkpt lat="47.62172" lon="-2.40711">
        <ele>75.1873738743</ele>
        <time>2022-08-10T23:31:56.883Z</time>
      </trkpt>
      <trkpt lat="47.62153" lon="-2.40716">
        <ele>74.99944024904</ele>
        <time>2022-08-10T23:32:15.721Z</time>
      </trkpt>
      <trkpt lat="47.62092" lon="-2.40726">
        <ele>74.79985365007</ele>
        <time>2022-08-10T23:32:34.569Z</time>
      </trkpt>
      <trkpt lat="47.62069" lon="-2.40735">
        <ele>74.63823580723</ele>
        <time>2022-08-10T23:32:53.420Z</time>
      </trkpt>
      <trkpt lat="47.62063" lon="-2.40737">
        <ele>74.49336907882</ele>
        <time>2022-08-10T23:33:12.272Z</time>
      </trkpt>
      <trkpt lat="47.62032" lon="-2.40769">
        <ele>74.38882349106</ele>
        <time>2022-08-10T23:33:31.130Z</time>
      </trkpt>
      <trkpt lat="47.61962" lon="-2.40873">
        <ele>74.19058232265</ele>
        <time>2022-08-10T23:33:50.004Z</time>
      </trkpt>
      <trkpt lat="47.61844" lon="-2.4105">
        <ele>74.07300556194</ele>
        <time>2022-08-10T23:34:08.905Z</time>
      </trkpt>
      <trkpt lat="47.61682" lon="-2.41289">
        <ele>73.77125141399</ele>
        <time>2022-08-10T23:34:27.843Z</time>
      </trkpt>
      <trkpt lat="47.61521" lon="-2.41528">
        <ele>73.52920080505</ele>
        <time>2022-08-10T23:34:46.817Z</time>
      </trkpt>
      <trkpt lat="47.6146" lon="-2.41618">
        <ele>73.52360051455</ele>
        <time>2022-08-10T23:35:05.805Z</time>
      </trkpt>
      <trkpt lat="47.61407" lon="-2.41697">
        <ele>73.40676834365</ele>
        <time>2022-08-10T23:35:24.805Z</time>
      </trkpt>
      <trkpt lat="47.61387" lon="-2.41734">
        <ele>73.14307284414</ele>
        <time>2022-08-10T23:35:43.810Z</time>
      </trkpt>
      <trkpt lat="47.6135" lon="-2.4181">
        <ele>72.87255071074</ele>
        <time>2022-08-10T23:36:02.825Z</time>
      </trkpt>
      <trkpt lat="47.61268" lon="-2.42037">
        <ele>72.52771828091</ele>
        <time>2022-08-10T23:36:21.868Z</time>
      </trkpt>
      <trkpt lat="47.61225" lon="-2.42153">
        <ele>72.07971531145</ele>
        <time>2022-08-10T23:36:40.926Z</time>
      </trkpt>
      <trkpt lat="47.61197" lon="-2.42216">
        <ele>71.54539890251</ele>
        <time>2022-08-10T23:36:59.992Z</time>
      </trkpt>
      <trkpt lat="47.61061" lon="-2.42455">
        <ele>70.68157653235</ele>
        <time>2022-08-10T23:37:19.092Z</time>
      </trkpt>
      <trkpt lat="47.61048" lon="-2.42478">
        <ele>70.1345201888</ele>
        <time>2022-08-10T23:37:38.195Z</time>
      </trkpt>
      <trkpt lat="47.60962" lon="-2.42626">
        <ele>69.4526790079</ele>
        <time>2022-08-10T23:37:57.319Z</time>
      </trkpt>
      <trkpt lat="47.60922" lon="-2.42696">
        <ele>68.83599875226</ele>
        <time>2022-08-10T23:38:16.453Z</time>
      </trkpt>
      <trkpt lat="47.6088" lon="-2.42778">
        <ele>68.29779313045</ele>
        <time>2022-08-10T23:38:35.598Z</time>
      </trkpt>
      <trkpt lat="47.60835" lon="-2.42891">
        <ele>67.78505682042</ele>
        <time>2022-08-10T23:38:54.757Z</time>
      </trkpt>
      <trkpt lat="47.60807" lon="-2.42969">
        <ele>67.17780513872</ele>
        <time>2022-08-10T23:39:13.926Z</time>
      </trkpt>
      <trkpt lat="47.60759" lon="-2.43097">
        <ele>66.60193555343</ele>
        <time>2022-08-10T23:39:33.111Z</time>
      </trkpt>
      <trkpt lat="47.60722" lon="-2.43177">
        <ele>66.06664610532</ele>
        <time>2022-08-10T23:39:52.306Z</time>
      </trkpt>
      <trkpt lat="47.6061" lon="-2.43394">
        <ele>65.44524651751</ele>
        <time>2022-08-10T23:40:11.531Z</time>
      </trkpt>
      <trkpt lat="47.60534" lon="-2.43544">
        <ele>64.88218628697</ele>
        <time>2022-08-10T23:40:30.776Z</time>
      </trkpt>
      <trkpt lat="47.60443" lon="-2.43722">
        <ele>64.19984367514</ele>
        <time>2022-08-10T23:40:50.045Z</time>
      </trkpt>
      <trkpt lat="47.60421" lon="-2.43763">
        <ele>63.42871112711</ele>
        <time>2022-08-10T23:41:09.320Z</time>
      </trkpt>
      <trkpt lat="47.60385" lon="-2.43824">
        <ele>62.60615629181</ele>
        <time>2022-08-10T23:41:28.604Z</time>
      </trkpt>
      <trkpt lat="47.60337" lon="-2.43902">
        <ele>61.78701311986</ele>
        <time>2022-08-10T23:41:47.899Z</time>
      </trkpt>
      <trkpt lat="47.60295" lon="-2.43972">
        <ele>61.08254447192</ele>
        <time>2022-08-10T23:42:07.204Z</time>
      </trkpt>
      <trkpt lat="47.60241" lon="-2.44058">
        <ele>60.22572347902</ele>
        <time>2022-08-10T23:42:26.522Z</time>
      </trkpt>
      <trkpt lat="47.60225" lon="-2.44089">
        <ele>59.39023311705</ele>
        <time>2022-08-10T23:42:45.844Z</time>
      </trkpt>
      <trkpt lat="47.60195" lon="-2.44145">
        <ele>58.5597989052</ele>
        <time>2022-08-10T23:43:05.174Z</time>
      </trkpt>
      <trkpt lat="47.60162" lon="-2.44217">
        <ele>57.58519050398</ele>
        <time>2022-08-10T23:43:24.513Z</time>
      </trkpt>
      <trkpt lat="47.60147" lon="-2.4425">
        <ele>56.72253232985</ele>
        <time>2022-08-10T23:43:43.857Z</time>
      </trkpt>
      <trkpt lat="47.60092" lon="-2.44408">
        <ele>55.87787359392</ele>
        <time>2022-08-10T23:44:03.220Z</time>
      </trkpt>
      <trkpt lat="47.60017" lon="-2.44625">
        <ele>54.88056616652</ele>
        <time>2022-08-10T23:44:22.609Z</time>
      </trkpt>
      <trkpt lat="47.59991" lon="-2.44686">
        <ele>54.14966853613</ele>
        <time>2022-08-10T23:44:42.006Z</time>
      </trkpt>
      <trkpt lat="47.59976" lon="-2.44715">
        <ele>53.56279328925</ele>
        <time>2022-08-10T23:45:01.407Z</time>
      </trkpt>
      <trkpt lat="47.59942" lon="-2.44763">
        <ele>52.92496215047</ele>
        <time>2022-08-10T23:45:20.815Z</time>
      </trkpt>
      <trkpt lat="47.59906" lon="-2.44811">
        <ele>52.56069180344</ele>
        <time>2022-08-10T23:45:40.231Z</time>
      </trkpt>
      <trkpt lat="47.59888" lon="-2.44833">
        <ele>52.28616966448</ele>
        <time>2022-08-10T23:45:59.651Z</time>
      </trkpt>
      <trkpt lat="47.59849" lon="-2.44878">
        <ele>52.15840179905</ele>
        <time>2022-08-10T23:46:19.079Z</time>
      </trkpt>
      <trkpt lat="47.59805" lon="-2.44924">
        <ele>52.10832687712</ele>
        <time>2022-08-10T23:46:38.515Z</time>
      </trkpt>
      <trkpt lat="47.59728" lon="-2.44993">
        <ele>52.10959749187</ele>
        <time>2022-08-10T23:46:57.966Z</time>
      </trkpt>
      <trkpt lat="47.59594" lon="-2.45107">
        <ele>52.1099085904</ele>
        <time>2022-08-10T23:47:17.442Z</time>
      </trkpt>
      <trkpt lat="47.59471" lon="-2.45218">
        <ele>51.82239354779</ele>
        <time>2022-08-10T23:47:36.941Z</time>
      </trkpt>
      <trkpt lat="47.59388" lon="-2.45304">
        <ele>51.581102065</ele>
        <time>2022-08-10T23:47:56.456Z</time>
      </trkpt>
      <trkpt lat="47.59292" lon="-2.45411">
        <ele>51.42242090422</ele>
        <time>2022-08-10T23:48:15.990Z</time>
      </trkpt>
      <trkpt lat="47.59279" lon="-2.45424">
        <ele>51.33227281132</ele>
        <time>2022-08-10T23:48:35.527Z</time>
      </trkpt>
      <trkpt lat="47.59262" lon="-2.45447">
        <ele>51.25097781038</ele>
        <time>2022-08-10T23:48:55.067Z</time>
      </trkpt>
      <trkpt lat="47.59245" lon="-2.45468">
        <ele>51.2426737651</ele>
        <time>2022-08-10T23:49:14.611Z</time>
      </trkpt>
      <trkpt lat="47.59236" lon="-2.45477">
        <ele>51.26834013864</ele>
        <time>2022-08-10T23:49:34.157Z</time>
      </trkpt>
      <trkpt lat="47.59232" lon="-2.45481">
        <ele>51.32561830673</ele>
        <time>2022-08-10T23:49:53.703Z</time>
      </trkpt>
      <trkpt lat="47.59236" lon="-2.45477">
        <ele>51.26834013864</ele>
        <time>2022-08-10T23:50:13.250Z</time>
      </trkpt>
      <trkpt lat="47.59236" lon="-2.45477">
        <ele>51.53093015443</ele>
        <time>2022-08-10T23:50:32.797Z</time>
      </trkpt>
      <trkpt lat="47.59189" lon="-2.45535">
        <ele>51.64270245167</ele>
        <time>2022-08-10T23:50:52.354Z</time>
      </trkpt>
      <trkpt lat="47.5918" lon="-2.45545">
        <ele>51.8054395769</ele>
        <time>2022-08-10T23:51:11.913Z</time>
      </trkpt>
      <trkpt lat="47.59171" lon="-2.45548">
        <ele>51.96154857117</ele>
        <time>2022-08-10T23:51:31.473Z</time>
      </trkpt>
      <trkpt lat="47.59169" lon="-2.45556">
        <ele>52.11879846446</ele>
        <time>2022-08-10T23:51:51.034Z</time>
      </trkpt>
      <trkpt lat="47.59165" lon="-2.45571">
        <ele>52.24808749147</ele>
        <time>2022-08-10T23:52:10.597Z</time>
      </trkpt>
      <trkpt lat="47.59163" lon="-2.45583">
        <ele>52.36063589234</ele>
        <time>2022-08-10T23:52:30.161Z</time>
      </trkpt>
      <trkpt lat="47.59163" lon="-2.45619">
        <ele>52.45990116491</ele>
        <time>2022-08-10T23:52:49.729Z</time>
      </trkpt>
      <trkpt lat="47.59157" lon="-2.4563">
        <ele>52.4991935558</ele>
        <time>2022-08-10T23:53:09.299Z</time>
      </trkpt>
      <trkpt lat="47.59152" lon="-2.45648">
        <ele>52.46629952404</ele>
        <time>2022-08-10T23:53:28.871Z</time>
      </trkpt>
      <trkpt lat="47.59152" lon="-2.45665">
        <ele>52.34391493229</ele>
        <time>2022-08-10T23:53:48.445Z</time>
      </trkpt>
      <trkpt lat="47.59149" lon="-2.4567">
        <ele>52.14079796905</ele>
        <time>2022-08-10T23:54:08.019Z</time>
      </trkpt>
      <trkpt lat="47.59149" lon="-2.45669">
        <ele>51.83104518352</ele>
        <time>2022-08-10T23:54:27.594Z</time>
      </trkpt>
      <trkpt lat="47.59118" lon="-2.45682">
        <ele>51.38311353796</ele>
        <time>2022-08-10T23:54:47.174Z</time>
      </trkpt>
      <trkpt lat="47.59111" lon="-2.45679">
        <ele>50.86634596847</ele>
        <time>2022-08-10T23:55:06.755Z</time>
      </trkpt>
      <trkpt lat="47.59093" lon="-2.45647">
        <ele>50.23856903718</ele>
        <time>2022-08-10T23:55:26.340Z</time>
      </trkpt>
      <trkpt lat="47.59072" lon="-2.45607">
        <ele>49.4679613708</ele>
        <time>2022-08-10T23:55:45.931Z</time>
      </trkpt>
      <trkpt lat="47.59069" lon="-2.45601">
        <ele>48.68609916205</ele>
        <time>2022-08-10T23:56:05.523Z</time>
      </trkpt>
      <trkpt lat="47.59072" lon="-2.45607">
        <ele>49.4679613708</ele>
        <time>2022-08-10T23:56:25.115Z</time>
      </trkpt>
      <trkpt lat="47.59072" lon="-2.45607">
        <ele>46.85374123453</ele>
        <time>2022-08-10T23:56:44.708Z</time>
      </trkpt>
      <trkpt lat="47.59062" lon="-2.45593">
        <ele>45.7823912783</ele>
        <time>2022-08-10T23:57:04.303Z</time>
      </trkpt>
      <trkpt lat="47.59044" lon="-2.45582">
        <ele>44.63721024129</ele>
        <time>2022-08-10T23:57:23.901Z</time>
      </trkpt>
      <trkpt lat="47.58997" lon="-2.45561">
        <ele>43.47545117365</ele>
        <time>2022-08-10T23:57:43.507Z</time>
      </trkpt>
      <trkpt lat="47.58955" lon="-2.45545">
        <ele>42.41940210388</ele>
        <time>2022-08-10T23:58:03.120Z</time>
      </trkpt>
      <trkpt lat="47.58906" lon="-2.45532">
        <ele>41.38963158601</ele>
        <time>2022-08-10T23:58:22.741Z</time>
      </trkpt>
      <trkpt lat="47.58891" lon="-2.45531">
        <ele>40.4614082591</ele>
        <time>2022-08-10T23:58:42.364Z</time>
      </trkpt>
      <trkpt lat="47.58852" lon="-2.45534">
        <ele>39.56809482293</ele>
        <time>2022-08-10T23:59:01.993Z</time>
      </trkpt>
      <trkpt lat="47.58777" lon="-2.45541">
        <ele>38.75377847082</ele>
        <time>2022-08-10T23:59:21.634Z</time>
      </trkpt>
      <trkpt lat="47.58733" lon="-2.45545">
        <ele>38.25345491162</ele>
        <time>2022-08-10T23:59:41.282Z</time>
      </trkpt>
      <trkpt lat="47.58699" lon="-2.45549">
        <ele>37.96722909541</ele>
        <time>2022-08-11T00:00:00.936Z</time>
      </trkpt>
      <trkpt lat="47.5866" lon="-2.45554">
        <ele>37.95290043512</ele>
        <time>2022-08-11T00:00:20.596Z</time>
      </trkpt>
      <trkpt lat="47.58624" lon="-2.45567">
        <ele>38.38108700052</ele>
        <time>2022-08-11T00:00:40.262Z</time>
      </trkpt>
      <trkpt lat="47.58577" lon="-2.45593">
        <ele>39.05361153096</ele>
        <time>2022-08-11T00:00:59.936Z</time>
      </trkpt>
      <trkpt lat="47.58569" lon="-2.45599">
        <ele>39.63389774142</ele>
        <time>2022-08-11T00:01:19.611Z</time>
      </trkpt>
      <trkpt lat="47.58527" lon="-2.45642">
        <ele>40.44529096545</ele>
        <time>2022-08-11T00:01:39.295Z</time>
      </trkpt>
      <trkpt lat="47.58473" lon="-2.45708">
        <ele>41.33144399715</ele>
        <time>2022-08-11T00:01:58.990Z</time>
      </trkpt>
      <trkpt lat="47.5839" lon="-2.4581">
        <ele>41.99494767805</ele>
        <time>2022-08-11T00:02:18.702Z</time>
      </trkpt>
      <trkpt lat="47.5835" lon="-2.45855">
        <ele>42.84054156204</ele>
        <time>2022-08-11T00:02:38.422Z</time>
      </trkpt>
      <trkpt lat="47.58322" lon="-2.45882">
        <ele>43.58729136064</ele>
        <time>2022-08-11T00:02:58.148Z</time>
      </trkpt>
      <trkpt lat="47.58285" lon="-2.45914">
        <ele>44.20852212898</ele>
        <time>2022-08-11T00:03:17.880Z</time>
      </trkpt>
      <trkpt lat="47.5822" lon="-2.45969">
        <ele>44.85955423002</ele>
        <time>2022-08-11T00:03:37.624Z</time>
      </trkpt>
      <trkpt lat="47.58117" lon="-2.46055">
        <ele>45.29115456895</ele>
        <time>2022-08-11T00:03:57.387Z</time>
      </trkpt>
      <trkpt lat="47.58056" lon="-2.46109">
        <ele>46.31335156407</ele>
        <time>2022-08-11T00:04:17.162Z</time>
      </trkpt>
      <trkpt lat="47.58033" lon="-2.46133">
        <ele>47.22071499746</ele>
        <time>2022-08-11T00:04:36.941Z</time>
      </trkpt>
      <trkpt lat="47.57994" lon="-2.46183">
        <ele>48.13619541665</ele>
        <time>2022-08-11T00:04:56.729Z</time>
      </trkpt>
      <trkpt lat="47.57983" lon="-2.46201">
        <ele>49.03413178912</ele>
        <time>2022-08-11T00:05:16.519Z</time>
      </trkpt>
      <trkpt lat="47.57966" lon="-2.46236">
        <ele>49.84469831497</ele>
        <time>2022-08-11T00:05:36.314Z</time>
      </trkpt>
      <trkpt lat="47.579" lon="-2.46364">
        <ele>50.75847066967</ele>
        <time>2022-08-11T00:05:56.126Z</time>
      </trkpt>
      <trkpt lat="47.57867" lon="-2.46423">
        <ele>50.87040774633</ele>
        <time>2022-08-11T00:06:15.947Z</time>
      </trkpt>
      <trkpt lat="47.5785" lon="-2.46452">
        <ele>50.81024668551</ele>
        <time>2022-08-11T00:06:35.772Z</time>
      </trkpt>
      <trkpt lat="47.57818" lon="-2.46497">
        <ele>50.63249922894</ele>
        <time>2022-08-11T00:06:55.604Z</time>
      </trkpt>
      <trkpt lat="47.57754" lon="-2.46575">
        <ele>50.32114900633</ele>
        <time>2022-08-11T00:07:15.449Z</time>
      </trkpt>
      <trkpt lat="47.57715" lon="-2.46608">
        <ele>49.83964800615</ele>
        <time>2022-08-11T00:07:35.301Z</time>
      </trkpt>
      <trkpt lat="47.57575" lon="-2.46731">
        <ele>48.89079698428</ele>
        <time>2022-08-11T00:07:55.179Z</time>
      </trkpt>
      <trkpt lat="47.57542" lon="-2.46768">
        <ele>48.27309309375</ele>
        <time>2022-08-11T00:08:15.064Z</time>
      </trkpt>
      <trkpt lat="47.57497" lon="-2.46829">
        <ele>47.48318292746</ele>
        <time>2022-08-11T00:08:34.959Z</time>
      </trkpt>
      <trkpt lat="47.5741" lon="-2.46943">
        <ele>46.34937588144</ele>
        <time>2022-08-11T00:08:54.872Z</time>
      </trkpt>
      <trkpt lat="47.57381" lon="-2.46984">
        <ele>44.98908208735</ele>
        <time>2022-08-11T00:09:14.792Z</time>
      </trkpt>
      <trkpt lat="47.573" lon="-2.47094">
        <ele>43.38115948858</ele>
        <time>2022-08-11T00:09:34.729Z</time>
      </trkpt>
      <trkpt lat="47.5725" lon="-2.47159">
        <ele>41.51047830238</ele>
        <time>2022-08-11T00:09:54.677Z</time>
      </trkpt>
      <trkpt lat="47.57237" lon="-2.47177">
        <ele>39.89213124825</ele>
        <time>2022-08-11T00:10:14.628Z</time>
      </trkpt>
      <trkpt lat="47.57167" lon="-2.4727">
        <ele>38.09533188102</ele>
        <time>2022-08-11T00:10:34.594Z</time>
      </trkpt>
      <trkpt lat="47.57101" lon="-2.47356">
        <ele>36.32659135892</ele>
        <time>2022-08-11T00:10:54.574Z</time>
      </trkpt>
      <trkpt lat="47.5709" lon="-2.47367">
        <ele>34.78212621344</ele>
        <time>2022-08-11T00:11:14.556Z</time>
      </trkpt>
      <trkpt lat="47.57069" lon="-2.47385">
        <ele>33.28601319716</ele>
        <time>2022-08-11T00:11:34.542Z</time>
      </trkpt>
      <trkpt lat="47.5702" lon="-2.47419">
        <ele>31.86950593518</ele>
        <time>2022-08-11T00:11:54.537Z</time>
      </trkpt>
      <trkpt lat="47.57003" lon="-2.47428">
        <ele>30.84237189765</ele>
        <time>2022-08-11T00:12:14.535Z</time>
      </trkpt>
      <trkpt lat="47.56921" lon="-2.47481">
        <ele>29.99592234936</ele>
        <time>2022-08-11T00:12:34.547Z</time>
      </trkpt>
      <trkpt lat="47.56882" lon="-2.47507">
        <ele>29.28200781954</ele>
        <time>2022-08-11T00:12:54.566Z</time>
      </trkpt>
    </trkseg>
  </trk>
</gpx>